﻿<?xml version="1.0" encoding="utf-8"?><gpx version="1.1" creator="izvne.com" xmlns="http://www.topografix.com/GPX/1/1"><trk><name>jordan-overview</name><trkseg><trkpt lat="29.55473852" lon="34.9536361"><ele>15.7</ele><time>2015-11-19T12:10:39.0000000+00:00</time></trkpt><trkpt lat="29.5548433" lon="34.95359754"><ele>16.0</ele><time>2015-11-19T12:12:03.0000000+00:00</time></trkpt><trkpt lat="29.55473718" lon="34.95359964"><ele>15.8</ele><time>2015-11-19T12:12:11.0000000+00:00</time></trkpt><trkpt lat="29.55443652" lon="34.95476774"><ele>9.6</ele><time>2015-11-19T12:12:53.0000000+00:00</time></trkpt><trkpt lat="29.55524102" lon="34.95501157"><ele>12.7</ele><time>2015-11-19T12:13:16.0000000+00:00</time></trkpt><trkpt lat="29.55799724" lon="34.95669633"><ele>11.4</ele><time>2015-11-19T12:14:23.0000000+00:00</time></trkpt><trkpt lat="29.560285" lon="34.95823936"><ele>9.3</ele><time>2015-11-19T12:15:21.0000000+00:00</time></trkpt><trkpt lat="29.56312965" lon="34.96054069"><ele>7.2</ele><time>2015-11-19T12:16:33.0000000+00:00</time></trkpt><trkpt lat="29.56760659" lon="34.96349908"><ele>12.9</ele><time>2015-11-19T12:18:36.0000000+00:00</time></trkpt><trkpt lat="29.56958539" lon="34.96462578"><ele>19.0</ele><time>2015-11-19T12:19:39.0000000+00:00</time></trkpt><trkpt lat="29.56982989" lon="34.96463559"><ele>19.4</ele><time>2015-11-19T12:19:47.0000000+00:00</time></trkpt><trkpt lat="29.57183467" lon="34.96588558"><ele>13.9</ele><time>2015-11-19T12:20:47.0000000+00:00</time></trkpt><trkpt lat="29.57748592" lon="34.96767453"><ele>32.0</ele><time>2015-11-19T12:23:28.0000000+00:00</time></trkpt><trkpt lat="29.57782136" lon="34.96793169"><ele>33.1</ele><time>2015-11-19T12:23:42.0000000+00:00</time></trkpt><trkpt lat="29.57901645" lon="34.96817627"><ele>41.3</ele><time>2015-11-19T12:24:24.0000000+00:00</time></trkpt><trkpt lat="29.58163043" lon="34.96986338"><ele>42.2</ele><time>2015-11-19T12:25:47.0000000+00:00</time></trkpt><trkpt lat="29.58157143" lon="34.97027862"><ele>40.1</ele><time>2015-11-19T12:25:55.0000000+00:00</time></trkpt><trkpt lat="29.58069074" lon="34.97084188"><ele>33.7</ele><time>2015-11-19T12:26:09.0000000+00:00</time></trkpt><trkpt lat="29.58063324" lon="34.9714458"><ele>32.4</ele><time>2015-11-19T12:26:19.0000000+00:00</time></trkpt><trkpt lat="29.57984576" lon="34.97365183"><ele>24.1</ele><time>2015-11-19T12:26:50.0000000+00:00</time></trkpt><trkpt lat="29.57961828" lon="34.97367606"><ele>23.6</ele><time>2015-11-19T12:26:54.0000000+00:00</time></trkpt><trkpt lat="29.5778797" lon="34.97271859"><ele>21.5</ele><time>2015-11-19T12:27:25.0000000+00:00</time></trkpt><trkpt lat="29.57566663" lon="34.97538747"><ele>9.1</ele><time>2015-11-19T12:28:10.0000000+00:00</time></trkpt><trkpt lat="29.57514586" lon="34.97644116"><ele>8.8</ele><time>2015-11-19T12:29:31.0000000+00:00</time></trkpt><trkpt lat="29.57514603" lon="34.97703217"><ele>9.2</ele><time>2015-11-19T12:30:31.0000000+00:00</time></trkpt><trkpt lat="29.57545113" lon="34.97697459"><ele>9.7</ele><time>2015-11-19T12:38:23.0000000+00:00</time></trkpt><trkpt lat="29.57527586" lon="34.97714072"><ele>9.6</ele><time>2015-11-19T12:40:16.0000000+00:00</time></trkpt><trkpt lat="29.57522063" lon="34.97781093"><ele>9.4</ele><time>2015-11-19T12:40:44.0000000+00:00</time></trkpt><trkpt lat="29.57505584" lon="34.97790129"><ele>9.2</ele><time>2015-11-19T12:41:11.0000000+00:00</time></trkpt><trkpt lat="29.57527821" lon="34.97777715"><ele>9.8</ele><time>2015-11-19T12:41:41.0000000+00:00</time></trkpt><trkpt lat="29.57511099" lon="34.97834461"><ele>9.1</ele><time>2015-11-19T12:43:29.0000000+00:00</time></trkpt><trkpt lat="29.57514301" lon="34.9789725"><ele>10.0</ele><time>2015-11-19T12:43:56.0000000+00:00</time></trkpt><trkpt lat="29.57533118" lon="34.98002929"><ele>11.3</ele><time>2015-11-19T12:44:28.0000000+00:00</time></trkpt><trkpt lat="29.57536094" lon="34.98080285"><ele>12.2</ele><time>2015-11-19T12:45:31.0000000+00:00</time></trkpt><trkpt lat="29.57528383" lon="34.98074862"><ele>12.2</ele><time>2015-11-19T12:45:59.0000000+00:00</time></trkpt><trkpt lat="29.57549924" lon="34.98074041"><ele>11.9</ele><time>2015-11-19T12:49:09.0000000+00:00</time></trkpt><trkpt lat="29.57517385" lon="34.98089053"><ele>12.7</ele><time>2015-11-19T12:51:30.0000000+00:00</time></trkpt><trkpt lat="29.57527963" lon="34.98084753"><ele>12.5</ele><time>2015-11-19T12:53:53.0000000+00:00</time></trkpt><trkpt lat="29.57516807" lon="34.98080704"><ele>12.5</ele><time>2015-11-19T13:01:11.0000000+00:00</time></trkpt><trkpt lat="29.57521317" lon="34.98103369"><ele>13.1</ele><time>2015-11-19T13:05:22.0000000+00:00</time></trkpt><trkpt lat="29.57532649" lon="34.98096823"><ele>12.8</ele><time>2015-11-19T13:17:30.0000000+00:00</time></trkpt><trkpt lat="29.5755984" lon="34.98176845"><ele>13.7</ele><time>2015-11-19T13:21:09.0000000+00:00</time></trkpt><trkpt lat="29.57759715" lon="34.99068604"><ele>22.7</ele><time>2015-11-19T13:25:55.0000000+00:00</time></trkpt><trkpt lat="29.57950059" lon="35.00847294"><ele>49.6</ele><time>2015-11-19T13:33:13.0000000+00:00</time></trkpt><trkpt lat="29.57950596" lon="35.01035811"><ele>53.8</ele><time>2015-11-19T13:33:57.0000000+00:00</time></trkpt><trkpt lat="29.57869845" lon="35.01312171"><ele>61.4</ele><time>2015-11-19T13:35:10.0000000+00:00</time></trkpt><trkpt lat="29.5712471" lon="35.01310763"><ele>61.4</ele><time>2015-11-19T13:36:59.0000000+00:00</time></trkpt><trkpt lat="29.56755085" lon="35.01353192"><ele>61.9</ele><time>2015-11-19T13:37:44.0000000+00:00</time></trkpt><trkpt lat="29.56735496" lon="35.01207314"><ele>57.4</ele><time>2015-11-19T13:38:00.0000000+00:00</time></trkpt><trkpt lat="29.56734767" lon="35.00277568"><ele>39.6</ele><time>2015-11-19T13:39:37.0000000+00:00</time></trkpt><trkpt lat="29.56719202" lon="35.00129987"><ele>36.1</ele><time>2015-11-19T13:39:53.0000000+00:00</time></trkpt><trkpt lat="29.56654653" lon="35.00041567"><ele>35.9</ele><time>2015-11-19T13:40:05.0000000+00:00</time></trkpt><trkpt lat="29.56460159" lon="34.99839487"><ele>30.7</ele><time>2015-11-19T13:40:36.0000000+00:00</time></trkpt><trkpt lat="29.56365955" lon="34.99826613"><ele>30.8</ele><time>2015-11-19T13:40:47.0000000+00:00</time></trkpt><trkpt lat="29.54863197" lon="34.99830267"><ele>19.8</ele><time>2015-11-19T13:43:40.0000000+00:00</time></trkpt><trkpt lat="29.54625419" lon="34.99758929"><ele>14.0</ele><time>2015-11-19T13:44:27.0000000+00:00</time></trkpt><trkpt lat="29.54327443" lon="34.9976374"><ele>10.5</ele><time>2015-11-19T13:45:01.0000000+00:00</time></trkpt><trkpt lat="29.54094979" lon="34.99821475"><ele>8.9</ele><time>2015-11-19T13:45:30.0000000+00:00</time></trkpt><trkpt lat="29.53541933" lon="34.99836328"><ele>4.7</ele><time>2015-11-19T13:46:36.0000000+00:00</time></trkpt><trkpt lat="29.53394436" lon="34.99730489"><ele>3.7</ele><time>2015-11-19T13:47:01.0000000+00:00</time></trkpt><trkpt lat="29.53379315" lon="34.99681246"><ele>2.7</ele><time>2015-11-19T13:47:08.0000000+00:00</time></trkpt><trkpt lat="29.53362132" lon="34.99671699"><ele>2.6</ele><time>2015-11-19T13:47:11.0000000+00:00</time></trkpt><trkpt lat="29.53255624" lon="34.99760798"><ele>4.9</ele><time>2015-11-19T13:47:33.0000000+00:00</time></trkpt><trkpt lat="29.5320902" lon="34.99827183"><ele>6.4</ele><time>2015-11-19T13:47:45.0000000+00:00</time></trkpt><trkpt lat="29.53178921" lon="34.99974302"><ele>6.9</ele><time>2015-11-19T13:48:24.0000000+00:00</time></trkpt><trkpt lat="29.53199046" lon="34.99966431"><ele>8.4</ele><time>2015-11-19T13:48:51.0000000+00:00</time></trkpt><trkpt lat="29.53221551" lon="34.9990024"><ele>11.3</ele><time>2015-11-19T13:52:03.0000000+00:00</time></trkpt></trkseg><trkseg><trkpt lat="31.51724548" lon="35.55870683"><ele>-268.2</ele><time>2015-11-20T11:19:00.0000000+00:00</time></trkpt><trkpt lat="31.5159369" lon="35.55871136"><ele>-265.7</ele><time>2015-11-20T11:20:45.0000000+00:00</time></trkpt><trkpt lat="31.51431274" lon="35.55903909"><ele>-272.0</ele><time>2015-11-20T11:21:36.0000000+00:00</time></trkpt><trkpt lat="31.50959062" lon="35.5615757"><ele>-267.3</ele><time>2015-11-20T11:24:21.0000000+00:00</time></trkpt><trkpt lat="31.50759338" lon="35.56234768"><ele>-285.6</ele><time>2015-11-20T11:24:42.0000000+00:00</time></trkpt><trkpt lat="31.50553479" lon="35.56274255"><ele>-305.5</ele><time>2015-11-20T11:25:00.0000000+00:00</time></trkpt><trkpt lat="31.5014" lon="35.56292712"><ele>-327.6</ele><time>2015-11-20T11:25:34.0000000+00:00</time></trkpt><trkpt lat="31.50016719" lon="35.56324831"><ele>-339.5</ele><time>2015-11-20T11:25:44.0000000+00:00</time></trkpt><trkpt lat="31.49719773" lon="35.56447383"><ele>-349.9</ele><time>2015-11-20T11:26:08.0000000+00:00</time></trkpt><trkpt lat="31.49455994" lon="35.56487256"><ele>-369.6</ele><time>2015-11-20T11:26:29.0000000+00:00</time></trkpt><trkpt lat="31.49366895" lon="35.56516467"><ele>-379.9</ele><time>2015-11-20T11:26:37.0000000+00:00</time></trkpt><trkpt lat="31.49290418" lon="35.5655509"><ele>-375.0</ele><time>2015-11-20T11:26:45.0000000+00:00</time></trkpt><trkpt lat="31.49163659" lon="35.56655916"><ele>-369.1</ele><time>2015-11-20T11:27:01.0000000+00:00</time></trkpt><trkpt lat="31.48651709" lon="35.57135252"><ele>-381.3</ele><time>2015-11-20T11:28:19.0000000+00:00</time></trkpt><trkpt lat="31.48388132" lon="35.57305765"><ele>-380.7</ele><time>2015-11-20T11:29:07.0000000+00:00</time></trkpt><trkpt lat="31.47976764" lon="35.5747425"><ele>-377.1</ele><time>2015-11-20T11:30:21.0000000+00:00</time></trkpt><trkpt lat="31.47760713" lon="35.57539428"><ele>-389.8</ele><time>2015-11-20T11:30:56.0000000+00:00</time></trkpt><trkpt lat="31.47420893" lon="35.57545798"><ele>-371.4</ele><time>2015-11-20T11:31:47.0000000+00:00</time></trkpt><trkpt lat="31.47282064" lon="35.57519915"><ele>-371.3</ele><time>2015-11-20T11:32:08.0000000+00:00</time></trkpt><trkpt lat="31.47166084" lon="35.5747218"><ele>-371.8</ele><time>2015-11-20T11:32:29.0000000+00:00</time></trkpt><trkpt lat="31.46895398" lon="35.57296629"><ele>-386.9</ele><time>2015-11-20T11:33:32.0000000+00:00</time></trkpt><trkpt lat="31.46805519" lon="35.57267443"><ele>-386.3</ele><time>2015-11-20T11:33:49.0000000+00:00</time></trkpt><trkpt lat="31.46714911" lon="35.57265239"><ele>-390.7</ele><time>2015-11-20T11:34:35.0000000+00:00</time></trkpt><trkpt lat="31.46755412" lon="35.57268851"><ele>-386.8</ele><time>2015-11-20T11:35:03.0000000+00:00</time></trkpt><trkpt lat="31.46715389" lon="35.57232231"><ele>-392.6</ele><time>2015-11-20T11:37:30.0000000+00:00</time></trkpt><trkpt lat="31.46696781" lon="35.57239741"><ele>-397.9</ele><time>2015-11-20T11:37:58.0000000+00:00</time></trkpt><trkpt lat="31.46712606" lon="35.57241619"><ele>-392.4</ele><time>2015-11-20T11:38:26.0000000+00:00</time></trkpt><trkpt lat="31.4671419" lon="35.57261702"><ele>-391.0</ele><time>2015-11-20T11:38:42.0000000+00:00</time></trkpt><trkpt lat="31.46699773" lon="35.57303594"><ele>-387.1</ele><time>2015-11-20T11:39:24.0000000+00:00</time></trkpt><trkpt lat="31.46684501" lon="35.57272816"><ele>-398.6</ele><time>2015-11-20T11:50:39.0000000+00:00</time></trkpt><trkpt lat="31.4668808" lon="35.57307551"><ele>-385.9</ele><time>2015-11-20T11:52:32.0000000+00:00</time></trkpt><trkpt lat="31.46680277" lon="35.57283151"><ele>-398.1</ele><time>2015-11-20T11:54:24.0000000+00:00</time></trkpt><trkpt lat="31.46742303" lon="35.57270888"><ele>-387.4</ele><time>2015-11-20T11:56:03.0000000+00:00</time></trkpt><trkpt lat="31.46060293" lon="35.57225173"><ele>-376.1</ele><time>2015-11-20T11:58:36.0000000+00:00</time></trkpt><trkpt lat="31.45871775" lon="35.5718634"><ele>-373.3</ele><time>2015-11-20T11:59:10.0000000+00:00</time></trkpt><trkpt lat="31.45752367" lon="35.57142637"><ele>-377.5</ele><time>2015-11-20T11:59:30.0000000+00:00</time></trkpt><trkpt lat="31.45664197" lon="35.57071391"><ele>-384.3</ele><time>2015-11-20T11:59:47.0000000+00:00</time></trkpt><trkpt lat="31.45394904" lon="35.56737732"><ele>-392.5</ele><time>2015-11-20T12:00:47.0000000+00:00</time></trkpt><trkpt lat="31.45312275" lon="35.56666"><ele>-366.8</ele><time>2015-11-20T12:01:03.0000000+00:00</time></trkpt><trkpt lat="31.45206814" lon="35.5662228"><ele>-393.9</ele><time>2015-11-20T12:01:20.0000000+00:00</time></trkpt><trkpt lat="31.44964149" lon="35.56591543"><ele>-389.8</ele><time>2015-11-20T12:01:58.0000000+00:00</time></trkpt><trkpt lat="31.4484977" lon="35.56597025"><ele>-369.9</ele><time>2015-11-20T12:02:17.0000000+00:00</time></trkpt><trkpt lat="31.44426098" lon="35.56722184"><ele>-380.0</ele><time>2015-11-20T12:03:32.0000000+00:00</time></trkpt><trkpt lat="31.44021026" lon="35.56721287"><ele>-382.4</ele><time>2015-11-20T12:04:32.0000000+00:00</time></trkpt><trkpt lat="31.44003424" lon="35.56697893"><ele>-395.3</ele><time>2015-11-20T12:07:44.0000000+00:00</time></trkpt><trkpt lat="31.43944927" lon="35.56703836"><ele>-392.8</ele><time>2015-11-20T12:08:14.0000000+00:00</time></trkpt><trkpt lat="31.43859699" lon="35.56679755"><ele>-364.1</ele><time>2015-11-20T12:08:31.0000000+00:00</time></trkpt><trkpt lat="31.43533769" lon="35.56553615"><ele>-383.9</ele><time>2015-11-20T12:09:28.0000000+00:00</time></trkpt><trkpt lat="31.43435349" lon="35.5648568"><ele>-370.7</ele><time>2015-11-20T12:09:47.0000000+00:00</time></trkpt><trkpt lat="31.43278297" lon="35.56327094"><ele>-361.1</ele><time>2015-11-20T12:10:21.0000000+00:00</time></trkpt><trkpt lat="31.4317582" lon="35.56295796"><ele>-373.1</ele><time>2015-11-20T12:10:37.0000000+00:00</time></trkpt><trkpt lat="31.42898127" lon="35.56328092"><ele>-396.6</ele><time>2015-11-20T12:11:27.0000000+00:00</time></trkpt><trkpt lat="31.42581845" lon="35.56408399"><ele>-389.4</ele><time>2015-11-20T12:12:28.0000000+00:00</time></trkpt><trkpt lat="31.42509132" lon="35.56406739"><ele>-376.0</ele><time>2015-11-20T12:12:44.0000000+00:00</time></trkpt><trkpt lat="31.42082853" lon="35.56303332"><ele>-384.6</ele><time>2015-11-20T12:14:10.0000000+00:00</time></trkpt><trkpt lat="31.41301325" lon="35.56298428"><ele>-364.5</ele><time>2015-11-20T12:16:36.0000000+00:00</time></trkpt><trkpt lat="31.40968873" lon="35.56239529"><ele>-383.7</ele><time>2015-11-20T12:17:34.0000000+00:00</time></trkpt><trkpt lat="31.40651023" lon="35.56143405"><ele>-381.2</ele><time>2015-11-20T12:18:34.0000000+00:00</time></trkpt><trkpt lat="31.40517541" lon="35.56086726"><ele>-370.4</ele><time>2015-11-20T12:19:01.0000000+00:00</time></trkpt><trkpt lat="31.40373909" lon="35.55945097"><ele>-372.4</ele><time>2015-11-20T12:19:35.0000000+00:00</time></trkpt><trkpt lat="31.40147656" lon="35.55608631"><ele>-372.8</ele><time>2015-11-20T12:20:42.0000000+00:00</time></trkpt><trkpt lat="31.40042773" lon="35.55481696"><ele>-374.4</ele><time>2015-11-20T12:21:08.0000000+00:00</time></trkpt><trkpt lat="31.39894774" lon="35.55376553"><ele>-363.5</ele><time>2015-11-20T12:21:40.0000000+00:00</time></trkpt><trkpt lat="31.39650224" lon="35.55256147"><ele>-362.8</ele><time>2015-11-20T12:22:23.0000000+00:00</time></trkpt><trkpt lat="31.39450173" lon="35.5519656"><ele>-368.6</ele><time>2015-11-20T12:22:56.0000000+00:00</time></trkpt><trkpt lat="31.39324729" lon="35.55184934"><ele>-366.1</ele><time>2015-11-20T12:23:16.0000000+00:00</time></trkpt><trkpt lat="31.38526378" lon="35.55205889"><ele>-389.2</ele><time>2015-11-20T12:24:53.0000000+00:00</time></trkpt><trkpt lat="31.38258736" lon="35.55141591"><ele>-374.0</ele><time>2015-11-20T12:25:23.0000000+00:00</time></trkpt><trkpt lat="31.3794392" lon="35.55130477"><ele>-389.7</ele><time>2015-11-20T12:26:13.0000000+00:00</time></trkpt><trkpt lat="31.37836011" lon="35.5510876"><ele>-385.4</ele><time>2015-11-20T12:26:31.0000000+00:00</time></trkpt><trkpt lat="31.37476654" lon="35.54988722"><ele>-381.4</ele><time>2015-11-20T12:27:26.0000000+00:00</time></trkpt><trkpt lat="31.37269344" lon="35.5485856"><ele>-389.9</ele><time>2015-11-20T12:28:23.0000000+00:00</time></trkpt><trkpt lat="31.37246587" lon="35.54797816"><ele>-397.1</ele><time>2015-11-20T13:26:12.0000000+00:00</time></trkpt><trkpt lat="31.37272328" lon="35.54859373"><ele>-389.7</ele><time>2015-11-20T13:33:32.0000000+00:00</time></trkpt><trkpt lat="31.37066636" lon="35.54753635"><ele>-385.6</ele><time>2015-11-20T13:34:43.0000000+00:00</time></trkpt><trkpt lat="31.36892008" lon="35.54693621"><ele>-380.1</ele><time>2015-11-20T13:35:24.0000000+00:00</time></trkpt><trkpt lat="31.36688059" lon="35.54675289"><ele>-388.9</ele><time>2015-11-20T13:35:59.0000000+00:00</time></trkpt><trkpt lat="31.35884285" lon="35.54801881"><ele>-394.2</ele><time>2015-11-20T13:37:54.0000000+00:00</time></trkpt><trkpt lat="31.35459415" lon="35.54784665"><ele>-390.8</ele><time>2015-11-20T13:38:59.0000000+00:00</time></trkpt><trkpt lat="31.34996583" lon="35.54788051"><ele>-392.7</ele><time>2015-11-20T13:40:11.0000000+00:00</time></trkpt><trkpt lat="31.34533105" lon="35.54753032"><ele>-385.5</ele><time>2015-11-20T13:41:41.0000000+00:00</time></trkpt><trkpt lat="31.34416547" lon="35.54760517"><ele>-388.7</ele><time>2015-11-20T13:41:59.0000000+00:00</time></trkpt><trkpt lat="31.34014366" lon="35.54840983"><ele>-393.5</ele><time>2015-11-20T13:42:51.0000000+00:00</time></trkpt><trkpt lat="31.33875654" lon="35.54842458"><ele>-391.5</ele><time>2015-11-20T13:43:10.0000000+00:00</time></trkpt><trkpt lat="31.33548475" lon="35.54797489"><ele>-391.4</ele><time>2015-11-20T13:44:01.0000000+00:00</time></trkpt><trkpt lat="31.33387442" lon="35.54810917"><ele>-394.4</ele><time>2015-11-20T13:44:27.0000000+00:00</time></trkpt><trkpt lat="31.33300337" lon="35.54786911"><ele>-390.2</ele><time>2015-11-20T13:44:46.0000000+00:00</time></trkpt><trkpt lat="31.3323692" lon="35.54748254"><ele>-387.9</ele><time>2015-11-20T13:45:02.0000000+00:00</time></trkpt><trkpt lat="31.33042116" lon="35.5454801"><ele>-384.2</ele><time>2015-11-20T13:45:55.0000000+00:00</time></trkpt><trkpt lat="31.32944182" lon="35.54495833"><ele>-388.3</ele><time>2015-11-20T13:46:10.0000000+00:00</time></trkpt><trkpt lat="31.32840833" lon="35.54470637"><ele>-391.7</ele><time>2015-11-20T13:46:22.0000000+00:00</time></trkpt><trkpt lat="31.32056136" lon="35.54472045"><ele>-389.8</ele><time>2015-11-20T13:48:00.0000000+00:00</time></trkpt><trkpt lat="31.31871918" lon="35.54424008"><ele>-389.3</ele><time>2015-11-20T13:48:29.0000000+00:00</time></trkpt><trkpt lat="31.3172065" lon="35.54346191"><ele>-386.7</ele><time>2015-11-20T13:49:00.0000000+00:00</time></trkpt><trkpt lat="31.30780812" lon="35.53697482"><ele>-358.6</ele><time>2015-11-20T13:55:20.0000000+00:00</time></trkpt><trkpt lat="31.30463105" lon="35.53557848"><ele>-363.9</ele><time>2015-11-20T13:56:12.0000000+00:00</time></trkpt><trkpt lat="31.30137677" lon="35.53489057"><ele>-359.5</ele><time>2015-11-20T13:57:10.0000000+00:00</time></trkpt><trkpt lat="31.29462574" lon="35.53496182"><ele>-349.0</ele><time>2015-11-20T13:59:31.0000000+00:00</time></trkpt><trkpt lat="31.2909527" lon="35.53433393"><ele>-355.3</ele><time>2015-11-20T14:00:38.0000000+00:00</time></trkpt><trkpt lat="31.27168681" lon="35.52637615"><ele>-340.6</ele><time>2015-11-20T14:07:53.0000000+00:00</time></trkpt><trkpt lat="31.27191388" lon="35.52604565"><ele>-339.2</ele><time>2015-11-20T14:30:30.0000000+00:00</time></trkpt></trkseg><trkseg><trkpt lat="31.25516617" lon="35.52080764"><ele>-320.0</ele><time>2015-11-21T07:18:38.0000000+00:00</time></trkpt><trkpt lat="31.25490633" lon="35.52089154"><ele>-319.5</ele><time>2015-11-21T07:20:30.0000000+00:00</time></trkpt><trkpt lat="31.25486836" lon="35.5195651"><ele>-322.8</ele><time>2015-11-21T07:21:20.0000000+00:00</time></trkpt><trkpt lat="31.25702343" lon="35.5202442"><ele>-323.4</ele><time>2015-11-21T07:22:29.0000000+00:00</time></trkpt><trkpt lat="31.26138629" lon="35.52213935"><ele>-330.5</ele><time>2015-11-21T07:24:50.0000000+00:00</time></trkpt><trkpt lat="31.26157011" lon="35.52193542"><ele>-331.1</ele><time>2015-11-21T07:25:31.0000000+00:00</time></trkpt><trkpt lat="31.26156047" lon="35.52219392"><ele>-330.6</ele><time>2015-11-21T07:39:05.0000000+00:00</time></trkpt><trkpt lat="31.26161847" lon="35.5220852"><ele>-330.9</ele><time>2015-11-21T07:40:52.0000000+00:00</time></trkpt><trkpt lat="31.26160095" lon="35.52192117"><ele>-331.3</ele><time>2015-11-21T07:50:23.0000000+00:00</time></trkpt><trkpt lat="31.26154278" lon="35.52203014"><ele>-330.7</ele><time>2015-11-21T07:51:10.0000000+00:00</time></trkpt><trkpt lat="31.26029279" lon="35.52151674"><ele>-328.3</ele><time>2015-11-21T07:52:05.0000000+00:00</time></trkpt><trkpt lat="31.26021727" lon="35.52182788"><ele>-327.9</ele><time>2015-11-21T07:55:32.0000000+00:00</time></trkpt><trkpt lat="31.26017285" lon="35.52165127"><ele>-327.8</ele><time>2015-11-21T08:05:39.0000000+00:00</time></trkpt><trkpt lat="31.25900608" lon="35.5209715"><ele>-326.8</ele><time>2015-11-21T08:06:35.0000000+00:00</time></trkpt><trkpt lat="31.25570177" lon="35.51965102"><ele>-323.4</ele><time>2015-11-21T08:08:05.0000000+00:00</time></trkpt><trkpt lat="31.25142298" lon="35.51864871"><ele>-324.0</ele><time>2015-11-21T08:09:30.0000000+00:00</time></trkpt><trkpt lat="31.25092543" lon="35.51861719"><ele>-323.2</ele><time>2015-11-21T08:09:42.0000000+00:00</time></trkpt><trkpt lat="31.25080246" lon="35.51876756"><ele>-322.9</ele><time>2015-11-21T08:09:47.0000000+00:00</time></trkpt><trkpt lat="31.25100933" lon="35.52298827"><ele>-309.1</ele><time>2015-11-21T08:11:41.0000000+00:00</time></trkpt><trkpt lat="31.25060591" lon="35.52535188"><ele>-296.0</ele><time>2015-11-21T08:12:57.0000000+00:00</time></trkpt><trkpt lat="31.25058001" lon="35.52656081"><ele>-283.5</ele><time>2015-11-21T08:13:44.0000000+00:00</time></trkpt><trkpt lat="31.2519051" lon="35.53508193"><ele>-241.7</ele><time>2015-11-21T08:19:17.0000000+00:00</time></trkpt><trkpt lat="31.25214432" lon="35.54464568"><ele>-213.8</ele><time>2015-11-21T08:23:40.0000000+00:00</time></trkpt><trkpt lat="31.25178365" lon="35.54582896"><ele>-213.3</ele><time>2015-11-21T08:27:23.0000000+00:00</time></trkpt><trkpt lat="31.24167751" lon="35.56822004"><ele>-88.6</ele><time>2015-11-21T08:41:04.0000000+00:00</time></trkpt><trkpt lat="31.24125623" lon="35.56937842"><ele>-80.2</ele><time>2015-11-21T08:41:58.0000000+00:00</time></trkpt><trkpt lat="31.24115422" lon="35.57032088"><ele>-75.3</ele><time>2015-11-21T08:42:46.0000000+00:00</time></trkpt><trkpt lat="31.24135606" lon="35.57161194"><ele>-65.2</ele><time>2015-11-21T08:43:52.0000000+00:00</time></trkpt><trkpt lat="31.24295407" lon="35.57571765"><ele>-31.4</ele><time>2015-11-21T08:57:36.0000000+00:00</time></trkpt><trkpt lat="31.24387935" lon="35.57780734"><ele>-26.5</ele><time>2015-11-21T09:15:58.0000000+00:00</time></trkpt><trkpt lat="31.24435016" lon="35.57847681"><ele>-19.5</ele><time>2015-11-21T09:16:17.0000000+00:00</time></trkpt><trkpt lat="31.24489984" lon="35.57899925"><ele>-17.6</ele><time>2015-11-21T09:16:35.0000000+00:00</time></trkpt><trkpt lat="31.24567048" lon="35.5793497"><ele>-20.3</ele><time>2015-11-21T09:16:54.0000000+00:00</time></trkpt><trkpt lat="31.2491628" lon="35.58042468"><ele>-4.4</ele><time>2015-11-21T09:20:22.0000000+00:00</time></trkpt><trkpt lat="31.24996947" lon="35.58084754"><ele>17.6</ele><time>2015-11-21T09:21:58.0000000+00:00</time></trkpt><trkpt lat="31.25234993" lon="35.58163812"><ele>26.0</ele><time>2015-11-21T09:23:09.0000000+00:00</time></trkpt><trkpt lat="31.25327798" lon="35.58280447"><ele>37.2</ele><time>2015-11-21T09:23:52.0000000+00:00</time></trkpt><trkpt lat="31.25352616" lon="35.58422755"><ele>34.1</ele><time>2015-11-21T09:25:09.0000000+00:00</time></trkpt><trkpt lat="31.25450207" lon="35.58582078"><ele>55.8</ele><time>2015-11-21T09:26:44.0000000+00:00</time></trkpt><trkpt lat="31.254375" lon="35.58721896"><ele>65.2</ele><time>2015-11-21T09:28:07.0000000+00:00</time></trkpt><trkpt lat="31.25408893" lon="35.58621967"><ele>73.8</ele><time>2015-11-21T09:29:09.0000000+00:00</time></trkpt><trkpt lat="31.25386178" lon="35.58599244"><ele>76.2</ele><time>2015-11-21T09:29:30.0000000+00:00</time></trkpt><trkpt lat="31.25319701" lon="35.58663927"><ele>89.2</ele><time>2015-11-21T09:30:39.0000000+00:00</time></trkpt><trkpt lat="31.25218062" lon="35.58704278"><ele>96.6</ele><time>2015-11-21T09:31:49.0000000+00:00</time></trkpt><trkpt lat="31.25215279" lon="35.5872778"><ele>103.8</ele><time>2015-11-21T09:34:46.0000000+00:00</time></trkpt><trkpt lat="31.25289685" lon="35.58736271"><ele>106.4</ele><time>2015-11-21T09:36:41.0000000+00:00</time></trkpt><trkpt lat="31.25250542" lon="35.58863467"><ele>128.8</ele><time>2015-11-21T09:38:13.0000000+00:00</time></trkpt><trkpt lat="31.25263374" lon="35.58899609"><ele>138.2</ele><time>2015-11-21T09:38:36.0000000+00:00</time></trkpt><trkpt lat="31.25304295" lon="35.58940941"><ele>142.0</ele><time>2015-11-21T09:39:12.0000000+00:00</time></trkpt><trkpt lat="31.25308561" lon="35.59055932"><ele>150.8</ele><time>2015-11-21T09:40:17.0000000+00:00</time></trkpt><trkpt lat="31.25295695" lon="35.59056963"><ele>155.8</ele><time>2015-11-21T09:40:25.0000000+00:00</time></trkpt><trkpt lat="31.25272494" lon="35.58971501"><ele>153.0</ele><time>2015-11-21T09:41:09.0000000+00:00</time></trkpt><trkpt lat="31.25247574" lon="35.58966162"><ele>154.2</ele><time>2015-11-21T09:41:29.0000000+00:00</time></trkpt><trkpt lat="31.252419" lon="35.59040107"><ele>169.3</ele><time>2015-11-21T09:42:12.0000000+00:00</time></trkpt><trkpt lat="31.252621" lon="35.59161695"><ele>180.6</ele><time>2015-11-21T09:43:29.0000000+00:00</time></trkpt><trkpt lat="31.25239436" lon="35.59176715"><ele>183.6</ele><time>2015-11-21T09:44:26.0000000+00:00</time></trkpt><trkpt lat="31.2517974" lon="35.59126927"><ele>189.9</ele><time>2015-11-21T09:45:16.0000000+00:00</time></trkpt><trkpt lat="31.25149665" lon="35.59139089"><ele>193.8</ele><time>2015-11-21T09:45:40.0000000+00:00</time></trkpt><trkpt lat="31.25065888" lon="35.5928977"><ele>215.2</ele><time>2015-11-21T09:48:15.0000000+00:00</time></trkpt><trkpt lat="31.25070892" lon="35.59366331"><ele>218.5</ele><time>2015-11-21T09:57:11.0000000+00:00</time></trkpt><trkpt lat="31.25096256" lon="35.59408416"><ele>220.8</ele><time>2015-11-21T09:57:37.0000000+00:00</time></trkpt><trkpt lat="31.25233468" lon="35.59482571"><ele>226.8</ele><time>2015-11-21T09:58:53.0000000+00:00</time></trkpt><trkpt lat="31.25310573" lon="35.59579206"><ele>236.1</ele><time>2015-11-21T09:59:59.0000000+00:00</time></trkpt><trkpt lat="31.25386907" lon="35.59747959"><ele>262.6</ele><time>2015-11-21T10:01:38.0000000+00:00</time></trkpt><trkpt lat="31.2546998" lon="35.59872212"><ele>279.0</ele><time>2015-11-21T10:03:04.0000000+00:00</time></trkpt><trkpt lat="31.25580378" lon="35.60123074"><ele>311.7</ele><time>2015-11-21T10:05:54.0000000+00:00</time></trkpt><trkpt lat="31.25584938" lon="35.6020411"><ele>317.5</ele><time>2015-11-21T10:07:25.0000000+00:00</time></trkpt><trkpt lat="31.25605314" lon="35.60226046"><ele>307.9</ele><time>2015-11-21T10:13:56.0000000+00:00</time></trkpt><trkpt lat="31.25578148" lon="35.60214445"><ele>317.9</ele><time>2015-11-21T10:16:01.0000000+00:00</time></trkpt><trkpt lat="31.25487071" lon="35.60290745"><ele>330.8</ele><time>2015-11-21T10:17:17.0000000+00:00</time></trkpt><trkpt lat="31.25447986" lon="35.60394069"><ele>338.0</ele><time>2015-11-21T10:18:15.0000000+00:00</time></trkpt><trkpt lat="31.25390419" lon="35.60478056"><ele>346.9</ele><time>2015-11-21T10:18:57.0000000+00:00</time></trkpt><trkpt lat="31.25302074" lon="35.60731273"><ele>353.7</ele><time>2015-11-21T10:20:18.0000000+00:00</time></trkpt><trkpt lat="31.25327311" lon="35.60930058"><ele>370.3</ele><time>2015-11-21T10:22:08.0000000+00:00</time></trkpt><trkpt lat="31.25316231" lon="35.60983946"><ele>370.9</ele><time>2015-11-21T10:22:38.0000000+00:00</time></trkpt><trkpt lat="31.25254028" lon="35.61117335"><ele>374.5</ele><time>2015-11-21T10:23:36.0000000+00:00</time></trkpt><trkpt lat="31.25262276" lon="35.61163327"><ele>377.0</ele><time>2015-11-21T10:23:49.0000000+00:00</time></trkpt><trkpt lat="31.25308234" lon="35.61248336"><ele>379.0</ele><time>2015-11-21T10:24:08.0000000+00:00</time></trkpt><trkpt lat="31.25328971" lon="35.61366546"><ele>378.2</ele><time>2015-11-21T10:24:32.0000000+00:00</time></trkpt><trkpt lat="31.2525397" lon="35.61715552"><ele>396.1</ele><time>2015-11-21T10:27:32.0000000+00:00</time></trkpt><trkpt lat="31.2514617" lon="35.6190023"><ele>413.7</ele><time>2015-11-21T10:29:49.0000000+00:00</time></trkpt><trkpt lat="31.25087488" lon="35.61958015"><ele>416.1</ele><time>2015-11-21T10:38:56.0000000+00:00</time></trkpt><trkpt lat="31.24987861" lon="35.62018482"><ele>413.5</ele><time>2015-11-21T10:39:40.0000000+00:00</time></trkpt><trkpt lat="31.24880665" lon="35.62178233"><ele>413.5</ele><time>2015-11-21T10:40:30.0000000+00:00</time></trkpt><trkpt lat="31.24657656" lon="35.62340003"><ele>424.6</ele><time>2015-11-21T10:42:12.0000000+00:00</time></trkpt><trkpt lat="31.24163032" lon="35.63023103"><ele>452.4</ele><time>2015-11-21T10:50:11.0000000+00:00</time></trkpt><trkpt lat="31.23904081" lon="35.6357755"><ele>464.1</ele><time>2015-11-21T10:53:17.0000000+00:00</time></trkpt><trkpt lat="31.23885607" lon="35.63651855"><ele>466.3</ele><time>2015-11-21T10:53:51.0000000+00:00</time></trkpt><trkpt lat="31.23894266" lon="35.63847413"><ele>485.8</ele><time>2015-11-21T10:55:27.0000000+00:00</time></trkpt><trkpt lat="31.23763827" lon="35.64016434"><ele>499.6</ele><time>2015-11-21T10:57:50.0000000+00:00</time></trkpt><trkpt lat="31.23640135" lon="35.64328275"><ele>516.8</ele><time>2015-11-21T11:00:50.0000000+00:00</time></trkpt><trkpt lat="31.23588938" lon="35.64402371"><ele>517.8</ele><time>2015-11-21T11:01:40.0000000+00:00</time></trkpt><trkpt lat="31.23531112" lon="35.64424046"><ele>519.7</ele><time>2015-11-21T11:02:10.0000000+00:00</time></trkpt><trkpt lat="31.23310332" lon="35.64434775"><ele>536.3</ele><time>2015-11-21T11:04:23.0000000+00:00</time></trkpt><trkpt lat="31.23211258" lon="35.64476961"><ele>536.5</ele><time>2015-11-21T11:21:37.0000000+00:00</time></trkpt><trkpt lat="31.22985098" lon="35.64698445"><ele>527.2</ele><time>2015-11-21T11:22:25.0000000+00:00</time></trkpt><trkpt lat="31.2282901" lon="35.64914639"><ele>535.2</ele><time>2015-11-21T11:24:03.0000000+00:00</time></trkpt><trkpt lat="31.22754009" lon="35.64968484"><ele>549.5</ele><time>2015-11-21T11:26:17.0000000+00:00</time></trkpt><trkpt lat="31.22519483" lon="35.65070878"><ele>562.4</ele><time>2015-11-21T11:28:34.0000000+00:00</time></trkpt><trkpt lat="31.2222294" lon="35.65432146"><ele>584.3</ele><time>2015-11-21T11:32:32.0000000+00:00</time></trkpt><trkpt lat="31.22075477" lon="35.65545294"><ele>583.4</ele><time>2015-11-21T11:33:25.0000000+00:00</time></trkpt><trkpt lat="31.21919204" lon="35.65636195"><ele>593.0</ele><time>2015-11-21T11:34:39.0000000+00:00</time></trkpt><trkpt lat="31.21770417" lon="35.65646882"><ele>602.2</ele><time>2015-11-21T11:36:12.0000000+00:00</time></trkpt><trkpt lat="31.2139267" lon="35.65930375"><ele>619.4</ele><time>2015-11-21T11:39:44.0000000+00:00</time></trkpt><trkpt lat="31.21266229" lon="35.65952009"><ele>626.6</ele><time>2015-11-21T11:41:01.0000000+00:00</time></trkpt><trkpt lat="31.20915907" lon="35.66118842"><ele>665.2</ele><time>2015-11-21T11:45:21.0000000+00:00</time></trkpt><trkpt lat="31.20696813" lon="35.66200867"><ele>677.5</ele><time>2015-11-21T11:53:29.0000000+00:00</time></trkpt><trkpt lat="31.20414041" lon="35.66382143"><ele>696.2</ele><time>2015-11-21T11:59:20.0000000+00:00</time></trkpt><trkpt lat="31.20264265" lon="35.66536814"><ele>694.0</ele><time>2015-11-21T12:00:33.0000000+00:00</time></trkpt><trkpt lat="31.19974511" lon="35.67012286"><ele>716.9</ele><time>2015-11-21T12:04:43.0000000+00:00</time></trkpt><trkpt lat="31.19860693" lon="35.67345173"><ele>717.5</ele><time>2015-11-21T12:06:02.0000000+00:00</time></trkpt><trkpt lat="31.19878991" lon="35.67516223"><ele>720.0</ele><time>2015-11-21T12:07:06.0000000+00:00</time></trkpt><trkpt lat="31.19871363" lon="35.67572834"><ele>716.1</ele><time>2015-11-21T12:07:18.0000000+00:00</time></trkpt><trkpt lat="31.19822203" lon="35.67713985"><ele>713.8</ele><time>2015-11-21T12:07:42.0000000+00:00</time></trkpt><trkpt lat="31.19782641" lon="35.68015147"><ele>713.1</ele><time>2015-11-21T12:08:39.0000000+00:00</time></trkpt><trkpt lat="31.19719022" lon="35.68324825"><ele>715.7</ele><time>2015-11-21T12:10:04.0000000+00:00</time></trkpt><trkpt lat="31.19692309" lon="35.6856034"><ele>719.7</ele><time>2015-11-21T12:11:16.0000000+00:00</time></trkpt><trkpt lat="31.19648228" lon="35.68754406"><ele>714.8</ele><time>2015-11-21T12:11:53.0000000+00:00</time></trkpt><trkpt lat="31.19667012" lon="35.68820061"><ele>718.4</ele><time>2015-11-21T12:12:10.0000000+00:00</time></trkpt><trkpt lat="31.19812623" lon="35.69122078"><ele>724.9</ele><time>2015-11-21T12:14:05.0000000+00:00</time></trkpt><trkpt lat="31.19822136" lon="35.69198747"><ele>720.9</ele><time>2015-11-21T12:14:24.0000000+00:00</time></trkpt><trkpt lat="31.19783169" lon="35.69370501"><ele>716.1</ele><time>2015-11-21T12:14:56.0000000+00:00</time></trkpt><trkpt lat="31.19749742" lon="35.69429493"><ele>715.3</ele><time>2015-11-21T12:15:10.0000000+00:00</time></trkpt><trkpt lat="31.19625463" lon="35.69518148"><ele>707.7</ele><time>2015-11-21T12:15:49.0000000+00:00</time></trkpt><trkpt lat="31.19459116" lon="35.69528307"><ele>716.7</ele><time>2015-11-21T12:16:10.0000000+00:00</time></trkpt><trkpt lat="31.19261957" lon="35.69515793"><ele>727.6</ele><time>2015-11-21T12:17:38.0000000+00:00</time></trkpt><trkpt lat="31.19087555" lon="35.69600919"><ele>751.1</ele><time>2015-11-21T12:19:46.0000000+00:00</time></trkpt><trkpt lat="31.18944802" lon="35.69636073"><ele>762.2</ele><time>2015-11-21T12:21:30.0000000+00:00</time></trkpt><trkpt lat="31.1892171" lon="35.69612486"><ele>759.9</ele><time>2015-11-21T12:31:10.0000000+00:00</time></trkpt><trkpt lat="31.18937778" lon="35.69638504"><ele>762.4</ele><time>2015-11-21T12:37:04.0000000+00:00</time></trkpt><trkpt lat="31.18859701" lon="35.69659576"><ele>770.1</ele><time>2015-11-21T12:38:05.0000000+00:00</time></trkpt><trkpt lat="31.18761683" lon="35.6966002"><ele>781.1</ele><time>2015-11-21T12:39:15.0000000+00:00</time></trkpt><trkpt lat="31.18635896" lon="35.69696859"><ele>790.6</ele><time>2015-11-21T12:40:49.0000000+00:00</time></trkpt><trkpt lat="31.18494694" lon="35.69685124"><ele>805.8</ele><time>2015-11-21T12:42:29.0000000+00:00</time></trkpt><trkpt lat="31.18398587" lon="35.69710538"><ele>811.3</ele><time>2015-11-21T12:43:38.0000000+00:00</time></trkpt><trkpt lat="31.18378219" lon="35.69752146"><ele>819.3</ele><time>2015-11-21T12:44:10.0000000+00:00</time></trkpt><trkpt lat="31.18384883" lon="35.69779823"><ele>821.2</ele><time>2015-11-21T12:44:28.0000000+00:00</time></trkpt><trkpt lat="31.18413264" lon="35.6980149"><ele>823.5</ele><time>2015-11-21T12:44:54.0000000+00:00</time></trkpt><trkpt lat="31.18735724" lon="35.69878687"><ele>842.7</ele><time>2015-11-21T12:46:46.0000000+00:00</time></trkpt><trkpt lat="31.18940628" lon="35.69857179"><ele>864.9</ele><time>2015-11-21T12:48:39.0000000+00:00</time></trkpt><trkpt lat="31.19256316" lon="35.69750587"><ele>880.1</ele><time>2015-11-21T12:52:00.0000000+00:00</time></trkpt><trkpt lat="31.19316246" lon="35.69770812"><ele>881.1</ele><time>2015-11-21T13:00:49.0000000+00:00</time></trkpt><trkpt lat="31.19247272" lon="35.69830156"><ele>881.1</ele><time>2015-11-21T13:02:43.0000000+00:00</time></trkpt><trkpt lat="31.18997172" lon="35.69970813"><ele>911.7</ele><time>2015-11-21T13:05:48.0000000+00:00</time></trkpt><trkpt lat="31.18892474" lon="35.70135802"><ele>929.9</ele><time>2015-11-21T13:07:55.0000000+00:00</time></trkpt><trkpt lat="31.18765832" lon="35.70218272"><ele>955.8</ele><time>2015-11-21T13:09:33.0000000+00:00</time></trkpt><trkpt lat="31.18831839" lon="35.70454004"><ele>970.6</ele><time>2015-11-21T13:11:48.0000000+00:00</time></trkpt><trkpt lat="31.18765237" lon="35.70347009"><ele>978.9</ele><time>2015-11-21T13:13:05.0000000+00:00</time></trkpt><trkpt lat="31.18669474" lon="35.70288126"><ele>978.0</ele><time>2015-11-21T13:13:45.0000000+00:00</time></trkpt><trkpt lat="31.18658192" lon="35.70208012"><ele>982.8</ele><time>2015-11-21T13:14:24.0000000+00:00</time></trkpt><trkpt lat="31.18647957" lon="35.70209119"><ele>984.3</ele><time>2015-11-21T13:14:31.0000000+00:00</time></trkpt><trkpt lat="31.18575697" lon="35.70345576"><ele>992.6</ele><time>2015-11-21T13:16:44.0000000+00:00</time></trkpt><trkpt lat="31.18522807" lon="35.70568099"><ele>998.8</ele><time>2015-11-21T13:18:19.0000000+00:00</time></trkpt><trkpt lat="31.18470051" lon="35.70673074"><ele>996.4</ele><time>2015-11-21T13:19:26.0000000+00:00</time></trkpt><trkpt lat="31.18387691" lon="35.70659118"><ele>992.6</ele><time>2015-11-21T13:19:53.0000000+00:00</time></trkpt><trkpt lat="31.18330224" lon="35.70745393"><ele>973.5</ele><time>2015-11-21T13:20:38.0000000+00:00</time></trkpt><trkpt lat="31.18278223" lon="35.70696518"><ele>964.3</ele><time>2015-11-21T13:21:30.0000000+00:00</time></trkpt><trkpt lat="31.18260655" lon="35.70712049"><ele>955.0</ele><time>2015-11-21T13:22:24.0000000+00:00</time></trkpt><trkpt lat="31.18270143" lon="35.70753766"><ele>949.3</ele><time>2015-11-21T13:25:21.0000000+00:00</time></trkpt><trkpt lat="31.18259414" lon="35.7065035"><ele>958.7</ele><time>2015-11-21T13:28:15.0000000+00:00</time></trkpt><trkpt lat="31.18228275" lon="35.70581342"><ele>954.1</ele><time>2015-11-21T13:28:33.0000000+00:00</time></trkpt><trkpt lat="31.18238258" lon="35.70513474"><ele>976.6</ele><time>2015-11-21T13:29:47.0000000+00:00</time></trkpt><trkpt lat="31.18217731" lon="35.70500054"><ele>982.1</ele><time>2015-11-21T13:30:39.0000000+00:00</time></trkpt><trkpt lat="31.18300561" lon="35.70464356"><ele>1002.6</ele><time>2015-11-21T13:32:31.0000000+00:00</time></trkpt><trkpt lat="31.18226968" lon="35.7039404"><ele>1011.6</ele><time>2015-11-21T13:34:23.0000000+00:00</time></trkpt><trkpt lat="31.18260412" lon="35.70216604"><ele>1018.9</ele><time>2015-11-21T13:37:25.0000000+00:00</time></trkpt><trkpt lat="31.1821582" lon="35.70198306"><ele>1019.4</ele><time>2015-11-21T13:38:50.0000000+00:00</time></trkpt><trkpt lat="31.18165964" lon="35.70149766"><ele>1020.8</ele><time>2015-11-21T13:41:38.0000000+00:00</time></trkpt><trkpt lat="31.18116779" lon="35.70137084"><ele>1025.2</ele><time>2015-11-21T13:43:30.0000000+00:00</time></trkpt><trkpt lat="31.18084568" lon="35.70166463"><ele>1021.7</ele><time>2015-11-21T13:45:32.0000000+00:00</time></trkpt><trkpt lat="31.18140626" lon="35.70197166"><ele>1025.2</ele><time>2015-11-21T13:47:41.0000000+00:00</time></trkpt><trkpt lat="31.18155546" lon="35.701757"><ele>1025.1</ele><time>2015-11-21T13:48:32.0000000+00:00</time></trkpt><trkpt lat="31.18133568" lon="35.70223879"><ele>1016.5</ele><time>2015-11-21T13:50:15.0000000+00:00</time></trkpt><trkpt lat="31.18113217" lon="35.70226192"><ele>1007.7</ele><time>2015-11-21T13:51:17.0000000+00:00</time></trkpt><trkpt lat="31.18096981" lon="35.7019621"><ele>1017.5</ele><time>2015-11-21T13:52:02.0000000+00:00</time></trkpt><trkpt lat="31.18024696" lon="35.70149825"><ele>1004.5</ele><time>2015-11-21T13:53:57.0000000+00:00</time></trkpt><trkpt lat="31.17985921" lon="35.70144511"><ele>990.3</ele><time>2015-11-21T13:54:45.0000000+00:00</time></trkpt><trkpt lat="31.1804923" lon="35.70131217"><ele>1014.5</ele><time>2015-11-21T13:56:07.0000000+00:00</time></trkpt><trkpt lat="31.18163198" lon="35.70147042"><ele>1021.6</ele><time>2015-11-21T13:58:15.0000000+00:00</time></trkpt><trkpt lat="31.18255634" lon="35.70221205"><ele>1018.9</ele><time>2015-11-21T14:05:42.0000000+00:00</time></trkpt><trkpt lat="31.18252424" lon="35.7026179"><ele>1019.3</ele><time>2015-11-21T14:06:51.0000000+00:00</time></trkpt><trkpt lat="31.18224529" lon="35.70259108"><ele>1020.2</ele><time>2015-11-21T14:08:13.0000000+00:00</time></trkpt><trkpt lat="31.18247436" lon="35.70246401"><ele>1018.9</ele><time>2015-11-21T14:08:37.0000000+00:00</time></trkpt><trkpt lat="31.18241225" lon="35.70269141"><ele>1019.3</ele><time>2015-11-21T14:09:58.0000000+00:00</time></trkpt><trkpt lat="31.18243949" lon="35.7025128"><ele>1018.9</ele><time>2015-11-21T14:10:47.0000000+00:00</time></trkpt><trkpt lat="31.18226063" lon="35.70251204"><ele>1019.8</ele><time>2015-11-21T14:12:45.0000000+00:00</time></trkpt><trkpt lat="31.18257646" lon="35.7024009"><ele>1019.3</ele><time>2015-11-21T14:16:21.0000000+00:00</time></trkpt><trkpt lat="31.18236381" lon="35.70235698"><ele>1018.0</ele><time>2015-11-21T14:17:21.0000000+00:00</time></trkpt><trkpt lat="31.18254586" lon="35.70254532"><ele>1019.3</ele><time>2015-11-21T14:19:18.0000000+00:00</time></trkpt><trkpt lat="31.1824716" lon="35.70266618"><ele>1019.3</ele><time>2015-11-21T14:20:20.0000000+00:00</time></trkpt><trkpt lat="31.18226649" lon="35.70252378"><ele>1019.8</ele><time>2015-11-21T14:21:11.0000000+00:00</time></trkpt><trkpt lat="31.18238065" lon="35.70242269"><ele>1018.4</ele><time>2015-11-21T14:22:36.0000000+00:00</time></trkpt><trkpt lat="31.18238124" lon="35.70255487"><ele>1018.8</ele><time>2015-11-21T14:23:33.0000000+00:00</time></trkpt><trkpt lat="31.18218879" lon="35.70249989"><ele>1020.7</ele><time>2015-11-21T14:24:56.0000000+00:00</time></trkpt><trkpt lat="31.18247671" lon="35.70266392"><ele>1019.3</ele><time>2015-11-21T14:29:20.0000000+00:00</time></trkpt><trkpt lat="31.18224545" lon="35.70261958"><ele>1020.3</ele><time>2015-11-21T14:30:27.0000000+00:00</time></trkpt><trkpt lat="31.18247478" lon="35.70265906"><ele>1019.3</ele><time>2015-11-21T14:57:46.0000000+00:00</time></trkpt><trkpt lat="31.18224135" lon="35.70404241"><ele>1011.0</ele><time>2015-11-21T14:59:18.0000000+00:00</time></trkpt><trkpt lat="31.18298868" lon="35.70465521"><ele>1002.3</ele><time>2015-11-21T14:59:49.0000000+00:00</time></trkpt><trkpt lat="31.18247696" lon="35.70500599"><ele>981.3</ele><time>2015-11-21T15:00:17.0000000+00:00</time></trkpt><trkpt lat="31.18288097" lon="35.70521789"><ele>981.9</ele><time>2015-11-21T15:00:45.0000000+00:00</time></trkpt><trkpt lat="31.18342278" lon="35.7058938"><ele>975.4</ele><time>2015-11-21T15:01:12.0000000+00:00</time></trkpt><trkpt lat="31.18310418" lon="35.70664147"><ele>972.3</ele><time>2015-11-21T15:02:01.0000000+00:00</time></trkpt><trkpt lat="31.18263186" lon="35.70715947"><ele>956.1</ele><time>2015-11-21T15:02:39.0000000+00:00</time></trkpt><trkpt lat="31.18319202" lon="35.70822313"><ele>944.1</ele><time>2015-11-21T15:03:13.0000000+00:00</time></trkpt><trkpt lat="31.18246112" lon="35.70751511"><ele>937.8</ele><time>2015-11-21T15:03:34.0000000+00:00</time></trkpt><trkpt lat="31.18227378" lon="35.70664641"><ele>937.9</ele><time>2015-11-21T15:03:46.0000000+00:00</time></trkpt><trkpt lat="31.18194102" lon="35.70611073"><ele>929.4</ele><time>2015-11-21T15:03:54.0000000+00:00</time></trkpt><trkpt lat="31.18110744" lon="35.70539709"><ele>933.7</ele><time>2015-11-21T15:04:09.0000000+00:00</time></trkpt><trkpt lat="31.18007027" lon="35.70335551"><ele>923.8</ele><time>2015-11-21T15:04:39.0000000+00:00</time></trkpt><trkpt lat="31.17977246" lon="35.70313348"><ele>923.5</ele><time>2015-11-21T15:04:57.0000000+00:00</time></trkpt><trkpt lat="31.17941505" lon="35.7031385"><ele>923.9</ele><time>2015-11-21T15:06:11.0000000+00:00</time></trkpt><trkpt lat="31.17965151" lon="35.70610628"><ele>956.3</ele><time>2015-11-21T15:07:35.0000000+00:00</time></trkpt><trkpt lat="31.18020857" lon="35.70779582"><ele>955.9</ele><time>2015-11-21T15:08:39.0000000+00:00</time></trkpt><trkpt lat="31.1802063" lon="35.70859554"><ele>955.4</ele><time>2015-11-21T15:09:14.0000000+00:00</time></trkpt><trkpt lat="31.17988117" lon="35.7093132"><ele>960.0</ele><time>2015-11-21T15:09:51.0000000+00:00</time></trkpt><trkpt lat="31.17994957" lon="35.70953691"><ele>959.4</ele><time>2015-11-21T15:10:38.0000000+00:00</time></trkpt></trkseg><trkseg><trkpt lat="31.17997857" lon="35.70953096"><ele>959.1</ele><time>2015-11-22T05:14:31.0000000+00:00</time></trkpt><trkpt lat="31.17990078" lon="35.70958511"><ele>960.1</ele><time>2015-11-22T05:15:59.0000000+00:00</time></trkpt><trkpt lat="31.18035098" lon="35.70857367"><ele>953.1</ele><time>2015-11-22T05:16:38.0000000+00:00</time></trkpt><trkpt lat="31.18037838" lon="35.70813973"><ele>951.5</ele><time>2015-11-22T05:16:42.0000000+00:00</time></trkpt><trkpt lat="31.18021552" lon="35.70716425"><ele>950.6</ele><time>2015-11-22T05:16:50.0000000+00:00</time></trkpt><trkpt lat="31.1797417" lon="35.70589422"><ele>946.2</ele><time>2015-11-22T05:17:01.0000000+00:00</time></trkpt><trkpt lat="31.1795811" lon="35.70347965"><ele>925.0</ele><time>2015-11-22T05:17:40.0000000+00:00</time></trkpt><trkpt lat="31.17929662" lon="35.70313607"><ele>923.9</ele><time>2015-11-22T05:19:19.0000000+00:00</time></trkpt><trkpt lat="31.17740021" lon="35.70340228"><ele>942.4</ele><time>2015-11-22T05:28:36.0000000+00:00</time></trkpt><trkpt lat="31.17439681" lon="35.7034716"><ele>955.6</ele><time>2015-11-22T05:31:16.0000000+00:00</time></trkpt><trkpt lat="31.17261725" lon="35.70450643"><ele>964.3</ele><time>2015-11-22T05:33:44.0000000+00:00</time></trkpt><trkpt lat="31.17104623" lon="35.70389204"><ele>987.9</ele><time>2015-11-22T05:35:09.0000000+00:00</time></trkpt><trkpt lat="31.16917622" lon="35.70382741"><ele>983.3</ele><time>2015-11-22T05:36:23.0000000+00:00</time></trkpt><trkpt lat="31.1645132" lon="35.7022957"><ele>1021.3</ele><time>2015-11-22T05:40:31.0000000+00:00</time></trkpt><trkpt lat="31.16210667" lon="35.69984467"><ele>1034.2</ele><time>2015-11-22T05:42:39.0000000+00:00</time></trkpt><trkpt lat="31.15828939" lon="35.69881872"><ele>1053.9</ele><time>2015-11-22T05:45:42.0000000+00:00</time></trkpt><trkpt lat="31.15621973" lon="35.69799528"><ele>1066.1</ele><time>2015-11-22T05:47:25.0000000+00:00</time></trkpt><trkpt lat="31.15091935" lon="35.70033836"><ele>1108.6</ele><time>2015-11-22T05:52:51.0000000+00:00</time></trkpt><trkpt lat="31.15000748" lon="35.70054355"><ele>1112.7</ele><time>2015-11-22T05:53:45.0000000+00:00</time></trkpt><trkpt lat="31.14919888" lon="35.70015379"><ele>1114.8</ele><time>2015-11-22T05:55:11.0000000+00:00</time></trkpt><trkpt lat="31.14928035" lon="35.70001876"><ele>1118.0</ele><time>2015-11-22T05:59:19.0000000+00:00</time></trkpt><trkpt lat="31.14921355" lon="35.70027432"><ele>1112.6</ele><time>2015-11-22T06:16:35.0000000+00:00</time></trkpt><trkpt lat="31.14727045" lon="35.6994482"><ele>1121.8</ele><time>2015-11-22T06:17:51.0000000+00:00</time></trkpt><trkpt lat="31.14177578" lon="35.69917034"><ele>1139.8</ele><time>2015-11-22T06:21:09.0000000+00:00</time></trkpt><trkpt lat="31.14090792" lon="35.69886792"><ele>1139.1</ele><time>2015-11-22T06:21:36.0000000+00:00</time></trkpt><trkpt lat="31.14085394" lon="35.69860633"><ele>1141.5</ele><time>2015-11-22T06:22:14.0000000+00:00</time></trkpt><trkpt lat="31.14037843" lon="35.69872845"><ele>1141.2</ele><time>2015-11-22T06:22:38.0000000+00:00</time></trkpt><trkpt lat="31.13728358" lon="35.69772254"><ele>1134.5</ele><time>2015-11-22T06:23:48.0000000+00:00</time></trkpt><trkpt lat="31.13637742" lon="35.69762346"><ele>1132.1</ele><time>2015-11-22T06:24:02.0000000+00:00</time></trkpt><trkpt lat="31.13331601" lon="35.698823"><ele>1144.5</ele><time>2015-11-22T06:25:46.0000000+00:00</time></trkpt><trkpt lat="31.13213039" lon="35.69861798"><ele>1137.4</ele><time>2015-11-22T06:26:04.0000000+00:00</time></trkpt><trkpt lat="31.13126622" lon="35.69870104"><ele>1136.6</ele><time>2015-11-22T06:26:14.0000000+00:00</time></trkpt><trkpt lat="31.12509236" lon="35.70189312"><ele>1141.4</ele><time>2015-11-22T06:28:13.0000000+00:00</time></trkpt><trkpt lat="31.12443488" lon="35.70214885"><ele>1139.6</ele><time>2015-11-22T06:28:26.0000000+00:00</time></trkpt><trkpt lat="31.12354497" lon="35.70212103"><ele>1138.3</ele><time>2015-11-22T06:28:39.0000000+00:00</time></trkpt><trkpt lat="31.11962459" lon="35.7014462"><ele>1150.9</ele><time>2015-11-22T06:30:01.0000000+00:00</time></trkpt><trkpt lat="31.11541537" lon="35.70041866"><ele>1151.2</ele><time>2015-11-22T06:31:52.0000000+00:00</time></trkpt><trkpt lat="31.10754685" lon="35.69901863"><ele>1148.1</ele><time>2015-11-22T06:33:59.0000000+00:00</time></trkpt><trkpt lat="31.09979142" lon="35.69652728"><ele>1153.1</ele><time>2015-11-22T06:36:49.0000000+00:00</time></trkpt><trkpt lat="31.09628644" lon="35.69605672"><ele>1158.3</ele><time>2015-11-22T06:38:18.0000000+00:00</time></trkpt><trkpt lat="31.09304155" lon="35.69647498"><ele>1151.6</ele><time>2015-11-22T06:39:47.0000000+00:00</time></trkpt><trkpt lat="31.09042975" lon="35.69590006"><ele>1156.2</ele><time>2015-11-22T06:41:34.0000000+00:00</time></trkpt><trkpt lat="31.07714972" lon="35.69522481"><ele>1227.8</ele><time>2015-11-22T07:16:29.0000000+00:00</time></trkpt><trkpt lat="31.07398169" lon="35.69435704"><ele>1244.7</ele><time>2015-11-22T07:23:36.0000000+00:00</time></trkpt><trkpt lat="31.06783994" lon="35.69533646"><ele>1238.1</ele><time>2015-11-22T07:25:54.0000000+00:00</time></trkpt><trkpt lat="31.06767934" lon="35.69548398"><ele>1238.7</ele><time>2015-11-22T07:26:00.0000000+00:00</time></trkpt><trkpt lat="31.06765855" lon="35.69582504"><ele>1239.2</ele><time>2015-11-22T07:27:08.0000000+00:00</time></trkpt><trkpt lat="31.06771597" lon="35.6952798"><ele>1238.0</ele><time>2015-11-22T07:27:40.0000000+00:00</time></trkpt><trkpt lat="31.0669393" lon="35.69485995"><ele>1238.1</ele><time>2015-11-22T07:28:37.0000000+00:00</time></trkpt><trkpt lat="31.06333651" lon="35.69480052"><ele>1240.7</ele><time>2015-11-22T07:31:21.0000000+00:00</time></trkpt><trkpt lat="31.06258725" lon="35.69501208"><ele>1242.2</ele><time>2015-11-22T07:31:46.0000000+00:00</time></trkpt><trkpt lat="31.06152124" lon="35.69502004"><ele>1247.2</ele><time>2015-11-22T07:32:29.0000000+00:00</time></trkpt><trkpt lat="31.0612878" lon="35.69512909"><ele>1247.3</ele><time>2015-11-22T07:32:41.0000000+00:00</time></trkpt><trkpt lat="31.06082378" lon="35.69619452"><ele>1254.1</ele><time>2015-11-22T07:33:23.0000000+00:00</time></trkpt><trkpt lat="31.05967035" lon="35.69813166"><ele>1256.7</ele><time>2015-11-22T07:44:16.0000000+00:00</time></trkpt><trkpt lat="31.05976121" lon="35.69814356"><ele>1256.5</ele><time>2015-11-22T07:46:55.0000000+00:00</time></trkpt><trkpt lat="31.05827065" lon="35.70134142"><ele>1237.2</ele><time>2015-11-22T07:47:36.0000000+00:00</time></trkpt><trkpt lat="31.05784292" lon="35.70199639"><ele>1236.8</ele><time>2015-11-22T07:47:46.0000000+00:00</time></trkpt><trkpt lat="31.04821161" lon="35.70922351"><ele>1216.3</ele><time>2015-11-22T07:50:23.0000000+00:00</time></trkpt><trkpt lat="31.03978235" lon="35.7120742"><ele>1217.9</ele><time>2015-11-22T07:53:16.0000000+00:00</time></trkpt><trkpt lat="31.03469026" lon="35.71281868"><ele>1215.3</ele><time>2015-11-22T07:54:36.0000000+00:00</time></trkpt><trkpt lat="31.02648111" lon="35.71698071"><ele>1210.4</ele><time>2015-11-22T07:57:29.0000000+00:00</time></trkpt><trkpt lat="31.02288351" lon="35.71852198"><ele>1203.5</ele><time>2015-11-22T08:00:12.0000000+00:00</time></trkpt><trkpt lat="31.02009821" lon="35.7186933"><ele>1191.7</ele><time>2015-11-22T08:00:51.0000000+00:00</time></trkpt><trkpt lat="31.01602477" lon="35.71965764"><ele>1171.7</ele><time>2015-11-22T08:01:28.0000000+00:00</time></trkpt><trkpt lat="31.01146351" lon="35.7214787"><ele>1149.6</ele><time>2015-11-22T08:02:14.0000000+00:00</time></trkpt><trkpt lat="31.01002718" lon="35.72239299"><ele>1137.8</ele><time>2015-11-22T08:02:27.0000000+00:00</time></trkpt><trkpt lat="31.00780774" lon="35.72345322"><ele>1133.5</ele><time>2015-11-22T08:02:43.0000000+00:00</time></trkpt><trkpt lat="31.006185" lon="35.72380643"><ele>1125.1</ele><time>2015-11-22T08:02:54.0000000+00:00</time></trkpt><trkpt lat="31.00406296" lon="35.72345238"><ele>1108.1</ele><time>2015-11-22T08:03:10.0000000+00:00</time></trkpt><trkpt lat="31.00302729" lon="35.72380384"><ele>1090.4</ele><time>2015-11-22T08:03:19.0000000+00:00</time></trkpt><trkpt lat="31.00224668" lon="35.72439535"><ele>1072.1</ele><time>2015-11-22T08:03:27.0000000+00:00</time></trkpt><trkpt lat="31.00187444" lon="35.72491913"><ele>1071.2</ele><time>2015-11-22T08:03:33.0000000+00:00</time></trkpt><trkpt lat="31.00159373" lon="35.72501091"><ele>1078.0</ele><time>2015-11-22T08:03:36.0000000+00:00</time></trkpt><trkpt lat="31.00054205" lon="35.72479793"><ele>1071.0</ele><time>2015-11-22T08:03:55.0000000+00:00</time></trkpt><trkpt lat="30.99898495" lon="35.72474663"><ele>1064.0</ele><time>2015-11-22T08:05:08.0000000+00:00</time></trkpt><trkpt lat="30.99821918" lon="35.72349295"><ele>1058.9</ele><time>2015-11-22T08:05:20.0000000+00:00</time></trkpt><trkpt lat="30.99743354" lon="35.72277722"><ele>1045.6</ele><time>2015-11-22T08:05:29.0000000+00:00</time></trkpt><trkpt lat="30.99735341" lon="35.72061569"><ele>1025.2</ele><time>2015-11-22T08:05:44.0000000+00:00</time></trkpt><trkpt lat="30.99774149" lon="35.71945706"><ele>1017.0</ele><time>2015-11-22T08:05:53.0000000+00:00</time></trkpt><trkpt lat="30.99774417" lon="35.71792854"><ele>1010.0</ele><time>2015-11-22T08:06:04.0000000+00:00</time></trkpt><trkpt lat="30.99746942" lon="35.7171621"><ele>999.4</ele><time>2015-11-22T08:06:11.0000000+00:00</time></trkpt><trkpt lat="30.99722131" lon="35.71692531"><ele>989.0</ele><time>2015-11-22T08:06:18.0000000+00:00</time></trkpt><trkpt lat="30.99700715" lon="35.71708398"><ele>982.6</ele><time>2015-11-22T08:06:26.0000000+00:00</time></trkpt><trkpt lat="30.99649418" lon="35.71829667"><ele>972.7</ele><time>2015-11-22T08:08:50.0000000+00:00</time></trkpt><trkpt lat="30.99588281" lon="35.72065107"><ele>956.3</ele><time>2015-11-22T08:09:10.0000000+00:00</time></trkpt><trkpt lat="30.99404558" lon="35.7235424"><ele>937.3</ele><time>2015-11-22T08:09:38.0000000+00:00</time></trkpt><trkpt lat="30.99350025" lon="35.72469307"><ele>925.6</ele><time>2015-11-22T08:09:50.0000000+00:00</time></trkpt><trkpt lat="30.99295249" lon="35.72540822"><ele>920.5</ele><time>2015-11-22T08:09:59.0000000+00:00</time></trkpt><trkpt lat="30.99133001" lon="35.72656022"><ele>902.8</ele><time>2015-11-22T08:10:19.0000000+00:00</time></trkpt><trkpt lat="30.98937283" lon="35.72914311"><ele>892.6</ele><time>2015-11-22T08:10:54.0000000+00:00</time></trkpt><trkpt lat="30.98910335" lon="35.72992313"><ele>894.0</ele><time>2015-11-22T08:11:07.0000000+00:00</time></trkpt><trkpt lat="30.98901618" lon="35.73251531"><ele>886.9</ele><time>2015-11-22T08:11:59.0000000+00:00</time></trkpt><trkpt lat="30.98871561" lon="35.73333557"><ele>887.5</ele><time>2015-11-22T08:12:11.0000000+00:00</time></trkpt><trkpt lat="30.98648837" lon="35.73701874"><ele>860.7</ele><time>2015-11-22T08:12:55.0000000+00:00</time></trkpt><trkpt lat="30.98553945" lon="35.73800077"><ele>854.0</ele><time>2015-11-22T08:13:09.0000000+00:00</time></trkpt><trkpt lat="30.9849979" lon="35.73882278"><ele>845.0</ele><time>2015-11-22T08:13:19.0000000+00:00</time></trkpt><trkpt lat="30.98313326" lon="35.74541288"><ele>808.9</ele><time>2015-11-22T08:14:30.0000000+00:00</time></trkpt><trkpt lat="30.98272707" lon="35.74607153"><ele>800.0</ele><time>2015-11-22T08:14:36.0000000+00:00</time></trkpt><trkpt lat="30.98018635" lon="35.7489296"><ele>782.5</ele><time>2015-11-22T08:15:09.0000000+00:00</time></trkpt><trkpt lat="30.97986004" lon="35.74950652"><ele>776.9</ele><time>2015-11-22T08:15:17.0000000+00:00</time></trkpt><trkpt lat="30.97941639" lon="35.75084251"><ele>763.9</ele><time>2015-11-22T08:15:31.0000000+00:00</time></trkpt><trkpt lat="30.97889554" lon="35.75374072"><ele>745.4</ele><time>2015-11-22T08:15:55.0000000+00:00</time></trkpt><trkpt lat="30.97852984" lon="35.75454145"><ele>745.2</ele><time>2015-11-22T08:16:03.0000000+00:00</time></trkpt><trkpt lat="30.97728211" lon="35.75616796"><ele>730.7</ele><time>2015-11-22T08:16:25.0000000+00:00</time></trkpt><trkpt lat="30.97626404" lon="35.75903901"><ele>706.4</ele><time>2015-11-22T08:16:50.0000000+00:00</time></trkpt><trkpt lat="30.97563649" lon="35.76021901"><ele>704.3</ele><time>2015-11-22T08:17:03.0000000+00:00</time></trkpt><trkpt lat="30.97439211" lon="35.76144772"><ele>689.6</ele><time>2015-11-22T08:17:21.0000000+00:00</time></trkpt><trkpt lat="30.97091597" lon="35.76358108"><ele>658.1</ele><time>2015-11-22T08:17:58.0000000+00:00</time></trkpt><trkpt lat="30.97019898" lon="35.76361469"><ele>660.1</ele><time>2015-11-22T08:18:05.0000000+00:00</time></trkpt><trkpt lat="30.96886416" lon="35.7629656"><ele>651.0</ele><time>2015-11-22T08:18:19.0000000+00:00</time></trkpt><trkpt lat="30.96835278" lon="35.7628837"><ele>644.6</ele><time>2015-11-22T08:18:25.0000000+00:00</time></trkpt><trkpt lat="30.96647582" lon="35.76391619"><ele>633.9</ele><time>2015-11-22T08:20:53.0000000+00:00</time></trkpt><trkpt lat="30.96599973" lon="35.76461415"><ele>624.2</ele><time>2015-11-22T08:21:35.0000000+00:00</time></trkpt><trkpt lat="30.96589847" lon="35.76516274"><ele>620.0</ele><time>2015-11-22T08:21:46.0000000+00:00</time></trkpt><trkpt lat="30.96604407" lon="35.76780254"><ele>611.0</ele><time>2015-11-22T08:22:15.0000000+00:00</time></trkpt><trkpt lat="30.96584357" lon="35.76883083"><ele>608.8</ele><time>2015-11-22T08:22:26.0000000+00:00</time></trkpt><trkpt lat="30.96503908" lon="35.77070402"><ele>604.5</ele><time>2015-11-22T08:22:50.0000000+00:00</time></trkpt><trkpt lat="30.96038486" lon="35.77093343"><ele>520.3</ele><time>2015-11-22T08:33:55.0000000+00:00</time></trkpt><trkpt lat="30.96042249" lon="35.7706482"><ele>520.1</ele><time>2015-11-22T08:36:59.0000000+00:00</time></trkpt><trkpt lat="30.96002427" lon="35.7701965"><ele>514.9</ele><time>2015-11-22T08:37:14.0000000+00:00</time></trkpt><trkpt lat="30.95804513" lon="35.76941103"><ele>490.2</ele><time>2015-11-22T08:37:34.0000000+00:00</time></trkpt><trkpt lat="30.95749788" lon="35.76880828"><ele>485.2</ele><time>2015-11-22T08:37:41.0000000+00:00</time></trkpt><trkpt lat="30.95745605" lon="35.76831451"><ele>480.8</ele><time>2015-11-22T08:37:45.0000000+00:00</time></trkpt><trkpt lat="30.95781413" lon="35.76659236"><ele>464.2</ele><time>2015-11-22T08:37:57.0000000+00:00</time></trkpt><trkpt lat="30.95716302" lon="35.76198315"><ele>441.5</ele><time>2015-11-22T08:38:26.0000000+00:00</time></trkpt><trkpt lat="30.95766351" lon="35.76057407"><ele>439.5</ele><time>2015-11-22T08:38:38.0000000+00:00</time></trkpt><trkpt lat="30.96019803" lon="35.75587627"><ele>426.2</ele><time>2015-11-22T08:39:29.0000000+00:00</time></trkpt><trkpt lat="30.96069734" lon="35.75428722"><ele>423.4</ele><time>2015-11-22T08:39:46.0000000+00:00</time></trkpt><trkpt lat="30.96085307" lon="35.75145221"><ele>423.1</ele><time>2015-11-22T08:40:16.0000000+00:00</time></trkpt><trkpt lat="30.96055853" lon="35.74572369"><ele>416.3</ele><time>2015-11-22T08:41:13.0000000+00:00</time></trkpt><trkpt lat="30.96063196" lon="35.74425509"><ele>414.7</ele><time>2015-11-22T08:41:26.0000000+00:00</time></trkpt><trkpt lat="30.96109891" lon="35.74317508"><ele>412.2</ele><time>2015-11-22T08:41:37.0000000+00:00</time></trkpt><trkpt lat="30.96240515" lon="35.74180372"><ele>414.7</ele><time>2015-11-22T08:44:01.0000000+00:00</time></trkpt><trkpt lat="30.96265552" lon="35.74122"><ele>422.9</ele><time>2015-11-22T08:48:13.0000000+00:00</time></trkpt><trkpt lat="30.96264739" lon="35.74054342"><ele>426.4</ele><time>2015-11-22T08:48:29.0000000+00:00</time></trkpt><trkpt lat="30.96240071" lon="35.74000622"><ele>427.9</ele><time>2015-11-22T08:48:45.0000000+00:00</time></trkpt><trkpt lat="30.96119489" lon="35.73863134"><ele>440.6</ele><time>2015-11-22T08:49:59.0000000+00:00</time></trkpt><trkpt lat="30.96086632" lon="35.73804075"><ele>450.2</ele><time>2015-11-22T08:50:34.0000000+00:00</time></trkpt><trkpt lat="30.9607576" lon="35.73744304"><ele>447.8</ele><time>2015-11-22T08:51:06.0000000+00:00</time></trkpt><trkpt lat="30.96095072" lon="35.73564034"><ele>465.2</ele><time>2015-11-22T08:52:57.0000000+00:00</time></trkpt><trkpt lat="30.96066104" lon="35.73496275"><ele>470.7</ele><time>2015-11-22T08:57:25.0000000+00:00</time></trkpt><trkpt lat="30.95912372" lon="35.73336239"><ele>490.8</ele><time>2015-11-22T08:59:08.0000000+00:00</time></trkpt><trkpt lat="30.9586887" lon="35.73250869"><ele>487.6</ele><time>2015-11-22T08:59:42.0000000+00:00</time></trkpt><trkpt lat="30.95868509" lon="35.73177343"><ele>490.0</ele><time>2015-11-22T09:00:12.0000000+00:00</time></trkpt><trkpt lat="30.95941071" lon="35.72990829"><ele>506.6</ele><time>2015-11-22T09:07:57.0000000+00:00</time></trkpt><trkpt lat="30.95940879" lon="35.72904252"><ele>520.9</ele><time>2015-11-22T09:08:38.0000000+00:00</time></trkpt><trkpt lat="30.95925204" lon="35.72864539"><ele>522.4</ele><time>2015-11-22T09:08:55.0000000+00:00</time></trkpt><trkpt lat="30.95789585" lon="35.72705174"><ele>514.6</ele><time>2015-11-22T09:09:26.0000000+00:00</time></trkpt><trkpt lat="30.95772922" lon="35.72596092"><ele>514.2</ele><time>2015-11-22T09:09:37.0000000+00:00</time></trkpt><trkpt lat="30.95796282" lon="35.72532213"><ele>513.5</ele><time>2015-11-22T09:09:47.0000000+00:00</time></trkpt><trkpt lat="30.95929152" lon="35.72376695"><ele>519.0</ele><time>2015-11-22T09:11:39.0000000+00:00</time></trkpt><trkpt lat="30.95958715" lon="35.72308525"><ele>529.1</ele><time>2015-11-22T09:13:03.0000000+00:00</time></trkpt><trkpt lat="30.95963627" lon="35.72214933"><ele>533.8</ele><time>2015-11-22T09:13:23.0000000+00:00</time></trkpt><trkpt lat="30.9591155" lon="35.72109321"><ele>534.8</ele><time>2015-11-22T09:13:46.0000000+00:00</time></trkpt><trkpt lat="30.95760173" lon="35.72012812"><ele>529.0</ele><time>2015-11-22T09:14:18.0000000+00:00</time></trkpt><trkpt lat="30.95710007" lon="35.71957508"><ele>519.2</ele><time>2015-11-22T09:14:30.0000000+00:00</time></trkpt><trkpt lat="30.95679916" lon="35.71866573"><ele>528.3</ele><time>2015-11-22T09:14:44.0000000+00:00</time></trkpt><trkpt lat="30.95745689" lon="35.71483796"><ele>536.1</ele><time>2015-11-22T09:16:10.0000000+00:00</time></trkpt><trkpt lat="30.95690377" lon="35.71039598"><ele>527.9</ele><time>2015-11-22T09:17:02.0000000+00:00</time></trkpt><trkpt lat="30.95658232" lon="35.70978284"><ele>516.1</ele><time>2015-11-22T09:17:08.0000000+00:00</time></trkpt><trkpt lat="30.95580759" lon="35.70914162"><ele>516.4</ele><time>2015-11-22T09:17:18.0000000+00:00</time></trkpt><trkpt lat="30.95174546" lon="35.70850527"><ele>493.2</ele><time>2015-11-22T09:18:00.0000000+00:00</time></trkpt><trkpt lat="30.94761989" lon="35.70897642"><ele>492.0</ele><time>2015-11-22T09:18:49.0000000+00:00</time></trkpt><trkpt lat="30.94566909" lon="35.70951194"><ele>494.5</ele><time>2015-11-22T09:19:41.0000000+00:00</time></trkpt><trkpt lat="30.94310825" lon="35.70962987"><ele>503.0</ele><time>2015-11-22T09:21:04.0000000+00:00</time></trkpt><trkpt lat="30.94066878" lon="35.7106455"><ele>512.2</ele><time>2015-11-22T09:22:42.0000000+00:00</time></trkpt><trkpt lat="30.9378424" lon="35.71278197"><ele>530.2</ele><time>2015-11-22T09:24:53.0000000+00:00</time></trkpt><trkpt lat="30.93682031" lon="35.7133542"><ele>534.3</ele><time>2015-11-22T09:25:42.0000000+00:00</time></trkpt><trkpt lat="30.93328005" lon="35.71413657"><ele>546.9</ele><time>2015-11-22T09:27:44.0000000+00:00</time></trkpt><trkpt lat="30.92922865" lon="35.714082"><ele>562.2</ele><time>2015-11-22T09:30:12.0000000+00:00</time></trkpt><trkpt lat="30.92719227" lon="35.71306829"><ele>571.3</ele><time>2015-11-22T09:34:39.0000000+00:00</time></trkpt><trkpt lat="30.92300015" lon="35.71168561"><ele>586.4</ele><time>2015-11-22T09:41:52.0000000+00:00</time></trkpt><trkpt lat="30.92050175" lon="35.70983288"><ele>602.9</ele><time>2015-11-22T09:43:58.0000000+00:00</time></trkpt><trkpt lat="30.91878254" lon="35.70774503"><ele>612.0</ele><time>2015-11-22T09:45:23.0000000+00:00</time></trkpt><trkpt lat="30.91697641" lon="35.70604954"><ele>626.6</ele><time>2015-11-22T09:47:00.0000000+00:00</time></trkpt><trkpt lat="30.91640426" lon="35.70570462"><ele>632.2</ele><time>2015-11-22T09:47:32.0000000+00:00</time></trkpt><trkpt lat="30.91457767" lon="35.70533037"><ele>645.3</ele><time>2015-11-22T09:54:43.0000000+00:00</time></trkpt><trkpt lat="30.91337638" lon="35.70395465"><ele>648.9</ele><time>2015-11-22T09:55:54.0000000+00:00</time></trkpt><trkpt lat="30.91169514" lon="35.70355483"><ele>672.2</ele><time>2015-11-22T09:57:44.0000000+00:00</time></trkpt><trkpt lat="30.90957452" lon="35.7014783"><ele>694.1</ele><time>2015-11-22T10:00:49.0000000+00:00</time></trkpt><trkpt lat="30.90920672" lon="35.70064019"><ele>704.1</ele><time>2015-11-22T10:01:38.0000000+00:00</time></trkpt><trkpt lat="30.90921166" lon="35.6995793"><ele>716.7</ele><time>2015-11-22T10:02:37.0000000+00:00</time></trkpt><trkpt lat="30.90959027" lon="35.69866911"><ele>730.6</ele><time>2015-11-22T10:03:39.0000000+00:00</time></trkpt><trkpt lat="30.91055411" lon="35.69790199"><ele>738.4</ele><time>2015-11-22T10:04:39.0000000+00:00</time></trkpt><trkpt lat="30.91173579" lon="35.69782438"><ele>732.9</ele><time>2015-11-22T10:05:32.0000000+00:00</time></trkpt><trkpt lat="30.91520665" lon="35.69817239"><ele>742.2</ele><time>2015-11-22T10:07:10.0000000+00:00</time></trkpt><trkpt lat="30.917898" lon="35.69956253"><ele>754.3</ele><time>2015-11-22T10:11:24.0000000+00:00</time></trkpt><trkpt lat="30.91884188" lon="35.69988968"><ele>763.7</ele><time>2015-11-22T10:12:51.0000000+00:00</time></trkpt><trkpt lat="30.919192" lon="35.69984316"><ele>767.8</ele><time>2015-11-22T10:13:03.0000000+00:00</time></trkpt><trkpt lat="30.91965962" lon="35.6994441"><ele>770.7</ele><time>2015-11-22T10:13:32.0000000+00:00</time></trkpt><trkpt lat="30.91980689" lon="35.69873088"><ele>781.5</ele><time>2015-11-22T10:14:20.0000000+00:00</time></trkpt><trkpt lat="30.91934119" lon="35.6977512"><ele>790.8</ele><time>2015-11-22T10:15:28.0000000+00:00</time></trkpt><trkpt lat="30.91575818" lon="35.69248779"><ele>826.8</ele><time>2015-11-22T10:21:03.0000000+00:00</time></trkpt><trkpt lat="30.91532274" lon="35.69244529"><ele>835.1</ele><time>2015-11-22T10:21:26.0000000+00:00</time></trkpt><trkpt lat="30.91364896" lon="35.69318357"><ele>853.6</ele><time>2015-11-22T10:23:28.0000000+00:00</time></trkpt><trkpt lat="30.91262109" lon="35.69315985"><ele>856.6</ele><time>2015-11-22T10:24:28.0000000+00:00</time></trkpt><trkpt lat="30.91030869" lon="35.6914087"><ele>861.4</ele><time>2015-11-22T10:26:14.0000000+00:00</time></trkpt><trkpt lat="30.90669399" lon="35.69050941"><ele>875.7</ele><time>2015-11-22T10:29:23.0000000+00:00</time></trkpt><trkpt lat="30.9062878" lon="35.68993189"><ele>880.0</ele><time>2015-11-22T10:49:03.0000000+00:00</time></trkpt><trkpt lat="30.90507788" lon="35.68967038"><ele>903.4</ele><time>2015-11-22T10:50:35.0000000+00:00</time></trkpt><trkpt lat="30.90457655" lon="35.68886044"><ele>897.3</ele><time>2015-11-22T10:51:21.0000000+00:00</time></trkpt><trkpt lat="30.90425972" lon="35.68872892"><ele>901.6</ele><time>2015-11-22T10:51:35.0000000+00:00</time></trkpt><trkpt lat="30.90227069" lon="35.68947885"><ele>930.8</ele><time>2015-11-22T10:53:37.0000000+00:00</time></trkpt><trkpt lat="30.90183601" lon="35.68948028"><ele>931.8</ele><time>2015-11-22T10:53:56.0000000+00:00</time></trkpt><trkpt lat="30.8982742" lon="35.68845333"><ele>952.1</ele><time>2015-11-22T10:56:55.0000000+00:00</time></trkpt><trkpt lat="30.89729612" lon="35.68838409"><ele>962.7</ele><time>2015-11-22T10:57:57.0000000+00:00</time></trkpt><trkpt lat="30.89638886" lon="35.68849674"><ele>969.3</ele><time>2015-11-22T10:58:59.0000000+00:00</time></trkpt><trkpt lat="30.8939452" lon="35.68948438"><ele>995.7</ele><time>2015-11-22T11:12:59.0000000+00:00</time></trkpt><trkpt lat="30.88879829" lon="35.68975554"><ele>1047.5</ele><time>2015-11-22T11:19:10.0000000+00:00</time></trkpt><trkpt lat="30.88690935" lon="35.68900268"><ele>1046.5</ele><time>2015-11-22T11:20:48.0000000+00:00</time></trkpt><trkpt lat="30.88525007" lon="35.6885949"><ele>1057.2</ele><time>2015-11-22T11:22:15.0000000+00:00</time></trkpt><trkpt lat="30.88415019" lon="35.68791613"><ele>1070.5</ele><time>2015-11-22T11:24:49.0000000+00:00</time></trkpt><trkpt lat="30.88257783" lon="35.68754506"><ele>1095.3</ele><time>2015-11-22T11:26:33.0000000+00:00</time></trkpt><trkpt lat="30.87976738" lon="35.68763081"><ele>1110.8</ele><time>2015-11-22T11:28:54.0000000+00:00</time></trkpt><trkpt lat="30.87838462" lon="35.68751967"><ele>1118.2</ele><time>2015-11-22T11:29:51.0000000+00:00</time></trkpt><trkpt lat="30.87771557" lon="35.6872434"><ele>1117.8</ele><time>2015-11-22T11:30:26.0000000+00:00</time></trkpt><trkpt lat="30.87675417" lon="35.68641158"><ele>1128.5</ele><time>2015-11-22T11:31:35.0000000+00:00</time></trkpt><trkpt lat="30.87663741" lon="35.68627764"><ele>1129.3</ele><time>2015-11-22T11:31:45.0000000+00:00</time></trkpt><trkpt lat="30.87673757" lon="35.68609382"><ele>1132.1</ele><time>2015-11-22T11:37:58.0000000+00:00</time></trkpt><trkpt lat="30.87653439" lon="35.68613539"><ele>1130.3</ele><time>2015-11-22T11:39:05.0000000+00:00</time></trkpt><trkpt lat="30.87554608" lon="35.68476319"><ele>1139.3</ele><time>2015-11-22T11:40:06.0000000+00:00</time></trkpt><trkpt lat="30.87514551" lon="35.67736264"><ele>1165.9</ele><time>2015-11-22T11:44:02.0000000+00:00</time></trkpt><trkpt lat="30.87239139" lon="35.66987802"><ele>1161.6</ele><time>2015-11-22T11:47:41.0000000+00:00</time></trkpt><trkpt lat="30.87182377" lon="35.66921057"><ele>1158.1</ele><time>2015-11-22T12:10:11.0000000+00:00</time></trkpt><trkpt lat="30.86535369" lon="35.66564642"><ele>1174.5</ele><time>2015-11-22T12:17:28.0000000+00:00</time></trkpt><trkpt lat="30.86464039" lon="35.66487579"><ele>1177.3</ele><time>2015-11-22T12:17:48.0000000+00:00</time></trkpt><trkpt lat="30.85946088" lon="35.65788981"><ele>1195.9</ele><time>2015-11-22T12:21:11.0000000+00:00</time></trkpt><trkpt lat="30.85887213" lon="35.65740961"><ele>1197.2</ele><time>2015-11-22T12:21:26.0000000+00:00</time></trkpt><trkpt lat="30.85422873" lon="35.65530164"><ele>1195.6</ele><time>2015-11-22T12:23:14.0000000+00:00</time></trkpt><trkpt lat="30.85149908" lon="35.65269789"><ele>1206.2</ele><time>2015-11-22T12:24:40.0000000+00:00</time></trkpt><trkpt lat="30.84886054" lon="35.65465263"><ele>1213.1</ele><time>2015-11-22T12:26:52.0000000+00:00</time></trkpt><trkpt lat="30.84774784" lon="35.65446781"><ele>1208.7</ele><time>2015-11-22T12:27:21.0000000+00:00</time></trkpt><trkpt lat="30.8459148" lon="35.65363599"><ele>1204.9</ele><time>2015-11-22T12:27:53.0000000+00:00</time></trkpt><trkpt lat="30.84425963" lon="35.6534624"><ele>1203.3</ele><time>2015-11-22T12:28:20.0000000+00:00</time></trkpt><trkpt lat="30.84144465" lon="35.65386817"><ele>1208.8</ele><time>2015-11-22T12:29:09.0000000+00:00</time></trkpt><trkpt lat="30.84066547" lon="35.65367337"><ele>1207.6</ele><time>2015-11-22T12:29:35.0000000+00:00</time></trkpt><trkpt lat="30.84046187" lon="35.65631728"><ele>1187.6</ele><time>2015-11-22T12:30:03.0000000+00:00</time></trkpt><trkpt lat="30.84027495" lon="35.65675263"><ele>1187.1</ele><time>2015-11-22T12:30:07.0000000+00:00</time></trkpt><trkpt lat="30.83989634" lon="35.65710006"><ele>1190.9</ele><time>2015-11-22T12:30:12.0000000+00:00</time></trkpt><trkpt lat="30.83886788" lon="35.65746384"><ele>1193.9</ele><time>2015-11-22T12:30:27.0000000+00:00</time></trkpt><trkpt lat="30.83759853" lon="35.65822441"><ele>1197.9</ele><time>2015-11-22T12:31:00.0000000+00:00</time></trkpt><trkpt lat="30.83704524" lon="35.65881148"><ele>1200.0</ele><time>2015-11-22T12:31:20.0000000+00:00</time></trkpt><trkpt lat="30.83545217" lon="35.66113109"><ele>1208.6</ele><time>2015-11-22T12:32:39.0000000+00:00</time></trkpt><trkpt lat="30.83283694" lon="35.66517418"><ele>1223.9</ele><time>2015-11-22T12:35:05.0000000+00:00</time></trkpt><trkpt lat="30.83191744" lon="35.66747007"><ele>1224.4</ele><time>2015-11-22T12:37:11.0000000+00:00</time></trkpt><trkpt lat="30.82816721" lon="35.68588159"><ele>1191.1</ele><time>2015-11-22T12:45:19.0000000+00:00</time></trkpt><trkpt lat="30.8285687" lon="35.6843187"><ele>1184.5</ele><time>2015-11-22T12:46:17.0000000+00:00</time></trkpt><trkpt lat="30.82855848" lon="35.68373934"><ele>1180.7</ele><time>2015-11-22T12:46:31.0000000+00:00</time></trkpt><trkpt lat="30.82818565" lon="35.68499713"><ele>1188.4</ele><time>2015-11-22T12:47:31.0000000+00:00</time></trkpt><trkpt lat="30.82799639" lon="35.68602945"><ele>1193.0</ele><time>2015-11-22T12:48:24.0000000+00:00</time></trkpt><trkpt lat="30.82796722" lon="35.68751589"><ele>1195.6</ele><time>2015-11-22T12:49:17.0000000+00:00</time></trkpt><trkpt lat="30.82768978" lon="35.68785653"><ele>1198.2</ele><time>2015-11-22T12:49:28.0000000+00:00</time></trkpt><trkpt lat="30.82514453" lon="35.68587665"><ele>1189.3</ele><time>2015-11-22T12:52:06.0000000+00:00</time></trkpt><trkpt lat="30.82467732" lon="35.68527273"><ele>1183.7</ele><time>2015-11-22T12:52:19.0000000+00:00</time></trkpt><trkpt lat="30.82347016" lon="35.68454258"><ele>1173.7</ele><time>2015-11-22T12:52:37.0000000+00:00</time></trkpt><trkpt lat="30.8209265" lon="35.68091649"><ele>1185.3</ele><time>2015-11-22T12:55:40.0000000+00:00</time></trkpt><trkpt lat="30.81828436" lon="35.6781487"><ele>1191.6</ele><time>2015-11-22T12:57:09.0000000+00:00</time></trkpt><trkpt lat="30.81790826" lon="35.67778953"><ele>1193.8</ele><time>2015-11-22T12:57:23.0000000+00:00</time></trkpt><trkpt lat="30.81738523" lon="35.67758485"><ele>1195.3</ele><time>2015-11-22T12:57:37.0000000+00:00</time></trkpt><trkpt lat="30.81546192" lon="35.67554989"><ele>1192.4</ele><time>2015-11-22T12:58:50.0000000+00:00</time></trkpt><trkpt lat="30.81383164" lon="35.67489585"><ele>1196.8</ele><time>2015-11-22T12:59:45.0000000+00:00</time></trkpt><trkpt lat="30.81243974" lon="35.67514211"><ele>1196.2</ele><time>2015-11-22T13:00:30.0000000+00:00</time></trkpt><trkpt lat="30.81219675" lon="35.67488646"><ele>1194.6</ele><time>2015-11-22T13:00:42.0000000+00:00</time></trkpt><trkpt lat="30.81101851" lon="35.6754001"><ele>1202.5</ele><time>2015-11-22T13:01:35.0000000+00:00</time></trkpt><trkpt lat="30.81083788" lon="35.67530899"><ele>1204.8</ele><time>2015-11-22T13:01:48.0000000+00:00</time></trkpt><trkpt lat="30.81082572" lon="35.67512652"><ele>1205.5</ele><time>2015-11-22T13:02:02.0000000+00:00</time></trkpt><trkpt lat="30.81210346" lon="35.67345064"><ele>1202.3</ele><time>2015-11-22T13:02:40.0000000+00:00</time></trkpt><trkpt lat="30.81237378" lon="35.67285896"><ele>1209.2</ele><time>2015-11-22T13:03:07.0000000+00:00</time></trkpt><trkpt lat="30.81229725" lon="35.6721641"><ele>1213.3</ele><time>2015-11-22T13:03:40.0000000+00:00</time></trkpt><trkpt lat="30.8116847" lon="35.67118443"><ele>1222.3</ele><time>2015-11-22T13:04:52.0000000+00:00</time></trkpt><trkpt lat="30.81143945" lon="35.6711649"><ele>1220.5</ele><time>2015-11-22T13:06:26.0000000+00:00</time></trkpt><trkpt lat="30.80884759" lon="35.67506055"><ele>1219.8</ele><time>2015-11-22T13:17:23.0000000+00:00</time></trkpt><trkpt lat="30.80665774" lon="35.67736298"><ele>1210.4</ele><time>2015-11-22T13:17:59.0000000+00:00</time></trkpt><trkpt lat="30.80488882" lon="35.67980102"><ele>1211.0</ele><time>2015-11-22T13:18:35.0000000+00:00</time></trkpt><trkpt lat="30.80117119" lon="35.68669103"><ele>1225.6</ele><time>2015-11-22T13:21:30.0000000+00:00</time></trkpt><trkpt lat="30.80003151" lon="35.68948925"><ele>1244.7</ele><time>2015-11-22T13:23:46.0000000+00:00</time></trkpt><trkpt lat="30.79852411" lon="35.69463699"><ele>1290.8</ele><time>2015-11-22T13:29:01.0000000+00:00</time></trkpt><trkpt lat="30.79799403" lon="35.69702894"><ele>1295.3</ele><time>2015-11-22T13:32:46.0000000+00:00</time></trkpt><trkpt lat="30.79730085" lon="35.70129021"><ele>1284.2</ele><time>2015-11-22T13:37:55.0000000+00:00</time></trkpt><trkpt lat="30.7973322" lon="35.70250902"><ele>1283.3</ele><time>2015-11-22T13:38:11.0000000+00:00</time></trkpt><trkpt lat="30.79697086" lon="35.70404886"><ele>1282.9</ele><time>2015-11-22T13:38:42.0000000+00:00</time></trkpt><trkpt lat="30.79693121" lon="35.70589758"><ele>1268.2</ele><time>2015-11-22T13:39:41.0000000+00:00</time></trkpt><trkpt lat="30.79628471" lon="35.71079244"><ele>1264.9</ele><time>2015-11-22T13:40:25.0000000+00:00</time></trkpt><trkpt lat="30.79586805" lon="35.71246547"><ele>1253.0</ele><time>2015-11-22T13:41:43.0000000+00:00</time></trkpt><trkpt lat="30.79594726" lon="35.71366601"><ele>1242.7</ele><time>2015-11-22T13:41:58.0000000+00:00</time></trkpt><trkpt lat="30.79723639" lon="35.71524306"><ele>1228.1</ele><time>2015-11-22T13:42:16.0000000+00:00</time></trkpt><trkpt lat="30.79744267" lon="35.71588369"><ele>1226.7</ele><time>2015-11-22T13:42:21.0000000+00:00</time></trkpt><trkpt lat="30.79679249" lon="35.71893772"><ele>1203.8</ele><time>2015-11-22T13:42:43.0000000+00:00</time></trkpt><trkpt lat="30.79604164" lon="35.72083807"><ele>1190.0</ele><time>2015-11-22T13:42:55.0000000+00:00</time></trkpt><trkpt lat="30.79547653" lon="35.72174063"><ele>1180.5</ele><time>2015-11-22T13:43:01.0000000+00:00</time></trkpt><trkpt lat="30.79262509" lon="35.72480623"><ele>1176.3</ele><time>2015-11-22T13:43:35.0000000+00:00</time></trkpt><trkpt lat="30.78432332" lon="35.73220242"><ele>1183.1</ele><time>2015-11-22T13:47:48.0000000+00:00</time></trkpt><trkpt lat="30.78112981" lon="35.73745477"><ele>1182.6</ele><time>2015-11-22T13:49:30.0000000+00:00</time></trkpt><trkpt lat="30.78094617" lon="35.7370827"><ele>1183.0</ele><time>2015-11-22T13:49:48.0000000+00:00</time></trkpt><trkpt lat="30.77906979" lon="35.73613026"><ele>1190.8</ele><time>2015-11-22T13:51:08.0000000+00:00</time></trkpt><trkpt lat="30.77661624" lon="35.73407695"><ele>1196.5</ele><time>2015-11-22T13:52:22.0000000+00:00</time></trkpt><trkpt lat="30.7718917" lon="35.73178584"><ele>1203.4</ele><time>2015-11-22T13:54:42.0000000+00:00</time></trkpt><trkpt lat="30.77024876" lon="35.73046468"><ele>1196.0</ele><time>2015-11-22T13:55:12.0000000+00:00</time></trkpt><trkpt lat="30.7674192" lon="35.72917831"><ele>1198.8</ele><time>2015-11-22T13:56:00.0000000+00:00</time></trkpt><trkpt lat="30.76568674" lon="35.72791239"><ele>1201.1</ele><time>2015-11-22T13:56:39.0000000+00:00</time></trkpt><trkpt lat="30.76367458" lon="35.72611439"><ele>1204.8</ele><time>2015-11-22T13:57:28.0000000+00:00</time></trkpt><trkpt lat="30.7622417" lon="35.72525382"><ele>1208.8</ele><time>2015-11-22T13:58:04.0000000+00:00</time></trkpt><trkpt lat="30.76126604" lon="35.72515869"><ele>1212.9</ele><time>2015-11-22T13:58:30.0000000+00:00</time></trkpt><trkpt lat="30.75851276" lon="35.72552154"><ele>1223.3</ele><time>2015-11-22T14:00:14.0000000+00:00</time></trkpt><trkpt lat="30.75723401" lon="35.72696775"><ele>1230.6</ele><time>2015-11-22T14:01:18.0000000+00:00</time></trkpt><trkpt lat="30.75665608" lon="35.72733035"><ele>1229.1</ele><time>2015-11-22T14:01:35.0000000+00:00</time></trkpt><trkpt lat="30.75511767" lon="35.72718845"><ele>1231.0</ele><time>2015-11-22T14:02:09.0000000+00:00</time></trkpt><trkpt lat="30.75399986" lon="35.72673381"><ele>1230.7</ele><time>2015-11-22T14:02:38.0000000+00:00</time></trkpt><trkpt lat="30.75097986" lon="35.72498753"><ele>1238.5</ele><time>2015-11-22T14:04:24.0000000+00:00</time></trkpt><trkpt lat="30.74909233" lon="35.72321165"><ele>1243.2</ele><time>2015-11-22T14:05:32.0000000+00:00</time></trkpt><trkpt lat="30.74591543" lon="35.72305248"><ele>1252.5</ele><time>2015-11-22T14:07:08.0000000+00:00</time></trkpt><trkpt lat="30.74477498" lon="35.72368573"><ele>1257.8</ele><time>2015-11-22T14:07:55.0000000+00:00</time></trkpt><trkpt lat="30.74278856" lon="35.72383577"><ele>1263.6</ele><time>2015-11-22T14:09:04.0000000+00:00</time></trkpt><trkpt lat="30.73749748" lon="35.72258041"><ele>1272.1</ele><time>2015-11-22T14:11:37.0000000+00:00</time></trkpt><trkpt lat="30.73446591" lon="35.7230446"><ele>1276.9</ele><time>2015-11-22T14:13:10.0000000+00:00</time></trkpt><trkpt lat="30.73259046" lon="35.72281326"><ele>1281.0</ele><time>2015-11-22T14:14:03.0000000+00:00</time></trkpt><trkpt lat="30.72985059" lon="35.72351592"><ele>1293.9</ele><time>2015-11-22T14:15:37.0000000+00:00</time></trkpt><trkpt lat="30.72888533" lon="35.72350485"><ele>1294.5</ele><time>2015-11-22T14:16:10.0000000+00:00</time></trkpt><trkpt lat="30.7279292" lon="35.72335222"><ele>1296.4</ele><time>2015-11-22T14:16:51.0000000+00:00</time></trkpt><trkpt lat="30.72789811" lon="35.72316187"><ele>1299.3</ele><time>2015-11-22T14:23:36.0000000+00:00</time></trkpt><trkpt lat="30.72748966" lon="35.72310654"><ele>1299.5</ele><time>2015-11-22T14:34:48.0000000+00:00</time></trkpt><trkpt lat="30.72571948" lon="35.72118784"><ele>1301.5</ele><time>2015-11-22T14:36:10.0000000+00:00</time></trkpt><trkpt lat="30.72507793" lon="35.72087076"><ele>1303.5</ele><time>2015-11-22T14:36:28.0000000+00:00</time></trkpt><trkpt lat="30.72326333" lon="35.72041436"><ele>1311.5</ele><time>2015-11-22T14:37:13.0000000+00:00</time></trkpt><trkpt lat="30.72176289" lon="35.71975864"><ele>1313.5</ele><time>2015-11-22T14:37:50.0000000+00:00</time></trkpt><trkpt lat="30.71956716" lon="35.71911517"><ele>1321.2</ele><time>2015-11-22T14:38:46.0000000+00:00</time></trkpt><trkpt lat="30.7172318" lon="35.71744197"><ele>1329.0</ele><time>2015-11-22T14:40:02.0000000+00:00</time></trkpt><trkpt lat="30.71449536" lon="35.71403096"><ele>1364.5</ele><time>2015-11-22T14:44:01.0000000+00:00</time></trkpt><trkpt lat="30.71293582" lon="35.71291851"><ele>1388.1</ele><time>2015-11-22T14:47:45.0000000+00:00</time></trkpt><trkpt lat="30.7119253" lon="35.71073745"><ele>1411.2</ele><time>2015-11-22T14:50:49.0000000+00:00</time></trkpt><trkpt lat="30.71209579" lon="35.70893509"><ele>1434.3</ele><time>2015-11-22T14:54:27.0000000+00:00</time></trkpt><trkpt lat="30.71189412" lon="35.7086522"><ele>1439.8</ele><time>2015-11-22T14:55:06.0000000+00:00</time></trkpt><trkpt lat="30.71019377" lon="35.70770664"><ele>1460.0</ele><time>2015-11-22T15:04:15.0000000+00:00</time></trkpt><trkpt lat="30.70993527" lon="35.70695487"><ele>1465.3</ele><time>2015-11-22T15:04:55.0000000+00:00</time></trkpt><trkpt lat="30.70991976" lon="35.70004667"><ele>1465.2</ele><time>2015-11-22T15:09:02.0000000+00:00</time></trkpt><trkpt lat="30.70895584" lon="35.69454328"><ele>1468.8</ele><time>2015-11-22T15:10:44.0000000+00:00</time></trkpt><trkpt lat="30.70915273" lon="35.69318407"><ele>1476.4</ele><time>2015-11-22T15:11:09.0000000+00:00</time></trkpt><trkpt lat="30.70913907" lon="35.68955027"><ele>1479.0</ele><time>2015-11-22T15:12:01.0000000+00:00</time></trkpt><trkpt lat="30.70947845" lon="35.6868611"><ele>1500.2</ele><time>2015-11-22T15:14:33.0000000+00:00</time></trkpt><trkpt lat="30.70996352" lon="35.6853998"><ele>1503.9</ele><time>2015-11-22T15:15:26.0000000+00:00</time></trkpt><trkpt lat="30.71030332" lon="35.68317348"><ele>1494.2</ele><time>2015-11-22T15:16:00.0000000+00:00</time></trkpt><trkpt lat="30.7116124" lon="35.67981041"><ele>1462.1</ele><time>2015-11-22T15:16:23.0000000+00:00</time></trkpt><trkpt lat="30.71175196" lon="35.6771505"><ele>1471.2</ele><time>2015-11-22T15:16:54.0000000+00:00</time></trkpt><trkpt lat="30.70892835" lon="35.67721705"><ele>1482.3</ele><time>2015-11-22T15:18:43.0000000+00:00</time></trkpt><trkpt lat="30.70604028" lon="35.67755434"><ele>1489.8</ele><time>2015-11-22T15:20:12.0000000+00:00</time></trkpt><trkpt lat="30.70325347" lon="35.67818373"><ele>1507.9</ele><time>2015-11-22T15:22:31.0000000+00:00</time></trkpt><trkpt lat="30.70155521" lon="35.67816521"><ele>1517.2</ele><time>2015-11-22T15:27:18.0000000+00:00</time></trkpt><trkpt lat="30.70043312" lon="35.67765442"><ele>1523.0</ele><time>2015-11-22T15:28:11.0000000+00:00</time></trkpt><trkpt lat="30.69934641" lon="35.67653636"><ele>1522.5</ele><time>2015-11-22T15:29:17.0000000+00:00</time></trkpt><trkpt lat="30.69838819" lon="35.67596479"><ele>1505.3</ele><time>2015-11-22T15:29:41.0000000+00:00</time></trkpt><trkpt lat="30.69698129" lon="35.6756985"><ele>1489.0</ele><time>2015-11-22T15:30:05.0000000+00:00</time></trkpt><trkpt lat="30.69597496" lon="35.6757099"><ele>1496.9</ele><time>2015-11-22T15:30:26.0000000+00:00</time></trkpt><trkpt lat="30.69281423" lon="35.67818809"><ele>1526.1</ele><time>2015-11-22T15:34:33.0000000+00:00</time></trkpt><trkpt lat="30.69017711" lon="35.68140012"><ele>1516.8</ele><time>2015-11-22T15:39:17.0000000+00:00</time></trkpt><trkpt lat="30.68872956" lon="35.68215617"><ele>1504.6</ele><time>2015-11-22T15:39:40.0000000+00:00</time></trkpt><trkpt lat="30.68775197" lon="35.68321221"><ele>1493.5</ele><time>2015-11-22T15:40:15.0000000+00:00</time></trkpt><trkpt lat="30.68653526" lon="35.68407655"><ele>1476.3</ele><time>2015-11-22T15:40:31.0000000+00:00</time></trkpt><trkpt lat="30.68542784" lon="35.68398938"><ele>1466.8</ele><time>2015-11-22T15:40:42.0000000+00:00</time></trkpt><trkpt lat="30.68397417" lon="35.68146793"><ele>1458.3</ele><time>2015-11-22T15:41:08.0000000+00:00</time></trkpt><trkpt lat="30.68310237" lon="35.67860534"><ele>1451.8</ele><time>2015-11-22T15:41:33.0000000+00:00</time></trkpt><trkpt lat="30.6812047" lon="35.67638079"><ele>1447.5</ele><time>2015-11-22T15:42:01.0000000+00:00</time></trkpt><trkpt lat="30.67870237" lon="35.67428967"><ele>1438.4</ele><time>2015-11-22T15:42:33.0000000+00:00</time></trkpt><trkpt lat="30.6760899" lon="35.67264799"><ele>1434.8</ele><time>2015-11-22T15:43:02.0000000+00:00</time></trkpt><trkpt lat="30.67389443" lon="35.67101075"><ele>1432.5</ele><time>2015-11-22T15:43:32.0000000+00:00</time></trkpt><trkpt lat="30.66959065" lon="35.66662031"><ele>1450.9</ele><time>2015-11-22T15:45:40.0000000+00:00</time></trkpt><trkpt lat="30.66860285" lon="35.66577466"><ele>1460.6</ele><time>2015-11-22T15:46:58.0000000+00:00</time></trkpt><trkpt lat="30.66820026" lon="35.6655129"><ele>1461.8</ele><time>2015-11-22T15:47:16.0000000+00:00</time></trkpt><trkpt lat="30.66772593" lon="35.66547669"><ele>1462.0</ele><time>2015-11-22T15:47:37.0000000+00:00</time></trkpt><trkpt lat="30.6674588" lon="35.66521433"><ele>1461.6</ele><time>2015-11-22T15:47:50.0000000+00:00</time></trkpt><trkpt lat="30.66769802" lon="35.6641857"><ele>1459.9</ele><time>2015-11-22T15:48:11.0000000+00:00</time></trkpt><trkpt lat="30.66932553" lon="35.66277025"><ele>1462.9</ele><time>2015-11-22T15:57:56.0000000+00:00</time></trkpt><trkpt lat="30.66940106" lon="35.66251745"><ele>1463.3</ele><time>2015-11-22T15:58:06.0000000+00:00</time></trkpt><trkpt lat="30.66783858" lon="35.66334525"><ele>1458.8</ele><time>2015-11-22T15:58:33.0000000+00:00</time></trkpt><trkpt lat="30.66674072" lon="35.66365052"><ele>1449.5</ele><time>2015-11-22T15:58:45.0000000+00:00</time></trkpt><trkpt lat="30.66436479" lon="35.6639381"><ele>1431.8</ele><time>2015-11-22T15:59:07.0000000+00:00</time></trkpt><trkpt lat="30.66293442" lon="35.66389318"><ele>1421.4</ele><time>2015-11-22T15:59:19.0000000+00:00</time></trkpt><trkpt lat="30.66068153" lon="35.66335397"><ele>1413.5</ele><time>2015-11-22T15:59:39.0000000+00:00</time></trkpt><trkpt lat="30.65589915" lon="35.66098097"><ele>1402.2</ele><time>2015-11-22T16:00:34.0000000+00:00</time></trkpt><trkpt lat="30.65515651" lon="35.658312"><ele>1408.1</ele><time>2015-11-22T16:01:38.0000000+00:00</time></trkpt><trkpt lat="30.65512994" lon="35.65769333"><ele>1410.6</ele><time>2015-11-22T16:01:55.0000000+00:00</time></trkpt><trkpt lat="30.65549254" lon="35.65551463"><ele>1420.6</ele><time>2015-11-22T16:03:28.0000000+00:00</time></trkpt><trkpt lat="30.65544502" lon="35.65504876"><ele>1420.9</ele><time>2015-11-22T16:03:46.0000000+00:00</time></trkpt><trkpt lat="30.65620501" lon="35.6524808"><ele>1420.5</ele><time>2015-11-22T16:05:01.0000000+00:00</time></trkpt><trkpt lat="30.65617165" lon="35.65146063"><ele>1420.4</ele><time>2015-11-22T16:05:34.0000000+00:00</time></trkpt><trkpt lat="30.65644079" lon="35.64873744"><ele>1414.6</ele><time>2015-11-22T16:06:35.0000000+00:00</time></trkpt><trkpt lat="30.65708058" lon="35.64466367"><ele>1412.9</ele><time>2015-11-22T16:09:57.0000000+00:00</time></trkpt><trkpt lat="30.65780151" lon="35.64315995"><ele>1404.2</ele><time>2015-11-22T16:10:23.0000000+00:00</time></trkpt><trkpt lat="30.65804835" lon="35.64225395"><ele>1405.5</ele><time>2015-11-22T16:10:53.0000000+00:00</time></trkpt><trkpt lat="30.65763546" lon="35.64151031"><ele>1408.0</ele><time>2015-11-22T16:16:33.0000000+00:00</time></trkpt><trkpt lat="30.65614021" lon="35.63961114"><ele>1427.8</ele><time>2015-11-22T16:19:09.0000000+00:00</time></trkpt><trkpt lat="30.6546448" lon="35.63816073"><ele>1441.5</ele><time>2015-11-22T16:21:04.0000000+00:00</time></trkpt><trkpt lat="30.65464916" lon="35.63755891"><ele>1446.3</ele><time>2015-11-22T16:21:35.0000000+00:00</time></trkpt><trkpt lat="30.65506532" lon="35.63661679"><ele>1451.9</ele><time>2015-11-22T16:22:31.0000000+00:00</time></trkpt><trkpt lat="30.65519205" lon="35.63586703"><ele>1460.4</ele><time>2015-11-22T16:23:16.0000000+00:00</time></trkpt><trkpt lat="30.65502014" lon="35.6356553"><ele>1461.3</ele><time>2015-11-22T16:23:31.0000000+00:00</time></trkpt><trkpt lat="30.65425253" lon="35.6353657"><ele>1456.0</ele><time>2015-11-22T16:24:00.0000000+00:00</time></trkpt><trkpt lat="30.65542415" lon="35.63326679"><ele>1469.8</ele><time>2015-11-22T16:26:54.0000000+00:00</time></trkpt><trkpt lat="30.65503146" lon="35.63232752"><ele>1470.2</ele><time>2015-11-22T16:27:34.0000000+00:00</time></trkpt><trkpt lat="30.65587342" lon="35.62918581"><ele>1495.6</ele><time>2015-11-22T16:30:53.0000000+00:00</time></trkpt><trkpt lat="30.65923003" lon="35.62331278"><ele>1545.5</ele><time>2015-11-22T16:41:10.0000000+00:00</time></trkpt><trkpt lat="30.65934914" lon="35.62226655"><ele>1546.8</ele><time>2015-11-22T16:42:32.0000000+00:00</time></trkpt><trkpt lat="30.66018951" lon="35.62027928"><ele>1528.5</ele><time>2015-11-22T16:42:54.0000000+00:00</time></trkpt><trkpt lat="30.66059226" lon="35.61843191"><ele>1502.2</ele><time>2015-11-22T16:43:07.0000000+00:00</time></trkpt><trkpt lat="30.66112862" lon="35.61738024"><ele>1490.9</ele><time>2015-11-22T16:43:15.0000000+00:00</time></trkpt><trkpt lat="30.66153254" lon="35.61726574"><ele>1490.2</ele><time>2015-11-22T16:43:20.0000000+00:00</time></trkpt><trkpt lat="30.66265035" lon="35.61750035"><ele>1485.4</ele><time>2015-11-22T16:43:34.0000000+00:00</time></trkpt><trkpt lat="30.66444878" lon="35.61659192"><ele>1467.5</ele><time>2015-11-22T16:43:57.0000000+00:00</time></trkpt><trkpt lat="30.66560598" lon="35.61646594"><ele>1448.8</ele><time>2015-11-22T16:44:17.0000000+00:00</time></trkpt><trkpt lat="30.66618844" lon="35.61581835"><ele>1430.3</ele><time>2015-11-22T16:44:35.0000000+00:00</time></trkpt><trkpt lat="30.66698388" lon="35.61452704"><ele>1415.5</ele><time>2015-11-22T16:45:05.0000000+00:00</time></trkpt><trkpt lat="30.66838358" lon="35.6137155"><ele>1396.0</ele><time>2015-11-22T16:45:24.0000000+00:00</time></trkpt><trkpt lat="30.67058701" lon="35.61135801"><ele>1342.2</ele><time>2015-11-22T16:45:46.0000000+00:00</time></trkpt><trkpt lat="30.67105824" lon="35.61057002"><ele>1333.8</ele><time>2015-11-22T16:45:54.0000000+00:00</time></trkpt><trkpt lat="30.67153031" lon="35.61031974"><ele>1328.1</ele><time>2015-11-22T16:46:08.0000000+00:00</time></trkpt><trkpt lat="30.6718992" lon="35.61034421"><ele>1321.2</ele><time>2015-11-22T16:46:25.0000000+00:00</time></trkpt><trkpt lat="30.67208251" lon="35.61053205"><ele>1317.1</ele><time>2015-11-22T16:46:33.0000000+00:00</time></trkpt><trkpt lat="30.67245626" lon="35.611803"><ele>1309.2</ele><time>2015-11-22T16:48:11.0000000+00:00</time></trkpt><trkpt lat="30.67280855" lon="35.61223785"><ele>1305.5</ele><time>2015-11-22T16:48:18.0000000+00:00</time></trkpt><trkpt lat="30.6736677" lon="35.61276759"><ele>1298.5</ele><time>2015-11-22T16:48:31.0000000+00:00</time></trkpt><trkpt lat="30.6746669" lon="35.61291997"><ele>1295.6</ele><time>2015-11-22T16:48:48.0000000+00:00</time></trkpt><trkpt lat="30.67467269" lon="35.61278377"><ele>1291.8</ele><time>2015-11-22T16:48:54.0000000+00:00</time></trkpt><trkpt lat="30.67411093" lon="35.61239468"><ele>1279.9</ele><time>2015-11-22T16:49:04.0000000+00:00</time></trkpt><trkpt lat="30.67390205" lon="35.61173796"><ele>1273.5</ele><time>2015-11-22T16:49:17.0000000+00:00</time></trkpt><trkpt lat="30.67478601" lon="35.61071721"><ele>1248.0</ele><time>2015-11-22T16:50:04.0000000+00:00</time></trkpt><trkpt lat="30.67468727" lon="35.61052334"><ele>1246.9</ele><time>2015-11-22T16:52:10.0000000+00:00</time></trkpt></trkseg><trkseg><trkpt lat="31.1800006" lon="35.7093524"><ele>958.3</ele><time>2015-11-22T05:11:07.0000000+00:00</time></trkpt><trkpt lat="31.1799999" lon="35.7095657"><ele>959.0</ele><time>2015-11-22T05:11:36.0000000+00:00</time></trkpt><trkpt lat="31.1798996" lon="35.7095404"><ele>960.1</ele><time>2015-11-22T05:15:55.0000000+00:00</time></trkpt><trkpt lat="31.1803142" lon="35.7086197"><ele>953.7</ele><time>2015-11-22T05:16:42.0000000+00:00</time></trkpt><trkpt lat="31.1803382" lon="35.7078355"><ele>950.6</ele><time>2015-11-22T05:16:50.0000000+00:00</time></trkpt><trkpt lat="31.1798878" lon="35.7063228"><ele>948.0</ele><time>2015-11-22T05:17:04.0000000+00:00</time></trkpt><trkpt lat="31.1797333" lon="35.705798"><ele>940.9</ele><time>2015-11-22T05:17:09.0000000+00:00</time></trkpt><trkpt lat="31.1797266" lon="35.7045554"><ele>937.7</ele><time>2015-11-22T05:17:21.0000000+00:00</time></trkpt><trkpt lat="31.1795488" lon="35.7034949"><ele>928.1</ele><time>2015-11-22T05:17:38.0000000+00:00</time></trkpt><trkpt lat="31.1794908" lon="35.7033086"><ele>925.5</ele><time>2015-11-22T05:18:11.0000000+00:00</time></trkpt><trkpt lat="31.1794409" lon="35.7032481"><ele>926.1</ele><time>2015-11-22T05:18:13.0000000+00:00</time></trkpt><trkpt lat="31.179178" lon="35.7032018"><ele>930.0</ele><time>2015-11-22T05:18:21.0000000+00:00</time></trkpt><trkpt lat="31.1792912" lon="35.7031396"><ele>927.8</ele><time>2015-11-22T05:26:32.0000000+00:00</time></trkpt><trkpt lat="31.1773241" lon="35.7034427"><ele>950.6</ele><time>2015-11-22T05:28:42.0000000+00:00</time></trkpt><trkpt lat="31.1771045" lon="35.7034337"><ele>952.0</ele><time>2015-11-22T05:28:54.0000000+00:00</time></trkpt><trkpt lat="31.1746261" lon="35.7034609"><ele>962.6</ele><time>2015-11-22T05:31:00.0000000+00:00</time></trkpt><trkpt lat="31.1744316" lon="35.7034201"><ele>959.4</ele><time>2015-11-22T05:31:12.0000000+00:00</time></trkpt><trkpt lat="31.1729858" lon="35.7043641"><ele>960.7</ele><time>2015-11-22T05:33:27.0000000+00:00</time></trkpt><trkpt lat="31.1726395" lon="35.7045042"><ele>964.2</ele><time>2015-11-22T05:33:45.0000000+00:00</time></trkpt><trkpt lat="31.1711368" lon="35.7038701"><ele>980.7</ele><time>2015-11-22T05:35:07.0000000+00:00</time></trkpt><trkpt lat="31.170694" lon="35.703859"><ele>983.4</ele><time>2015-11-22T05:35:25.0000000+00:00</time></trkpt><trkpt lat="31.1692244" lon="35.7038522"><ele>981.3</ele><time>2015-11-22T05:36:23.0000000+00:00</time></trkpt><trkpt lat="31.1689973" lon="35.7037783"><ele>981.8</ele><time>2015-11-22T05:36:33.0000000+00:00</time></trkpt><trkpt lat="31.1677075" lon="35.7032785"><ele>1010.9</ele><time>2015-11-22T05:37:48.0000000+00:00</time></trkpt><trkpt lat="31.166253" lon="35.7028394"><ele>1004.9</ele><time>2015-11-22T05:38:56.0000000+00:00</time></trkpt><trkpt lat="31.1645732" lon="35.7023313"><ele>1022.5</ele><time>2015-11-22T05:40:29.0000000+00:00</time></trkpt><trkpt lat="31.1644637" lon="35.7022685"><ele>1023.5</ele><time>2015-11-22T05:40:35.0000000+00:00</time></trkpt><trkpt lat="31.16406" lon="35.7018631"><ele>1015.0</ele><time>2015-11-22T05:40:57.0000000+00:00</time></trkpt><trkpt lat="31.1630753" lon="35.7007801"><ele>1034.7</ele><time>2015-11-22T05:41:45.0000000+00:00</time></trkpt><trkpt lat="31.1620623" lon="35.6998144"><ele>1038.2</ele><time>2015-11-22T05:42:41.0000000+00:00</time></trkpt><trkpt lat="31.1606299" lon="35.6993834"><ele>1036.2</ele><time>2015-11-22T05:43:44.0000000+00:00</time></trkpt><trkpt lat="31.1590342" lon="35.699015"><ele>1045.2</ele><time>2015-11-22T05:45:02.0000000+00:00</time></trkpt><trkpt lat="31.1585356" lon="35.6988856"><ele>1049.4</ele><time>2015-11-22T05:45:29.0000000+00:00</time></trkpt><trkpt lat="31.1564107" lon="35.6980132"><ele>1064.9</ele><time>2015-11-22T05:47:18.0000000+00:00</time></trkpt><trkpt lat="31.1559764" lon="35.6980286"><ele>1067.9</ele><time>2015-11-22T05:47:38.0000000+00:00</time></trkpt><trkpt lat="31.1509523" lon="35.7003399"><ele>1108.3</ele><time>2015-11-22T05:52:49.0000000+00:00</time></trkpt><trkpt lat="31.1507128" lon="35.7004335"><ele>1110.9</ele><time>2015-11-22T05:53:04.0000000+00:00</time></trkpt><trkpt lat="31.1500131" lon="35.7005683"><ele>1112.3</ele><time>2015-11-22T05:53:46.0000000+00:00</time></trkpt><trkpt lat="31.1492301" lon="35.7001127"><ele>1115.3</ele><time>2015-11-22T05:55:21.0000000+00:00</time></trkpt><trkpt lat="31.1492494" lon="35.7002436"><ele>1114.2</ele><time>2015-11-22T06:16:33.0000000+00:00</time></trkpt><trkpt lat="31.1473873" lon="35.6994645"><ele>1120.2</ele><time>2015-11-22T06:17:46.0000000+00:00</time></trkpt><trkpt lat="31.1428858" lon="35.6992748"><ele>1139.0</ele><time>2015-11-22T06:20:36.0000000+00:00</time></trkpt><trkpt lat="31.1421402" lon="35.6992468"><ele>1140.1</ele><time>2015-11-22T06:20:58.0000000+00:00</time></trkpt><trkpt lat="31.1409141" lon="35.6988938"><ele>1140.8</ele><time>2015-11-22T06:21:32.0000000+00:00</time></trkpt><trkpt lat="31.1408433" lon="35.698607"><ele>1141.6</ele><time>2015-11-22T06:21:44.0000000+00:00</time></trkpt><trkpt lat="31.140224" lon="35.6987"><ele>1141.6</ele><time>2015-11-22T06:22:42.0000000+00:00</time></trkpt><trkpt lat="31.1392525" lon="35.698355"><ele>1142.9</ele><time>2015-11-22T06:23:08.0000000+00:00</time></trkpt><trkpt lat="31.1370815" lon="35.6976448"><ele>1133.9</ele><time>2015-11-22T06:23:51.0000000+00:00</time></trkpt><trkpt lat="31.1365268" lon="35.6975987"><ele>1132.3</ele><time>2015-11-22T06:23:59.0000000+00:00</time></trkpt><trkpt lat="31.1364448" lon="35.6975986"><ele>1132.6</ele><time>2015-11-22T06:24:00.0000000+00:00</time></trkpt><trkpt lat="31.1338123" lon="35.6986423"><ele>1147.4</ele><time>2015-11-22T06:25:26.0000000+00:00</time></trkpt><trkpt lat="31.1335032" lon="35.6987905"><ele>1146.7</ele><time>2015-11-22T06:25:42.0000000+00:00</time></trkpt><trkpt lat="31.1319194" lon="35.6985748"><ele>1137.0</ele><time>2015-11-22T06:26:10.0000000+00:00</time></trkpt><trkpt lat="31.1313572" lon="35.6986407"><ele>1136.6</ele><time>2015-11-22T06:26:17.0000000+00:00</time></trkpt><trkpt lat="31.1307949" lon="35.6988979"><ele>1134.8</ele><time>2015-11-22T06:26:24.0000000+00:00</time></trkpt><trkpt lat="31.1259866" lon="35.701453"><ele>1142.2</ele><time>2015-11-22T06:27:40.0000000+00:00</time></trkpt><trkpt lat="31.1254475" lon="35.7017642"><ele>1141.9</ele><time>2015-11-22T06:27:56.0000000+00:00</time></trkpt><trkpt lat="31.1246219" lon="35.7021215"><ele>1140.1</ele><time>2015-11-22T06:28:16.0000000+00:00</time></trkpt><trkpt lat="31.12388" lon="35.7021937"><ele>1139.2</ele><time>2015-11-22T06:28:29.0000000+00:00</time></trkpt><trkpt lat="31.1226392" lon="35.7019666"><ele>1137.9</ele><time>2015-11-22T06:28:48.0000000+00:00</time></trkpt><trkpt lat="31.1184763" lon="35.7011928"><ele>1155.1</ele><time>2015-11-22T06:30:37.0000000+00:00</time></trkpt><trkpt lat="31.1179133" lon="35.7010367"><ele>1157.5</ele><time>2015-11-22T06:30:55.0000000+00:00</time></trkpt><trkpt lat="31.1151048" lon="35.700343"><ele>1150.7</ele><time>2015-11-22T06:31:56.0000000+00:00</time></trkpt><trkpt lat="31.1077877" lon="35.6990959"><ele>1148.7</ele><time>2015-11-22T06:33:53.0000000+00:00</time></trkpt><trkpt lat="31.1051314" lon="35.6982708"><ele>1144.8</ele><time>2015-11-22T06:34:38.0000000+00:00</time></trkpt><trkpt lat="31.1007215" lon="35.6968812"><ele>1146.6</ele><time>2015-11-22T06:36:06.0000000+00:00</time></trkpt><trkpt lat="31.1001326" lon="35.6966142"><ele>1151.1</ele><time>2015-11-22T06:36:24.0000000+00:00</time></trkpt><trkpt lat="31.0973742" lon="35.6962025"><ele>1159.3</ele><time>2015-11-22T06:37:54.0000000+00:00</time></trkpt><trkpt lat="31.0963625" lon="35.6960486"><ele>1158.8</ele><time>2015-11-22T06:38:16.0000000+00:00</time></trkpt><trkpt lat="31.0937659" lon="35.6964351"><ele>1148.1</ele><time>2015-11-22T06:39:30.0000000+00:00</time></trkpt><trkpt lat="31.0933318" lon="35.6964988"><ele>1149.6</ele><time>2015-11-22T06:39:39.0000000+00:00</time></trkpt><trkpt lat="31.0904353" lon="35.6958914"><ele>1155.9</ele><time>2015-11-22T06:41:38.0000000+00:00</time></trkpt><trkpt lat="31.0898365" lon="35.6959022"><ele>1154.2</ele><time>2015-11-22T06:41:56.0000000+00:00</time></trkpt><trkpt lat="31.0803932" lon="35.6954402"><ele>1197.4</ele><time>2015-11-22T07:13:31.0000000+00:00</time></trkpt><trkpt lat="31.0768466" lon="35.695212"><ele>1231.0</ele><time>2015-11-22T07:17:07.0000000+00:00</time></trkpt><trkpt lat="31.0756791" lon="35.6947454"><ele>1247.4</ele><time>2015-11-22T07:18:25.0000000+00:00</time></trkpt><trkpt lat="31.0749636" lon="35.6945173"><ele>1245.6</ele><time>2015-11-22T07:19:00.0000000+00:00</time></trkpt><trkpt lat="31.0739061" lon="35.6943813"><ele>1244.7</ele><time>2015-11-22T07:23:38.0000000+00:00</time></trkpt><trkpt lat="31.068646" lon="35.6952214"><ele>1239.1</ele><time>2015-11-22T07:25:40.0000000+00:00</time></trkpt><trkpt lat="31.0676397" lon="35.6952057"><ele>1237.6</ele><time>2015-11-22T07:26:07.0000000+00:00</time></trkpt><trkpt lat="31.0676479" lon="35.6957819"><ele>1239.2</ele><time>2015-11-22T07:26:33.0000000+00:00</time></trkpt><trkpt lat="31.0677201" lon="35.6952799"><ele>1237.8</ele><time>2015-11-22T07:27:39.0000000+00:00</time></trkpt><trkpt lat="31.0668884" lon="35.6948725"><ele>1238.3</ele><time>2015-11-22T07:28:06.0000000+00:00</time></trkpt><trkpt lat="31.0651868" lon="35.6948565"><ele>1238.0</ele><time>2015-11-22T07:30:24.0000000+00:00</time></trkpt><trkpt lat="31.063134" lon="35.694741"><ele>1241.3</ele><time>2015-11-22T07:31:24.0000000+00:00</time></trkpt><trkpt lat="31.0625904" lon="35.6949971"><ele>1242.1</ele><time>2015-11-22T07:31:45.0000000+00:00</time></trkpt><trkpt lat="31.0620809" lon="35.6949936"><ele>1243.6</ele><time>2015-11-22T07:32:05.0000000+00:00</time></trkpt><trkpt lat="31.0612656" lon="35.6950247"><ele>1247.3</ele><time>2015-11-22T07:32:36.0000000+00:00</time></trkpt><trkpt lat="31.0608053" lon="35.6962405"><ele>1253.9</ele><time>2015-11-22T07:33:18.0000000+00:00</time></trkpt><trkpt lat="31.0601751" lon="35.6973115"><ele>1259.6</ele><time>2015-11-22T07:34:00.0000000+00:00</time></trkpt><trkpt lat="31.0597234" lon="35.6981272"><ele>1256.8</ele><time>2015-11-22T07:46:56.0000000+00:00</time></trkpt><trkpt lat="31.0584998" lon="35.7008466"><ele>1238.1</ele><time>2015-11-22T07:47:32.0000000+00:00</time></trkpt><trkpt lat="31.0579602" lon="35.7018503"><ele>1237.3</ele><time>2015-11-22T07:47:44.0000000+00:00</time></trkpt><trkpt lat="31.0511905" lon="35.7070221"><ele>1210.3</ele><time>2015-11-22T07:49:21.0000000+00:00</time></trkpt><trkpt lat="31.0482164" lon="35.7092139"><ele>1216.4</ele><time>2015-11-22T07:50:14.0000000+00:00</time></trkpt><trkpt lat="31.0432124" lon="35.7108848"><ele>1220.0</ele><time>2015-11-22T07:51:44.0000000+00:00</time></trkpt><trkpt lat="31.0396111" lon="35.7121307"><ele>1218.1</ele><time>2015-11-22T07:53:11.0000000+00:00</time></trkpt><trkpt lat="31.034828" lon="35.7127888"><ele>1215.7</ele><time>2015-11-22T07:54:24.0000000+00:00</time></trkpt><trkpt lat="31.0326598" lon="35.713839"><ele>1210.1</ele><time>2015-11-22T07:54:58.0000000+00:00</time></trkpt><trkpt lat="31.0284424" lon="35.7159568"><ele>1218.1</ele><time>2015-11-22T07:56:28.0000000+00:00</time></trkpt><trkpt lat="31.0267371" lon="35.7168467"><ele>1211.2</ele><time>2015-11-22T07:57:23.0000000+00:00</time></trkpt><trkpt lat="31.025184" lon="35.7175473"><ele>1204.7</ele><time>2015-11-22T07:59:33.0000000+00:00</time></trkpt><trkpt lat="31.0231671" lon="35.7184336"><ele>1203.9</ele><time>2015-11-22T08:00:07.0000000+00:00</time></trkpt><trkpt lat="31.0223394" lon="35.7185996"><ele>1206.4</ele><time>2015-11-22T08:00:20.0000000+00:00</time></trkpt><trkpt lat="31.0203209" lon="35.7186786"><ele>1198.6</ele><time>2015-11-22T08:00:46.0000000+00:00</time></trkpt><trkpt lat="31.017373" lon="35.7193481"><ele>1180.3</ele><time>2015-11-22T08:01:11.0000000+00:00</time></trkpt><trkpt lat="31.0154294" lon="35.7198648"><ele>1180.2</ele><time>2015-11-22T08:01:27.0000000+00:00</time></trkpt><trkpt lat="31.014893" lon="35.7200663"><ele>1177.5</ele><time>2015-11-22T08:01:32.0000000+00:00</time></trkpt><trkpt lat="31.0137844" lon="35.7205792"><ele>1162.6</ele><time>2015-11-22T08:01:43.0000000+00:00</time></trkpt><trkpt lat="31.0125668" lon="35.7211206"><ele>1171.3</ele><time>2015-11-22T08:01:55.0000000+00:00</time></trkpt><trkpt lat="31.0112847" lon="35.7216045"><ele>1150.5</ele><time>2015-11-22T08:02:06.0000000+00:00</time></trkpt><trkpt lat="31.0105097" lon="35.7221028"><ele>1136.9</ele><time>2015-11-22T08:02:12.0000000+00:00</time></trkpt><trkpt lat="31.0098262" lon="35.7225422"><ele>1145.1</ele><time>2015-11-22T08:02:17.0000000+00:00</time></trkpt><trkpt lat="31.0082991" lon="35.7232597"><ele>1124.6</ele><time>2015-11-22T08:02:27.0000000+00:00</time></trkpt><trkpt lat="31.0076902" lon="35.7235222"><ele>1132.2</ele><time>2015-11-22T08:02:31.0000000+00:00</time></trkpt><trkpt lat="31.00621" lon="35.7238215"><ele>1124.4</ele><time>2015-11-22T08:02:41.0000000+00:00</time></trkpt><trkpt lat="31.0051593" lon="35.7236247"><ele>1124.2</ele><time>2015-11-22T08:02:49.0000000+00:00</time></trkpt><trkpt lat="31.0045914" lon="35.7234684"><ele>1112.0</ele><time>2015-11-22T08:02:54.0000000+00:00</time></trkpt><trkpt lat="31.0043714" lon="35.7234609"><ele>1107.6</ele><time>2015-11-22T08:02:56.0000000+00:00</time></trkpt><trkpt lat="31.0036757" lon="35.7235801"><ele>1106.4</ele><time>2015-11-22T08:03:02.0000000+00:00</time></trkpt><trkpt lat="31.0035528" lon="35.7236076"><ele>1102.7</ele><time>2015-11-22T08:03:03.0000000+00:00</time></trkpt><trkpt lat="31.0028197" lon="35.7239474"><ele>1085.6</ele><time>2015-11-22T08:03:10.0000000+00:00</time></trkpt><trkpt lat="31.0020628" lon="35.7246958"><ele>1067.4</ele><time>2015-11-22T08:03:20.0000000+00:00</time></trkpt><trkpt lat="31.0018917" lon="35.7249232"><ele>1070.1</ele><time>2015-11-22T08:03:24.0000000+00:00</time></trkpt><trkpt lat="31.001595" lon="35.7250231"><ele>1081.4</ele><time>2015-11-22T08:03:28.0000000+00:00</time></trkpt><trkpt lat="31.0013318" lon="35.724976"><ele>1083.2</ele><time>2015-11-22T08:03:31.0000000+00:00</time></trkpt><trkpt lat="30.9990671" lon="35.7247706"><ele>1056.7</ele><time>2015-11-22T08:03:51.0000000+00:00</time></trkpt><trkpt lat="30.9989606" lon="35.7247092"><ele>1055.6</ele><time>2015-11-22T08:03:52.0000000+00:00</time></trkpt><trkpt lat="30.9987173" lon="35.7244408"><ele>1058.4</ele><time>2015-11-22T08:03:55.0000000+00:00</time></trkpt><trkpt lat="30.9982982" lon="35.7235953"><ele>1057.8</ele><time>2015-11-22T08:04:02.0000000+00:00</time></trkpt><trkpt lat="30.9982284" lon="35.723487"><ele>1054.2</ele><time>2015-11-22T08:04:03.0000000+00:00</time></trkpt><trkpt lat="30.9979569" lon="35.7232517"><ele>1041.9</ele><time>2015-11-22T08:04:06.0000000+00:00</time></trkpt><trkpt lat="30.99747" lon="35.7228654"><ele>1043.8</ele><time>2015-11-22T08:04:12.0000000+00:00</time></trkpt><trkpt lat="30.9974036" lon="35.7226333"><ele>1042.4</ele><time>2015-11-22T08:04:14.0000000+00:00</time></trkpt><trkpt lat="30.9973139" lon="35.720825"><ele>1026.5</ele><time>2015-11-22T08:04:27.0000000+00:00</time></trkpt><trkpt lat="30.9976779" lon="35.7196602"><ele>1014.5</ele><time>2015-11-22T08:04:38.0000000+00:00</time></trkpt><trkpt lat="30.997738" lon="35.7194968"><ele>1015.0</ele><time>2015-11-22T08:04:43.0000000+00:00</time></trkpt><trkpt lat="30.9977226" lon="35.7179393"><ele>1011.8</ele><time>2015-11-22T08:05:44.0000000+00:00</time></trkpt><trkpt lat="30.9976375" lon="35.7175782"><ele>1009.0</ele><time>2015-11-22T08:05:47.0000000+00:00</time></trkpt><trkpt lat="30.9974148" lon="35.7171455"><ele>1002.1</ele><time>2015-11-22T08:05:52.0000000+00:00</time></trkpt><trkpt lat="30.9970046" lon="35.717138"><ele>985.0</ele><time>2015-11-22T08:06:01.0000000+00:00</time></trkpt><trkpt lat="30.996698" lon="35.7177354"><ele>972.0</ele><time>2015-11-22T08:08:42.0000000+00:00</time></trkpt><trkpt lat="30.9964204" lon="35.7184672"><ele>969.0</ele><time>2015-11-22T08:08:50.0000000+00:00</time></trkpt><trkpt lat="30.9958541" lon="35.7206925"><ele>949.7</ele><time>2015-11-22T08:09:08.0000000+00:00</time></trkpt><trkpt lat="30.9955751" lon="35.721195"><ele>953.7</ele><time>2015-11-22T08:09:12.0000000+00:00</time></trkpt><trkpt lat="30.9948817" lon="35.7221865"><ele>938.5</ele><time>2015-11-22T08:09:21.0000000+00:00</time></trkpt><trkpt lat="30.99469" lon="35.7224834"><ele>943.1</ele><time>2015-11-22T08:09:24.0000000+00:00</time></trkpt><trkpt lat="30.9941646" lon="35.7233061"><ele>934.4</ele><time>2015-11-22T08:09:32.0000000+00:00</time></trkpt><trkpt lat="30.9935483" lon="35.7246463"><ele>924.9</ele><time>2015-11-22T08:09:45.0000000+00:00</time></trkpt><trkpt lat="30.9928886" lon="35.7254859"><ele>919.0</ele><time>2015-11-22T08:09:55.0000000+00:00</time></trkpt><trkpt lat="30.9920967" lon="35.7259567"><ele>915.5</ele><time>2015-11-22T08:10:04.0000000+00:00</time></trkpt><trkpt lat="30.9914311" lon="35.7264386"><ele>903.6</ele><time>2015-11-22T08:10:12.0000000+00:00</time></trkpt><trkpt lat="30.9907561" lon="35.7272875"><ele>895.3</ele><time>2015-11-22T08:10:22.0000000+00:00</time></trkpt><trkpt lat="30.9892765" lon="35.729297"><ele>892.7</ele><time>2015-11-22T08:10:50.0000000+00:00</time></trkpt><trkpt lat="30.9890643" lon="35.730123"><ele>893.9</ele><time>2015-11-22T08:11:05.0000000+00:00</time></trkpt><trkpt lat="30.9890264" lon="35.732375"><ele>887.2</ele><time>2015-11-22T08:11:53.0000000+00:00</time></trkpt><trkpt lat="30.9888516" lon="35.7330544"><ele>886.7</ele><time>2015-11-22T08:12:02.0000000+00:00</time></trkpt><trkpt lat="30.9885993" lon="35.733545"><ele>888.6</ele><time>2015-11-22T08:12:09.0000000+00:00</time></trkpt><trkpt lat="30.9864588" lon="35.7370692"><ele>859.0</ele><time>2015-11-22T08:12:50.0000000+00:00</time></trkpt><trkpt lat="30.9863916" lon="35.7371587"><ele>857.9</ele><time>2015-11-22T08:12:51.0000000+00:00</time></trkpt><trkpt lat="30.986008" lon="35.7375416"><ele>861.7</ele><time>2015-11-22T08:12:56.0000000+00:00</time></trkpt><trkpt lat="30.9850748" lon="35.7386516"><ele>845.8</ele><time>2015-11-22T08:13:09.0000000+00:00</time></trkpt><trkpt lat="30.9843358" lon="35.7410714"><ele>846.5</ele><time>2015-11-22T08:13:37.0000000+00:00</time></trkpt><trkpt lat="30.9832028" lon="35.7453005"><ele>810.9</ele><time>2015-11-22T08:14:17.0000000+00:00</time></trkpt><trkpt lat="30.982741" lon="35.7460409"><ele>799.6</ele><time>2015-11-22T08:14:23.0000000+00:00</time></trkpt><trkpt lat="30.9822563" lon="35.7466335"><ele>797.1</ele><time>2015-11-22T08:14:28.0000000+00:00</time></trkpt><trkpt lat="30.9804181" lon="35.7485992"><ele>783.9</ele><time>2015-11-22T08:14:48.0000000+00:00</time></trkpt><trkpt lat="30.9802489" lon="35.7488293"><ele>783.3</ele><time>2015-11-22T08:14:51.0000000+00:00</time></trkpt><trkpt lat="30.9798857" lon="35.7494709"><ele>777.5</ele><time>2015-11-22T08:14:59.0000000+00:00</time></trkpt><trkpt lat="30.9795303" lon="35.7504212"><ele>767.2</ele><time>2015-11-22T08:15:09.0000000+00:00</time></trkpt><trkpt lat="30.9791593" lon="35.7525518"><ele>749.3</ele><time>2015-11-22T08:15:26.0000000+00:00</time></trkpt><trkpt lat="30.9787401" lon="35.7541649"><ele>746.1</ele><time>2015-11-22T08:15:39.0000000+00:00</time></trkpt><trkpt lat="30.9780997" lon="35.7551454"><ele>743.3</ele><time>2015-11-22T08:15:50.0000000+00:00</time></trkpt><trkpt lat="30.977219" lon="35.7562478"><ele>728.3</ele><time>2015-11-22T08:16:04.0000000+00:00</time></trkpt><trkpt lat="30.9768768" lon="35.7571867"><ele>716.4</ele><time>2015-11-22T08:16:12.0000000+00:00</time></trkpt><trkpt lat="30.9762652" lon="35.7590395"><ele>707.8</ele><time>2015-11-22T08:16:27.0000000+00:00</time></trkpt><trkpt lat="30.9757882" lon="35.7599404"><ele>706.9</ele><time>2015-11-22T08:16:36.0000000+00:00</time></trkpt><trkpt lat="30.9755779" lon="35.7602884"><ele>703.3</ele><time>2015-11-22T08:16:40.0000000+00:00</time></trkpt><trkpt lat="30.9745503" lon="35.7613386"><ele>692.8</ele><time>2015-11-22T08:16:53.0000000+00:00</time></trkpt><trkpt lat="30.9728899" lon="35.7624091"><ele>672.3</ele><time>2015-11-22T08:17:09.0000000+00:00</time></trkpt><trkpt lat="30.9722794" lon="35.7628002"><ele>675.2</ele><time>2015-11-22T08:17:14.0000000+00:00</time></trkpt><trkpt lat="30.9711279" lon="35.7634819"><ele>660.8</ele><time>2015-11-22T08:17:24.0000000+00:00</time></trkpt><trkpt lat="30.9708878" lon="35.7635699"><ele>658.4</ele><time>2015-11-22T08:17:26.0000000+00:00</time></trkpt><trkpt lat="30.9701448" lon="35.7635847"><ele>658.9</ele><time>2015-11-22T08:17:32.0000000+00:00</time></trkpt><trkpt lat="30.9691258" lon="35.7630912"><ele>658.9</ele><time>2015-11-22T08:17:41.0000000+00:00</time></trkpt><trkpt lat="30.9684924" lon="35.7628727"><ele>649.5</ele><time>2015-11-22T08:17:47.0000000+00:00</time></trkpt><trkpt lat="30.967926" lon="35.7630413"><ele>639.9</ele><time>2015-11-22T08:17:53.0000000+00:00</time></trkpt><trkpt lat="30.9678399" lon="35.7630822"><ele>639.4</ele><time>2015-11-22T08:17:54.0000000+00:00</time></trkpt><trkpt lat="30.9664665" lon="35.7639297"><ele>634.5</ele><time>2015-11-22T08:19:17.0000000+00:00</time></trkpt><trkpt lat="30.9664142" lon="35.764043"><ele>634.5</ele><time>2015-11-22T08:21:10.0000000+00:00</time></trkpt><trkpt lat="30.96604" lon="35.7645531"><ele>625.6</ele><time>2015-11-22T08:21:35.0000000+00:00</time></trkpt><trkpt lat="30.9659089" lon="35.7650546"><ele>620.9</ele><time>2015-11-22T08:21:43.0000000+00:00</time></trkpt><trkpt lat="30.965954" lon="35.7663747"><ele>614.4</ele><time>2015-11-22T08:21:59.0000000+00:00</time></trkpt><trkpt lat="30.9660029" lon="35.7682252"><ele>608.6</ele><time>2015-11-22T08:22:17.0000000+00:00</time></trkpt><trkpt lat="30.9652056" lon="35.7703784"><ele>605.6</ele><time>2015-11-22T08:22:43.0000000+00:00</time></trkpt><trkpt lat="30.9604574" lon="35.7707093"><ele>520.3</ele><time>2015-11-22T08:36:25.0000000+00:00</time></trkpt><trkpt lat="30.9604132" lon="35.7706744"><ele>519.3</ele><time>2015-11-22T08:37:01.0000000+00:00</time></trkpt><trkpt lat="30.9599037" lon="35.7701345"><ele>513.1</ele><time>2015-11-22T08:37:14.0000000+00:00</time></trkpt><trkpt lat="30.9578742" lon="35.7693207"><ele>488.8</ele><time>2015-11-22T08:37:34.0000000+00:00</time></trkpt><trkpt lat="30.957479" lon="35.7688005"><ele>485.2</ele><time>2015-11-22T08:37:40.0000000+00:00</time></trkpt><trkpt lat="30.9574231" lon="35.7683191"><ele>480.3</ele><time>2015-11-22T08:37:44.0000000+00:00</time></trkpt><trkpt lat="30.9577426" lon="35.7671015"><ele>467.7</ele><time>2015-11-22T08:37:53.0000000+00:00</time></trkpt><trkpt lat="30.9577881" lon="35.7662576"><ele>461.4</ele><time>2015-11-22T08:37:58.0000000+00:00</time></trkpt><trkpt lat="30.9573758" lon="35.7638608"><ele>443.3</ele><time>2015-11-22T08:38:12.0000000+00:00</time></trkpt><trkpt lat="30.9571181" lon="35.7621666"><ele>441.4</ele><time>2015-11-22T08:38:24.0000000+00:00</time></trkpt><trkpt lat="30.9573354" lon="35.7611786"><ele>440.4</ele><time>2015-11-22T08:38:32.0000000+00:00</time></trkpt><trkpt lat="30.9591986" lon="35.7577908"><ele>427.0</ele><time>2015-11-22T08:39:04.0000000+00:00</time></trkpt><trkpt lat="30.9601262" lon="35.7560272"><ele>426.4</ele><time>2015-11-22T08:39:27.0000000+00:00</time></trkpt><trkpt lat="30.9606177" lon="35.7546109"><ele>424.5</ele><time>2015-11-22T08:39:43.0000000+00:00</time></trkpt><trkpt lat="30.9608551" lon="35.7524118"><ele>427.2</ele><time>2015-11-22T08:40:05.0000000+00:00</time></trkpt><trkpt lat="30.9608481" lon="35.7521448"><ele>427.3</ele><time>2015-11-22T08:40:08.0000000+00:00</time></trkpt><trkpt lat="30.9605435" lon="35.7445748"><ele>416.1</ele><time>2015-11-22T08:41:24.0000000+00:00</time></trkpt><trkpt lat="30.9609787" lon="35.7433005"><ele>412.2</ele><time>2015-11-22T08:41:36.0000000+00:00</time></trkpt><trkpt lat="30.9615981" lon="35.7425259"><ele>411.2</ele><time>2015-11-22T08:41:48.0000000+00:00</time></trkpt><trkpt lat="30.9623781" lon="35.7417947"><ele>417.2</ele><time>2015-11-22T08:42:31.0000000+00:00</time></trkpt><trkpt lat="30.9626605" lon="35.7408244"><ele>425.9</ele><time>2015-11-22T08:48:20.0000000+00:00</time></trkpt><trkpt lat="30.9623859" lon="35.7399968"><ele>428.7</ele><time>2015-11-22T08:48:42.0000000+00:00</time></trkpt><trkpt lat="30.9618818" lon="35.7394822"><ele>430.1</ele><time>2015-11-22T08:49:09.0000000+00:00</time></trkpt><trkpt lat="30.9612521" lon="35.7387981"><ele>437.7</ele><time>2015-11-22T08:49:54.0000000+00:00</time></trkpt><trkpt lat="30.9608692" lon="35.7381226"><ele>450.1</ele><time>2015-11-22T08:50:38.0000000+00:00</time></trkpt><trkpt lat="30.9607368" lon="35.7375102"><ele>451.1</ele><time>2015-11-22T08:51:08.0000000+00:00</time></trkpt><trkpt lat="30.9607766" lon="35.7371365"><ele>449.0</ele><time>2015-11-22T08:51:26.0000000+00:00</time></trkpt><trkpt lat="30.9608979" lon="35.7356574"><ele>466.7</ele><time>2015-11-22T08:52:39.0000000+00:00</time></trkpt><trkpt lat="30.9606393" lon="35.7349467"><ele>471.3</ele><time>2015-11-22T08:57:28.0000000+00:00</time></trkpt><trkpt lat="30.9602982" lon="35.734441"><ele>480.5</ele><time>2015-11-22T08:58:05.0000000+00:00</time></trkpt><trkpt lat="30.9598609" lon="35.7340423"><ele>489.6</ele><time>2015-11-22T08:58:34.0000000+00:00</time></trkpt><trkpt lat="30.9590692" lon="35.7333082"><ele>489.4</ele><time>2015-11-22T08:59:11.0000000+00:00</time></trkpt><trkpt lat="30.9586536" lon="35.7323478"><ele>487.3</ele><time>2015-11-22T08:59:48.0000000+00:00</time></trkpt><trkpt lat="30.9586516" lon="35.7321234"><ele>486.0</ele><time>2015-11-22T08:59:56.0000000+00:00</time></trkpt><trkpt lat="30.9586713" lon="35.7318348"><ele>488.8</ele><time>2015-11-22T09:00:08.0000000+00:00</time></trkpt><trkpt lat="30.9590586" lon="35.7307379"><ele>506.8</ele><time>2015-11-22T09:07:02.0000000+00:00</time></trkpt><trkpt lat="30.9593382" lon="35.7300652"><ele>505.8</ele><time>2015-11-22T09:07:44.0000000+00:00</time></trkpt><trkpt lat="30.9593533" lon="35.7300127"><ele>505.9</ele><time>2015-11-22T09:07:47.0000000+00:00</time></trkpt><trkpt lat="30.9594385" lon="35.7293097"><ele>518.1</ele><time>2015-11-22T09:08:24.0000000+00:00</time></trkpt><trkpt lat="30.959165" lon="35.7285608"><ele>524.2</ele><time>2015-11-22T09:08:57.0000000+00:00</time></trkpt><trkpt lat="30.9591029" lon="35.7284619"><ele>523.6</ele><time>2015-11-22T09:09:01.0000000+00:00</time></trkpt><trkpt lat="30.9579558" lon="35.7271538"><ele>513.3</ele><time>2015-11-22T09:09:26.0000000+00:00</time></trkpt><trkpt lat="30.9577404" lon="35.7265577"><ele>506.7</ele><time>2015-11-22T09:09:32.0000000+00:00</time></trkpt><trkpt lat="30.9577283" lon="35.7264529"><ele>504.8</ele><time>2015-11-22T09:09:33.0000000+00:00</time></trkpt><trkpt lat="30.9577404" lon="35.7259614"><ele>511.4</ele><time>2015-11-22T09:09:39.0000000+00:00</time></trkpt><trkpt lat="30.9577931" lon="35.7257556"><ele>515.8</ele><time>2015-11-22T09:09:42.0000000+00:00</time></trkpt><trkpt lat="30.9579264" lon="35.7253651"><ele>515.6</ele><time>2015-11-22T09:09:48.0000000+00:00</time></trkpt><trkpt lat="30.9581528" lon="35.7250709"><ele>513.9</ele><time>2015-11-22T09:09:56.0000000+00:00</time></trkpt><trkpt lat="30.9586244" lon="35.7244819"><ele>525.4</ele><time>2015-11-22T09:10:22.0000000+00:00</time></trkpt><trkpt lat="30.95926" lon="35.7237369"><ele>521.0</ele><time>2015-11-22T09:11:12.0000000+00:00</time></trkpt><trkpt lat="30.9594552" lon="35.7234228"><ele>524.9</ele><time>2015-11-22T09:12:41.0000000+00:00</time></trkpt><trkpt lat="30.9596553" lon="35.722551"><ele>533.5</ele><time>2015-11-22T09:13:07.0000000+00:00</time></trkpt><trkpt lat="30.9596509" lon="35.7224569"><ele>533.5</ele><time>2015-11-22T09:13:09.0000000+00:00</time></trkpt><trkpt lat="30.959471" lon="35.7216435"><ele>527.9</ele><time>2015-11-22T09:13:25.0000000+00:00</time></trkpt><trkpt lat="30.959371" lon="35.7214521"><ele>527.0</ele><time>2015-11-22T09:13:29.0000000+00:00</time></trkpt><trkpt lat="30.9591374" lon="35.7211133"><ele>535.3</ele><time>2015-11-22T09:13:37.0000000+00:00</time></trkpt><trkpt lat="30.9590577" lon="35.7210432"><ele>536.3</ele><time>2015-11-22T09:13:39.0000000+00:00</time></trkpt><trkpt lat="30.9579262" lon="35.7203421"><ele>534.6</ele><time>2015-11-22T09:14:03.0000000+00:00</time></trkpt><trkpt lat="30.9575133" lon="35.7200581"><ele>528.5</ele><time>2015-11-22T09:14:12.0000000+00:00</time></trkpt><trkpt lat="30.9571411" lon="35.7196196"><ele>522.2</ele><time>2015-11-22T09:14:21.0000000+00:00</time></trkpt><trkpt lat="30.9568935" lon="35.7191661"><ele>525.5</ele><time>2015-11-22T09:14:29.0000000+00:00</time></trkpt><trkpt lat="30.9567551" lon="35.718155"><ele>532.3</ele><time>2015-11-22T09:14:44.0000000+00:00</time></trkpt><trkpt lat="30.9569636" lon="35.7172296"><ele>525.6</ele><time>2015-11-22T09:14:58.0000000+00:00</time></trkpt><trkpt lat="30.9574568" lon="35.7149453"><ele>536.6</ele><time>2015-11-22T09:15:58.0000000+00:00</time></trkpt><trkpt lat="30.9574414" lon="35.7147571"><ele>536.8</ele><time>2015-11-22T09:16:02.0000000+00:00</time></trkpt><trkpt lat="30.9572882" lon="35.713274"><ele>527.6</ele><time>2015-11-22T09:16:24.0000000+00:00</time></trkpt><trkpt lat="30.957177" lon="35.7122273"><ele>531.8</ele><time>2015-11-22T09:16:35.0000000+00:00</time></trkpt><trkpt lat="30.9571078" lon="35.7115721"><ele>521.7</ele><time>2015-11-22T09:16:41.0000000+00:00</time></trkpt><trkpt lat="30.9569978" lon="35.7106676"><ele>527.0</ele><time>2015-11-22T09:16:49.0000000+00:00</time></trkpt><trkpt lat="30.9569421" lon="35.7104383"><ele>527.1</ele><time>2015-11-22T09:16:51.0000000+00:00</time></trkpt><trkpt lat="30.9565559" lon="35.7097089"><ele>515.6</ele><time>2015-11-22T09:16:58.0000000+00:00</time></trkpt><trkpt lat="30.956485" lon="35.7096167"><ele>515.7</ele><time>2015-11-22T09:16:59.0000000+00:00</time></trkpt><trkpt lat="30.9556269" lon="35.7090647"><ele>513.8</ele><time>2015-11-22T09:17:09.0000000+00:00</time></trkpt><trkpt lat="30.9540558" lon="35.7088255"><ele>511.1</ele><time>2015-11-22T09:17:26.0000000+00:00</time></trkpt><trkpt lat="30.9520956" lon="35.7085191"><ele>490.0</ele><time>2015-11-22T09:17:44.0000000+00:00</time></trkpt><trkpt lat="30.9513856" lon="35.7084774"><ele>493.3</ele><time>2015-11-22T09:17:50.0000000+00:00</time></trkpt><trkpt lat="30.9509264" lon="35.7085276"><ele>495.3</ele><time>2015-11-22T09:17:54.0000000+00:00</time></trkpt><trkpt lat="30.9493057" lon="35.7088134"><ele>481.5</ele><time>2015-11-22T09:18:10.0000000+00:00</time></trkpt><trkpt lat="30.9483596" lon="35.7088854"><ele>490.5</ele><time>2015-11-22T09:18:20.0000000+00:00</time></trkpt><trkpt lat="30.947759" lon="35.7089359"><ele>491.1</ele><time>2015-11-22T09:18:28.0000000+00:00</time></trkpt><trkpt lat="30.9461144" lon="35.7094532"><ele>494.0</ele><time>2015-11-22T09:19:10.0000000+00:00</time></trkpt><trkpt lat="30.9451159" lon="35.7095541"><ele>492.5</ele><time>2015-11-22T09:19:33.0000000+00:00</time></trkpt><trkpt lat="30.9430572" lon="35.7096331"><ele>502.5</ele><time>2015-11-22T09:20:37.0000000+00:00</time></trkpt><trkpt lat="30.9406307" lon="35.710654"><ele>515.7</ele><time>2015-11-22T09:22:02.0000000+00:00</time></trkpt><trkpt lat="30.9375415" lon="35.7130088"><ele>533.0</ele><time>2015-11-22T09:24:06.0000000+00:00</time></trkpt><trkpt lat="30.9373759" lon="35.7131033"><ele>534.5</ele><time>2015-11-22T09:24:12.0000000+00:00</time></trkpt><trkpt lat="30.9366006" lon="35.7134486"><ele>535.3</ele><time>2015-11-22T09:24:38.0000000+00:00</time></trkpt><trkpt lat="30.9340573" lon="35.7140008"><ele>541.3</ele><time>2015-11-22T09:25:57.0000000+00:00</time></trkpt><trkpt lat="30.9331141" lon="35.7141715"><ele>546.0</ele><time>2015-11-22T09:26:27.0000000+00:00</time></trkpt><trkpt lat="30.9292465" lon="35.7141195"><ele>561.2</ele><time>2015-11-22T09:28:27.0000000+00:00</time></trkpt><trkpt lat="30.9270584" lon="35.7130527"><ele>571.9</ele><time>2015-11-22T09:29:44.0000000+00:00</time></trkpt><trkpt lat="30.927231" lon="35.7129729"><ele>572.8</ele><time>2015-11-22T09:31:00.0000000+00:00</time></trkpt><trkpt lat="30.9269661" lon="35.7130424"><ele>572.0</ele><time>2015-11-22T09:38:46.0000000+00:00</time></trkpt><trkpt lat="30.9231566" lon="35.7117902"><ele>586.5</ele><time>2015-11-22T09:40:54.0000000+00:00</time></trkpt><trkpt lat="30.9204987" lon="35.7098445"><ele>602.2</ele><time>2015-11-22T09:42:46.0000000+00:00</time></trkpt><trkpt lat="30.918641" lon="35.707588"><ele>613.2</ele><time>2015-11-22T09:44:44.0000000+00:00</time></trkpt><trkpt lat="30.9182144" lon="35.7072141"><ele>614.0</ele><time>2015-11-22T09:45:08.0000000+00:00</time></trkpt><trkpt lat="30.9170674" lon="35.7061604"><ele>624.1</ele><time>2015-11-22T09:46:17.0000000+00:00</time></trkpt><trkpt lat="30.9168253" lon="35.7059418"><ele>630.0</ele><time>2015-11-22T09:46:32.0000000+00:00</time></trkpt><trkpt lat="30.9156924" lon="35.705575"><ele>644.9</ele><time>2015-11-22T09:47:32.0000000+00:00</time></trkpt><trkpt lat="30.9143964" lon="35.7052476"><ele>644.6</ele><time>2015-11-22T09:54:23.0000000+00:00</time></trkpt><trkpt lat="30.9139368" lon="35.7046938"><ele>645.6</ele><time>2015-11-22T09:54:47.0000000+00:00</time></trkpt><trkpt lat="30.9135245" lon="35.7040684"><ele>650.6</ele><time>2015-11-22T09:55:09.0000000+00:00</time></trkpt><trkpt lat="30.911605" lon="35.7034797"><ele>674.0</ele><time>2015-11-22T09:57:06.0000000+00:00</time></trkpt><trkpt lat="30.9107041" lon="35.7026805"><ele>686.3</ele><time>2015-11-22T09:58:18.0000000+00:00</time></trkpt><trkpt lat="30.9097562" lon="35.701835"><ele>693.3</ele><time>2015-11-22T09:59:33.0000000+00:00</time></trkpt><trkpt lat="30.9093364" lon="35.7012114"><ele>693.2</ele><time>2015-11-22T10:00:15.0000000+00:00</time></trkpt><trkpt lat="30.9093072" lon="35.7011499"><ele>693.3</ele><time>2015-11-22T10:00:18.0000000+00:00</time></trkpt><trkpt lat="30.9091008" lon="35.7003737"><ele>705.5</ele><time>2015-11-22T10:01:01.0000000+00:00</time></trkpt><trkpt lat="30.9093054" lon="35.6991122"><ele>723.8</ele><time>2015-11-22T10:02:13.0000000+00:00</time></trkpt><trkpt lat="30.9098288" lon="35.6983618"><ele>734.4</ele><time>2015-11-22T10:03:02.0000000+00:00</time></trkpt><trkpt lat="30.9101435" lon="35.6981326"><ele>740.0</ele><time>2015-11-22T10:03:20.0000000+00:00</time></trkpt><trkpt lat="30.9107612" lon="35.6978425"><ele>738.0</ele><time>2015-11-22T10:05:03.0000000+00:00</time></trkpt><trkpt lat="30.9123808" lon="35.6978374"><ele>731.8</ele><time>2015-11-22T10:05:46.0000000+00:00</time></trkpt><trkpt lat="30.9148997" lon="35.698044"><ele>737.1</ele><time>2015-11-22T10:06:57.0000000+00:00</time></trkpt><trkpt lat="30.9149453" lon="35.6980517"><ele>737.5</ele><time>2015-11-22T10:06:58.0000000+00:00</time></trkpt><trkpt lat="30.9156334" lon="35.6983011"><ele>750.5</ele><time>2015-11-22T10:07:26.0000000+00:00</time></trkpt><trkpt lat="30.9165008" lon="35.6987597"><ele>747.6</ele><time>2015-11-22T10:08:17.0000000+00:00</time></trkpt><trkpt lat="30.9176618" lon="35.6993701"><ele>760.7</ele><time>2015-11-22T10:09:25.0000000+00:00</time></trkpt><trkpt lat="30.9185148" lon="35.699822"><ele>757.1</ele><time>2015-11-22T10:12:37.0000000+00:00</time></trkpt><trkpt lat="30.9187396" lon="35.6998758"><ele>756.4</ele><time>2015-11-22T10:12:46.0000000+00:00</time></trkpt><trkpt lat="30.9190851" lon="35.6998774"><ele>760.7</ele><time>2015-11-22T10:12:56.0000000+00:00</time></trkpt><trkpt lat="30.9196068" lon="35.6995379"><ele>770.6</ele><time>2015-11-22T10:13:19.0000000+00:00</time></trkpt><trkpt lat="30.9197304" lon="35.699288"><ele>776.1</ele><time>2015-11-22T10:13:36.0000000+00:00</time></trkpt><trkpt lat="30.919831" lon="35.6989034"><ele>779.2</ele><time>2015-11-22T10:14:00.0000000+00:00</time></trkpt><trkpt lat="30.9195744" lon="35.6982036"><ele>787.5</ele><time>2015-11-22T10:14:43.0000000+00:00</time></trkpt><trkpt lat="30.9187307" lon="35.6968726"><ele>799.8</ele><time>2015-11-22T10:16:07.0000000+00:00</time></trkpt><trkpt lat="30.9157223" lon="35.6924894"><ele>821.5</ele><time>2015-11-22T10:20:37.0000000+00:00</time></trkpt><trkpt lat="30.9156822" lon="35.6924413"><ele>822.3</ele><time>2015-11-22T10:20:40.0000000+00:00</time></trkpt><trkpt lat="30.9153526" lon="35.6924422"><ele>831.2</ele><time>2015-11-22T10:20:59.0000000+00:00</time></trkpt><trkpt lat="30.9135491" lon="35.6932244"><ele>855.5</ele><time>2015-11-22T10:23:08.0000000+00:00</time></trkpt><trkpt lat="30.9134411" lon="35.6932449"><ele>857.0</ele><time>2015-11-22T10:23:15.0000000+00:00</time></trkpt><trkpt lat="30.9127572" lon="35.6932104"><ele>857.4</ele><time>2015-11-22T10:23:57.0000000+00:00</time></trkpt><trkpt lat="30.9115029" lon="35.6922816"><ele>852.6</ele><time>2015-11-22T10:25:11.0000000+00:00</time></trkpt><trkpt lat="30.9104151" lon="35.6914413"><ele>861.9</ele><time>2015-11-22T10:26:05.0000000+00:00</time></trkpt><trkpt lat="30.9090324" lon="35.6910247"><ele>867.3</ele><time>2015-11-22T10:27:02.0000000+00:00</time></trkpt><trkpt lat="30.9083994" lon="35.6908297"><ele>863.9</ele><time>2015-11-22T10:27:27.0000000+00:00</time></trkpt><trkpt lat="30.9067853" lon="35.6904905"><ele>882.0</ele><time>2015-11-22T10:28:38.0000000+00:00</time></trkpt><trkpt lat="30.9065998" lon="35.6904581"><ele>875.7</ele><time>2015-11-22T10:28:47.0000000+00:00</time></trkpt><trkpt lat="30.9064236" lon="35.6900786"><ele>878.2</ele><time>2015-11-22T10:47:53.0000000+00:00</time></trkpt><trkpt lat="30.906237" lon="35.6898862"><ele>880.9</ele><time>2015-11-22T10:48:11.0000000+00:00</time></trkpt><trkpt lat="30.9051609" lon="35.689711"><ele>903.1</ele><time>2015-11-22T10:49:26.0000000+00:00</time></trkpt><trkpt lat="30.9050245" lon="35.6896351"><ele>902.9</ele><time>2015-11-22T10:49:36.0000000+00:00</time></trkpt><trkpt lat="30.9045884" lon="35.6889079"><ele>900.8</ele><time>2015-11-22T10:50:17.0000000+00:00</time></trkpt><trkpt lat="30.9042936" lon="35.6887373"><ele>905.5</ele><time>2015-11-22T10:50:29.0000000+00:00</time></trkpt><trkpt lat="30.9027386" lon="35.6893004"><ele>929.0</ele><time>2015-11-22T10:52:09.0000000+00:00</time></trkpt><trkpt lat="30.901978" lon="35.6894856"><ele>931.9</ele><time>2015-11-22T10:52:52.0000000+00:00</time></trkpt><trkpt lat="30.8987523" lon="35.688582"><ele>943.4</ele><time>2015-11-22T10:55:43.0000000+00:00</time></trkpt><trkpt lat="30.8984725" lon="35.688482"><ele>947.0</ele><time>2015-11-22T10:56:01.0000000+00:00</time></trkpt><trkpt lat="30.8972395" lon="35.688377"><ele>960.2</ele><time>2015-11-22T10:57:18.0000000+00:00</time></trkpt><trkpt lat="30.8963424" lon="35.6885158"><ele>968.0</ele><time>2015-11-22T10:58:17.0000000+00:00</time></trkpt><trkpt lat="30.894588" lon="35.6892662"><ele>993.0</ele><time>2015-11-22T11:00:11.0000000+00:00</time></trkpt><trkpt lat="30.8937071" lon="35.6895401"><ele>995.0</ele><time>2015-11-22T11:13:08.0000000+00:00</time></trkpt><trkpt lat="30.8923684" lon="35.6896109"><ele>1004.1</ele><time>2015-11-22T11:14:28.0000000+00:00</time></trkpt><trkpt lat="30.8898581" lon="35.6897871"><ele>1037.2</ele><time>2015-11-22T11:16:52.0000000+00:00</time></trkpt><trkpt lat="30.8888171" lon="35.6898029"><ele>1041.4</ele><time>2015-11-22T11:17:58.0000000+00:00</time></trkpt><trkpt lat="30.8884095" lon="35.6897217"><ele>1039.7</ele><time>2015-11-22T11:18:24.0000000+00:00</time></trkpt><trkpt lat="30.8877468" lon="35.689382"><ele>1052.8</ele><time>2015-11-22T11:19:04.0000000+00:00</time></trkpt><trkpt lat="30.8871334" lon="35.6891052"><ele>1052.3</ele><time>2015-11-22T11:19:41.0000000+00:00</time></trkpt><trkpt lat="30.8852116" lon="35.6886131"><ele>1055.7</ele><time>2015-11-22T11:21:35.0000000+00:00</time></trkpt><trkpt lat="30.8847124" lon="35.6883339"><ele>1057.2</ele><time>2015-11-22T11:22:02.0000000+00:00</time></trkpt><trkpt lat="30.8842091" lon="35.6879345"><ele>1075.8</ele><time>2015-11-22T11:24:40.0000000+00:00</time></trkpt><trkpt lat="30.88393" lon="35.6878598"><ele>1079.8</ele><time>2015-11-22T11:24:59.0000000+00:00</time></trkpt><trkpt lat="30.8823782" lon="35.6875366"><ele>1096.9</ele><time>2015-11-22T11:26:37.0000000+00:00</time></trkpt><trkpt lat="30.881794" lon="35.6875565"><ele>1103.8</ele><time>2015-11-22T11:27:13.0000000+00:00</time></trkpt><trkpt lat="30.8805524" lon="35.687694"><ele>1107.8</ele><time>2015-11-22T11:28:18.0000000+00:00</time></trkpt><trkpt lat="30.8779109" lon="35.6874068"><ele>1117.6</ele><time>2015-11-22T11:30:13.0000000+00:00</time></trkpt><trkpt lat="30.8773562" lon="35.6869592"><ele>1117.1</ele><time>2015-11-22T11:30:49.0000000+00:00</time></trkpt><trkpt lat="30.8766238" lon="35.6862049"><ele>1131.1</ele><time>2015-11-22T11:31:46.0000000+00:00</time></trkpt><trkpt lat="30.8764525" lon="35.6860916"><ele>1131.0</ele><time>2015-11-22T11:39:08.0000000+00:00</time></trkpt><trkpt lat="30.8754838" lon="35.6845718"><ele>1139.6</ele><time>2015-11-22T11:40:12.0000000+00:00</time></trkpt><trkpt lat="30.8752219" lon="35.6776571"><ele>1164.6</ele><time>2015-11-22T11:43:52.0000000+00:00</time></trkpt><trkpt lat="30.8746672" lon="35.6760047"><ele>1170.7</ele><time>2015-11-22T11:44:54.0000000+00:00</time></trkpt><trkpt lat="30.8729321" lon="35.6712048"><ele>1164.7</ele><time>2015-11-22T11:46:32.0000000+00:00</time></trkpt><trkpt lat="30.8722115" lon="35.6695984"><ele>1159.4</ele><time>2015-11-22T11:47:51.0000000+00:00</time></trkpt><trkpt lat="30.8720499" lon="35.6694168"><ele>1158.3</ele><time>2015-11-22T11:47:57.0000000+00:00</time></trkpt><trkpt lat="30.87182" lon="35.6692086"><ele>1159.7</ele><time>2015-11-22T12:13:58.0000000+00:00</time></trkpt><trkpt lat="30.867952" lon="35.667146"><ele>1175.9</ele><time>2015-11-22T12:16:19.0000000+00:00</time></trkpt><trkpt lat="30.8654706" lon="35.6657473"><ele>1174.4</ele><time>2015-11-22T12:17:26.0000000+00:00</time></trkpt><trkpt lat="30.8643302" lon="35.6644126"><ele>1178.2</ele><time>2015-11-22T12:17:59.0000000+00:00</time></trkpt><trkpt lat="30.8633675" lon="35.6631863"><ele>1183.3</ele><time>2015-11-22T12:18:33.0000000+00:00</time></trkpt><trkpt lat="30.8614667" lon="35.6605794"><ele>1197.3</ele><time>2015-11-22T12:20:18.0000000+00:00</time></trkpt><trkpt lat="30.8601738" lon="35.6588063"><ele>1189.0</ele><time>2015-11-22T12:20:57.0000000+00:00</time></trkpt><trkpt lat="30.8594231" lon="35.6578047"><ele>1196.5</ele><time>2015-11-22T12:21:16.0000000+00:00</time></trkpt><trkpt lat="30.8583811" lon="35.6571493"><ele>1195.3</ele><time>2015-11-22T12:21:39.0000000+00:00</time></trkpt><trkpt lat="30.857005" lon="35.6565431"><ele>1199.8</ele><time>2015-11-22T12:22:13.0000000+00:00</time></trkpt><trkpt lat="30.8543252" lon="35.6553619"><ele>1195.6</ele><time>2015-11-22T12:23:10.0000000+00:00</time></trkpt><trkpt lat="30.853513" lon="35.6546457"><ele>1192.8</ele><time>2015-11-22T12:23:26.0000000+00:00</time></trkpt><trkpt lat="30.8515181" lon="35.652671"><ele>1206.4</ele><time>2015-11-22T12:24:39.0000000+00:00</time></trkpt><trkpt lat="30.8493353" lon="35.6543939"><ele>1213.3</ele><time>2015-11-22T12:26:34.0000000+00:00</time></trkpt><trkpt lat="30.8491855" lon="35.6545544"><ele>1213.0</ele><time>2015-11-22T12:26:40.0000000+00:00</time></trkpt><trkpt lat="30.8487467" lon="35.6547018"><ele>1212.8</ele><time>2015-11-22T12:26:56.0000000+00:00</time></trkpt><trkpt lat="30.8479595" lon="35.654575"><ele>1209.0</ele><time>2015-11-22T12:27:16.0000000+00:00</time></trkpt><trkpt lat="30.8459708" lon="35.6536421"><ele>1205.0</ele><time>2015-11-22T12:27:51.0000000+00:00</time></trkpt><trkpt lat="30.8448186" lon="35.6535131"><ele>1203.1</ele><time>2015-11-22T12:28:10.0000000+00:00</time></trkpt><trkpt lat="30.8439399" lon="35.6534893"><ele>1203.9</ele><time>2015-11-22T12:28:23.0000000+00:00</time></trkpt><trkpt lat="30.8414782" lon="35.6538756"><ele>1208.8</ele><time>2015-11-22T12:29:06.0000000+00:00</time></trkpt><trkpt lat="30.8409599" lon="35.6536996"><ele>1208.9</ele><time>2015-11-22T12:29:22.0000000+00:00</time></trkpt><trkpt lat="30.8406699" lon="35.653697"><ele>1207.5</ele><time>2015-11-22T12:29:34.0000000+00:00</time></trkpt><trkpt lat="30.8405709" lon="35.6537997"><ele>1207.2</ele><time>2015-11-22T12:29:38.0000000+00:00</time></trkpt><trkpt lat="30.8405432" lon="35.6559222"><ele>1187.8</ele><time>2015-11-22T12:30:00.0000000+00:00</time></trkpt><trkpt lat="30.8405252" lon="35.6561846"><ele>1187.4</ele><time>2015-11-22T12:30:02.0000000+00:00</time></trkpt><trkpt lat="30.8402797" lon="35.6568369"><ele>1187.0</ele><time>2015-11-22T12:30:08.0000000+00:00</time></trkpt><trkpt lat="30.8398859" lon="35.6571505"><ele>1191.0</ele><time>2015-11-22T12:30:13.0000000+00:00</time></trkpt><trkpt lat="30.838011" lon="35.6578888"><ele>1197.3</ele><time>2015-11-22T12:30:45.0000000+00:00</time></trkpt><trkpt lat="30.8374063" lon="35.6583812"><ele>1198.4</ele><time>2015-11-22T12:30:59.0000000+00:00</time></trkpt><trkpt lat="30.8365839" lon="35.6594078"><ele>1201.9</ele><time>2015-11-22T12:31:26.0000000+00:00</time></trkpt><trkpt lat="30.8332699" lon="35.6643532"><ele>1222.5</ele><time>2015-11-22T12:33:57.0000000+00:00</time></trkpt><trkpt lat="30.8321852" lon="35.666576"><ele>1224.1</ele><time>2015-11-22T12:35:19.0000000+00:00</time></trkpt><trkpt lat="30.8319058" lon="35.6675575"><ele>1224.7</ele><time>2015-11-22T12:40:07.0000000+00:00</time></trkpt><trkpt lat="30.8315159" lon="35.6694324"><ele>1206.7</ele><time>2015-11-22T12:40:32.0000000+00:00</time></trkpt><trkpt lat="30.8308044" lon="35.6730653"><ele>1196.2</ele><time>2015-11-22T12:41:01.0000000+00:00</time></trkpt><trkpt lat="30.8300118" lon="35.6769664"><ele>1172.4</ele><time>2015-11-22T12:41:36.0000000+00:00</time></trkpt><trkpt lat="30.8296386" lon="35.6788162"><ele>1175.2</ele><time>2015-11-22T12:41:54.0000000+00:00</time></trkpt><trkpt lat="30.8293853" lon="35.6800876"><ele>1163.3</ele><time>2015-11-22T12:42:07.0000000+00:00</time></trkpt><trkpt lat="30.8282443" lon="35.6855249"><ele>1190.4</ele><time>2015-11-22T12:44:21.0000000+00:00</time></trkpt><trkpt lat="30.8281942" lon="35.6859533"><ele>1190.9</ele><time>2015-11-22T12:45:31.0000000+00:00</time></trkpt><trkpt lat="30.8286091" lon="35.684265"><ele>1184.2</ele><time>2015-11-22T12:46:09.0000000+00:00</time></trkpt><trkpt lat="30.8286092" lon="35.6837152"><ele>1180.5</ele><time>2015-11-22T12:46:23.0000000+00:00</time></trkpt><trkpt lat="30.8284671" lon="35.6837954"><ele>1181.3</ele><time>2015-11-22T12:46:29.0000000+00:00</time></trkpt><trkpt lat="30.8280411" lon="35.6859802"><ele>1192.4</ele><time>2015-11-22T12:48:22.0000000+00:00</time></trkpt><trkpt lat="30.8280108" lon="35.6876061"><ele>1195.2</ele><time>2015-11-22T12:49:18.0000000+00:00</time></trkpt><trkpt lat="30.8278473" lon="35.6878693"><ele>1196.4</ele><time>2015-11-22T12:49:24.0000000+00:00</time></trkpt><trkpt lat="30.82739" lon="35.6876074"><ele>1199.1</ele><time>2015-11-22T12:49:40.0000000+00:00</time></trkpt><trkpt lat="30.8253218" lon="35.6859219"><ele>1190.1</ele><time>2015-11-22T12:52:02.0000000+00:00</time></trkpt><trkpt lat="30.8251803" lon="35.6858125"><ele>1189.1</ele><time>2015-11-22T12:52:06.0000000+00:00</time></trkpt><trkpt lat="30.8246038" lon="35.6851397"><ele>1181.5</ele><time>2015-11-22T12:52:22.0000000+00:00</time></trkpt><trkpt lat="30.8236425" lon="35.6846557"><ele>1173.3</ele><time>2015-11-22T12:52:36.0000000+00:00</time></trkpt><trkpt lat="30.8235821" lon="35.6845925"><ele>1173.3</ele><time>2015-11-22T12:52:37.0000000+00:00</time></trkpt><trkpt lat="30.8226" lon="35.6833414"><ele>1189.2</ele><time>2015-11-22T12:53:11.0000000+00:00</time></trkpt><trkpt lat="30.8223632" lon="35.6830024"><ele>1181.7</ele><time>2015-11-22T12:54:16.0000000+00:00</time></trkpt><trkpt lat="30.8221467" lon="35.6826958"><ele>1183.0</ele><time>2015-11-22T12:54:26.0000000+00:00</time></trkpt><trkpt lat="30.8214121" lon="35.6814504"><ele>1182.8</ele><time>2015-11-22T12:54:55.0000000+00:00</time></trkpt><trkpt lat="30.8208341" lon="35.6808578"><ele>1188.2</ele><time>2015-11-22T12:55:13.0000000+00:00</time></trkpt><trkpt lat="30.8196769" lon="35.6797615"><ele>1182.9</ele><time>2015-11-22T12:55:46.0000000+00:00</time></trkpt><trkpt lat="30.819591" lon="35.6796647"><ele>1182.7</ele><time>2015-11-22T12:55:49.0000000+00:00</time></trkpt><trkpt lat="30.8184156" lon="35.6783412"><ele>1195.1</ele><time>2015-11-22T12:56:29.0000000+00:00</time></trkpt><trkpt lat="30.818122" lon="35.6779628"><ele>1189.1</ele><time>2015-11-22T12:56:41.0000000+00:00</time></trkpt><trkpt lat="30.8180749" lon="35.6779128"><ele>1189.3</ele><time>2015-11-22T12:56:43.0000000+00:00</time></trkpt><trkpt lat="30.8172572" lon="35.6774992"><ele>1196.2</ele><time>2015-11-22T12:57:15.0000000+00:00</time></trkpt><trkpt lat="30.8171903" lon="35.6774355"><ele>1196.2</ele><time>2015-11-22T12:57:17.0000000+00:00</time></trkpt><trkpt lat="30.8164996" lon="35.676566"><ele>1189.6</ele><time>2015-11-22T12:57:41.0000000+00:00</time></trkpt><trkpt lat="30.8156595" lon="35.6757894"><ele>1195.8</ele><time>2015-11-22T12:58:11.0000000+00:00</time></trkpt><trkpt lat="30.8154503" lon="35.6754804"><ele>1189.7</ele><time>2015-11-22T12:58:53.0000000+00:00</time></trkpt><trkpt lat="30.8153966" lon="35.6754394"><ele>1189.9</ele><time>2015-11-22T12:58:56.0000000+00:00</time></trkpt><trkpt lat="30.8138076" lon="35.6748488"><ele>1194.2</ele><time>2015-11-22T12:59:46.0000000+00:00</time></trkpt><trkpt lat="30.8123781" lon="35.675144"><ele>1195.0</ele><time>2015-11-22T13:00:30.0000000+00:00</time></trkpt><trkpt lat="30.8120879" lon="35.6749042"><ele>1195.0</ele><time>2015-11-22T13:00:43.0000000+00:00</time></trkpt><trkpt lat="30.8110023" lon="35.6754456"><ele>1202.7</ele><time>2015-11-22T13:01:35.0000000+00:00</time></trkpt><trkpt lat="30.8108591" lon="35.6753913"><ele>1204.5</ele><time>2015-11-22T13:01:45.0000000+00:00</time></trkpt><trkpt lat="30.8108039" lon="35.6751633"><ele>1205.8</ele><time>2015-11-22T13:01:57.0000000+00:00</time></trkpt><trkpt lat="30.8108255" lon="35.6751088"><ele>1205.8</ele><time>2015-11-22T13:02:00.0000000+00:00</time></trkpt><trkpt lat="30.8120264" lon="35.6735694"><ele>1201.0</ele><time>2015-11-22T13:02:35.0000000+00:00</time></trkpt><trkpt lat="30.8120592" lon="35.6735252"><ele>1201.2</ele><time>2015-11-22T13:02:36.0000000+00:00</time></trkpt><trkpt lat="30.8124029" lon="35.6726636"><ele>1211.9</ele><time>2015-11-22T13:03:24.0000000+00:00</time></trkpt><trkpt lat="30.8123359" lon="35.6722601"><ele>1213.1</ele><time>2015-11-22T13:03:45.0000000+00:00</time></trkpt><trkpt lat="30.8117597" lon="35.6712744"><ele>1222.6</ele><time>2015-11-22T13:04:48.0000000+00:00</time></trkpt><trkpt lat="30.8116534" lon="35.6711585"><ele>1223.4</ele><time>2015-11-22T13:04:57.0000000+00:00</time></trkpt><trkpt lat="30.8114363" lon="35.6712226"><ele>1220.8</ele><time>2015-11-22T13:05:11.0000000+00:00</time></trkpt><trkpt lat="30.8110837" lon="35.671785"><ele>1214.2</ele><time>2015-11-22T13:16:27.0000000+00:00</time></trkpt><trkpt lat="30.8094998" lon="35.6741264"><ele>1222.8</ele><time>2015-11-22T13:17:03.0000000+00:00</time></trkpt><trkpt lat="30.8090366" lon="35.674807"><ele>1220.9</ele><time>2015-11-22T13:17:17.0000000+00:00</time></trkpt><trkpt lat="30.8065352" lon="35.6774918"><ele>1209.6</ele><time>2015-11-22T13:18:05.0000000+00:00</time></trkpt><trkpt lat="30.8061636" lon="35.6779484"><ele>1208.5</ele><time>2015-11-22T13:18:11.0000000+00:00</time></trkpt><trkpt lat="30.8049586" lon="35.6796696"><ele>1210.7</ele><time>2015-11-22T13:18:36.0000000+00:00</time></trkpt><trkpt lat="30.8047152" lon="35.6801122"><ele>1211.8</ele><time>2015-11-22T13:18:47.0000000+00:00</time></trkpt><trkpt lat="30.8037863" lon="35.6816362"><ele>1223.1</ele><time>2015-11-22T13:19:39.0000000+00:00</time></trkpt><trkpt lat="30.803378" lon="35.682349"><ele>1222.2</ele><time>2015-11-22T13:20:03.0000000+00:00</time></trkpt><trkpt lat="30.8012152" lon="35.6865958"><ele>1225.0</ele><time>2015-11-22T13:21:29.0000000+00:00</time></trkpt><trkpt lat="30.8008597" lon="35.6873096"><ele>1230.6</ele><time>2015-11-22T13:21:56.0000000+00:00</time></trkpt><trkpt lat="30.7999168" lon="35.68985"><ele>1248.1</ele><time>2015-11-22T13:24:28.0000000+00:00</time></trkpt><trkpt lat="30.7993936" lon="35.6918847"><ele>1261.3</ele><time>2015-11-22T13:26:26.0000000+00:00</time></trkpt><trkpt lat="30.7986264" lon="35.6943029"><ele>1288.3</ele><time>2015-11-22T13:28:51.0000000+00:00</time></trkpt><trkpt lat="30.7985206" lon="35.6947229"><ele>1291.7</ele><time>2015-11-22T13:29:10.0000000+00:00</time></trkpt><trkpt lat="30.798112" lon="35.6967032"><ele>1296.1</ele><time>2015-11-22T13:30:29.0000000+00:00</time></trkpt><trkpt lat="30.798028" lon="35.6969721"><ele>1295.6</ele><time>2015-11-22T13:30:41.0000000+00:00</time></trkpt><trkpt lat="30.7973878" lon="35.7005766"><ele>1285.6</ele><time>2015-11-22T13:37:55.0000000+00:00</time></trkpt><trkpt lat="30.7973532" lon="35.7024002"><ele>1283.5</ele><time>2015-11-22T13:38:18.0000000+00:00</time></trkpt><trkpt lat="30.7969826" lon="35.7039356"><ele>1284.2</ele><time>2015-11-22T13:38:42.0000000+00:00</time></trkpt><trkpt lat="30.7969727" lon="35.7053511"><ele>1272.7</ele><time>2015-11-22T13:39:36.0000000+00:00</time></trkpt><trkpt lat="30.7965824" lon="35.7086554"><ele>1255.5</ele><time>2015-11-22T13:40:03.0000000+00:00</time></trkpt><trkpt lat="30.7962939" lon="35.7108692"><ele>1264.7</ele><time>2015-11-22T13:40:28.0000000+00:00</time></trkpt><trkpt lat="30.7958329" lon="35.7126788"><ele>1251.7</ele><time>2015-11-22T13:41:44.0000000+00:00</time></trkpt><trkpt lat="30.7959991" lon="35.7137528"><ele>1241.2</ele><time>2015-11-22T13:41:57.0000000+00:00</time></trkpt><trkpt lat="30.7971969" lon="35.7151426"><ele>1232.1</ele><time>2015-11-22T13:42:14.0000000+00:00</time></trkpt><trkpt lat="30.7974414" lon="35.7158072"><ele>1227.0</ele><time>2015-11-22T13:42:20.0000000+00:00</time></trkpt><trkpt lat="30.7970136" lon="35.718192"><ele>1209.7</ele><time>2015-11-22T13:42:38.0000000+00:00</time></trkpt><trkpt lat="30.7962065" lon="35.7204841"><ele>1193.3</ele><time>2015-11-22T13:42:52.0000000+00:00</time></trkpt><trkpt lat="30.7955728" lon="35.721593"><ele>1182.2</ele><time>2015-11-22T13:42:59.0000000+00:00</time></trkpt><trkpt lat="30.7954597" lon="35.7217155"><ele>1180.8</ele><time>2015-11-22T13:43:00.0000000+00:00</time></trkpt><trkpt lat="30.7936438" lon="35.7236839"><ele>1167.7</ele><time>2015-11-22T13:43:18.0000000+00:00</time></trkpt><trkpt lat="30.7924676" lon="35.7249485"><ele>1176.5</ele><time>2015-11-22T13:43:36.0000000+00:00</time></trkpt><trkpt lat="30.7923418" lon="35.7250962"><ele>1176.1</ele><time>2015-11-22T13:43:42.0000000+00:00</time></trkpt><trkpt lat="30.7843904" lon="35.7321329"><ele>1183.7</ele><time>2015-11-22T13:47:38.0000000+00:00</time></trkpt><trkpt lat="30.7820751" lon="35.7359298"><ele>1179.7</ele><time>2015-11-22T13:48:56.0000000+00:00</time></trkpt><trkpt lat="30.7812801" lon="35.7371516"><ele>1182.4</ele><time>2015-11-22T13:49:31.0000000+00:00</time></trkpt><trkpt lat="30.7792997" lon="35.7362267"><ele>1190.6</ele><time>2015-11-22T13:50:49.0000000+00:00</time></trkpt><trkpt lat="30.776591" lon="35.7339864"><ele>1196.3</ele><time>2015-11-22T13:52:25.0000000+00:00</time></trkpt><trkpt lat="30.7726524" lon="35.7321584"><ele>1206.0</ele><time>2015-11-22T13:54:14.0000000+00:00</time></trkpt><trkpt lat="30.7724828" lon="35.7320895"><ele>1206.0</ele><time>2015-11-22T13:54:20.0000000+00:00</time></trkpt><trkpt lat="30.771036" lon="35.731073"><ele>1197.2</ele><time>2015-11-22T13:54:54.0000000+00:00</time></trkpt><trkpt lat="30.7702364" lon="35.7304176"><ele>1196.8</ele><time>2015-11-22T13:55:07.0000000+00:00</time></trkpt><trkpt lat="30.7676507" lon="35.7292762"><ele>1199.0</ele><time>2015-11-22T13:55:49.0000000+00:00</time></trkpt><trkpt lat="30.7667191" lon="35.7286002"><ele>1198.3</ele><time>2015-11-22T13:56:08.0000000+00:00</time></trkpt><trkpt lat="30.7655497" lon="35.7277762"><ele>1201.4</ele><time>2015-11-22T13:56:31.0000000+00:00</time></trkpt><trkpt lat="30.7637905" lon="35.726128"><ele>1204.3</ele><time>2015-11-22T13:57:09.0000000+00:00</time></trkpt><trkpt lat="30.7620417" lon="35.7251505"><ele>1209.0</ele><time>2015-11-22T13:57:51.0000000+00:00</time></trkpt><trkpt lat="30.7619101" lon="35.7251089"><ele>1209.5</ele><time>2015-11-22T13:57:55.0000000+00:00</time></trkpt><trkpt lat="30.7587784" lon="35.7253972"><ele>1223.5</ele><time>2015-11-22T13:59:40.0000000+00:00</time></trkpt><trkpt lat="30.7580868" lon="35.7258775"><ele>1226.4</ele><time>2015-11-22T14:00:04.0000000+00:00</time></trkpt><trkpt lat="30.7574146" lon="35.72676"><ele>1230.6</ele><time>2015-11-22T14:00:34.0000000+00:00</time></trkpt><trkpt lat="30.7570334" lon="35.7271991"><ele>1230.9</ele><time>2015-11-22T14:00:51.0000000+00:00</time></trkpt><trkpt lat="30.7565553" lon="35.7273537"><ele>1229.2</ele><time>2015-11-22T14:01:05.0000000+00:00</time></trkpt><trkpt lat="30.7546401" lon="35.7270275"><ele>1232.5</ele><time>2015-11-22T14:02:07.0000000+00:00</time></trkpt><trkpt lat="30.753108" lon="35.7262264"><ele>1232.8</ele><time>2015-11-22T14:03:03.0000000+00:00</time></trkpt><trkpt lat="30.7529154" lon="35.7261073"><ele>1232.9</ele><time>2015-11-22T14:03:11.0000000+00:00</time></trkpt><trkpt lat="30.7508294" lon="35.7248143"><ele>1240.8</ele><time>2015-11-22T14:04:31.0000000+00:00</time></trkpt><trkpt lat="30.7492942" lon="35.7233409"><ele>1243.0</ele><time>2015-11-22T14:05:25.0000000+00:00</time></trkpt><trkpt lat="30.7488266" lon="35.7231356"><ele>1243.5</ele><time>2015-11-22T14:05:37.0000000+00:00</time></trkpt><trkpt lat="30.7459237" lon="35.7230216"><ele>1253.1</ele><time>2015-11-22T14:07:00.0000000+00:00</time></trkpt><trkpt lat="30.7446952" lon="35.7237155"><ele>1258.1</ele><time>2015-11-22T14:07:47.0000000+00:00</time></trkpt><trkpt lat="30.7429055" lon="35.723798"><ele>1263.8</ele><time>2015-11-22T14:08:49.0000000+00:00</time></trkpt><trkpt lat="30.7425317" lon="35.7237954"><ele>1264.1</ele><time>2015-11-22T14:09:01.0000000+00:00</time></trkpt><trkpt lat="30.7375192" lon="35.7225246"><ele>1272.5</ele><time>2015-11-22T14:11:39.0000000+00:00</time></trkpt><trkpt lat="30.7341233" lon="35.7230359"><ele>1279.4</ele><time>2015-11-22T14:13:21.0000000+00:00</time></trkpt><trkpt lat="30.7332281" lon="35.7228519"><ele>1279.4</ele><time>2015-11-22T14:13:47.0000000+00:00</time></trkpt><trkpt lat="30.7323132" lon="35.7228068"><ele>1283.6</ele><time>2015-11-22T14:14:13.0000000+00:00</time></trkpt><trkpt lat="30.7306871" lon="35.7232555"><ele>1292.9</ele><time>2015-11-22T14:15:07.0000000+00:00</time></trkpt><trkpt lat="30.7297486" lon="35.7235069"><ele>1295.2</ele><time>2015-11-22T14:15:41.0000000+00:00</time></trkpt><trkpt lat="30.7290948" lon="35.7234904"><ele>1295.9</ele><time>2015-11-22T14:16:05.0000000+00:00</time></trkpt><trkpt lat="30.7274593" lon="35.7230496"><ele>1300.5</ele><time>2015-11-22T14:34:50.0000000+00:00</time></trkpt><trkpt lat="30.7259592" lon="35.7213521"><ele>1301.1</ele><time>2015-11-22T14:36:04.0000000+00:00</time></trkpt><trkpt lat="30.7257004" lon="35.7211253"><ele>1301.3</ele><time>2015-11-22T14:36:12.0000000+00:00</time></trkpt><trkpt lat="30.7254097" lon="35.7209457"><ele>1304.6</ele><time>2015-11-22T14:36:20.0000000+00:00</time></trkpt><trkpt lat="30.7228493" lon="35.720278"><ele>1311.8</ele><time>2015-11-22T14:37:23.0000000+00:00</time></trkpt><trkpt lat="30.7215326" lon="35.7195876"><ele>1313.2</ele><time>2015-11-22T14:37:56.0000000+00:00</time></trkpt><trkpt lat="30.7195265" lon="35.7190407"><ele>1321.1</ele><time>2015-11-22T14:38:48.0000000+00:00</time></trkpt><trkpt lat="30.7174845" lon="35.7176483"><ele>1327.5</ele><time>2015-11-22T14:39:59.0000000+00:00</time></trkpt><trkpt lat="30.7173581" lon="35.7175251"><ele>1327.8</ele><time>2015-11-22T14:40:03.0000000+00:00</time></trkpt><trkpt lat="30.7150628" lon="35.7146953"><ele>1350.3</ele><time>2015-11-22T14:42:47.0000000+00:00</time></trkpt><trkpt lat="30.7145482" lon="35.7140104"><ele>1363.4</ele><time>2015-11-22T14:44:14.0000000+00:00</time></trkpt><trkpt lat="30.7129257" lon="35.7128562"><ele>1388.9</ele><time>2015-11-22T14:47:49.0000000+00:00</time></trkpt><trkpt lat="30.7119599" lon="35.7108528"><ele>1411.4</ele><time>2015-11-22T14:51:20.0000000+00:00</time></trkpt><trkpt lat="30.7120292" lon="35.7087695"><ele>1437.1</ele><time>2015-11-22T14:55:13.0000000+00:00</time></trkpt><trkpt lat="30.7117145" lon="35.7085256"><ele>1443.1</ele><time>2015-11-22T14:55:56.0000000+00:00</time></trkpt><trkpt lat="30.7102337" lon="35.7077266"><ele>1458.6</ele><time>2015-11-22T15:04:10.0000000+00:00</time></trkpt><trkpt lat="30.7099727" lon="35.707194"><ele>1464.3</ele><time>2015-11-22T15:04:43.0000000+00:00</time></trkpt><trkpt lat="30.7099556" lon="35.7058147"><ele>1471.3</ele><time>2015-11-22T15:05:46.0000000+00:00</time></trkpt><trkpt lat="30.709963" lon="35.7033222"><ele>1463.0</ele><time>2015-11-22T15:08:32.0000000+00:00</time></trkpt><trkpt lat="30.7099253" lon="35.7004107"><ele>1463.3</ele><time>2015-11-22T15:09:09.0000000+00:00</time></trkpt><trkpt lat="30.7098842" lon="35.6995382"><ele>1468.8</ele><time>2015-11-22T15:09:23.0000000+00:00</time></trkpt><trkpt lat="30.709662" lon="35.6982944"><ele>1475.6</ele><time>2015-11-22T15:09:58.0000000+00:00</time></trkpt><trkpt lat="30.7089315" lon="35.6950424"><ele>1468.8</ele><time>2015-11-22T15:10:42.0000000+00:00</time></trkpt><trkpt lat="30.7089411" lon="35.6947077"><ele>1467.5</ele><time>2015-11-22T15:10:45.0000000+00:00</time></trkpt><trkpt lat="30.7091535" lon="35.6930131"><ele>1476.1</ele><time>2015-11-22T15:11:16.0000000+00:00</time></trkpt><trkpt lat="30.7091069" lon="35.6908328"><ele>1468.8</ele><time>2015-11-22T15:11:40.0000000+00:00</time></trkpt><trkpt lat="30.7091095" lon="35.6897341"><ele>1477.1</ele><time>2015-11-22T15:11:54.0000000+00:00</time></trkpt><trkpt lat="30.7094659" lon="35.6869222"><ele>1499.9</ele><time>2015-11-22T15:14:08.0000000+00:00</time></trkpt><trkpt lat="30.7098058" lon="35.685852"><ele>1504.5</ele><time>2015-11-22T15:15:01.0000000+00:00</time></trkpt><trkpt lat="30.7100569" lon="35.6849892"><ele>1503.0</ele><time>2015-11-22T15:15:36.0000000+00:00</time></trkpt><trkpt lat="30.7102224" lon="35.6834552"><ele>1496.2</ele><time>2015-11-22T15:15:59.0000000+00:00</time></trkpt><trkpt lat="30.7102553" lon="35.6833536"><ele>1495.9</ele><time>2015-11-22T15:16:00.0000000+00:00</time></trkpt><trkpt lat="30.7116216" lon="35.6797297"><ele>1461.9</ele><time>2015-11-22T15:16:26.0000000+00:00</time></trkpt><trkpt lat="30.7116628" lon="35.6790516"><ele>1460.8</ele><time>2015-11-22T15:16:30.0000000+00:00</time></trkpt><trkpt lat="30.7117729" lon="35.6771198"><ele>1470.5</ele><time>2015-11-22T15:16:49.0000000+00:00</time></trkpt><trkpt lat="30.7104556" lon="35.677068"><ele>1473.9</ele><time>2015-11-22T15:17:42.0000000+00:00</time></trkpt><trkpt lat="30.7081439" lon="35.6772727"><ele>1480.8</ele><time>2015-11-22T15:19:16.0000000+00:00</time></trkpt><trkpt lat="30.705973" lon="35.6775234"><ele>1489.1</ele><time>2015-11-22T15:20:14.0000000+00:00</time></trkpt><trkpt lat="30.7058008" lon="35.677569"><ele>1489.8</ele><time>2015-11-22T15:20:20.0000000+00:00</time></trkpt><trkpt lat="30.7032423" lon="35.678161"><ele>1508.5</ele><time>2015-11-22T15:22:31.0000000+00:00</time></trkpt><trkpt lat="30.7014882" lon="35.6781713"><ele>1517.7</ele><time>2015-11-22T15:27:21.0000000+00:00</time></trkpt><trkpt lat="30.7004181" lon="35.6776827"><ele>1522.9</ele><time>2015-11-22T15:28:12.0000000+00:00</time></trkpt><trkpt lat="30.6998439" lon="35.6770444"><ele>1527.3</ele><time>2015-11-22T15:28:48.0000000+00:00</time></trkpt><trkpt lat="30.6993102" lon="35.6765685"><ele>1521.0</ele><time>2015-11-22T15:29:18.0000000+00:00</time></trkpt><trkpt lat="30.6985441" lon="35.676119"><ele>1508.8</ele><time>2015-11-22T15:29:39.0000000+00:00</time></trkpt><trkpt lat="30.6970984" lon="35.6757427"><ele>1487.8</ele><time>2015-11-22T15:30:06.0000000+00:00</time></trkpt><trkpt lat="30.6968816" lon="35.6756969"><ele>1489.8</ele><time>2015-11-22T15:30:09.0000000+00:00</time></trkpt><trkpt lat="30.6961445" lon="35.6756789"><ele>1494.8</ele><time>2015-11-22T15:30:20.0000000+00:00</time></trkpt><trkpt lat="30.6955793" lon="35.6759399"><ele>1500.1</ele><time>2015-11-22T15:30:51.0000000+00:00</time></trkpt><trkpt lat="30.6929559" lon="35.6780929"><ele>1525.0</ele><time>2015-11-22T15:34:13.0000000+00:00</time></trkpt><trkpt lat="30.691634" lon="35.6795878"><ele>1537.5</ele><time>2015-11-22T15:36:11.0000000+00:00</time></trkpt><trkpt lat="30.6909566" lon="35.6804621"><ele>1533.6</ele><time>2015-11-22T15:39:03.0000000+00:00</time></trkpt><trkpt lat="30.6905162" lon="35.6810528"><ele>1521.1</ele><time>2015-11-22T15:39:13.0000000+00:00</time></trkpt><trkpt lat="30.6900968" lon="35.6814817"><ele>1517.4</ele><time>2015-11-22T15:39:19.0000000+00:00</time></trkpt><trkpt lat="30.6887384" lon="35.6821518"><ele>1504.7</ele><time>2015-11-22T15:39:40.0000000+00:00</time></trkpt><trkpt lat="30.6877141" lon="35.683265"><ele>1493.2</ele><time>2015-11-22T15:40:17.0000000+00:00</time></trkpt><trkpt lat="30.686515" lon="35.684106"><ele>1476.7</ele><time>2015-11-22T15:40:32.0000000+00:00</time></trkpt><trkpt lat="30.6857598" lon="35.6841004"><ele>1469.2</ele><time>2015-11-22T15:40:39.0000000+00:00</time></trkpt><trkpt lat="30.6855235" lon="35.6840613"><ele>1467.7</ele><time>2015-11-22T15:40:41.0000000+00:00</time></trkpt><trkpt lat="30.6850887" lon="35.6836376"><ele>1464.6</ele><time>2015-11-22T15:40:47.0000000+00:00</time></trkpt><trkpt lat="30.6845947" lon="35.6828035"><ele>1461.1</ele><time>2015-11-22T15:40:55.0000000+00:00</time></trkpt><trkpt lat="30.6843594" lon="35.6823502"><ele>1460.1</ele><time>2015-11-22T15:40:59.0000000+00:00</time></trkpt><trkpt lat="30.6838308" lon="35.6810498"><ele>1457.7</ele><time>2015-11-22T15:41:10.0000000+00:00</time></trkpt><trkpt lat="30.6831832" lon="35.6787058"><ele>1452.0</ele><time>2015-11-22T15:41:30.0000000+00:00</time></trkpt><trkpt lat="30.6817681" lon="35.6768947"><ele>1447.4</ele><time>2015-11-22T15:41:52.0000000+00:00</time></trkpt><trkpt lat="30.6784053" lon="35.6740432"><ele>1438.0</ele><time>2015-11-22T15:42:36.0000000+00:00</time></trkpt><trkpt lat="30.675717" lon="35.6724223"><ele>1434.3</ele><time>2015-11-22T15:43:07.0000000+00:00</time></trkpt><trkpt lat="30.6739751" lon="35.671093"><ele>1432.6</ele><time>2015-11-22T15:43:30.0000000+00:00</time></trkpt><trkpt lat="30.6734805" lon="35.6706318"><ele>1431.3</ele><time>2015-11-22T15:43:38.0000000+00:00</time></trkpt><trkpt lat="30.6708238" lon="35.6679922"><ele>1432.5</ele><time>2015-11-22T15:44:20.0000000+00:00</time></trkpt><trkpt lat="30.6684907" lon="35.6656646"><ele>1461.1</ele><time>2015-11-22T15:46:36.0000000+00:00</time></trkpt><trkpt lat="30.6674779" lon="35.665382"><ele>1461.3</ele><time>2015-11-22T15:47:16.0000000+00:00</time></trkpt><trkpt lat="30.6676885" lon="35.6641384"><ele>1459.4</ele><time>2015-11-22T15:47:49.0000000+00:00</time></trkpt><trkpt lat="30.6693505" lon="35.6627146"><ele>1463.1</ele><time>2015-11-22T15:57:55.0000000+00:00</time></trkpt><trkpt lat="30.6693717" lon="35.6624646"><ele>1464.1</ele><time>2015-11-22T15:58:03.0000000+00:00</time></trkpt><trkpt lat="30.6692036" lon="35.6625059"><ele>1464.0</ele><time>2015-11-22T15:58:08.0000000+00:00</time></trkpt><trkpt lat="30.6681264" lon="35.6631905"><ele>1459.6</ele><time>2015-11-22T15:58:27.0000000+00:00</time></trkpt><trkpt lat="30.6666938" lon="35.6636101"><ele>1449.2</ele><time>2015-11-22T15:58:44.0000000+00:00</time></trkpt><trkpt lat="30.6643972" lon="35.663887"><ele>1431.8</ele><time>2015-11-22T15:59:05.0000000+00:00</time></trkpt><trkpt lat="30.6627547" lon="35.6638411"><ele>1421.7</ele><time>2015-11-22T15:59:19.0000000+00:00</time></trkpt><trkpt lat="30.6623969" lon="35.6637861"><ele>1419.9</ele><time>2015-11-22T15:59:22.0000000+00:00</time></trkpt><trkpt lat="30.6601835" lon="35.663161"><ele>1411.6</ele><time>2015-11-22T15:59:42.0000000+00:00</time></trkpt><trkpt lat="30.6557852" lon="35.6609478"><ele>1401.7</ele><time>2015-11-22T16:00:34.0000000+00:00</time></trkpt><trkpt lat="30.6554235" lon="35.6590275"><ele>1405.7</ele><time>2015-11-22T16:01:19.0000000+00:00</time></trkpt><trkpt lat="30.655082" lon="35.6581636"><ele>1408.1</ele><time>2015-11-22T16:01:41.0000000+00:00</time></trkpt><trkpt lat="30.6552936" lon="35.6562242"><ele>1419.0</ele><time>2015-11-22T16:02:57.0000000+00:00</time></trkpt><trkpt lat="30.6554841" lon="35.6556765"><ele>1419.9</ele><time>2015-11-22T16:03:20.0000000+00:00</time></trkpt><trkpt lat="30.6553997" lon="35.654877"><ele>1421.1</ele><time>2015-11-22T16:03:51.0000000+00:00</time></trkpt><trkpt lat="30.6556492" lon="35.65415"><ele>1422.6</ele><time>2015-11-22T16:04:15.0000000+00:00</time></trkpt><trkpt lat="30.6561382" lon="35.6524931"><ele>1419.8</ele><time>2015-11-22T16:04:58.0000000+00:00</time></trkpt><trkpt lat="30.6561559" lon="35.6510621"><ele>1420.4</ele><time>2015-11-22T16:05:44.0000000+00:00</time></trkpt><trkpt lat="30.6566159" lon="35.6474137"><ele>1411.1</ele><time>2015-11-22T16:08:27.0000000+00:00</time></trkpt><trkpt lat="30.6569064" lon="35.6456386"><ele>1418.2</ele><time>2015-11-22T16:09:38.0000000+00:00</time></trkpt><trkpt lat="30.6570886" lon="35.6444668"><ele>1411.1</ele><time>2015-11-22T16:10:07.0000000+00:00</time></trkpt><trkpt lat="30.6578144" lon="35.643054"><ele>1403.9</ele><time>2015-11-22T16:10:37.0000000+00:00</time></trkpt><trkpt lat="30.6580395" lon="35.6422109"><ele>1405.7</ele><time>2015-11-22T16:10:57.0000000+00:00</time></trkpt><trkpt lat="30.657684" lon="35.6416884"><ele>1405.4</ele><time>2015-11-22T16:11:18.0000000+00:00</time></trkpt><trkpt lat="30.656116" lon="35.639619"><ele>1428.1</ele><time>2015-11-22T16:18:35.0000000+00:00</time></trkpt><trkpt lat="30.6545984" lon="35.6382268"><ele>1441.6</ele><time>2015-11-22T16:20:20.0000000+00:00</time></trkpt><trkpt lat="30.6546267" lon="35.6373674"><ele>1447.6</ele><time>2015-11-22T16:21:29.0000000+00:00</time></trkpt><trkpt lat="30.65497" lon="35.6368374"><ele>1449.6</ele><time>2015-11-22T16:21:59.0000000+00:00</time></trkpt><trkpt lat="30.6552088" lon="35.6357389"><ele>1460.9</ele><time>2015-11-22T16:23:10.0000000+00:00</time></trkpt><trkpt lat="30.6551758" lon="35.6356954"><ele>1461.2</ele><time>2015-11-22T16:23:15.0000000+00:00</time></trkpt><trkpt lat="30.6541401" lon="35.6353459"><ele>1454.9</ele><time>2015-11-22T16:23:57.0000000+00:00</time></trkpt><trkpt lat="30.6544524" lon="35.6349298"><ele>1456.1</ele><time>2015-11-22T16:24:19.0000000+00:00</time></trkpt><trkpt lat="30.655444" lon="35.6332418"><ele>1469.7</ele><time>2015-11-22T16:26:55.0000000+00:00</time></trkpt><trkpt lat="30.6554367" lon="35.6328989"><ele>1470.4</ele><time>2015-11-22T16:27:07.0000000+00:00</time></trkpt><trkpt lat="30.6549716" lon="35.6323086"><ele>1470.3</ele><time>2015-11-22T16:27:34.0000000+00:00</time></trkpt><trkpt lat="30.6551357" lon="35.6317166"><ele>1473.1</ele><time>2015-11-22T16:28:12.0000000+00:00</time></trkpt><trkpt lat="30.655639" lon="35.6298738"><ele>1493.9</ele><time>2015-11-22T16:30:13.0000000+00:00</time></trkpt><trkpt lat="30.6557774" lon="35.6292856"><ele>1494.6</ele><time>2015-11-22T16:30:46.0000000+00:00</time></trkpt><trkpt lat="30.6565328" lon="35.6278099"><ele>1497.3</ele><time>2015-11-22T16:35:51.0000000+00:00</time></trkpt><trkpt lat="30.6581884" lon="35.6248125"><ele>1528.2</ele><time>2015-11-22T16:39:11.0000000+00:00</time></trkpt><trkpt lat="30.659206" lon="35.6232601"><ele>1545.1</ele><time>2015-11-22T16:41:15.0000000+00:00</time></trkpt><trkpt lat="30.6592633" lon="35.6228325"><ele>1546.3</ele><time>2015-11-22T16:42:21.0000000+00:00</time></trkpt><trkpt lat="30.6593131" lon="35.6221862"><ele>1544.4</ele><time>2015-11-22T16:42:34.0000000+00:00</time></trkpt><trkpt lat="30.659997" lon="35.6206655"><ele>1532.4</ele><time>2015-11-22T16:42:55.0000000+00:00</time></trkpt><trkpt lat="30.6601709" lon="35.6201776"><ele>1525.5</ele><time>2015-11-22T16:43:01.0000000+00:00</time></trkpt><trkpt lat="30.6605801" lon="35.618277"><ele>1498.4</ele><time>2015-11-22T16:43:21.0000000+00:00</time></trkpt><trkpt lat="30.661009" lon="35.6174444"><ele>1488.2</ele><time>2015-11-22T16:43:31.0000000+00:00</time></trkpt><trkpt lat="30.6611002" lon="35.61735"><ele>1488.2</ele><time>2015-11-22T16:43:34.0000000+00:00</time></trkpt><trkpt lat="30.661437" lon="35.6172473"><ele>1488.6</ele><time>2015-11-22T16:43:43.0000000+00:00</time></trkpt><trkpt lat="30.6625613" lon="35.6175085"><ele>1481.8</ele><time>2015-11-22T16:44:04.0000000+00:00</time></trkpt><trkpt lat="30.6642485" lon="35.6166267"><ele>1469.2</ele><time>2015-11-22T16:44:31.0000000+00:00</time></trkpt><trkpt lat="30.664892" lon="35.6165686"><ele>1467.8</ele><time>2015-11-22T16:44:43.0000000+00:00</time></trkpt><trkpt lat="30.6654665" lon="35.6165217"><ele>1459.0</ele><time>2015-11-22T16:44:55.0000000+00:00</time></trkpt><trkpt lat="30.6656225" lon="35.6164272"><ele>1452.7</ele><time>2015-11-22T16:44:58.0000000+00:00</time></trkpt><trkpt lat="30.666012" lon="35.6159961"><ele>1428.4</ele><time>2015-11-22T16:45:06.0000000+00:00</time></trkpt><trkpt lat="30.6669145" lon="35.6145581"><ele>1414.7</ele><time>2015-11-22T16:45:26.0000000+00:00</time></trkpt><trkpt lat="30.6681236" lon="35.6138854"><ele>1401.4</ele><time>2015-11-22T16:45:47.0000000+00:00</time></trkpt><trkpt lat="30.6684098" lon="35.6136846"><ele>1388.9</ele><time>2015-11-22T16:45:51.0000000+00:00</time></trkpt><trkpt lat="30.6686052" lon="35.6134602"><ele>1375.6</ele><time>2015-11-22T16:45:54.0000000+00:00</time></trkpt><trkpt lat="30.6695251" lon="35.6124642"><ele>1351.8</ele><time>2015-11-22T16:46:06.0000000+00:00</time></trkpt><trkpt lat="30.6702543" lon="35.6117009"><ele>1351.3</ele><time>2015-11-22T16:46:18.0000000+00:00</time></trkpt><trkpt lat="30.670474" lon="35.6114653"><ele>1347.7</ele><time>2015-11-22T16:46:22.0000000+00:00</time></trkpt><trkpt lat="30.6709484" lon="35.6106257"><ele>1334.4</ele><time>2015-11-22T16:46:34.0000000+00:00</time></trkpt><trkpt lat="30.6715156" lon="35.6103104"><ele>1329.2</ele><time>2015-11-22T16:46:52.0000000+00:00</time></trkpt><trkpt lat="30.6717871" lon="35.6102621"><ele>1323.3</ele><time>2015-11-22T16:47:00.0000000+00:00</time></trkpt><trkpt lat="30.6720375" lon="35.6104354"><ele>1318.5</ele><time>2015-11-22T16:47:08.0000000+00:00</time></trkpt><trkpt lat="30.6720794" lon="35.610511"><ele>1317.6</ele><time>2015-11-22T16:47:10.0000000+00:00</time></trkpt><trkpt lat="30.6723888" lon="35.6118081"><ele>1310.6</ele><time>2015-11-22T16:48:13.0000000+00:00</time></trkpt><trkpt lat="30.6727656" lon="35.6122214"><ele>1305.5</ele><time>2015-11-22T16:48:24.0000000+00:00</time></trkpt><trkpt lat="30.6735302" lon="35.6127436"><ele>1298.6</ele><time>2015-11-22T16:48:38.0000000+00:00</time></trkpt><trkpt lat="30.6745946" lon="35.612871"><ele>1294.1</ele><time>2015-11-22T16:48:56.0000000+00:00</time></trkpt><trkpt lat="30.6746579" lon="35.6128588"><ele>1293.2</ele><time>2015-11-22T16:48:58.0000000+00:00</time></trkpt><trkpt lat="30.6740903" lon="35.6123752"><ele>1278.4</ele><time>2015-11-22T16:49:14.0000000+00:00</time></trkpt><trkpt lat="30.6738491" lon="35.6117168"><ele>1275.4</ele><time>2015-11-22T16:49:26.0000000+00:00</time></trkpt><trkpt lat="30.6747271" lon="35.610682"><ele>1246.9</ele><time>2015-11-22T16:50:11.0000000+00:00</time></trkpt><trkpt lat="30.6746308" lon="35.6104515"><ele>1247.0</ele><time>2015-11-22T16:52:00.0000000+00:00</time></trkpt></trkseg><trkseg><trkpt lat="30.67467663" lon="35.61055603"><ele>1247.4</ele><time>2015-11-23T06:35:41.0000000+00:00</time></trkpt><trkpt lat="30.67481996" lon="35.61060632"><ele>1246.3</ele><time>2015-11-23T06:36:28.0000000+00:00</time></trkpt><trkpt lat="30.67539311" lon="35.60997575"><ele>1232.0</ele><time>2015-11-23T06:39:01.0000000+00:00</time></trkpt><trkpt lat="30.67549076" lon="35.610623"><ele>1233.4</ele><time>2015-11-23T06:42:01.0000000+00:00</time></trkpt><trkpt lat="30.67578387" lon="35.61089004"><ele>1229.5</ele><time>2015-11-23T06:42:55.0000000+00:00</time></trkpt><trkpt lat="30.67610909" lon="35.61091871"><ele>1222.7</ele><time>2015-11-23T06:43:59.0000000+00:00</time></trkpt><trkpt lat="30.67761892" lon="35.61195404"><ele>1220.2</ele><time>2015-11-23T06:47:39.0000000+00:00</time></trkpt><trkpt lat="30.67801078" lon="35.61202688"><ele>1219.1</ele><time>2015-11-23T06:48:28.0000000+00:00</time></trkpt><trkpt lat="30.67899356" lon="35.61280657"><ele>1237.8</ele><time>2015-11-23T06:52:45.0000000+00:00</time></trkpt><trkpt lat="30.67970929" lon="35.61293833"><ele>1239.9</ele><time>2015-11-23T06:59:54.0000000+00:00</time></trkpt><trkpt lat="30.67999025" lon="35.61362003"><ele>1283.1</ele><time>2015-11-23T07:05:22.0000000+00:00</time></trkpt><trkpt lat="30.67964039" lon="35.61381055"><ele>1293.0</ele><time>2015-11-23T07:13:20.0000000+00:00</time></trkpt><trkpt lat="30.67986662" lon="35.61401222"><ele>1301.9</ele><time>2015-11-23T07:14:54.0000000+00:00</time></trkpt><trkpt lat="30.67903278" lon="35.61412345"><ele>1308.1</ele><time>2015-11-23T07:23:08.0000000+00:00</time></trkpt><trkpt lat="30.67879784" lon="35.61387182"><ele>1302.3</ele><time>2015-11-23T07:34:36.0000000+00:00</time></trkpt><trkpt lat="30.67717812" lon="35.6136269"><ele>1328.0</ele><time>2015-11-23T07:37:17.0000000+00:00</time></trkpt><trkpt lat="30.67479489" lon="35.6128618"><ele>1293.0</ele><time>2015-11-23T07:41:44.0000000+00:00</time></trkpt><trkpt lat="30.67411386" lon="35.61237263"><ele>1278.9</ele><time>2015-11-23T07:43:03.0000000+00:00</time></trkpt><trkpt lat="30.67384883" lon="35.6117305"><ele>1274.3</ele><time>2015-11-23T07:44:02.0000000+00:00</time></trkpt><trkpt lat="30.67414756" lon="35.61120009"><ele>1263.3</ele><time>2015-11-23T07:45:15.0000000+00:00</time></trkpt><trkpt lat="30.67466363" lon="35.61073137"><ele>1249.6</ele><time>2015-11-23T07:46:52.0000000+00:00</time></trkpt></trkseg><trkseg><trkpt lat="30.67467671" lon="35.61058695"><ele>1246.8</ele><time>2015-11-23T09:01:34.0000000+00:00</time></trkpt><trkpt lat="30.6738951" lon="35.6116595"><ele>1272.3</ele><time>2015-11-23T09:04:39.0000000+00:00</time></trkpt><trkpt lat="30.67419844" lon="35.61247632"><ele>1281.1</ele><time>2015-11-23T09:05:56.0000000+00:00</time></trkpt><trkpt lat="30.67470906" lon="35.61285418"><ele>1288.9</ele><time>2015-11-23T09:06:38.0000000+00:00</time></trkpt><trkpt lat="30.67463438" lon="35.61287991"><ele>1290.4</ele><time>2015-11-23T09:06:46.0000000+00:00</time></trkpt><trkpt lat="30.67370751" lon="35.61273884"><ele>1293.8</ele><time>2015-11-23T09:07:47.0000000+00:00</time></trkpt><trkpt lat="30.67254544" lon="35.61193518"><ele>1307.7</ele><time>2015-11-23T09:09:25.0000000+00:00</time></trkpt><trkpt lat="30.67207228" lon="35.61041865"><ele>1317.6</ele><time>2015-11-23T09:10:54.0000000+00:00</time></trkpt><trkpt lat="30.67207295" lon="35.61031672"><ele>1317.3</ele><time>2015-11-23T09:11:00.0000000+00:00</time></trkpt><trkpt lat="30.67262314" lon="35.60965589"><ele>1313.0</ele><time>2015-11-23T09:12:35.0000000+00:00</time></trkpt><trkpt lat="30.67218846" lon="35.61016409"><ele>1315.3</ele><time>2015-11-23T09:22:58.0000000+00:00</time></trkpt><trkpt lat="30.67201822" lon="35.61036081"><ele>1318.6</ele><time>2015-11-23T09:23:18.0000000+00:00</time></trkpt><trkpt lat="30.67164447" lon="35.61030113"><ele>1325.3</ele><time>2015-11-23T09:23:51.0000000+00:00</time></trkpt><trkpt lat="30.67106998" lon="35.61054815"><ele>1333.1</ele><time>2015-11-23T09:24:41.0000000+00:00</time></trkpt><trkpt lat="30.67045718" lon="35.61151324"><ele>1345.6</ele><time>2015-11-23T09:26:16.0000000+00:00</time></trkpt><trkpt lat="30.67013539" lon="35.61178649"><ele>1350.2</ele><time>2015-11-23T09:27:01.0000000+00:00</time></trkpt><trkpt lat="30.66947473" lon="35.61249384"><ele>1353.4</ele><time>2015-11-23T09:28:38.0000000+00:00</time></trkpt><trkpt lat="30.66881793" lon="35.61322935"><ele>1371.1</ele><time>2015-11-23T09:30:30.0000000+00:00</time></trkpt><trkpt lat="30.66859413" lon="35.6131897"><ele>1366.7</ele><time>2015-11-23T09:32:15.0000000+00:00</time></trkpt><trkpt lat="30.66865029" lon="35.6132788"><ele>1370.7</ele><time>2015-11-23T09:34:12.0000000+00:00</time></trkpt><trkpt lat="30.66862707" lon="35.61314134"><ele>1366.3</ele><time>2015-11-23T09:35:25.0000000+00:00</time></trkpt><trkpt lat="30.66861844" lon="35.61315098"><ele>1366.3</ele><time>2015-11-23T09:37:07.0000000+00:00</time></trkpt><trkpt lat="30.66872363" lon="35.61322818"><ele>1369.7</ele><time>2015-11-23T09:38:51.0000000+00:00</time></trkpt><trkpt lat="30.66840118" lon="35.61362883"><ele>1383.4</ele><time>2015-11-23T09:40:33.0000000+00:00</time></trkpt><trkpt lat="30.66741019" lon="35.61423602"><ele>1407.9</ele><time>2015-11-23T09:43:59.0000000+00:00</time></trkpt><trkpt lat="30.66696997" lon="35.61444246"><ele>1413.6</ele><time>2015-11-23T09:45:09.0000000+00:00</time></trkpt><trkpt lat="30.66597856" lon="35.6159901"><ele>1428.8</ele><time>2015-11-23T09:48:25.0000000+00:00</time></trkpt><trkpt lat="30.66561503" lon="35.61642705"><ele>1443.8</ele><time>2015-11-23T09:49:53.0000000+00:00</time></trkpt><trkpt lat="30.66521404" lon="35.61659602"><ele>1456.6</ele><time>2015-11-23T09:51:00.0000000+00:00</time></trkpt><trkpt lat="30.66412196" lon="35.61663567"><ele>1467.3</ele><time>2015-11-23T09:53:40.0000000+00:00</time></trkpt><trkpt lat="30.6626418" lon="35.61748107"><ele>1481.8</ele><time>2015-11-23T09:57:46.0000000+00:00</time></trkpt><trkpt lat="30.66190931" lon="35.61738786"><ele>1487.3</ele><time>2015-11-23T09:58:32.0000000+00:00</time></trkpt><trkpt lat="30.66132149" lon="35.61724411"><ele>1489.2</ele><time>2015-11-23T09:59:07.0000000+00:00</time></trkpt><trkpt lat="30.66087465" lon="35.61747302"><ele>1486.8</ele><time>2015-11-23T09:59:42.0000000+00:00</time></trkpt><trkpt lat="30.66085386" lon="35.61749465"><ele>1486.7</ele><time>2015-11-23T10:01:56.0000000+00:00</time></trkpt><trkpt lat="30.66048011" lon="35.61848002"><ele>1500.1</ele><time>2015-11-23T10:03:55.0000000+00:00</time></trkpt><trkpt lat="30.66005331" lon="35.62052814"><ele>1529.5</ele><time>2015-11-23T10:08:22.0000000+00:00</time></trkpt><trkpt lat="30.65998801" lon="35.62065932"><ele>1531.6</ele><time>2015-11-23T10:08:41.0000000+00:00</time></trkpt><trkpt lat="30.65926784" lon="35.62228683"><ele>1544.2</ele><time>2015-11-23T10:12:08.0000000+00:00</time></trkpt><trkpt lat="30.65928385" lon="35.62306258"><ele>1546.8</ele><time>2015-11-23T10:13:30.0000000+00:00</time></trkpt><trkpt lat="30.6592789" lon="35.62312804"><ele>1546.6</ele><time>2015-11-23T10:13:41.0000000+00:00</time></trkpt><trkpt lat="30.65825597" lon="35.62466989"><ele>1529.6</ele><time>2015-11-23T10:14:10.0000000+00:00</time></trkpt><trkpt lat="30.65646761" lon="35.6278582"><ele>1498.5</ele><time>2015-11-23T10:14:39.0000000+00:00</time></trkpt><trkpt lat="30.6559041" lon="35.62886923"><ele>1496.9</ele><time>2015-11-23T10:14:51.0000000+00:00</time></trkpt><trkpt lat="30.65430181" lon="35.63123795"><ele>1479.9</ele><time>2015-11-23T10:15:50.0000000+00:00</time></trkpt><trkpt lat="30.65358415" lon="35.63239298"><ele>1484.3</ele><time>2015-11-23T10:16:26.0000000+00:00</time></trkpt><trkpt lat="30.65134325" lon="35.63627598"><ele>1430.4</ele><time>2015-11-23T10:17:32.0000000+00:00</time></trkpt><trkpt lat="30.65129438" lon="35.63630498"><ele>1430.2</ele><time>2015-11-23T10:17:41.0000000+00:00</time></trkpt><trkpt lat="30.65140075" lon="35.63626844"><ele>1430.6</ele><time>2015-11-23T10:20:18.0000000+00:00</time></trkpt><trkpt lat="30.65038855" lon="35.63774742"><ele>1439.5</ele><time>2015-11-23T10:27:18.0000000+00:00</time></trkpt><trkpt lat="30.65020507" lon="35.63795831"><ele>1439.7</ele><time>2015-11-23T10:27:35.0000000+00:00</time></trkpt><trkpt lat="30.6498558" lon="35.6382505"><ele>1437.6</ele><time>2015-11-23T10:27:56.0000000+00:00</time></trkpt><trkpt lat="30.64725858" lon="35.63994977"><ele>1428.7</ele><time>2015-11-23T10:28:46.0000000+00:00</time></trkpt><trkpt lat="30.64668191" lon="35.64033047"><ele>1425.4</ele><time>2015-11-23T10:28:57.0000000+00:00</time></trkpt><trkpt lat="30.64491961" lon="35.64107294"><ele>1413.3</ele><time>2015-11-23T10:29:22.0000000+00:00</time></trkpt><trkpt lat="30.64343794" lon="35.64218245"><ele>1403.8</ele><time>2015-11-23T10:29:41.0000000+00:00</time></trkpt><trkpt lat="30.6400188" lon="35.64327495"><ele>1386.2</ele><time>2015-11-23T10:30:32.0000000+00:00</time></trkpt><trkpt lat="30.63658012" lon="35.64328493"><ele>1364.2</ele><time>2015-11-23T10:31:05.0000000+00:00</time></trkpt><trkpt lat="30.6348242" lon="35.64325651"><ele>1360.7</ele><time>2015-11-23T10:31:24.0000000+00:00</time></trkpt><trkpt lat="30.63159834" lon="35.64279391"><ele>1349.6</ele><time>2015-11-23T10:32:08.0000000+00:00</time></trkpt><trkpt lat="30.6296037" lon="35.64255805"><ele>1351.4</ele><time>2015-11-23T10:32:43.0000000+00:00</time></trkpt><trkpt lat="30.62686432" lon="35.64251052"><ele>1348.8</ele><time>2015-11-23T10:33:37.0000000+00:00</time></trkpt><trkpt lat="30.62193551" lon="35.64249694"><ele>1330.3</ele><time>2015-11-23T10:34:55.0000000+00:00</time></trkpt><trkpt lat="30.61511071" lon="35.64294403"><ele>1294.2</ele><time>2015-11-23T10:36:18.0000000+00:00</time></trkpt><trkpt lat="30.61406876" lon="35.64312324"><ele>1296.4</ele><time>2015-11-23T10:36:30.0000000+00:00</time></trkpt><trkpt lat="30.6124736" lon="35.64388298"><ele>1301.0</ele><time>2015-11-23T10:37:04.0000000+00:00</time></trkpt><trkpt lat="30.61101171" lon="35.6438611"><ele>1304.8</ele><time>2015-11-23T10:37:49.0000000+00:00</time></trkpt><trkpt lat="30.60784905" lon="35.64465461"><ele>1306.7</ele><time>2015-11-23T10:39:15.0000000+00:00</time></trkpt><trkpt lat="30.60434399" lon="35.64457356"><ele>1291.5</ele><time>2015-11-23T10:40:05.0000000+00:00</time></trkpt><trkpt lat="30.60321428" lon="35.6445003"><ele>1293.8</ele><time>2015-11-23T10:40:21.0000000+00:00</time></trkpt><trkpt lat="30.59267789" lon="35.64121309"><ele>1286.0</ele><time>2015-11-23T10:43:45.0000000+00:00</time></trkpt><trkpt lat="30.59105851" lon="35.6406282"><ele>1284.3</ele><time>2015-11-23T10:44:20.0000000+00:00</time></trkpt><trkpt lat="30.58402961" lon="35.63803182"><ele>1268.7</ele><time>2015-11-23T10:46:22.0000000+00:00</time></trkpt><trkpt lat="30.58308044" lon="35.63768397"><ele>1270.3</ele><time>2015-11-23T10:46:38.0000000+00:00</time></trkpt><trkpt lat="30.5714146" lon="35.63213959"><ele>1266.4</ele><time>2015-11-23T10:51:29.0000000+00:00</time></trkpt><trkpt lat="30.57067171" lon="35.6318329"><ele>1264.4</ele><time>2015-11-23T10:51:46.0000000+00:00</time></trkpt><trkpt lat="30.56075198" lon="35.62900669"><ele>1247.0</ele><time>2015-11-23T10:55:10.0000000+00:00</time></trkpt><trkpt lat="30.55606666" lon="35.62837159"><ele>1258.5</ele><time>2015-11-23T10:57:13.0000000+00:00</time></trkpt><trkpt lat="30.55541321" lon="35.62825953"><ele>1257.3</ele><time>2015-11-23T11:03:39.0000000+00:00</time></trkpt><trkpt lat="30.55300123" lon="35.62808577"><ele>1250.3</ele><time>2015-11-23T11:25:04.0000000+00:00</time></trkpt><trkpt lat="30.55094867" lon="35.62787404"><ele>1251.4</ele><time>2015-11-23T11:25:45.0000000+00:00</time></trkpt><trkpt lat="30.54865111" lon="35.62807194"><ele>1258.3</ele><time>2015-11-23T11:27:01.0000000+00:00</time></trkpt><trkpt lat="30.54580503" lon="35.629074"><ele>1262.9</ele><time>2015-11-23T11:28:37.0000000+00:00</time></trkpt><trkpt lat="30.54509894" lon="35.62916469"><ele>1262.4</ele><time>2015-11-23T11:28:57.0000000+00:00</time></trkpt><trkpt lat="30.5415451" lon="35.62865524"><ele>1260.3</ele><time>2015-11-23T11:30:21.0000000+00:00</time></trkpt><trkpt lat="30.54069802" lon="35.62804269"><ele>1260.6</ele><time>2015-11-23T11:31:30.0000000+00:00</time></trkpt><trkpt lat="30.53942565" lon="35.62617998"><ele>1262.3</ele><time>2015-11-23T11:32:47.0000000+00:00</time></trkpt><trkpt lat="30.53846341" lon="35.62512813"><ele>1260.1</ele><time>2015-11-23T11:33:30.0000000+00:00</time></trkpt><trkpt lat="30.53199534" lon="35.61817425"><ele>1275.7</ele><time>2015-11-23T11:37:23.0000000+00:00</time></trkpt><trkpt lat="30.53135723" lon="35.61689224"><ele>1277.8</ele><time>2015-11-23T11:37:56.0000000+00:00</time></trkpt><trkpt lat="30.53021167" lon="35.61184583"><ele>1288.1</ele><time>2015-11-23T11:42:35.0000000+00:00</time></trkpt><trkpt lat="30.52957213" lon="35.60980392"><ele>1287.3</ele><time>2015-11-23T11:51:04.0000000+00:00</time></trkpt><trkpt lat="30.52940743" lon="35.60877663"><ele>1288.1</ele><time>2015-11-23T11:52:22.0000000+00:00</time></trkpt><trkpt lat="30.5291957" lon="35.60705264"><ele>1293.6</ele><time>2015-11-23T11:53:17.0000000+00:00</time></trkpt><trkpt lat="30.52916176" lon="35.60516487"><ele>1298.5</ele><time>2015-11-23T11:54:11.0000000+00:00</time></trkpt><trkpt lat="30.53194731" lon="35.60016138"><ele>1310.1</ele><time>2015-11-23T11:56:24.0000000+00:00</time></trkpt><trkpt lat="30.53200624" lon="35.59975293"><ele>1311.9</ele><time>2015-11-23T11:56:38.0000000+00:00</time></trkpt><trkpt lat="30.53059959" lon="35.59540733"><ele>1319.1</ele><time>2015-11-23T11:58:16.0000000+00:00</time></trkpt><trkpt lat="30.52946476" lon="35.591511"><ele>1315.1</ele><time>2015-11-23T12:00:15.0000000+00:00</time></trkpt><trkpt lat="30.52846782" lon="35.58995716"><ele>1321.7</ele><time>2015-11-23T12:01:18.0000000+00:00</time></trkpt><trkpt lat="30.52764136" lon="35.58792925"><ele>1329.2</ele><time>2015-11-23T12:08:34.0000000+00:00</time></trkpt><trkpt lat="30.52670695" lon="35.58582187"><ele>1325.4</ele><time>2015-11-23T12:09:45.0000000+00:00</time></trkpt><trkpt lat="30.52576834" lon="35.58449669"><ele>1324.8</ele><time>2015-11-23T12:10:24.0000000+00:00</time></trkpt><trkpt lat="30.52528236" lon="35.58343026"><ele>1323.3</ele><time>2015-11-23T12:10:54.0000000+00:00</time></trkpt><trkpt lat="30.52477735" lon="35.5816678"><ele>1321.2</ele><time>2015-11-23T12:11:29.0000000+00:00</time></trkpt><trkpt lat="30.52370648" lon="35.58090555"><ele>1323.2</ele><time>2015-11-23T12:11:54.0000000+00:00</time></trkpt><trkpt lat="30.52317037" lon="35.57967818"><ele>1317.3</ele><time>2015-11-23T12:12:19.0000000+00:00</time></trkpt><trkpt lat="30.52299771" lon="35.57642064"><ele>1316.5</ele><time>2015-11-23T12:13:09.0000000+00:00</time></trkpt><trkpt lat="30.52292923" lon="35.57495666"><ele>1319.3</ele><time>2015-11-23T12:13:41.0000000+00:00</time></trkpt><trkpt lat="30.52298153" lon="35.57342051"><ele>1326.0</ele><time>2015-11-23T12:14:36.0000000+00:00</time></trkpt><trkpt lat="30.52262253" lon="35.57230538"><ele>1331.3</ele><time>2015-11-23T12:15:21.0000000+00:00</time></trkpt><trkpt lat="30.52266494" lon="35.57202031"><ele>1332.0</ele><time>2015-11-23T12:15:32.0000000+00:00</time></trkpt><trkpt lat="30.52320264" lon="35.57111791"><ele>1335.8</ele><time>2015-11-23T12:16:16.0000000+00:00</time></trkpt><trkpt lat="30.52500425" lon="35.56880577"><ele>1352.5</ele><time>2015-11-23T12:18:25.0000000+00:00</time></trkpt><trkpt lat="30.52508882" lon="35.56855473"><ele>1353.2</ele><time>2015-11-23T12:18:38.0000000+00:00</time></trkpt><trkpt lat="30.52546148" lon="35.5667724"><ele>1339.8</ele><time>2015-11-23T12:19:04.0000000+00:00</time></trkpt><trkpt lat="30.525781" lon="35.56631659"><ele>1332.6</ele><time>2015-11-23T12:19:08.0000000+00:00</time></trkpt><trkpt lat="30.52669547" lon="35.56531495"><ele>1331.1</ele><time>2015-11-23T12:19:42.0000000+00:00</time></trkpt><trkpt lat="30.52677266" lon="35.56499636"><ele>1329.5</ele><time>2015-11-23T12:20:35.0000000+00:00</time></trkpt><trkpt lat="30.52639296" lon="35.56561595"><ele>1332.9</ele><time>2015-11-23T12:21:35.0000000+00:00</time></trkpt><trkpt lat="30.52624653" lon="35.56519216"><ele>1335.6</ele><time>2015-11-23T12:22:03.0000000+00:00</time></trkpt></trkseg><trkseg><trkpt lat="30.52614779" lon="35.56511865"><ele>1337.3</ele><time>2015-11-24T06:19:59.0000000+00:00</time></trkpt><trkpt lat="30.52627712" lon="35.565236"><ele>1335.2</ele><time>2015-11-24T06:23:37.0000000+00:00</time></trkpt><trkpt lat="30.52620638" lon="35.56510004"><ele>1336.3</ele><time>2015-11-24T06:24:37.0000000+00:00</time></trkpt><trkpt lat="30.52622885" lon="35.5659306"><ele>1332.0</ele><time>2015-11-24T06:52:38.0000000+00:00</time></trkpt><trkpt lat="30.5258727" lon="35.56613076"><ele>1333.2</ele><time>2015-11-24T06:53:00.0000000+00:00</time></trkpt><trkpt lat="30.52662942" lon="35.56535058"><ele>1331.7</ele><time>2015-11-24T06:58:41.0000000+00:00</time></trkpt><trkpt lat="30.52679588" lon="35.56483123"><ele>1328.6</ele><time>2015-11-24T06:58:55.0000000+00:00</time></trkpt><trkpt lat="30.52730558" lon="35.56395063"><ele>1309.2</ele><time>2015-11-24T06:59:25.0000000+00:00</time></trkpt><trkpt lat="30.52767724" lon="35.56411986"><ele>1300.8</ele><time>2015-11-24T06:59:51.0000000+00:00</time></trkpt><trkpt lat="30.52795275" lon="35.56398131"><ele>1292.6</ele><time>2015-11-24T07:00:07.0000000+00:00</time></trkpt><trkpt lat="30.52796004" lon="35.56398483"><ele>1292.4</ele><time>2015-11-24T07:00:22.0000000+00:00</time></trkpt><trkpt lat="30.52848483" lon="35.56420511"><ele>1285.8</ele><time>2015-11-24T07:00:37.0000000+00:00</time></trkpt><trkpt lat="30.52875934" lon="35.56475471"><ele>1286.0</ele><time>2015-11-24T07:00:45.0000000+00:00</time></trkpt><trkpt lat="30.52966442" lon="35.56549248"><ele>1274.6</ele><time>2015-11-24T07:02:55.0000000+00:00</time></trkpt><trkpt lat="30.52976115" lon="35.56566096"><ele>1273.7</ele><time>2015-11-24T07:02:58.0000000+00:00</time></trkpt><trkpt lat="30.53003381" lon="35.56749282"><ele>1278.2</ele><time>2015-11-24T07:03:29.0000000+00:00</time></trkpt><trkpt lat="30.5300411" lon="35.5679343"><ele>1279.8</ele><time>2015-11-24T07:03:43.0000000+00:00</time></trkpt><trkpt lat="30.52987849" lon="35.56857652"><ele>1277.7</ele><time>2015-11-24T07:04:15.0000000+00:00</time></trkpt><trkpt lat="30.52953576" lon="35.56913861"><ele>1270.5</ele><time>2015-11-24T07:04:43.0000000+00:00</time></trkpt><trkpt lat="30.52912094" lon="35.56940281"><ele>1267.1</ele><time>2015-11-24T07:04:53.0000000+00:00</time></trkpt><trkpt lat="30.52816699" lon="35.57007001"><ele>1268.3</ele><time>2015-11-24T07:06:40.0000000+00:00</time></trkpt><trkpt lat="30.52986743" lon="35.5712169"><ele>1244.2</ele><time>2015-11-24T07:07:07.0000000+00:00</time></trkpt><trkpt lat="30.52984044" lon="35.5714718"><ele>1240.8</ele><time>2015-11-24T07:07:10.0000000+00:00</time></trkpt><trkpt lat="30.52979132" lon="35.57154447"><ele>1240.5</ele><time>2015-11-24T07:07:11.0000000+00:00</time></trkpt><trkpt lat="30.5290766" lon="35.5723058"><ele>1237.0</ele><time>2015-11-24T07:13:01.0000000+00:00</time></trkpt><trkpt lat="30.52907366" lon="35.57234972"><ele>1236.6</ele><time>2015-11-24T07:13:02.0000000+00:00</time></trkpt><trkpt lat="30.52919084" lon="35.57256002"><ele>1231.9</ele><time>2015-11-24T07:13:07.0000000+00:00</time></trkpt><trkpt lat="30.52998042" lon="35.5730564"><ele>1217.7</ele><time>2015-11-24T07:13:19.0000000+00:00</time></trkpt><trkpt lat="30.52992904" lon="35.57327852"><ele>1214.6</ele><time>2015-11-24T07:13:22.0000000+00:00</time></trkpt><trkpt lat="30.52931925" lon="35.57416759"><ele>1205.9</ele><time>2015-11-24T07:13:35.0000000+00:00</time></trkpt><trkpt lat="30.53123561" lon="35.57489874"><ele>1180.8</ele><time>2015-11-24T07:13:54.0000000+00:00</time></trkpt><trkpt lat="30.53139947" lon="35.57607489"><ele>1167.7</ele><time>2015-11-24T07:14:03.0000000+00:00</time></trkpt><trkpt lat="30.53150064" lon="35.5773315"><ele>1158.3</ele><time>2015-11-24T07:14:13.0000000+00:00</time></trkpt><trkpt lat="30.53171321" lon="35.5778081"><ele>1153.2</ele><time>2015-11-24T07:14:19.0000000+00:00</time></trkpt><trkpt lat="30.53244612" lon="35.57834622"><ele>1144.9</ele><time>2015-11-24T07:14:28.0000000+00:00</time></trkpt><trkpt lat="30.53276983" lon="35.5781075"><ele>1146.6</ele><time>2015-11-24T07:14:33.0000000+00:00</time></trkpt><trkpt lat="30.53296815" lon="35.57760056"><ele>1148.6</ele><time>2015-11-24T07:14:40.0000000+00:00</time></trkpt><trkpt lat="30.53307175" lon="35.57749118"><ele>1146.7</ele><time>2015-11-24T07:14:42.0000000+00:00</time></trkpt><trkpt lat="30.53329739" lon="35.5774864"><ele>1142.7</ele><time>2015-11-24T07:14:45.0000000+00:00</time></trkpt><trkpt lat="30.5337071" lon="35.57758363"><ele>1142.5</ele><time>2015-11-24T07:14:51.0000000+00:00</time></trkpt><trkpt lat="30.53425888" lon="35.57830129"><ele>1153.2</ele><time>2015-11-24T07:15:31.0000000+00:00</time></trkpt><trkpt lat="30.53502289" lon="35.579143"><ele>1149.8</ele><time>2015-11-24T07:16:15.0000000+00:00</time></trkpt><trkpt lat="30.53601933" lon="35.57939144"><ele>1152.0</ele><time>2015-11-24T07:16:50.0000000+00:00</time></trkpt><trkpt lat="30.53635779" lon="35.57995839"><ele>1154.6</ele><time>2015-11-24T07:17:18.0000000+00:00</time></trkpt><trkpt lat="30.53656197" lon="35.58052568"><ele>1161.0</ele><time>2015-11-24T07:17:54.0000000+00:00</time></trkpt><trkpt lat="30.53691695" lon="35.58088526"><ele>1169.1</ele><time>2015-11-24T07:18:27.0000000+00:00</time></trkpt><trkpt lat="30.53735339" lon="35.58100672"><ele>1179.6</ele><time>2015-11-24T07:19:01.0000000+00:00</time></trkpt><trkpt lat="30.53845402" lon="35.58124183"><ele>1182.1</ele><time>2015-11-24T07:20:10.0000000+00:00</time></trkpt><trkpt lat="30.53873783" lon="35.58130167"><ele>1188.0</ele><time>2015-11-24T07:20:29.0000000+00:00</time></trkpt><trkpt lat="30.53874001" lon="35.58061805"><ele>1200.2</ele><time>2015-11-24T07:21:48.0000000+00:00</time></trkpt><trkpt lat="30.53817239" lon="35.58013131"><ele>1210.7</ele><time>2015-11-24T07:23:04.0000000+00:00</time></trkpt><trkpt lat="30.53786251" lon="35.57953913"><ele>1217.4</ele><time>2015-11-24T07:23:50.0000000+00:00</time></trkpt><trkpt lat="30.5379278" lon="35.57898014"><ele>1228.2</ele><time>2015-11-24T07:24:30.0000000+00:00</time></trkpt><trkpt lat="30.53814565" lon="35.57884502"><ele>1231.8</ele><time>2015-11-24T07:24:46.0000000+00:00</time></trkpt><trkpt lat="30.53894076" lon="35.5783214"><ele>1235.8</ele><time>2015-11-24T07:25:37.0000000+00:00</time></trkpt><trkpt lat="30.53970569" lon="35.57712556"><ele>1245.2</ele><time>2015-11-24T07:26:49.0000000+00:00</time></trkpt><trkpt lat="30.54047054" lon="35.57676614"><ele>1250.4</ele><time>2015-11-24T07:27:23.0000000+00:00</time></trkpt><trkpt lat="30.54177258" lon="35.57571723"><ele>1251.1</ele><time>2015-11-24T07:27:55.0000000+00:00</time></trkpt><trkpt lat="30.54258998" lon="35.57536536"><ele>1252.1</ele><time>2015-11-24T07:28:16.0000000+00:00</time></trkpt><trkpt lat="30.54456971" lon="35.57465826"><ele>1270.7</ele><time>2015-11-24T07:29:57.0000000+00:00</time></trkpt><trkpt lat="30.54512115" lon="35.57421193"><ele>1274.9</ele><time>2015-11-24T07:32:12.0000000+00:00</time></trkpt><trkpt lat="30.5451142" lon="35.57413029"><ele>1276.5</ele><time>2015-11-24T07:32:38.0000000+00:00</time></trkpt><trkpt lat="30.54564326" lon="35.57303863"><ele>1268.2</ele><time>2015-11-24T07:32:58.0000000+00:00</time></trkpt><trkpt lat="30.54618113" lon="35.57258232"><ele>1263.1</ele><time>2015-11-24T07:33:06.0000000+00:00</time></trkpt><trkpt lat="30.54657466" lon="35.57251132"><ele>1260.6</ele><time>2015-11-24T07:33:11.0000000+00:00</time></trkpt><trkpt lat="30.54674171" lon="35.57239716"><ele>1264.3</ele><time>2015-11-24T07:33:14.0000000+00:00</time></trkpt><trkpt lat="30.54674841" lon="35.57169165"><ele>1270.5</ele><time>2015-11-24T07:33:23.0000000+00:00</time></trkpt><trkpt lat="30.5468402" lon="35.57114926"><ele>1266.6</ele><time>2015-11-24T07:33:30.0000000+00:00</time></trkpt><trkpt lat="30.54843544" lon="35.56931891"><ele>1249.7</ele><time>2015-11-24T07:34:00.0000000+00:00</time></trkpt><trkpt lat="30.54856645" lon="35.56903736"><ele>1248.1</ele><time>2015-11-24T07:34:03.0000000+00:00</time></trkpt><trkpt lat="30.54900415" lon="35.56785266"><ele>1231.3</ele><time>2015-11-24T07:34:12.0000000+00:00</time></trkpt><trkpt lat="30.54910675" lon="35.56763666"><ele>1230.5</ele><time>2015-11-24T07:34:14.0000000+00:00</time></trkpt><trkpt lat="30.54929148" lon="35.56660652"><ele>1226.8</ele><time>2015-11-24T07:34:22.0000000+00:00</time></trkpt><trkpt lat="30.54936617" lon="35.56648767"><ele>1223.9</ele><time>2015-11-24T07:34:24.0000000+00:00</time></trkpt><trkpt lat="30.54998727" lon="35.56659579"><ele>1211.2</ele><time>2015-11-24T07:34:33.0000000+00:00</time></trkpt><trkpt lat="30.55039647" lon="35.56625691"><ele>1206.5</ele><time>2015-11-24T07:34:39.0000000+00:00</time></trkpt><trkpt lat="30.55086024" lon="35.56617728"><ele>1198.6</ele><time>2015-11-24T07:34:44.0000000+00:00</time></trkpt><trkpt lat="30.55184268" lon="35.56668649"><ele>1182.7</ele><time>2015-11-24T07:34:59.0000000+00:00</time></trkpt><trkpt lat="30.55189289" lon="35.5666833"><ele>1182.4</ele><time>2015-11-24T07:35:00.0000000+00:00</time></trkpt><trkpt lat="30.55189851" lon="35.56588291"><ele>1181.9</ele><time>2015-11-24T07:35:10.0000000+00:00</time></trkpt><trkpt lat="30.55192122" lon="35.56577579"><ele>1181.0</ele><time>2015-11-24T07:35:11.0000000+00:00</time></trkpt><trkpt lat="30.55224954" lon="35.56534966"><ele>1171.4</ele><time>2015-11-24T07:35:16.0000000+00:00</time></trkpt><trkpt lat="30.55235557" lon="35.56534052"><ele>1169.3</ele><time>2015-11-24T07:35:17.0000000+00:00</time></trkpt><trkpt lat="30.55284751" lon="35.56552945"><ele>1168.1</ele><time>2015-11-24T07:35:23.0000000+00:00</time></trkpt><trkpt lat="30.55343625" lon="35.56542635"><ele>1163.2</ele><time>2015-11-24T07:35:29.0000000+00:00</time></trkpt><trkpt lat="30.55467166" lon="35.56558175"><ele>1148.9</ele><time>2015-11-24T07:36:27.0000000+00:00</time></trkpt><trkpt lat="30.55522746" lon="35.56456653"><ele>1143.0</ele><time>2015-11-24T07:36:40.0000000+00:00</time></trkpt><trkpt lat="30.55596331" lon="35.56312988"><ele>1152.0</ele><time>2015-11-24T07:37:20.0000000+00:00</time></trkpt><trkpt lat="30.55629272" lon="35.56280122"><ele>1145.4</ele><time>2015-11-24T07:37:29.0000000+00:00</time></trkpt><trkpt lat="30.55663546" lon="35.56273283"><ele>1140.4</ele><time>2015-11-24T07:37:34.0000000+00:00</time></trkpt><trkpt lat="30.55744825" lon="35.56297665"><ele>1135.8</ele><time>2015-11-24T07:37:50.0000000+00:00</time></trkpt><trkpt lat="30.55777296" lon="35.56308822"><ele>1136.8</ele><time>2015-11-24T07:37:58.0000000+00:00</time></trkpt><trkpt lat="30.55873848" lon="35.56297783"><ele>1144.3</ele><time>2015-11-24T07:38:17.0000000+00:00</time></trkpt><trkpt lat="30.55895381" lon="35.56275898"><ele>1145.6</ele><time>2015-11-24T07:38:22.0000000+00:00</time></trkpt><trkpt lat="30.55994019" lon="35.56162155"><ele>1145.9</ele><time>2015-11-24T07:38:42.0000000+00:00</time></trkpt><trkpt lat="30.5605669" lon="35.56147495"><ele>1139.4</ele><time>2015-11-24T07:38:54.0000000+00:00</time></trkpt><trkpt lat="30.56155186" lon="35.56116139"><ele>1157.8</ele><time>2015-11-24T07:40:03.0000000+00:00</time></trkpt><trkpt lat="30.56189091" lon="35.56085209"><ele>1165.1</ele><time>2015-11-24T07:40:34.0000000+00:00</time></trkpt><trkpt lat="30.56260614" lon="35.56001675"><ele>1173.5</ele><time>2015-11-24T07:41:25.0000000+00:00</time></trkpt><trkpt lat="30.56290981" lon="35.55966413"><ele>1173.2</ele><time>2015-11-24T07:41:40.0000000+00:00</time></trkpt><trkpt lat="30.56401446" lon="35.55883356"><ele>1163.1</ele><time>2015-11-24T07:42:05.0000000+00:00</time></trkpt><trkpt lat="30.56459265" lon="35.55876802"><ele>1158.4</ele><time>2015-11-24T07:42:11.0000000+00:00</time></trkpt><trkpt lat="30.56468569" lon="35.55878419"><ele>1158.3</ele><time>2015-11-24T07:42:12.0000000+00:00</time></trkpt><trkpt lat="30.56556713" lon="35.55899198"><ele>1157.9</ele><time>2015-11-24T07:42:24.0000000+00:00</time></trkpt><trkpt lat="30.56768373" lon="35.55857431"><ele>1156.6</ele><time>2015-11-24T07:43:34.0000000+00:00</time></trkpt><trkpt lat="30.567659" lon="35.55858077"><ele>1156.5</ele><time>2015-11-24T07:43:48.0000000+00:00</time></trkpt><trkpt lat="30.56781658" lon="35.55793326"><ele>1165.6</ele><time>2015-11-24T07:53:51.0000000+00:00</time></trkpt><trkpt lat="30.56786897" lon="35.55772338"><ele>1162.3</ele><time>2015-11-24T07:53:53.0000000+00:00</time></trkpt><trkpt lat="30.56809452" lon="35.55734569"><ele>1155.9</ele><time>2015-11-24T07:53:57.0000000+00:00</time></trkpt><trkpt lat="30.56866173" lon="35.55678679"><ele>1155.3</ele><time>2015-11-24T07:54:05.0000000+00:00</time></trkpt><trkpt lat="30.56900488" lon="35.55676701"><ele>1152.1</ele><time>2015-11-24T07:54:09.0000000+00:00</time></trkpt><trkpt lat="30.56929096" lon="35.55682258"><ele>1156.4</ele><time>2015-11-24T07:54:14.0000000+00:00</time></trkpt><trkpt lat="30.569831" lon="35.55657565"><ele>1164.7</ele><time>2015-11-24T07:54:54.0000000+00:00</time></trkpt><trkpt lat="30.57016175" lon="35.55618924"><ele>1167.9</ele><time>2015-11-24T07:55:20.0000000+00:00</time></trkpt><trkpt lat="30.57099533" lon="35.55478225"><ele>1165.9</ele><time>2015-11-24T07:55:53.0000000+00:00</time></trkpt><trkpt lat="30.57142549" lon="35.55456407"><ele>1167.6</ele><time>2015-11-24T07:56:13.0000000+00:00</time></trkpt><trkpt lat="30.57221867" lon="35.55426635"><ele>1173.8</ele><time>2015-11-24T07:57:02.0000000+00:00</time></trkpt><trkpt lat="30.57352667" lon="35.55425604"><ele>1179.6</ele><time>2015-11-24T07:58:07.0000000+00:00</time></trkpt><trkpt lat="30.57391936" lon="35.55403132"><ele>1184.6</ele><time>2015-11-24T07:58:29.0000000+00:00</time></trkpt><trkpt lat="30.57397719" lon="35.55338264"><ele>1196.2</ele><time>2015-11-24T07:59:07.0000000+00:00</time></trkpt><trkpt lat="30.57400712" lon="35.55336119"><ele>1196.5</ele><time>2015-11-24T07:59:11.0000000+00:00</time></trkpt><trkpt lat="30.57474514" lon="35.55348323"><ele>1193.1</ele><time>2015-11-24T07:59:32.0000000+00:00</time></trkpt><trkpt lat="30.57499794" lon="35.55329463"><ele>1194.8</ele><time>2015-11-24T07:59:37.0000000+00:00</time></trkpt><trkpt lat="30.5750795" lon="35.553128"><ele>1196.6</ele><time>2015-11-24T07:59:40.0000000+00:00</time></trkpt><trkpt lat="30.57514287" lon="35.55231655"><ele>1205.3</ele><time>2015-11-24T08:00:15.0000000+00:00</time></trkpt><trkpt lat="30.57489602" lon="35.55186829"><ele>1212.9</ele><time>2015-11-24T08:00:44.0000000+00:00</time></trkpt><trkpt lat="30.57426989" lon="35.55224891"><ele>1216.8</ele><time>2015-11-24T08:05:01.0000000+00:00</time></trkpt><trkpt lat="30.57402581" lon="35.55172873"><ele>1230.0</ele><time>2015-11-24T08:06:17.0000000+00:00</time></trkpt><trkpt lat="30.57362298" lon="35.55151105"><ele>1237.5</ele><time>2015-11-24T08:07:15.0000000+00:00</time></trkpt><trkpt lat="30.57327228" lon="35.55137225"><ele>1239.8</ele><time>2015-11-24T08:07:43.0000000+00:00</time></trkpt><trkpt lat="30.57209169" lon="35.55119866"><ele>1247.2</ele><time>2015-11-24T08:09:10.0000000+00:00</time></trkpt><trkpt lat="30.5713037" lon="35.55130636"><ele>1253.5</ele><time>2015-11-24T08:09:59.0000000+00:00</time></trkpt><trkpt lat="30.57084203" lon="35.55080781"><ele>1253.4</ele><time>2015-11-24T08:10:34.0000000+00:00</time></trkpt><trkpt lat="30.57071077" lon="35.55072617"><ele>1253.9</ele><time>2015-11-24T08:10:42.0000000+00:00</time></trkpt><trkpt lat="30.56986872" lon="35.55017279"><ele>1264.8</ele><time>2015-11-24T08:11:38.0000000+00:00</time></trkpt><trkpt lat="30.56855117" lon="35.55080387"><ele>1275.3</ele><time>2015-11-24T08:13:10.0000000+00:00</time></trkpt><trkpt lat="30.56918442" lon="35.54986174"><ele>1289.9</ele><time>2015-11-24T08:14:17.0000000+00:00</time></trkpt><trkpt lat="30.57033291" lon="35.54745446"><ele>1318.5</ele><time>2015-11-24T08:16:56.0000000+00:00</time></trkpt><trkpt lat="30.57059644" lon="35.54661602"><ele>1326.9</ele><time>2015-11-24T08:17:47.0000000+00:00</time></trkpt><trkpt lat="30.57046602" lon="35.54574153"><ele>1335.1</ele><time>2015-11-24T08:18:41.0000000+00:00</time></trkpt><trkpt lat="30.57062334" lon="35.54497048"><ele>1340.3</ele><time>2015-11-24T08:19:18.0000000+00:00</time></trkpt><trkpt lat="30.5700672" lon="35.5443006"><ele>1355.0</ele><time>2015-11-24T08:21:33.0000000+00:00</time></trkpt><trkpt lat="30.57005103" lon="35.54428669"><ele>1355.4</ele><time>2015-11-24T08:32:27.0000000+00:00</time></trkpt><trkpt lat="30.57033584" lon="35.54425743"><ele>1346.6</ele><time>2015-11-24T08:44:02.0000000+00:00</time></trkpt><trkpt lat="30.57015756" lon="35.54347666"><ele>1346.7</ele><time>2015-11-24T08:44:35.0000000+00:00</time></trkpt><trkpt lat="30.57033241" lon="35.54095203"><ele>1350.9</ele><time>2015-11-24T08:45:33.0000000+00:00</time></trkpt><trkpt lat="30.57026217" lon="35.54072589"><ele>1351.4</ele><time>2015-11-24T08:45:37.0000000+00:00</time></trkpt><trkpt lat="30.57016754" lon="35.54003455"><ele>1347.3</ele><time>2015-11-24T08:45:46.0000000+00:00</time></trkpt><trkpt lat="30.57038907" lon="35.5395955"><ele>1345.8</ele><time>2015-11-24T08:45:54.0000000+00:00</time></trkpt><trkpt lat="30.57049577" lon="35.53915478"><ele>1349.3</ele><time>2015-11-24T08:46:04.0000000+00:00</time></trkpt><trkpt lat="30.57035688" lon="35.53851055"><ele>1351.9</ele><time>2015-11-24T08:46:21.0000000+00:00</time></trkpt><trkpt lat="30.56987895" lon="35.53766691"><ele>1356.8</ele><time>2015-11-24T08:46:47.0000000+00:00</time></trkpt><trkpt lat="30.56981809" lon="35.53742409"><ele>1354.5</ele><time>2015-11-24T08:46:52.0000000+00:00</time></trkpt><trkpt lat="30.56980762" lon="35.53674256"><ele>1351.3</ele><time>2015-11-24T08:47:04.0000000+00:00</time></trkpt><trkpt lat="30.56986587" lon="35.53592825"><ele>1353.4</ele><time>2015-11-24T08:47:21.0000000+00:00</time></trkpt><trkpt lat="30.57010643" lon="35.53537656"><ele>1355.6</ele><time>2015-11-24T08:47:43.0000000+00:00</time></trkpt><trkpt lat="30.57009151" lon="35.53431365"><ele>1356.7</ele><time>2015-11-24T08:48:14.0000000+00:00</time></trkpt><trkpt lat="30.56951333" lon="35.53256325"><ele>1359.0</ele><time>2015-11-24T08:54:35.0000000+00:00</time></trkpt><trkpt lat="30.56831991" lon="35.53222018"><ele>1361.6</ele><time>2015-11-24T08:55:34.0000000+00:00</time></trkpt><trkpt lat="30.56708836" lon="35.53162415"><ele>1361.1</ele><time>2015-11-24T08:56:17.0000000+00:00</time></trkpt><trkpt lat="30.56627967" lon="35.53098997"><ele>1363.9</ele><time>2015-11-24T08:56:46.0000000+00:00</time></trkpt><trkpt lat="30.56542589" lon="35.53067171"><ele>1366.4</ele><time>2015-11-24T08:58:47.0000000+00:00</time></trkpt><trkpt lat="30.56468954" lon="35.52950579"><ele>1371.8</ele><time>2015-11-24T08:59:59.0000000+00:00</time></trkpt><trkpt lat="30.56324945" lon="35.52949422"><ele>1369.8</ele><time>2015-11-24T09:00:42.0000000+00:00</time></trkpt><trkpt lat="30.56266707" lon="35.52798129"><ele>1357.4</ele><time>2015-11-24T09:01:06.0000000+00:00</time></trkpt><trkpt lat="30.56209224" lon="35.52774819"><ele>1353.5</ele><time>2015-11-24T09:01:20.0000000+00:00</time></trkpt><trkpt lat="30.56179334" lon="35.52757049"><ele>1353.9</ele><time>2015-11-24T09:01:25.0000000+00:00</time></trkpt><trkpt lat="30.56126688" lon="35.52702533"><ele>1352.3</ele><time>2015-11-24T09:01:48.0000000+00:00</time></trkpt><trkpt lat="30.55958044" lon="35.52659157"><ele>1356.6</ele><time>2015-11-24T09:03:01.0000000+00:00</time></trkpt><trkpt lat="30.55712353" lon="35.52591071"><ele>1350.5</ele><time>2015-11-24T09:04:31.0000000+00:00</time></trkpt><trkpt lat="30.55597647" lon="35.5243712"><ele>1348.4</ele><time>2015-11-24T09:05:12.0000000+00:00</time></trkpt><trkpt lat="30.55554589" lon="35.52397323"><ele>1344.9</ele><time>2015-11-24T09:05:29.0000000+00:00</time></trkpt><trkpt lat="30.55496779" lon="35.52394574"><ele>1339.6</ele><time>2015-11-24T09:05:52.0000000+00:00</time></trkpt><trkpt lat="30.55493779" lon="35.52397247"><ele>1339.3</ele><time>2015-11-24T09:05:54.0000000+00:00</time></trkpt><trkpt lat="30.55476177" lon="35.52431454"><ele>1343.2</ele><time>2015-11-24T09:06:08.0000000+00:00</time></trkpt><trkpt lat="30.55461994" lon="35.52428671"><ele>1344.6</ele><time>2015-11-24T09:06:12.0000000+00:00</time></trkpt><trkpt lat="30.55418953" lon="35.52377986"><ele>1341.6</ele><time>2015-11-24T09:06:23.0000000+00:00</time></trkpt><trkpt lat="30.55420387" lon="35.52292147"><ele>1326.0</ele><time>2015-11-24T09:06:37.0000000+00:00</time></trkpt><trkpt lat="30.55408694" lon="35.52267286"><ele>1322.9</ele><time>2015-11-24T09:06:41.0000000+00:00</time></trkpt><trkpt lat="30.55365896" lon="35.5216159"><ele>1319.4</ele><time>2015-11-24T09:06:55.0000000+00:00</time></trkpt><trkpt lat="30.55289696" lon="35.51937173"><ele>1339.6</ele><time>2015-11-24T09:09:10.0000000+00:00</time></trkpt><trkpt lat="30.55278691" lon="35.51849364"><ele>1343.3</ele><time>2015-11-24T09:09:44.0000000+00:00</time></trkpt><trkpt lat="30.55238826" lon="35.51737416"><ele>1350.0</ele><time>2015-11-24T09:10:39.0000000+00:00</time></trkpt><trkpt lat="30.55232766" lon="35.51613062"><ele>1359.9</ele><time>2015-11-24T09:11:41.0000000+00:00</time></trkpt><trkpt lat="30.55208685" lon="35.51557993"><ele>1365.8</ele><time>2015-11-24T09:12:10.0000000+00:00</time></trkpt><trkpt lat="30.55176892" lon="35.51473981"><ele>1369.6</ele><time>2015-11-24T09:12:52.0000000+00:00</time></trkpt><trkpt lat="30.55143574" lon="35.51453562"><ele>1368.6</ele><time>2015-11-24T09:14:24.0000000+00:00</time></trkpt><trkpt lat="30.55096644" lon="35.51405953"><ele>1364.7</ele><time>2015-11-24T09:14:34.0000000+00:00</time></trkpt><trkpt lat="30.55058104" lon="35.51227444"><ele>1338.8</ele><time>2015-11-24T09:14:50.0000000+00:00</time></trkpt><trkpt lat="30.55008098" lon="35.51127154"><ele>1335.8</ele><time>2015-11-24T09:15:14.0000000+00:00</time></trkpt><trkpt lat="30.54986799" lon="35.51097625"><ele>1338.3</ele><time>2015-11-24T09:15:21.0000000+00:00</time></trkpt><trkpt lat="30.54960539" lon="35.51091347"><ele>1341.2</ele><time>2015-11-24T09:16:12.0000000+00:00</time></trkpt><trkpt lat="30.54956172" lon="35.51120139"><ele>1351.4</ele><time>2015-11-24T09:19:34.0000000+00:00</time></trkpt><trkpt lat="30.54963028" lon="35.51084583"><ele>1338.2</ele><time>2015-11-24T09:20:44.0000000+00:00</time></trkpt><trkpt lat="30.54832203" lon="35.51054735"><ele>1334.1</ele><time>2015-11-24T09:22:31.0000000+00:00</time></trkpt><trkpt lat="30.54772088" lon="35.51023504"><ele>1329.3</ele><time>2015-11-24T09:22:40.0000000+00:00</time></trkpt><trkpt lat="30.54736566" lon="35.50984511"><ele>1319.5</ele><time>2015-11-24T09:22:46.0000000+00:00</time></trkpt><trkpt lat="30.5462201" lon="35.50871406"><ele>1322.9</ele><time>2015-11-24T09:23:23.0000000+00:00</time></trkpt><trkpt lat="30.54559029" lon="35.50858422"><ele>1321.4</ele><time>2015-11-24T09:23:42.0000000+00:00</time></trkpt><trkpt lat="30.54432864" lon="35.50745401"><ele>1312.3</ele><time>2015-11-24T09:24:33.0000000+00:00</time></trkpt><trkpt lat="30.54293029" lon="35.50751042"><ele>1302.8</ele><time>2015-11-24T09:25:23.0000000+00:00</time></trkpt><trkpt lat="30.54254196" lon="35.50747655"><ele>1307.7</ele><time>2015-11-24T09:25:31.0000000+00:00</time></trkpt><trkpt lat="30.54210761" lon="35.50713549"><ele>1302.5</ele><time>2015-11-24T09:26:59.0000000+00:00</time></trkpt><trkpt lat="30.54152565" lon="35.50758527"><ele>1299.7</ele><time>2015-11-24T09:27:53.0000000+00:00</time></trkpt><trkpt lat="30.54117076" lon="35.50769725"><ele>1300.2</ele><time>2015-11-24T09:27:58.0000000+00:00</time></trkpt><trkpt lat="30.54030281" lon="35.50789833"><ele>1303.5</ele><time>2015-11-24T09:28:13.0000000+00:00</time></trkpt><trkpt lat="30.53968901" lon="35.50784955"><ele>1305.3</ele><time>2015-11-24T09:28:25.0000000+00:00</time></trkpt><trkpt lat="30.53840809" lon="35.50722434"><ele>1311.8</ele><time>2015-11-24T09:29:21.0000000+00:00</time></trkpt><trkpt lat="30.53763947" lon="35.50737069"><ele>1314.4</ele><time>2015-11-24T09:30:12.0000000+00:00</time></trkpt><trkpt lat="30.5372394" lon="35.5071681"><ele>1308.1</ele><time>2015-11-24T09:30:49.0000000+00:00</time></trkpt><trkpt lat="30.536064" lon="35.50719869"><ele>1307.1</ele><time>2015-11-24T09:31:23.0000000+00:00</time></trkpt><trkpt lat="30.53562647" lon="35.50736072"><ele>1303.4</ele><time>2015-11-24T09:31:34.0000000+00:00</time></trkpt><trkpt lat="30.53541684" lon="35.50742718"><ele>1306.2</ele><time>2015-11-24T09:31:38.0000000+00:00</time></trkpt><trkpt lat="30.53390357" lon="35.50742584"><ele>1307.2</ele><time>2015-11-24T09:32:20.0000000+00:00</time></trkpt><trkpt lat="30.53290118" lon="35.5069676"><ele>1305.1</ele><time>2015-11-24T09:32:43.0000000+00:00</time></trkpt><trkpt lat="30.53253547" lon="35.50650685"><ele>1304.8</ele><time>2015-11-24T09:32:55.0000000+00:00</time></trkpt><trkpt lat="30.53168069" lon="35.50538988"><ele>1297.0</ele><time>2015-11-24T09:33:33.0000000+00:00</time></trkpt><trkpt lat="30.53071006" lon="35.50487012"><ele>1284.8</ele><time>2015-11-24T09:34:19.0000000+00:00</time></trkpt><trkpt lat="30.53006222" lon="35.50480315"><ele>1275.2</ele><time>2015-11-24T09:34:59.0000000+00:00</time></trkpt><trkpt lat="30.52815191" lon="35.50510146"><ele>1260.9</ele><time>2015-11-24T09:35:45.0000000+00:00</time></trkpt><trkpt lat="30.5278691" lon="35.50521688"><ele>1261.5</ele><time>2015-11-24T09:35:52.0000000+00:00</time></trkpt><trkpt lat="30.5274314" lon="35.50488311"><ele>1260.4</ele><time>2015-11-24T09:36:09.0000000+00:00</time></trkpt><trkpt lat="30.52683393" lon="35.50489434"><ele>1260.3</ele><time>2015-11-24T09:36:27.0000000+00:00</time></trkpt><trkpt lat="30.5253526" lon="35.50444163"><ele>1266.6</ele><time>2015-11-24T09:37:27.0000000+00:00</time></trkpt><trkpt lat="30.52410328" lon="35.50385314"><ele>1268.4</ele><time>2015-11-24T09:38:17.0000000+00:00</time></trkpt><trkpt lat="30.52375317" lon="35.50371341"><ele>1265.9</ele><time>2015-11-24T09:38:38.0000000+00:00</time></trkpt><trkpt lat="30.52292076" lon="35.50364611"><ele>1262.0</ele><time>2015-11-24T09:40:56.0000000+00:00</time></trkpt><trkpt lat="30.52247208" lon="35.50374434"><ele>1255.8</ele><time>2015-11-24T09:41:13.0000000+00:00</time></trkpt><trkpt lat="30.52223654" lon="35.50403218"><ele>1252.8</ele><time>2015-11-24T09:41:23.0000000+00:00</time></trkpt><trkpt lat="30.52196514" lon="35.50442797"><ele>1258.1</ele><time>2015-11-24T09:41:39.0000000+00:00</time></trkpt><trkpt lat="30.52156281" lon="35.50423904"><ele>1261.9</ele><time>2015-11-24T09:42:10.0000000+00:00</time></trkpt><trkpt lat="30.51965944" lon="35.5040274"><ele>1270.2</ele><time>2015-11-24T09:43:39.0000000+00:00</time></trkpt><trkpt lat="30.51913013" lon="35.50395163"><ele>1269.4</ele><time>2015-11-24T09:43:58.0000000+00:00</time></trkpt><trkpt lat="30.51823729" lon="35.50369355"><ele>1271.0</ele><time>2015-11-24T09:44:20.0000000+00:00</time></trkpt><trkpt lat="30.51726499" lon="35.50239804"><ele>1271.9</ele><time>2015-11-24T09:45:17.0000000+00:00</time></trkpt><trkpt lat="30.51675897" lon="35.50197928"><ele>1272.4</ele><time>2015-11-24T09:45:43.0000000+00:00</time></trkpt><trkpt lat="30.51525668" lon="35.50130513"><ele>1270.9</ele><time>2015-11-24T09:46:26.0000000+00:00</time></trkpt><trkpt lat="30.51510606" lon="35.50126682"><ele>1270.6</ele><time>2015-11-24T09:46:36.0000000+00:00</time></trkpt><trkpt lat="30.51401122" lon="35.50120312"><ele>1266.8</ele><time>2015-11-24T09:47:21.0000000+00:00</time></trkpt><trkpt lat="30.51292341" lon="35.5014679"><ele>1263.6</ele><time>2015-11-24T09:47:58.0000000+00:00</time></trkpt><trkpt lat="30.51155113" lon="35.50100572"><ele>1257.3</ele><time>2015-11-24T09:48:37.0000000+00:00</time></trkpt><trkpt lat="30.51086783" lon="35.50090053"><ele>1257.4</ele><time>2015-11-24T09:49:07.0000000+00:00</time></trkpt><trkpt lat="30.5100558" lon="35.50089584"><ele>1250.8</ele><time>2015-11-24T09:49:44.0000000+00:00</time></trkpt><trkpt lat="30.50936362" lon="35.50132952"><ele>1242.9</ele><time>2015-11-24T09:50:24.0000000+00:00</time></trkpt><trkpt lat="30.50823432" lon="35.50261438"><ele>1232.3</ele><time>2015-11-24T09:51:41.0000000+00:00</time></trkpt><trkpt lat="30.50813332" lon="35.50277028"><ele>1236.4</ele><time>2015-11-24T09:51:47.0000000+00:00</time></trkpt><trkpt lat="30.50738641" lon="35.50288143"><ele>1236.7</ele><time>2015-11-24T09:52:28.0000000+00:00</time></trkpt><trkpt lat="30.50694074" lon="35.50326138"><ele>1239.6</ele><time>2015-11-24T09:52:55.0000000+00:00</time></trkpt><trkpt lat="30.50678786" lon="35.50321863"><ele>1240.3</ele><time>2015-11-24T09:53:04.0000000+00:00</time></trkpt><trkpt lat="30.50630783" lon="35.50295418"><ele>1236.7</ele><time>2015-11-24T09:53:28.0000000+00:00</time></trkpt><trkpt lat="30.50553024" lon="35.5029349"><ele>1236.2</ele><time>2015-11-24T09:53:52.0000000+00:00</time></trkpt><trkpt lat="30.50430682" lon="35.50243484"><ele>1241.6</ele><time>2015-11-24T09:54:56.0000000+00:00</time></trkpt><trkpt lat="30.50243857" lon="35.50268822"><ele>1238.8</ele><time>2015-11-24T09:56:09.0000000+00:00</time></trkpt><trkpt lat="30.50192401" lon="35.50289459"><ele>1243.1</ele><time>2015-11-24T09:56:29.0000000+00:00</time></trkpt><trkpt lat="30.50164657" lon="35.50275444"><ele>1242.1</ele><time>2015-11-24T09:56:42.0000000+00:00</time></trkpt><trkpt lat="30.50110409" lon="35.5028018"><ele>1244.7</ele><time>2015-11-24T09:57:04.0000000+00:00</time></trkpt><trkpt lat="30.49996893" lon="35.50250298"><ele>1245.0</ele><time>2015-11-24T09:57:50.0000000+00:00</time></trkpt><trkpt lat="30.49897173" lon="35.50162054"><ele>1245.2</ele><time>2015-11-24T09:58:41.0000000+00:00</time></trkpt><trkpt lat="30.49872916" lon="35.50151207"><ele>1244.9</ele><time>2015-11-24T09:58:53.0000000+00:00</time></trkpt><trkpt lat="30.49636773" lon="35.50063482"><ele>1255.7</ele><time>2015-11-24T10:00:45.0000000+00:00</time></trkpt><trkpt lat="30.4956499" lon="35.50008237"><ele>1256.9</ele><time>2015-11-24T10:01:25.0000000+00:00</time></trkpt><trkpt lat="30.49542326" lon="35.49992178"><ele>1254.4</ele><time>2015-11-24T10:01:40.0000000+00:00</time></trkpt><trkpt lat="30.49479419" lon="35.50018153"><ele>1246.7</ele><time>2015-11-24T10:02:26.0000000+00:00</time></trkpt><trkpt lat="30.49371243" lon="35.50178993"><ele>1218.9</ele><time>2015-11-24T10:06:10.0000000+00:00</time></trkpt><trkpt lat="30.49312938" lon="35.50284639"><ele>1214.4</ele><time>2015-11-24T10:06:42.0000000+00:00</time></trkpt><trkpt lat="30.49094179" lon="35.50390452"><ele>1191.9</ele><time>2015-11-24T10:08:43.0000000+00:00</time></trkpt><trkpt lat="30.49065546" lon="35.50412907"><ele>1191.5</ele><time>2015-11-24T10:08:57.0000000+00:00</time></trkpt><trkpt lat="30.49046134" lon="35.50434256"><ele>1193.8</ele><time>2015-11-24T10:09:10.0000000+00:00</time></trkpt><trkpt lat="30.49035195" lon="35.50509634"><ele>1204.1</ele><time>2015-11-24T10:15:32.0000000+00:00</time></trkpt><trkpt lat="30.49024936" lon="35.50510657"><ele>1206.5</ele><time>2015-11-24T10:25:54.0000000+00:00</time></trkpt><trkpt lat="30.49033687" lon="35.50515326"><ele>1205.1</ele><time>2015-11-24T10:39:00.0000000+00:00</time></trkpt><trkpt lat="30.49032454" lon="35.50506684"><ele>1204.4</ele><time>2015-11-24T10:55:57.0000000+00:00</time></trkpt><trkpt lat="30.4906138" lon="35.50415439"><ele>1191.8</ele><time>2015-11-24T11:00:11.0000000+00:00</time></trkpt><trkpt lat="30.49053367" lon="35.50411055"><ele>1191.5</ele><time>2015-11-24T11:00:25.0000000+00:00</time></trkpt><trkpt lat="30.48847918" lon="35.502521"><ele>1223.1</ele><time>2015-11-24T11:03:35.0000000+00:00</time></trkpt><trkpt lat="30.48733925" lon="35.50126246"><ele>1240.3</ele><time>2015-11-24T11:05:39.0000000+00:00</time></trkpt><trkpt lat="30.48607416" lon="35.50068067"><ele>1255.2</ele><time>2015-11-24T11:07:20.0000000+00:00</time></trkpt><trkpt lat="30.48494671" lon="35.49983184"><ele>1270.5</ele><time>2015-11-24T11:08:55.0000000+00:00</time></trkpt><trkpt lat="30.48423928" lon="35.49949078"><ele>1279.6</ele><time>2015-11-24T11:09:49.0000000+00:00</time></trkpt><trkpt lat="30.48403686" lon="35.49940009"><ele>1280.3</ele><time>2015-11-24T11:10:05.0000000+00:00</time></trkpt><trkpt lat="30.48324469" lon="35.49942071"><ele>1281.6</ele><time>2015-11-24T11:10:44.0000000+00:00</time></trkpt><trkpt lat="30.48238797" lon="35.49909708"><ele>1286.6</ele><time>2015-11-24T11:11:42.0000000+00:00</time></trkpt><trkpt lat="30.482234" lon="35.4990752"><ele>1286.4</ele><time>2015-11-24T11:11:51.0000000+00:00</time></trkpt><trkpt lat="30.482421" lon="35.49870171"><ele>1282.3</ele><time>2015-11-24T11:13:36.0000000+00:00</time></trkpt><trkpt lat="30.48223676" lon="35.49902793"><ele>1285.7</ele><time>2015-11-24T11:15:38.0000000+00:00</time></trkpt><trkpt lat="30.48162195" lon="35.49915827"><ele>1284.4</ele><time>2015-11-24T11:16:01.0000000+00:00</time></trkpt><trkpt lat="30.48118525" lon="35.49946915"><ele>1280.6</ele><time>2015-11-24T11:16:16.0000000+00:00</time></trkpt><trkpt lat="30.48098492" lon="35.49979253"><ele>1277.4</ele><time>2015-11-24T11:16:23.0000000+00:00</time></trkpt><trkpt lat="30.48085375" lon="35.50004139"><ele>1278.8</ele><time>2015-11-24T11:16:27.0000000+00:00</time></trkpt><trkpt lat="30.47996946" lon="35.50047087"><ele>1281.3</ele><time>2015-11-24T11:16:49.0000000+00:00</time></trkpt><trkpt lat="30.4796812" lon="35.5007966"><ele>1280.4</ele><time>2015-11-24T11:17:03.0000000+00:00</time></trkpt><trkpt lat="30.47897637" lon="35.50173746"><ele>1285.5</ele><time>2015-11-24T11:17:45.0000000+00:00</time></trkpt><trkpt lat="30.47877001" lon="35.5019709"><ele>1290.2</ele><time>2015-11-24T11:18:00.0000000+00:00</time></trkpt><trkpt lat="30.4778345" lon="35.50247549"><ele>1303.7</ele><time>2015-11-24T11:18:57.0000000+00:00</time></trkpt><trkpt lat="30.47699941" lon="35.50292149"><ele>1298.4</ele><time>2015-11-24T11:19:28.0000000+00:00</time></trkpt><trkpt lat="30.47582167" lon="35.50322508"><ele>1291.0</ele><time>2015-11-24T11:19:44.0000000+00:00</time></trkpt><trkpt lat="30.47558153" lon="35.50303113"><ele>1288.6</ele><time>2015-11-24T11:19:49.0000000+00:00</time></trkpt><trkpt lat="30.47559922" lon="35.50291806"><ele>1288.0</ele><time>2015-11-24T11:19:51.0000000+00:00</time></trkpt><trkpt lat="30.47582838" lon="35.50184743"><ele>1291.2</ele><time>2015-11-24T11:22:48.0000000+00:00</time></trkpt><trkpt lat="30.47576384" lon="35.50062611"><ele>1299.7</ele><time>2015-11-24T11:23:32.0000000+00:00</time></trkpt><trkpt lat="30.47476505" lon="35.49894478"><ele>1314.3</ele><time>2015-11-24T11:24:55.0000000+00:00</time></trkpt><trkpt lat="30.47313712" lon="35.49643004"><ele>1347.2</ele><time>2015-11-24T11:27:45.0000000+00:00</time></trkpt><trkpt lat="30.4729782" lon="35.49614531"><ele>1345.9</ele><time>2015-11-24T11:28:10.0000000+00:00</time></trkpt><trkpt lat="30.47219734" lon="35.49629803"><ele>1348.7</ele><time>2015-11-24T11:32:44.0000000+00:00</time></trkpt><trkpt lat="30.4717163" lon="35.4961412"><ele>1349.8</ele><time>2015-11-24T11:33:01.0000000+00:00</time></trkpt><trkpt lat="30.47048114" lon="35.49573342"><ele>1361.1</ele><time>2015-11-24T11:34:12.0000000+00:00</time></trkpt><trkpt lat="30.46929846" lon="35.49641253"><ele>1374.2</ele><time>2015-11-24T11:35:44.0000000+00:00</time></trkpt><trkpt lat="30.46864056" lon="35.49648453"><ele>1380.0</ele><time>2015-11-24T11:36:33.0000000+00:00</time></trkpt><trkpt lat="30.468199" lon="35.49654957"><ele>1382.2</ele><time>2015-11-24T11:37:01.0000000+00:00</time></trkpt><trkpt lat="30.46409782" lon="35.49807834"><ele>1404.8</ele><time>2015-11-24T11:40:52.0000000+00:00</time></trkpt><trkpt lat="30.46379272" lon="35.49858143"><ele>1407.4</ele><time>2015-11-24T11:41:24.0000000+00:00</time></trkpt><trkpt lat="30.46358929" lon="35.49918593"><ele>1413.5</ele><time>2015-11-24T11:42:22.0000000+00:00</time></trkpt><trkpt lat="30.46368199" lon="35.49958474"><ele>1422.4</ele><time>2015-11-24T11:43:14.0000000+00:00</time></trkpt><trkpt lat="30.4642373" lon="35.49978557"><ele>1431.5</ele><time>2015-11-24T11:45:24.0000000+00:00</time></trkpt><trkpt lat="30.46411861" lon="35.50032629"><ele>1441.5</ele><time>2015-11-24T11:46:40.0000000+00:00</time></trkpt><trkpt lat="30.46430837" lon="35.50063734"><ele>1446.1</ele><time>2015-11-24T11:47:26.0000000+00:00</time></trkpt><trkpt lat="30.46442991" lon="35.50100849"><ele>1448.9</ele><time>2015-11-24T11:49:08.0000000+00:00</time></trkpt><trkpt lat="30.46365224" lon="35.50325023"><ele>1469.8</ele><time>2015-11-24T11:52:32.0000000+00:00</time></trkpt><trkpt lat="30.46309384" lon="35.50358886"><ele>1470.2</ele><time>2015-11-24T11:54:02.0000000+00:00</time></trkpt><trkpt lat="30.46213754" lon="35.50315551"><ele>1480.2</ele><time>2015-11-24T11:56:00.0000000+00:00</time></trkpt><trkpt lat="30.46171577" lon="35.50297623"><ele>1486.5</ele><time>2015-11-24T11:56:22.0000000+00:00</time></trkpt><trkpt lat="30.46132651" lon="35.5030846"><ele>1494.1</ele><time>2015-11-24T11:56:45.0000000+00:00</time></trkpt><trkpt lat="30.46104052" lon="35.5038005"><ele>1505.7</ele><time>2015-11-24T11:58:06.0000000+00:00</time></trkpt><trkpt lat="30.46090473" lon="35.50492493"><ele>1517.5</ele><time>2015-11-24T12:00:19.0000000+00:00</time></trkpt><trkpt lat="30.46084606" lon="35.5054908"><ele>1519.1</ele><time>2015-11-24T12:01:28.0000000+00:00</time></trkpt><trkpt lat="30.46069468" lon="35.50571158"><ele>1517.8</ele><time>2015-11-24T12:02:02.0000000+00:00</time></trkpt><trkpt lat="30.45983747" lon="35.5061585"><ele>1526.7</ele><time>2015-11-24T12:03:04.0000000+00:00</time></trkpt><trkpt lat="30.45942491" lon="35.50693408"><ele>1530.8</ele><time>2015-11-24T12:03:44.0000000+00:00</time></trkpt><trkpt lat="30.45866241" lon="35.50637031"><ele>1533.3</ele><time>2015-11-24T12:06:34.0000000+00:00</time></trkpt><trkpt lat="30.45769849" lon="35.50632446"><ele>1536.9</ele><time>2015-11-24T12:07:33.0000000+00:00</time></trkpt><trkpt lat="30.45732784" lon="35.50612522"><ele>1539.2</ele><time>2015-11-24T12:07:48.0000000+00:00</time></trkpt><trkpt lat="30.45681017" lon="35.50586354"><ele>1544.2</ele><time>2015-11-24T12:08:35.0000000+00:00</time></trkpt><trkpt lat="30.45539808" lon="35.50586035"><ele>1562.3</ele><time>2015-11-24T12:10:21.0000000+00:00</time></trkpt><trkpt lat="30.4552296" lon="35.50571795"><ele>1563.7</ele><time>2015-11-24T12:10:36.0000000+00:00</time></trkpt><trkpt lat="30.45486541" lon="35.50574125"><ele>1568.1</ele><time>2015-11-24T12:11:05.0000000+00:00</time></trkpt><trkpt lat="30.45355682" lon="35.50606202"><ele>1570.9</ele><time>2015-11-24T12:12:32.0000000+00:00</time></trkpt><trkpt lat="30.45183803" lon="35.50592121"><ele>1579.7</ele><time>2015-11-24T12:14:01.0000000+00:00</time></trkpt><trkpt lat="30.45111534" lon="35.50638691"><ele>1584.9</ele><time>2015-11-24T12:15:02.0000000+00:00</time></trkpt><trkpt lat="30.44954424" lon="35.50682209"><ele>1591.8</ele><time>2015-11-24T12:16:34.0000000+00:00</time></trkpt><trkpt lat="30.44922841" lon="35.50685981"><ele>1591.6</ele><time>2015-11-24T12:16:51.0000000+00:00</time></trkpt><trkpt lat="30.44789962" lon="35.50659327"><ele>1589.1</ele><time>2015-11-24T12:18:02.0000000+00:00</time></trkpt><trkpt lat="30.44649591" lon="35.50642974"><ele>1595.5</ele><time>2015-11-24T12:19:25.0000000+00:00</time></trkpt><trkpt lat="30.44563316" lon="35.50609128"><ele>1597.3</ele><time>2015-11-24T12:20:14.0000000+00:00</time></trkpt><trkpt lat="30.44450722" lon="35.5061694"><ele>1605.3</ele><time>2015-11-24T12:21:40.0000000+00:00</time></trkpt><trkpt lat="30.44397631" lon="35.50625841"><ele>1604.9</ele><time>2015-11-24T12:22:09.0000000+00:00</time></trkpt><trkpt lat="30.44310115" lon="35.50597158"><ele>1605.3</ele><time>2015-11-24T12:23:26.0000000+00:00</time></trkpt><trkpt lat="30.44244099" lon="35.50518016"><ele>1603.4</ele><time>2015-11-24T12:25:32.0000000+00:00</time></trkpt><trkpt lat="30.44166299" lon="35.50483801"><ele>1605.2</ele><time>2015-11-24T12:26:07.0000000+00:00</time></trkpt><trkpt lat="30.44160817" lon="35.50470139"><ele>1607.6</ele><time>2015-11-24T12:40:24.0000000+00:00</time></trkpt><trkpt lat="30.44023672" lon="35.50461095"><ele>1622.1</ele><time>2015-11-24T12:44:17.0000000+00:00</time></trkpt><trkpt lat="30.43959358" lon="35.50442018"><ele>1629.9</ele><time>2015-11-24T12:45:07.0000000+00:00</time></trkpt><trkpt lat="30.43708789" lon="35.50398725"><ele>1633.1</ele><time>2015-11-24T12:47:21.0000000+00:00</time></trkpt><trkpt lat="30.43685286" lon="35.50376681"><ele>1634.2</ele><time>2015-11-24T12:47:40.0000000+00:00</time></trkpt><trkpt lat="30.43656268" lon="35.50357562"><ele>1637.9</ele><time>2015-11-24T12:48:00.0000000+00:00</time></trkpt><trkpt lat="30.4357747" lon="35.50219704"><ele>1656.4</ele><time>2015-11-24T12:49:29.0000000+00:00</time></trkpt><trkpt lat="30.43537287" lon="35.50136506"><ele>1654.8</ele><time>2015-11-24T12:50:33.0000000+00:00</time></trkpt><trkpt lat="30.4351857" lon="35.50127503"><ele>1654.0</ele><time>2015-11-24T12:50:47.0000000+00:00</time></trkpt><trkpt lat="30.43492" lon="35.50192966"><ele>1660.2</ele><time>2015-11-24T12:51:26.0000000+00:00</time></trkpt><trkpt lat="30.43386639" lon="35.50279082"><ele>1656.6</ele><time>2015-11-24T12:52:20.0000000+00:00</time></trkpt><trkpt lat="30.43333489" lon="35.50403226"><ele>1666.2</ele><time>2015-11-24T12:53:24.0000000+00:00</time></trkpt><trkpt lat="30.4325931" lon="35.50400309"><ele>1670.7</ele><time>2015-11-24T12:54:05.0000000+00:00</time></trkpt><trkpt lat="30.43204861" lon="35.50351636"><ele>1674.5</ele><time>2015-11-24T12:54:34.0000000+00:00</time></trkpt><trkpt lat="30.43197962" lon="35.50340957"><ele>1674.4</ele><time>2015-11-24T12:54:38.0000000+00:00</time></trkpt><trkpt lat="30.43125182" lon="35.5032126"><ele>1673.5</ele><time>2015-11-24T12:55:51.0000000+00:00</time></trkpt><trkpt lat="30.42960076" lon="35.50381349"><ele>1670.1</ele><time>2015-11-24T12:58:11.0000000+00:00</time></trkpt><trkpt lat="30.42824968" lon="35.50384677"><ele>1673.0</ele><time>2015-11-24T12:59:04.0000000+00:00</time></trkpt><trkpt lat="30.42758432" lon="35.50444792"><ele>1671.4</ele><time>2015-11-24T12:59:35.0000000+00:00</time></trkpt><trkpt lat="30.4268924" lon="35.50481362"><ele>1671.0</ele><time>2015-11-24T13:00:01.0000000+00:00</time></trkpt><trkpt lat="30.42671193" lon="35.5048795"><ele>1671.3</ele><time>2015-11-24T13:00:09.0000000+00:00</time></trkpt><trkpt lat="30.42522021" lon="35.50477549"><ele>1677.2</ele><time>2015-11-24T13:01:30.0000000+00:00</time></trkpt><trkpt lat="30.42481276" lon="35.5045936"><ele>1679.0</ele><time>2015-11-24T13:01:56.0000000+00:00</time></trkpt><trkpt lat="30.42313982" lon="35.50389061"><ele>1671.7</ele><time>2015-11-24T13:02:57.0000000+00:00</time></trkpt><trkpt lat="30.42277286" lon="35.50360076"><ele>1669.2</ele><time>2015-11-24T13:03:11.0000000+00:00</time></trkpt><trkpt lat="30.42257245" lon="35.50327789"><ele>1666.5</ele><time>2015-11-24T13:03:23.0000000+00:00</time></trkpt><trkpt lat="30.42188027" lon="35.50306583"><ele>1656.9</ele><time>2015-11-24T13:03:54.0000000+00:00</time></trkpt><trkpt lat="30.42005628" lon="35.50295007"><ele>1643.3</ele><time>2015-11-24T13:04:40.0000000+00:00</time></trkpt><trkpt lat="30.41972788" lon="35.50315116"><ele>1644.2</ele><time>2015-11-24T13:04:48.0000000+00:00</time></trkpt><trkpt lat="30.41953275" lon="35.50340479"><ele>1645.0</ele><time>2015-11-24T13:04:57.0000000+00:00</time></trkpt><trkpt lat="30.41935707" lon="35.50384836"><ele>1638.5</ele><time>2015-11-24T13:05:10.0000000+00:00</time></trkpt><trkpt lat="30.41814471" lon="35.50509115"><ele>1619.1</ele><time>2015-11-24T13:06:01.0000000+00:00</time></trkpt><trkpt lat="30.41632055" lon="35.50553966"><ele>1607.5</ele><time>2015-11-24T13:07:09.0000000+00:00</time></trkpt><trkpt lat="30.41573843" lon="35.50600125"><ele>1599.9</ele><time>2015-11-24T13:07:23.0000000+00:00</time></trkpt><trkpt lat="30.41530215" lon="35.50810168"><ele>1585.4</ele><time>2015-11-24T13:07:50.0000000+00:00</time></trkpt><trkpt lat="30.41527944" lon="35.50810805"><ele>1585.4</ele><time>2015-11-24T13:07:51.0000000+00:00</time></trkpt><trkpt lat="30.41222541" lon="35.507855"><ele>1594.9</ele><time>2015-11-24T13:09:46.0000000+00:00</time></trkpt><trkpt lat="30.4106683" lon="35.5070179"><ele>1601.9</ele><time>2015-11-24T13:10:49.0000000+00:00</time></trkpt><trkpt lat="30.40781946" lon="35.50482351"><ele>1615.6</ele><time>2015-11-24T13:13:12.0000000+00:00</time></trkpt><trkpt lat="30.40679041" lon="35.50425254"><ele>1622.0</ele><time>2015-11-24T13:14:02.0000000+00:00</time></trkpt><trkpt lat="30.40338937" lon="35.50357159"><ele>1632.8</ele><time>2015-11-24T13:16:11.0000000+00:00</time></trkpt><trkpt lat="30.4024428" lon="35.50350395"><ele>1633.6</ele><time>2015-11-24T13:16:44.0000000+00:00</time></trkpt><trkpt lat="30.3968628" lon="35.50318887"><ele>1602.8</ele><time>2015-11-24T13:17:53.0000000+00:00</time></trkpt><trkpt lat="30.39610583" lon="35.50340278"><ele>1595.0</ele><time>2015-11-24T13:18:01.0000000+00:00</time></trkpt><trkpt lat="30.39538566" lon="35.50390075"><ele>1591.7</ele><time>2015-11-24T13:18:12.0000000+00:00</time></trkpt><trkpt lat="30.39533344" lon="35.50393797"><ele>1591.5</ele><time>2015-11-24T13:18:13.0000000+00:00</time></trkpt><trkpt lat="30.39376837" lon="35.50510162"><ele>1587.7</ele><time>2015-11-24T13:18:46.0000000+00:00</time></trkpt><trkpt lat="30.39319539" lon="35.50583605"><ele>1584.4</ele><time>2015-11-24T13:19:08.0000000+00:00</time></trkpt><trkpt lat="30.39213122" lon="35.50976255"><ele>1577.7</ele><time>2015-11-24T13:20:44.0000000+00:00</time></trkpt><trkpt lat="30.39172252" lon="35.51097726"><ele>1571.1</ele><time>2015-11-24T13:21:18.0000000+00:00</time></trkpt><trkpt lat="30.39035392" lon="35.51310978"><ele>1565.3</ele><time>2015-11-24T13:22:19.0000000+00:00</time></trkpt><trkpt lat="30.38959452" lon="35.51386356"><ele>1561.3</ele><time>2015-11-24T13:22:46.0000000+00:00</time></trkpt><trkpt lat="30.3874625" lon="35.51532788"><ele>1555.3</ele><time>2015-11-24T13:23:44.0000000+00:00</time></trkpt><trkpt lat="30.38694726" lon="35.51548655"><ele>1551.5</ele><time>2015-11-24T13:23:55.0000000+00:00</time></trkpt><trkpt lat="30.3857287" lon="35.51525638"><ele>1545.4</ele><time>2015-11-24T13:24:13.0000000+00:00</time></trkpt><trkpt lat="30.38467074" lon="35.51507701"><ele>1543.5</ele><time>2015-11-24T13:24:26.0000000+00:00</time></trkpt><trkpt lat="30.38236102" lon="35.51571454"><ele>1550.4</ele><time>2015-11-24T13:25:38.0000000+00:00</time></trkpt><trkpt lat="30.38209599" lon="35.51574446"><ele>1550.1</ele><time>2015-11-24T13:25:44.0000000+00:00</time></trkpt><trkpt lat="30.38156239" lon="35.51573139"><ele>1546.9</ele><time>2015-11-24T13:25:55.0000000+00:00</time></trkpt><trkpt lat="30.37982432" lon="35.51545914"><ele>1537.5</ele><time>2015-11-24T13:26:18.0000000+00:00</time></trkpt><trkpt lat="30.37757495" lon="35.51500744"><ele>1541.9</ele><time>2015-11-24T13:26:48.0000000+00:00</time></trkpt><trkpt lat="30.37692125" lon="35.51451651"><ele>1544.9</ele><time>2015-11-24T13:27:05.0000000+00:00</time></trkpt><trkpt lat="30.37546146" lon="35.51284625"><ele>1552.4</ele><time>2015-11-24T13:29:13.0000000+00:00</time></trkpt><trkpt lat="30.37558392" lon="35.51278867"><ele>1553.6</ele><time>2015-11-24T13:34:28.0000000+00:00</time></trkpt><trkpt lat="30.37538183" lon="35.51281851"><ele>1552.3</ele><time>2015-11-24T13:42:33.0000000+00:00</time></trkpt><trkpt lat="30.37433996" lon="35.51170086"><ele>1559.1</ele><time>2015-11-24T13:43:50.0000000+00:00</time></trkpt><trkpt lat="30.37370134" lon="35.51142468"><ele>1560.2</ele><time>2015-11-24T13:44:23.0000000+00:00</time></trkpt><trkpt lat="30.37329784" lon="35.51136735"><ele>1564.0</ele><time>2015-11-24T13:44:41.0000000+00:00</time></trkpt><trkpt lat="30.37173101" lon="35.51161244"><ele>1572.6</ele><time>2015-11-24T13:45:54.0000000+00:00</time></trkpt><trkpt lat="30.37078184" lon="35.51142778"><ele>1576.8</ele><time>2015-11-24T13:46:34.0000000+00:00</time></trkpt><trkpt lat="30.36899809" lon="35.51054517"><ele>1590.2</ele><time>2015-11-24T13:47:54.0000000+00:00</time></trkpt><trkpt lat="30.36840968" lon="35.51022565"><ele>1587.7</ele><time>2015-11-24T13:48:14.0000000+00:00</time></trkpt><trkpt lat="30.36662794" lon="35.50837811"><ele>1569.4</ele><time>2015-11-24T13:48:46.0000000+00:00</time></trkpt><trkpt lat="30.36594464" lon="35.5080145"><ele>1565.2</ele><time>2015-11-24T13:48:53.0000000+00:00</time></trkpt><trkpt lat="30.36530988" lon="35.50793169"><ele>1560.7</ele><time>2015-11-24T13:49:01.0000000+00:00</time></trkpt><trkpt lat="30.36124382" lon="35.50763849"><ele>1539.1</ele><time>2015-11-24T13:49:45.0000000+00:00</time></trkpt><trkpt lat="30.35995561" lon="35.50771343"><ele>1528.4</ele><time>2015-11-24T13:49:59.0000000+00:00</time></trkpt><trkpt lat="30.35893662" lon="35.50798919"><ele>1524.0</ele><time>2015-11-24T13:50:13.0000000+00:00</time></trkpt><trkpt lat="30.35748211" lon="35.5084419"><ele>1513.3</ele><time>2015-11-24T13:50:32.0000000+00:00</time></trkpt><trkpt lat="30.35491867" lon="35.50987839"><ele>1487.2</ele><time>2015-11-24T13:51:02.0000000+00:00</time></trkpt><trkpt lat="30.35406196" lon="35.5100539"><ele>1481.4</ele><time>2015-11-24T13:51:10.0000000+00:00</time></trkpt><trkpt lat="30.35040988" lon="35.51073334"><ele>1476.7</ele><time>2015-11-24T13:52:00.0000000+00:00</time></trkpt><trkpt lat="30.34948879" lon="35.51072957"><ele>1476.0</ele><time>2015-11-24T13:52:15.0000000+00:00</time></trkpt><trkpt lat="30.34829378" lon="35.5103347"><ele>1478.0</ele><time>2015-11-24T13:52:35.0000000+00:00</time></trkpt><trkpt lat="30.34633334" lon="35.50971838"><ele>1472.4</ele><time>2015-11-24T13:53:08.0000000+00:00</time></trkpt><trkpt lat="30.34569925" lon="35.5099814"><ele>1469.0</ele><time>2015-11-24T13:53:19.0000000+00:00</time></trkpt><trkpt lat="30.34526557" lon="35.51060518"><ele>1466.3</ele><time>2015-11-24T13:53:33.0000000+00:00</time></trkpt><trkpt lat="30.34490447" lon="35.51118915"><ele>1468.5</ele><time>2015-11-24T13:53:50.0000000+00:00</time></trkpt><trkpt lat="30.34425798" lon="35.51157991"><ele>1474.0</ele><time>2015-11-24T13:54:19.0000000+00:00</time></trkpt><trkpt lat="30.34290506" lon="35.51150657"><ele>1483.7</ele><time>2015-11-24T13:55:30.0000000+00:00</time></trkpt><trkpt lat="30.33998556" lon="35.51175853"><ele>1487.0</ele><time>2015-11-24T13:56:57.0000000+00:00</time></trkpt><trkpt lat="30.33845594" lon="35.51096393"><ele>1496.6</ele><time>2015-11-24T13:57:59.0000000+00:00</time></trkpt><trkpt lat="30.33722338" lon="35.51135721"><ele>1496.9</ele><time>2015-11-24T13:58:43.0000000+00:00</time></trkpt><trkpt lat="30.33653556" lon="35.51090634"><ele>1496.9</ele><time>2015-11-24T13:59:03.0000000+00:00</time></trkpt><trkpt lat="30.33616215" lon="35.51079277"><ele>1492.3</ele><time>2015-11-24T13:59:10.0000000+00:00</time></trkpt><trkpt lat="30.33497066" lon="35.51101975"><ele>1482.7</ele><time>2015-11-24T13:59:24.0000000+00:00</time></trkpt><trkpt lat="30.33395243" lon="35.51035867"><ele>1473.3</ele><time>2015-11-24T13:59:35.0000000+00:00</time></trkpt><trkpt lat="30.33351984" lon="35.51035808"><ele>1469.5</ele><time>2015-11-24T13:59:39.0000000+00:00</time></trkpt><trkpt lat="30.3326648" lon="35.51052681"><ele>1467.4</ele><time>2015-11-24T13:59:47.0000000+00:00</time></trkpt><trkpt lat="30.33217077" lon="35.51043436"><ele>1467.8</ele><time>2015-11-24T13:59:52.0000000+00:00</time></trkpt><trkpt lat="30.33049707" lon="35.50975266"><ele>1467.1</ele><time>2015-11-24T14:00:18.0000000+00:00</time></trkpt><trkpt lat="30.32911272" lon="35.5088687"><ele>1464.6</ele><time>2015-11-24T14:00:45.0000000+00:00</time></trkpt><trkpt lat="30.32827956" lon="35.50849252"><ele>1455.4</ele><time>2015-11-24T14:00:54.0000000+00:00</time></trkpt><trkpt lat="30.32802072" lon="35.50793261"><ele>1447.1</ele><time>2015-11-24T14:00:59.0000000+00:00</time></trkpt><trkpt lat="30.32810974" lon="35.50599237"><ele>1432.1</ele><time>2015-11-24T14:01:11.0000000+00:00</time></trkpt><trkpt lat="30.32780581" lon="35.50528837"><ele>1424.2</ele><time>2015-11-24T14:01:17.0000000+00:00</time></trkpt><trkpt lat="30.32610437" lon="35.50423066"><ele>1399.9</ele><time>2015-11-24T14:01:32.0000000+00:00</time></trkpt><trkpt lat="30.32514716" lon="35.50317982"><ele>1382.4</ele><time>2015-11-24T14:01:43.0000000+00:00</time></trkpt><trkpt lat="30.32406069" lon="35.50285754"><ele>1370.1</ele><time>2015-11-24T14:01:52.0000000+00:00</time></trkpt><trkpt lat="30.32360245" lon="35.50234716"><ele>1361.3</ele><time>2015-11-24T14:01:57.0000000+00:00</time></trkpt><trkpt lat="30.32340389" lon="35.50181382"><ele>1356.2</ele><time>2015-11-24T14:02:01.0000000+00:00</time></trkpt><trkpt lat="30.32347991" lon="35.50042184"><ele>1342.1</ele><time>2015-11-24T14:02:11.0000000+00:00</time></trkpt><trkpt lat="30.32335536" lon="35.49990367"><ele>1335.8</ele><time>2015-11-24T14:02:16.0000000+00:00</time></trkpt><trkpt lat="30.32306207" lon="35.49867254"><ele>1324.4</ele><time>2015-11-24T14:02:31.0000000+00:00</time></trkpt><trkpt lat="30.32351017" lon="35.49812143"><ele>1318.0</ele><time>2015-11-24T14:02:41.0000000+00:00</time></trkpt><trkpt lat="30.32449932" lon="35.49765104"><ele>1311.8</ele><time>2015-11-24T14:03:45.0000000+00:00</time></trkpt></trkseg><trkseg><trkpt lat="30.1771774" lon="35.42748705"><ele>1569.5</ele><time>2015-11-26T07:09:23.0000000+00:00</time></trkpt><trkpt lat="30.17705871" lon="35.42768176"><ele>1572.1</ele><time>2015-11-26T07:11:07.0000000+00:00</time></trkpt><trkpt lat="30.17194189" lon="35.42781981"><ele>1563.4</ele><time>2015-11-26T07:13:10.0000000+00:00</time></trkpt><trkpt lat="30.16889943" lon="35.42577228"><ele>1558.3</ele><time>2015-11-26T07:14:03.0000000+00:00</time></trkpt><trkpt lat="30.16216122" lon="35.42350614"><ele>1536.0</ele><time>2015-11-26T07:15:50.0000000+00:00</time></trkpt><trkpt lat="30.16004286" lon="35.4225926"><ele>1541.0</ele><time>2015-11-26T07:16:28.0000000+00:00</time></trkpt><trkpt lat="30.1565466" lon="35.42061497"><ele>1517.3</ele><time>2015-11-26T07:17:25.0000000+00:00</time></trkpt><trkpt lat="30.15381234" lon="35.42002807"><ele>1505.5</ele><time>2015-11-26T07:18:02.0000000+00:00</time></trkpt><trkpt lat="30.15305302" lon="35.42005632"><ele>1504.8</ele><time>2015-11-26T07:18:11.0000000+00:00</time></trkpt><trkpt lat="30.15124731" lon="35.41877657"><ele>1493.6</ele><time>2015-11-26T07:18:35.0000000+00:00</time></trkpt><trkpt lat="30.14964829" lon="35.41925216"><ele>1489.2</ele><time>2015-11-26T07:19:01.0000000+00:00</time></trkpt><trkpt lat="30.14837994" lon="35.41936322"><ele>1479.8</ele><time>2015-11-26T07:19:16.0000000+00:00</time></trkpt><trkpt lat="30.14747537" lon="35.41847248"><ele>1476.5</ele><time>2015-11-26T07:19:30.0000000+00:00</time></trkpt><trkpt lat="30.14656803" lon="35.41796219"><ele>1482.5</ele><time>2015-11-26T07:19:42.0000000+00:00</time></trkpt><trkpt lat="30.14559832" lon="35.41715635"><ele>1476.8</ele><time>2015-11-26T07:19:58.0000000+00:00</time></trkpt><trkpt lat="30.14471546" lon="35.41715543"><ele>1470.3</ele><time>2015-11-26T07:20:12.0000000+00:00</time></trkpt><trkpt lat="30.14366118" lon="35.41772867"><ele>1466.7</ele><time>2015-11-26T07:20:25.0000000+00:00</time></trkpt><trkpt lat="30.14265091" lon="35.41749741"><ele>1461.5</ele><time>2015-11-26T07:20:37.0000000+00:00</time></trkpt><trkpt lat="30.14189696" lon="35.41693239"><ele>1472.1</ele><time>2015-11-26T07:21:00.0000000+00:00</time></trkpt><trkpt lat="30.14104569" lon="35.41666266"><ele>1471.6</ele><time>2015-11-26T07:21:29.0000000+00:00</time></trkpt><trkpt lat="30.14052912" lon="35.41626292"><ele>1469.8</ele><time>2015-11-26T07:21:43.0000000+00:00</time></trkpt><trkpt lat="30.13970912" lon="35.41593108"><ele>1465.5</ele><time>2015-11-26T07:21:56.0000000+00:00</time></trkpt><trkpt lat="30.13907771" lon="35.41355833"><ele>1461.6</ele><time>2015-11-26T07:22:26.0000000+00:00</time></trkpt><trkpt lat="30.1388441" lon="35.41339212"><ele>1456.7</ele><time>2015-11-26T07:22:32.0000000+00:00</time></trkpt><trkpt lat="30.13813047" lon="35.41353797"><ele>1454.6</ele><time>2015-11-26T07:22:43.0000000+00:00</time></trkpt><trkpt lat="30.13811287" lon="35.41284872"><ele>1450.5</ele><time>2015-11-26T07:22:51.0000000+00:00</time></trkpt><trkpt lat="30.137777" lon="35.41140745"><ele>1430.7</ele><time>2015-11-26T07:23:05.0000000+00:00</time></trkpt><trkpt lat="30.13651184" lon="35.41023474"><ele>1413.1</ele><time>2015-11-26T07:23:18.0000000+00:00</time></trkpt><trkpt lat="30.13534902" lon="35.40958649"><ele>1390.8</ele><time>2015-11-26T07:23:32.0000000+00:00</time></trkpt><trkpt lat="30.13392166" lon="35.40968397"><ele>1368.7</ele><time>2015-11-26T07:23:53.0000000+00:00</time></trkpt><trkpt lat="30.13253152" lon="35.41007297"><ele>1360.1</ele><time>2015-11-26T07:24:12.0000000+00:00</time></trkpt><trkpt lat="30.13378831" lon="35.40964591"><ele>1367.1</ele><time>2015-11-26T07:25:05.0000000+00:00</time></trkpt><trkpt lat="30.13414227" lon="35.4086571"><ele>1363.5</ele><time>2015-11-26T07:25:30.0000000+00:00</time></trkpt><trkpt lat="30.13407078" lon="35.40848712"><ele>1362.0</ele><time>2015-11-26T07:25:34.0000000+00:00</time></trkpt><trkpt lat="30.13389006" lon="35.40834554"><ele>1360.1</ele><time>2015-11-26T07:25:39.0000000+00:00</time></trkpt><trkpt lat="30.13321507" lon="35.40852944"><ele>1352.4</ele><time>2015-11-26T07:25:48.0000000+00:00</time></trkpt><trkpt lat="30.13102781" lon="35.40830431"><ele>1327.2</ele><time>2015-11-26T07:26:08.0000000+00:00</time></trkpt><trkpt lat="30.12928815" lon="35.40634277"><ele>1317.8</ele><time>2015-11-26T07:26:35.0000000+00:00</time></trkpt><trkpt lat="30.12748973" lon="35.40303586"><ele>1290.5</ele><time>2015-11-26T07:28:11.0000000+00:00</time></trkpt><trkpt lat="30.12655372" lon="35.40261232"><ele>1286.6</ele><time>2015-11-26T07:28:20.0000000+00:00</time></trkpt><trkpt lat="30.1257172" lon="35.40261534"><ele>1278.1</ele><time>2015-11-26T07:28:30.0000000+00:00</time></trkpt><trkpt lat="30.12517951" lon="35.40218317"><ele>1268.9</ele><time>2015-11-26T07:28:37.0000000+00:00</time></trkpt><trkpt lat="30.12468841" lon="35.40146593"><ele>1265.8</ele><time>2015-11-26T07:28:44.0000000+00:00</time></trkpt><trkpt lat="30.12201542" lon="35.40033588"><ele>1239.7</ele><time>2015-11-26T07:29:05.0000000+00:00</time></trkpt><trkpt lat="30.12135166" lon="35.40019389"><ele>1238.6</ele><time>2015-11-26T07:29:10.0000000+00:00</time></trkpt><trkpt lat="30.12028908" lon="35.40030143"><ele>1232.0</ele><time>2015-11-26T07:29:21.0000000+00:00</time></trkpt><trkpt lat="30.11901772" lon="35.39982157"><ele>1230.9</ele><time>2015-11-26T07:29:34.0000000+00:00</time></trkpt><trkpt lat="30.11412436" lon="35.39635163"><ele>1208.1</ele><time>2015-11-26T07:30:35.0000000+00:00</time></trkpt><trkpt lat="30.11251571" lon="35.3959244"><ele>1195.7</ele><time>2015-11-26T07:31:02.0000000+00:00</time></trkpt><trkpt lat="30.11065979" lon="35.39492838"><ele>1189.1</ele><time>2015-11-26T07:31:25.0000000+00:00</time></trkpt><trkpt lat="30.11030808" lon="35.3943823"><ele>1187.1</ele><time>2015-11-26T07:31:33.0000000+00:00</time></trkpt><trkpt lat="30.10992075" lon="35.39161124"><ele>1180.1</ele><time>2015-11-26T07:32:08.0000000+00:00</time></trkpt><trkpt lat="30.10826818" lon="35.38986697"><ele>1178.0</ele><time>2015-11-26T07:32:51.0000000+00:00</time></trkpt><trkpt lat="30.10779812" lon="35.38906189"><ele>1177.3</ele><time>2015-11-26T07:34:03.0000000+00:00</time></trkpt><trkpt lat="30.10588076" lon="35.38408572"><ele>1159.9</ele><time>2015-11-26T07:36:03.0000000+00:00</time></trkpt><trkpt lat="30.10545177" lon="35.38333034"><ele>1154.0</ele><time>2015-11-26T07:36:14.0000000+00:00</time></trkpt><trkpt lat="30.10356249" lon="35.38199343"><ele>1147.9</ele><time>2015-11-26T07:36:45.0000000+00:00</time></trkpt><trkpt lat="30.10213137" lon="35.37807724"><ele>1134.7</ele><time>2015-11-26T07:37:40.0000000+00:00</time></trkpt><trkpt lat="30.10080543" lon="35.37696253"><ele>1134.1</ele><time>2015-11-26T07:38:22.0000000+00:00</time></trkpt><trkpt lat="30.09998837" lon="35.37399349"><ele>1121.3</ele><time>2015-11-26T07:38:54.0000000+00:00</time></trkpt><trkpt lat="30.0990946" lon="35.37332654"><ele>1119.3</ele><time>2015-11-26T07:39:12.0000000+00:00</time></trkpt><trkpt lat="30.09897416" lon="35.3722757"><ele>1119.9</ele><time>2015-11-26T07:39:33.0000000+00:00</time></trkpt><trkpt lat="30.09913928" lon="35.37034954"><ele>1111.0</ele><time>2015-11-26T07:39:56.0000000+00:00</time></trkpt><trkpt lat="30.09771679" lon="35.36883359"><ele>1109.4</ele><time>2015-11-26T07:40:35.0000000+00:00</time></trkpt><trkpt lat="30.09733658" lon="35.36787562"><ele>1113.6</ele><time>2015-11-26T07:41:03.0000000+00:00</time></trkpt><trkpt lat="30.09721287" lon="35.36688387"><ele>1104.6</ele><time>2015-11-26T07:41:14.0000000+00:00</time></trkpt><trkpt lat="30.09723944" lon="35.36617594"><ele>1101.1</ele><time>2015-11-26T07:41:19.0000000+00:00</time></trkpt><trkpt lat="30.09764998" lon="35.36498537"><ele>1108.1</ele><time>2015-11-26T07:41:32.0000000+00:00</time></trkpt><trkpt lat="30.09787638" lon="35.36473249"><ele>1112.4</ele><time>2015-11-26T07:41:39.0000000+00:00</time></trkpt><trkpt lat="30.09861206" lon="35.36458354"><ele>1111.7</ele><time>2015-11-26T07:41:59.0000000+00:00</time></trkpt><trkpt lat="30.09799389" lon="35.3646454"><ele>1112.1</ele><time>2015-11-26T07:42:31.0000000+00:00</time></trkpt><trkpt lat="30.09762961" lon="35.36490147"><ele>1108.0</ele><time>2015-11-26T07:42:44.0000000+00:00</time></trkpt><trkpt lat="30.0973448" lon="35.36555124"><ele>1100.7</ele><time>2015-11-26T07:42:59.0000000+00:00</time></trkpt><trkpt lat="30.09721085" lon="35.36542869"><ele>1099.7</ele><time>2015-11-26T07:43:09.0000000+00:00</time></trkpt><trkpt lat="30.09712419" lon="35.36552726"><ele>1097.5</ele><time>2015-11-26T07:43:15.0000000+00:00</time></trkpt><trkpt lat="30.09692788" lon="35.36631893"><ele>1099.5</ele><time>2015-11-26T07:43:30.0000000+00:00</time></trkpt><trkpt lat="30.09603227" lon="35.36575969"><ele>1105.5</ele><time>2015-11-26T07:44:16.0000000+00:00</time></trkpt><trkpt lat="30.09573899" lon="35.36524882"><ele>1105.1</ele><time>2015-11-26T07:44:44.0000000+00:00</time></trkpt><trkpt lat="30.09411978" lon="35.36425246"><ele>1103.4</ele><time>2015-11-26T07:45:34.0000000+00:00</time></trkpt><trkpt lat="30.09232513" lon="35.36405213"><ele>1101.0</ele><time>2015-11-26T07:46:26.0000000+00:00</time></trkpt><trkpt lat="30.09020006" lon="35.36446787"><ele>1111.7</ele><time>2015-11-26T07:48:07.0000000+00:00</time></trkpt><trkpt lat="30.08894227" lon="35.36404593"><ele>1114.0</ele><time>2015-11-26T07:49:12.0000000+00:00</time></trkpt><trkpt lat="30.08865645" lon="35.36427056"><ele>1112.7</ele><time>2015-11-26T07:49:26.0000000+00:00</time></trkpt><trkpt lat="30.08844414" lon="35.36488043"><ele>1114.5</ele><time>2015-11-26T07:49:49.0000000+00:00</time></trkpt><trkpt lat="30.08736103" lon="35.36628876"><ele>1119.6</ele><time>2015-11-26T07:51:19.0000000+00:00</time></trkpt><trkpt lat="30.08642351" lon="35.36807084"><ele>1125.7</ele><time>2015-11-26T07:52:55.0000000+00:00</time></trkpt><trkpt lat="30.08530067" lon="35.36881599"><ele>1132.3</ele><time>2015-11-26T07:54:07.0000000+00:00</time></trkpt><trkpt lat="30.08477479" lon="35.36960674"><ele>1133.5</ele><time>2015-11-26T07:55:02.0000000+00:00</time></trkpt><trkpt lat="30.08310235" lon="35.36950875"><ele>1138.9</ele><time>2015-11-26T07:56:21.0000000+00:00</time></trkpt><trkpt lat="30.08257831" lon="35.36993413"><ele>1140.3</ele><time>2015-11-26T07:56:57.0000000+00:00</time></trkpt><trkpt lat="30.08147836" lon="35.36961252"><ele>1142.9</ele><time>2015-11-26T07:57:59.0000000+00:00</time></trkpt><trkpt lat="30.08071301" lon="35.36902796"><ele>1145.5</ele><time>2015-11-26T07:58:47.0000000+00:00</time></trkpt><trkpt lat="30.07921985" lon="35.36833051"><ele>1157.4</ele><time>2015-11-26T08:00:18.0000000+00:00</time></trkpt><trkpt lat="30.07804211" lon="35.36731638"><ele>1168.3</ele><time>2015-11-26T08:01:41.0000000+00:00</time></trkpt><trkpt lat="30.07610547" lon="35.36496601"><ele>1182.4</ele><time>2015-11-26T08:03:53.0000000+00:00</time></trkpt><trkpt lat="30.07526033" lon="35.36443778"><ele>1183.8</ele><time>2015-11-26T08:04:39.0000000+00:00</time></trkpt><trkpt lat="30.07400824" lon="35.36426277"><ele>1191.0</ele><time>2015-11-26T08:05:46.0000000+00:00</time></trkpt><trkpt lat="30.07316301" lon="35.36394367"><ele>1200.5</ele><time>2015-11-26T08:06:35.0000000+00:00</time></trkpt><trkpt lat="30.0706885" lon="35.36240249"><ele>1214.7</ele><time>2015-11-26T08:09:56.0000000+00:00</time></trkpt><trkpt lat="30.06778543" lon="35.36244063"><ele>1240.8</ele><time>2015-11-26T08:13:21.0000000+00:00</time></trkpt><trkpt lat="30.06735158" lon="35.36271874"><ele>1246.8</ele><time>2015-11-26T08:28:08.0000000+00:00</time></trkpt><trkpt lat="30.06607921" lon="35.36278035"><ele>1230.5</ele><time>2015-11-26T08:46:37.0000000+00:00</time></trkpt><trkpt lat="30.06469519" lon="35.36344964"><ele>1222.7</ele><time>2015-11-26T08:47:19.0000000+00:00</time></trkpt><trkpt lat="30.06220987" lon="35.36528955"><ele>1205.7</ele><time>2015-11-26T08:48:06.0000000+00:00</time></trkpt><trkpt lat="30.06158374" lon="35.36599179"><ele>1208.1</ele><time>2015-11-26T08:48:36.0000000+00:00</time></trkpt><trkpt lat="30.06040064" lon="35.36601744"><ele>1204.7</ele><time>2015-11-26T08:49:11.0000000+00:00</time></trkpt><trkpt lat="30.05972874" lon="35.36585835"><ele>1195.0</ele><time>2015-11-26T08:49:22.0000000+00:00</time></trkpt><trkpt lat="30.05778951" lon="35.36602775"><ele>1190.3</ele><time>2015-11-26T08:50:06.0000000+00:00</time></trkpt><trkpt lat="30.05660556" lon="35.36651088"><ele>1191.0</ele><time>2015-11-26T08:50:34.0000000+00:00</time></trkpt><trkpt lat="30.05571675" lon="35.36667433"><ele>1196.5</ele><time>2015-11-26T08:51:14.0000000+00:00</time></trkpt><trkpt lat="30.05541768" lon="35.36650769"><ele>1203.0</ele><time>2015-11-26T08:51:23.0000000+00:00</time></trkpt><trkpt lat="30.05539538" lon="35.36618809"><ele>1196.3</ele><time>2015-11-26T08:51:35.0000000+00:00</time></trkpt><trkpt lat="30.05524702" lon="35.36614258"><ele>1195.8</ele><time>2015-11-26T08:51:46.0000000+00:00</time></trkpt><trkpt lat="30.05325465" lon="35.3669982"><ele>1172.9</ele><time>2015-11-26T08:53:14.0000000+00:00</time></trkpt><trkpt lat="30.05294024" lon="35.36737757"><ele>1178.1</ele><time>2015-11-26T08:53:28.0000000+00:00</time></trkpt><trkpt lat="30.05146226" lon="35.36685244"><ele>1152.8</ele><time>2015-11-26T08:54:08.0000000+00:00</time></trkpt><trkpt lat="30.05032215" lon="35.36717372"><ele>1147.3</ele><time>2015-11-26T08:54:51.0000000+00:00</time></trkpt><trkpt lat="30.0496744" lon="35.36671422"><ele>1142.4</ele><time>2015-11-26T08:55:04.0000000+00:00</time></trkpt><trkpt lat="30.04910175" lon="35.36673593"><ele>1139.1</ele><time>2015-11-26T08:55:12.0000000+00:00</time></trkpt><trkpt lat="30.04782761" lon="35.36642119"><ele>1141.2</ele><time>2015-11-26T08:55:26.0000000+00:00</time></trkpt><trkpt lat="30.04595879" lon="35.36672034"><ele>1124.7</ele><time>2015-11-26T08:55:47.0000000+00:00</time></trkpt><trkpt lat="30.04436907" lon="35.36675354"><ele>1126.6</ele><time>2015-11-26T08:56:33.0000000+00:00</time></trkpt><trkpt lat="30.04294633" lon="35.36612112"><ele>1124.8</ele><time>2015-11-26T08:57:04.0000000+00:00</time></trkpt><trkpt lat="30.04166398" lon="35.36577252"><ele>1116.3</ele><time>2015-11-26T08:57:25.0000000+00:00</time></trkpt><trkpt lat="30.03695679" lon="35.36860283"><ele>1106.6</ele><time>2015-11-26T08:59:01.0000000+00:00</time></trkpt><trkpt lat="30.03416251" lon="35.36943415"><ele>1095.5</ele><time>2015-11-26T08:59:40.0000000+00:00</time></trkpt><trkpt lat="30.03078813" lon="35.36948922"><ele>1080.9</ele><time>2015-11-26T09:00:39.0000000+00:00</time></trkpt><trkpt lat="30.02914896" lon="35.36935947"><ele>1073.3</ele><time>2015-11-26T09:01:02.0000000+00:00</time></trkpt><trkpt lat="30.02677588" lon="35.36867031"><ele>1041.8</ele><time>2015-11-26T09:01:50.0000000+00:00</time></trkpt><trkpt lat="30.02491937" lon="35.36891095"><ele>1053.9</ele><time>2015-11-26T09:03:26.0000000+00:00</time></trkpt><trkpt lat="30.02451603" lon="35.36946391"><ele>1050.3</ele><time>2015-11-26T09:07:45.0000000+00:00</time></trkpt><trkpt lat="30.02391782" lon="35.36983263"><ele>1056.3</ele><time>2015-11-26T09:08:04.0000000+00:00</time></trkpt><trkpt lat="30.02123334" lon="35.37035113"><ele>1055.3</ele><time>2015-11-26T09:09:27.0000000+00:00</time></trkpt><trkpt lat="30.0197018" lon="35.37033621"><ele>1051.8</ele><time>2015-11-26T09:10:07.0000000+00:00</time></trkpt><trkpt lat="30.01933493" lon="35.37066956"><ele>1050.1</ele><time>2015-11-26T09:11:13.0000000+00:00</time></trkpt><trkpt lat="30.01861165" lon="35.37083762"><ele>1042.8</ele><time>2015-11-26T09:11:38.0000000+00:00</time></trkpt><trkpt lat="30.01800237" lon="35.37049262"><ele>1035.2</ele><time>2015-11-26T09:11:54.0000000+00:00</time></trkpt><trkpt lat="30.01769216" lon="35.37067954"><ele>1029.9</ele><time>2015-11-26T09:12:08.0000000+00:00</time></trkpt><trkpt lat="30.01754212" lon="35.37109586"><ele>1032.0</ele><time>2015-11-26T09:12:21.0000000+00:00</time></trkpt><trkpt lat="30.01759828" lon="35.37217596"><ele>1044.4</ele><time>2015-11-26T09:14:38.0000000+00:00</time></trkpt><trkpt lat="30.01697525" lon="35.37295841"><ele>1050.6</ele><time>2015-11-26T09:15:44.0000000+00:00</time></trkpt><trkpt lat="30.01638374" lon="35.37426238"><ele>1058.5</ele><time>2015-11-26T09:16:39.0000000+00:00</time></trkpt><trkpt lat="30.01465506" lon="35.37479245"><ele>1069.8</ele><time>2015-11-26T09:18:11.0000000+00:00</time></trkpt><trkpt lat="30.01402759" lon="35.37531749"><ele>1071.8</ele><time>2015-11-26T09:18:59.0000000+00:00</time></trkpt><trkpt lat="30.01375216" lon="35.37662096"><ele>1071.3</ele><time>2015-11-26T09:20:33.0000000+00:00</time></trkpt><trkpt lat="30.01421895" lon="35.37870546"><ele>1073.8</ele><time>2015-11-26T09:21:30.0000000+00:00</time></trkpt><trkpt lat="30.01380807" lon="35.38034722"><ele>1073.3</ele><time>2015-11-26T09:22:08.0000000+00:00</time></trkpt><trkpt lat="30.01393698" lon="35.38337099"><ele>1080.7</ele><time>2015-11-26T09:23:42.0000000+00:00</time></trkpt><trkpt lat="30.01333977" lon="35.38361977"><ele>1078.4</ele><time>2015-11-26T09:23:57.0000000+00:00</time></trkpt><trkpt lat="30.0118483" lon="35.38319975"><ele>1072.9</ele><time>2015-11-26T09:24:30.0000000+00:00</time></trkpt><trkpt lat="30.00971384" lon="35.38304661"><ele>1065.2</ele><time>2015-11-26T09:25:12.0000000+00:00</time></trkpt><trkpt lat="30.00862839" lon="35.38208655"><ele>1062.2</ele><time>2015-11-26T09:25:31.0000000+00:00</time></trkpt><trkpt lat="30.00708084" lon="35.38114493"><ele>1056.3</ele><time>2015-11-26T09:26:10.0000000+00:00</time></trkpt><trkpt lat="30.00804987" lon="35.38182579"><ele>1059.3</ele><time>2015-11-26T09:27:26.0000000+00:00</time></trkpt><trkpt lat="30.00728007" lon="35.3823774"><ele>1053.0</ele><time>2015-11-26T09:27:55.0000000+00:00</time></trkpt><trkpt lat="30.00542977" lon="35.38232326"><ele>1048.2</ele><time>2015-11-26T09:28:59.0000000+00:00</time></trkpt><trkpt lat="30.00442503" lon="35.38283933"><ele>1047.8</ele><time>2015-11-26T09:29:24.0000000+00:00</time></trkpt><trkpt lat="30.00406972" lon="35.38440809"><ele>1051.6</ele><time>2015-11-26T09:30:47.0000000+00:00</time></trkpt><trkpt lat="30.00420702" lon="35.38447908"><ele>1052.0</ele><time>2015-11-26T09:58:07.0000000+00:00</time></trkpt><trkpt lat="30.00398096" lon="35.38500379"><ele>1048.5</ele><time>2015-11-26T09:58:29.0000000+00:00</time></trkpt><trkpt lat="30.00411917" lon="35.38708627"><ele>1043.2</ele><time>2015-11-26T09:59:40.0000000+00:00</time></trkpt><trkpt lat="30.00401314" lon="35.38745793"><ele>1046.1</ele><time>2015-11-26T09:59:53.0000000+00:00</time></trkpt><trkpt lat="30.00320639" lon="35.38872745"><ele>1057.4</ele><time>2015-11-26T10:01:21.0000000+00:00</time></trkpt><trkpt lat="30.00187031" lon="35.38996168"><ele>1068.1</ele><time>2015-11-26T10:02:54.0000000+00:00</time></trkpt><trkpt lat="30.0016305" lon="35.39068571"><ele>1070.2</ele><time>2015-11-26T10:03:27.0000000+00:00</time></trkpt><trkpt lat="30.00099507" lon="35.39168651"><ele>1073.2</ele><time>2015-11-26T10:04:13.0000000+00:00</time></trkpt><trkpt lat="30.00082953" lon="35.39229227"><ele>1073.8</ele><time>2015-11-26T10:04:34.0000000+00:00</time></trkpt><trkpt lat="30.00033743" lon="35.39230485"><ele>1071.3</ele><time>2015-11-26T10:04:49.0000000+00:00</time></trkpt><trkpt lat="29.99955674" lon="35.39282335"><ele>1073.1</ele><time>2015-11-26T10:05:11.0000000+00:00</time></trkpt><trkpt lat="29.99840506" lon="35.39272989"><ele>1076.8</ele><time>2015-11-26T10:05:52.0000000+00:00</time></trkpt><trkpt lat="29.99678141" lon="35.39362382"><ele>1075.3</ele><time>2015-11-26T10:06:49.0000000+00:00</time></trkpt><trkpt lat="29.99490914" lon="35.39301454"><ele>1070.9</ele><time>2015-11-26T10:07:33.0000000+00:00</time></trkpt><trkpt lat="29.99462365" lon="35.39238506"><ele>1072.4</ele><time>2015-11-26T10:07:52.0000000+00:00</time></trkpt><trkpt lat="29.99457093" lon="35.3904786"><ele>1063.6</ele><time>2015-11-26T10:08:30.0000000+00:00</time></trkpt><trkpt lat="29.99403482" lon="35.38793829"><ele>1056.2</ele><time>2015-11-26T10:09:05.0000000+00:00</time></trkpt><trkpt lat="29.99273596" lon="35.38405403"><ele>1043.0</ele><time>2015-11-26T10:10:03.0000000+00:00</time></trkpt><trkpt lat="29.99115279" lon="35.38119849"><ele>1031.6</ele><time>2015-11-26T10:10:43.0000000+00:00</time></trkpt><trkpt lat="29.99040688" lon="35.38063556"><ele>1029.9</ele><time>2015-11-26T10:10:59.0000000+00:00</time></trkpt><trkpt lat="29.98908514" lon="35.37882071"><ele>1022.4</ele><time>2015-11-26T10:11:36.0000000+00:00</time></trkpt><trkpt lat="29.98734204" lon="35.37583977"><ele>1015.5</ele><time>2015-11-26T10:12:33.0000000+00:00</time></trkpt><trkpt lat="29.98663411" lon="35.37524424"><ele>1015.7</ele><time>2015-11-26T10:12:55.0000000+00:00</time></trkpt><trkpt lat="29.98427711" lon="35.37402241"><ele>1012.9</ele><time>2015-11-26T10:15:41.0000000+00:00</time></trkpt><trkpt lat="29.98463376" lon="35.37354288"><ele>1013.2</ele><time>2015-11-26T10:45:15.0000000+00:00</time></trkpt><trkpt lat="29.98412649" lon="35.37385234"><ele>1012.6</ele><time>2015-11-26T10:46:03.0000000+00:00</time></trkpt><trkpt lat="29.98060358" lon="35.37147984"><ele>1004.8</ele><time>2015-11-26T10:47:42.0000000+00:00</time></trkpt><trkpt lat="29.97954637" lon="35.37088003"><ele>1003.1</ele><time>2015-11-26T10:48:08.0000000+00:00</time></trkpt><trkpt lat="29.9789277" lon="35.37078406"><ele>1002.2</ele><time>2015-11-26T10:48:23.0000000+00:00</time></trkpt><trkpt lat="29.97715216" lon="35.36962694"><ele>999.3</ele><time>2015-11-26T10:49:10.0000000+00:00</time></trkpt><trkpt lat="29.97637197" lon="35.36871473"><ele>997.3</ele><time>2015-11-26T10:49:33.0000000+00:00</time></trkpt><trkpt lat="29.97570327" lon="35.36744068"><ele>997.3</ele><time>2015-11-26T10:50:03.0000000+00:00</time></trkpt><trkpt lat="29.97423425" lon="35.3660104"><ele>995.1</ele><time>2015-11-26T10:53:19.0000000+00:00</time></trkpt><trkpt lat="29.97362036" lon="35.3651976"><ele>993.8</ele><time>2015-11-26T10:53:41.0000000+00:00</time></trkpt><trkpt lat="29.97243114" lon="35.36424936"><ele>991.5</ele><time>2015-11-26T10:54:13.0000000+00:00</time></trkpt><trkpt lat="29.97179805" lon="35.36293097"><ele>989.1</ele><time>2015-11-26T10:54:40.0000000+00:00</time></trkpt><trkpt lat="29.97021052" lon="35.36172104"><ele>984.5</ele><time>2015-11-26T10:55:18.0000000+00:00</time></trkpt><trkpt lat="29.96958925" lon="35.36144871"><ele>983.6</ele><time>2015-11-26T10:55:32.0000000+00:00</time></trkpt><trkpt lat="29.9688519" lon="35.36082552"><ele>982.2</ele><time>2015-11-26T10:55:52.0000000+00:00</time></trkpt><trkpt lat="29.9677646" lon="35.36052855"><ele>985.4</ele><time>2015-11-26T10:56:25.0000000+00:00</time></trkpt><trkpt lat="29.96685617" lon="35.36003075"><ele>983.0</ele><time>2015-11-26T10:57:10.0000000+00:00</time></trkpt><trkpt lat="29.9660655" lon="35.35939649"><ele>981.5</ele><time>2015-11-26T10:57:31.0000000+00:00</time></trkpt><trkpt lat="29.96572721" lon="35.35941007"><ele>979.5</ele><time>2015-11-26T10:57:43.0000000+00:00</time></trkpt><trkpt lat="29.96442089" lon="35.35889542"><ele>977.7</ele><time>2015-11-26T10:58:19.0000000+00:00</time></trkpt><trkpt lat="29.96097014" lon="35.35423801"><ele>969.1</ele><time>2015-11-26T11:00:26.0000000+00:00</time></trkpt><trkpt lat="29.95751202" lon="35.35091409"><ele>966.9</ele><time>2015-11-26T11:02:07.0000000+00:00</time></trkpt><trkpt lat="29.95435473" lon="35.34742193"><ele>959.6</ele><time>2015-11-26T11:03:49.0000000+00:00</time></trkpt><trkpt lat="29.95245664" lon="35.34645583"><ele>955.1</ele><time>2015-11-26T11:04:31.0000000+00:00</time></trkpt><trkpt lat="29.95110347" lon="35.34551832"><ele>952.7</ele><time>2015-11-26T11:05:10.0000000+00:00</time></trkpt><trkpt lat="29.9505931" lon="35.34542997"><ele>952.2</ele><time>2015-11-26T11:05:28.0000000+00:00</time></trkpt><trkpt lat="29.94985976" lon="35.34401687"><ele>949.8</ele><time>2015-11-26T11:07:05.0000000+00:00</time></trkpt><trkpt lat="29.94992187" lon="35.34361001"><ele>948.6</ele><time>2015-11-26T11:07:17.0000000+00:00</time></trkpt><trkpt lat="29.94924294" lon="35.34284323"><ele>948.2</ele><time>2015-11-26T11:07:50.0000000+00:00</time></trkpt><trkpt lat="29.94941292" lon="35.34148612"><ele>949.9</ele><time>2015-11-26T11:08:29.0000000+00:00</time></trkpt><trkpt lat="29.94919181" lon="35.34120709"><ele>949.5</ele><time>2015-11-26T11:08:39.0000000+00:00</time></trkpt><trkpt lat="29.94838178" lon="35.34106543"><ele>947.5</ele><time>2015-11-26T11:08:58.0000000+00:00</time></trkpt><trkpt lat="29.94736715" lon="35.34031617"><ele>949.1</ele><time>2015-11-26T11:09:26.0000000+00:00</time></trkpt><trkpt lat="29.94653868" lon="35.3400192"><ele>952.5</ele><time>2015-11-26T11:10:12.0000000+00:00</time></trkpt><trkpt lat="29.94514746" lon="35.34033512"><ele>945.1</ele><time>2015-11-26T11:10:45.0000000+00:00</time></trkpt><trkpt lat="29.94416619" lon="35.34040972"><ele>946.3</ele><time>2015-11-26T11:12:44.0000000+00:00</time></trkpt><trkpt lat="29.94344744" lon="35.3402145"><ele>945.5</ele><time>2015-11-26T11:13:09.0000000+00:00</time></trkpt><trkpt lat="29.94139873" lon="35.3404549"><ele>942.2</ele><time>2015-11-26T11:14:23.0000000+00:00</time></trkpt><trkpt lat="29.9410539" lon="35.34062857"><ele>941.2</ele><time>2015-11-26T11:14:33.0000000+00:00</time></trkpt><trkpt lat="29.9391725" lon="35.34069981"><ele>937.5</ele><time>2015-11-26T11:15:17.0000000+00:00</time></trkpt><trkpt lat="29.93677704" lon="35.34122335"><ele>934.6</ele><time>2015-11-26T11:16:15.0000000+00:00</time></trkpt><trkpt lat="29.93630329" lon="35.34110743"><ele>934.1</ele><time>2015-11-26T11:17:04.0000000+00:00</time></trkpt><trkpt lat="29.93531481" lon="35.34042732"><ele>932.8</ele><time>2015-11-26T11:17:35.0000000+00:00</time></trkpt><trkpt lat="29.93428493" lon="35.33941814"><ele>932.4</ele><time>2015-11-26T11:18:18.0000000+00:00</time></trkpt><trkpt lat="29.933492" lon="35.33728997"><ele>934.0</ele><time>2015-11-26T11:19:17.0000000+00:00</time></trkpt><trkpt lat="29.9334806" lon="35.33648841"><ele>933.0</ele><time>2015-11-26T11:19:33.0000000+00:00</time></trkpt><trkpt lat="29.93288146" lon="35.3355208"><ele>930.6</ele><time>2015-11-26T11:20:04.0000000+00:00</time></trkpt><trkpt lat="29.93080317" lon="35.33407409"><ele>929.1</ele><time>2015-11-26T11:22:18.0000000+00:00</time></trkpt><trkpt lat="29.929969" lon="35.33422169"><ele>929.5</ele><time>2015-11-26T11:22:40.0000000+00:00</time></trkpt><trkpt lat="29.92942519" lon="35.33411331"><ele>930.6</ele><time>2015-11-26T11:22:55.0000000+00:00</time></trkpt><trkpt lat="29.92849857" lon="35.33461975"><ele>928.5</ele><time>2015-11-26T11:23:26.0000000+00:00</time></trkpt><trkpt lat="29.9277732" lon="35.33477523"><ele>928.8</ele><time>2015-11-26T11:23:43.0000000+00:00</time></trkpt><trkpt lat="29.9269511" lon="35.33548107"><ele>927.5</ele><time>2015-11-26T11:24:04.0000000+00:00</time></trkpt><trkpt lat="29.92472428" lon="35.33625514"><ele>925.3</ele><time>2015-11-26T11:24:46.0000000+00:00</time></trkpt><trkpt lat="29.92188927" lon="35.3357021"><ele>920.8</ele><time>2015-11-26T11:25:35.0000000+00:00</time></trkpt><trkpt lat="29.92102643" lon="35.33542416"><ele>919.2</ele><time>2015-11-26T11:25:53.0000000+00:00</time></trkpt><trkpt lat="29.91999119" lon="35.33476995"><ele>920.7</ele><time>2015-11-26T11:26:21.0000000+00:00</time></trkpt><trkpt lat="29.9181216" lon="35.33419127"><ele>915.5</ele><time>2015-11-26T11:27:02.0000000+00:00</time></trkpt><trkpt lat="29.91635269" lon="35.33323959"><ele>912.4</ele><time>2015-11-26T11:28:12.0000000+00:00</time></trkpt><trkpt lat="29.91491083" lon="35.33219956"><ele>909.7</ele><time>2015-11-26T11:28:50.0000000+00:00</time></trkpt><trkpt lat="29.91374969" lon="35.33166169"><ele>907.2</ele><time>2015-11-26T11:29:13.0000000+00:00</time></trkpt><trkpt lat="29.91344215" lon="35.33021238"><ele>904.8</ele><time>2015-11-26T11:29:42.0000000+00:00</time></trkpt><trkpt lat="29.91319078" lon="35.32972422"><ele>903.9</ele><time>2015-11-26T11:30:34.0000000+00:00</time></trkpt><trkpt lat="29.91312129" lon="35.33010517"><ele>904.6</ele><time>2015-11-26T11:31:51.0000000+00:00</time></trkpt><trkpt lat="29.90985638" lon="35.32993854"><ele>899.8</ele><time>2015-11-26T11:32:54.0000000+00:00</time></trkpt><trkpt lat="29.90892062" lon="35.32940302"><ele>898.5</ele><time>2015-11-26T11:34:16.0000000+00:00</time></trkpt><trkpt lat="29.90825065" lon="35.32863901"><ele>898.9</ele><time>2015-11-26T11:36:18.0000000+00:00</time></trkpt><trkpt lat="29.90682263" lon="35.3282381"><ele>901.8</ele><time>2015-11-26T11:37:16.0000000+00:00</time></trkpt><trkpt lat="29.90605661" lon="35.32774198"><ele>903.4</ele><time>2015-11-26T11:37:46.0000000+00:00</time></trkpt><trkpt lat="29.90651837" lon="35.3259832"><ele>907.3</ele><time>2015-11-26T11:38:43.0000000+00:00</time></trkpt><trkpt lat="29.90404327" lon="35.32434664"><ele>906.7</ele><time>2015-11-26T11:41:45.0000000+00:00</time></trkpt><trkpt lat="29.90190337" lon="35.32248619"><ele>906.4</ele><time>2015-11-26T11:43:23.0000000+00:00</time></trkpt><trkpt lat="29.90159735" lon="35.32191723"><ele>907.5</ele><time>2015-11-26T11:43:40.0000000+00:00</time></trkpt><trkpt lat="29.90065481" lon="35.32097409"><ele>908.3</ele><time>2015-11-26T11:44:16.0000000+00:00</time></trkpt><trkpt lat="29.89992348" lon="35.32049356"><ele>907.6</ele><time>2015-11-26T11:44:37.0000000+00:00</time></trkpt><trkpt lat="29.89964881" lon="35.32006449"><ele>905.5</ele><time>2015-11-26T11:44:46.0000000+00:00</time></trkpt><trkpt lat="29.89914313" lon="35.31971253"><ele>906.9</ele><time>2015-11-26T11:45:02.0000000+00:00</time></trkpt><trkpt lat="29.89816714" lon="35.31935781"><ele>904.7</ele><time>2015-11-26T11:45:30.0000000+00:00</time></trkpt><trkpt lat="29.89723591" lon="35.31947843"><ele>903.2</ele><time>2015-11-26T11:45:49.0000000+00:00</time></trkpt><trkpt lat="29.89658481" lon="35.31935639"><ele>901.5</ele><time>2015-11-26T11:46:01.0000000+00:00</time></trkpt><trkpt lat="29.89628264" lon="35.31913477"><ele>900.8</ele><time>2015-11-26T11:46:08.0000000+00:00</time></trkpt><trkpt lat="29.89596739" lon="35.31802593"><ele>903.0</ele><time>2015-11-26T11:46:36.0000000+00:00</time></trkpt><trkpt lat="29.89574594" lon="35.31769761"><ele>903.5</ele><time>2015-11-26T11:46:45.0000000+00:00</time></trkpt><trkpt lat="29.89500917" lon="35.31719042"><ele>903.7</ele><time>2015-11-26T11:47:07.0000000+00:00</time></trkpt><trkpt lat="29.89365022" lon="35.31688649"><ele>904.8</ele><time>2015-11-26T11:47:47.0000000+00:00</time></trkpt><trkpt lat="29.89150487" lon="35.3144352"><ele>905.3</ele><time>2015-11-26T11:49:05.0000000+00:00</time></trkpt><trkpt lat="29.89052695" lon="35.31355661"><ele>906.7</ele><time>2015-11-26T11:49:36.0000000+00:00</time></trkpt><trkpt lat="29.88903648" lon="35.3128895"><ele>907.8</ele><time>2015-11-26T11:50:17.0000000+00:00</time></trkpt><trkpt lat="29.88824062" lon="35.31195072"><ele>909.7</ele><time>2015-11-26T11:50:57.0000000+00:00</time></trkpt><trkpt lat="29.88747401" lon="35.31154638"><ele>911.1</ele><time>2015-11-26T11:51:45.0000000+00:00</time></trkpt><trkpt lat="29.88661705" lon="35.31187596"><ele>912.0</ele><time>2015-11-26T11:52:18.0000000+00:00</time></trkpt><trkpt lat="29.88241989" lon="35.3127367"><ele>911.9</ele><time>2015-11-26T11:54:02.0000000+00:00</time></trkpt><trkpt lat="29.88176392" lon="35.31325109"><ele>911.1</ele><time>2015-11-26T11:54:22.0000000+00:00</time></trkpt><trkpt lat="29.88103026" lon="35.31348134"><ele>909.6</ele><time>2015-11-26T11:54:47.0000000+00:00</time></trkpt><trkpt lat="29.88137626" lon="35.31295002"><ele>911.7</ele><time>2015-11-26T12:05:09.0000000+00:00</time></trkpt><trkpt lat="29.88084032" lon="35.31353884"><ele>909.5</ele><time>2015-11-26T12:32:38.0000000+00:00</time></trkpt><trkpt lat="29.88045283" lon="35.31361814"><ele>910.0</ele><time>2015-11-26T12:32:50.0000000+00:00</time></trkpt><trkpt lat="29.87954892" lon="35.31430629"><ele>908.6</ele><time>2015-11-26T12:33:40.0000000+00:00</time></trkpt><trkpt lat="29.87676772" lon="35.31457149"><ele>909.4</ele><time>2015-11-26T12:35:14.0000000+00:00</time></trkpt><trkpt lat="29.87529108" lon="35.31438248"><ele>910.6</ele><time>2015-11-26T12:35:50.0000000+00:00</time></trkpt><trkpt lat="29.87409364" lon="35.31499436"><ele>907.9</ele><time>2015-11-26T12:36:30.0000000+00:00</time></trkpt><trkpt lat="29.87317943" lon="35.31570699"><ele>904.9</ele><time>2015-11-26T12:36:58.0000000+00:00</time></trkpt><trkpt lat="29.87250418" lon="35.31573708"><ele>905.4</ele><time>2015-11-26T12:37:17.0000000+00:00</time></trkpt><trkpt lat="29.87034501" lon="35.31687082"><ele>899.4</ele><time>2015-11-26T12:38:06.0000000+00:00</time></trkpt><trkpt lat="29.86990135" lon="35.31729746"><ele>897.6</ele><time>2015-11-26T12:38:17.0000000+00:00</time></trkpt><trkpt lat="29.86515879" lon="35.32013071"><ele>884.0</ele><time>2015-11-26T12:40:10.0000000+00:00</time></trkpt><trkpt lat="29.86234322" lon="35.32237639"><ele>875.2</ele><time>2015-11-26T12:41:22.0000000+00:00</time></trkpt><trkpt lat="29.86161986" lon="35.32270152"><ele>873.0</ele><time>2015-11-26T12:41:39.0000000+00:00</time></trkpt><trkpt lat="29.86007231" lon="35.32408185"><ele>868.2</ele><time>2015-11-26T12:42:28.0000000+00:00</time></trkpt><trkpt lat="29.85813727" lon="35.32498291"><ele>864.2</ele><time>2015-11-26T12:43:13.0000000+00:00</time></trkpt><trkpt lat="29.85762094" lon="35.32559504"><ele>862.7</ele><time>2015-11-26T12:43:30.0000000+00:00</time></trkpt><trkpt lat="29.85511509" lon="35.32747451"><ele>857.1</ele><time>2015-11-26T12:44:37.0000000+00:00</time></trkpt><trkpt lat="29.84985578" lon="35.32955163"><ele>847.9</ele><time>2015-11-26T12:46:45.0000000+00:00</time></trkpt><trkpt lat="29.84747607" lon="35.33132491"><ele>843.4</ele><time>2015-11-26T12:47:53.0000000+00:00</time></trkpt><trkpt lat="29.84286695" lon="35.33205933"><ele>838.5</ele><time>2015-11-26T12:49:41.0000000+00:00</time></trkpt><trkpt lat="29.83759012" lon="35.33071915"><ele>834.6</ele><time>2015-11-26T12:51:43.0000000+00:00</time></trkpt><trkpt lat="29.83432193" lon="35.32490605"><ele>839.9</ele><time>2015-11-26T12:54:32.0000000+00:00</time></trkpt><trkpt lat="29.83367259" lon="35.32419945"><ele>841.9</ele><time>2015-11-26T12:54:58.0000000+00:00</time></trkpt><trkpt lat="29.81773306" lon="35.31751706"><ele>826.9</ele><time>2015-11-26T13:00:34.0000000+00:00</time></trkpt><trkpt lat="29.81454131" lon="35.31348185"><ele>833.8</ele><time>2015-11-26T13:02:46.0000000+00:00</time></trkpt><trkpt lat="29.81197838" lon="35.31124564"><ele>833.6</ele><time>2015-11-26T13:03:40.0000000+00:00</time></trkpt><trkpt lat="29.80915736" lon="35.30956842"><ele>837.9</ele><time>2015-11-26T13:04:39.0000000+00:00</time></trkpt><trkpt lat="29.80446098" lon="35.30783303"><ele>831.8</ele><time>2015-11-26T13:06:17.0000000+00:00</time></trkpt><trkpt lat="29.80407617" lon="35.30816613"><ele>830.3</ele><time>2015-11-26T13:07:17.0000000+00:00</time></trkpt><trkpt lat="29.80305567" lon="35.31123944"><ele>817.5</ele><time>2015-11-26T13:08:23.0000000+00:00</time></trkpt><trkpt lat="29.80188933" lon="35.31082436"><ele>816.8</ele><time>2015-11-26T13:22:15.0000000+00:00</time></trkpt><trkpt lat="29.80282375" lon="35.31141956"><ele>816.8</ele><time>2015-11-26T13:23:09.0000000+00:00</time></trkpt><trkpt lat="29.79985395" lon="35.31571864"><ele>803.1</ele><time>2015-11-26T13:24:38.0000000+00:00</time></trkpt><trkpt lat="29.79945229" lon="35.31555804"><ele>801.9</ele><time>2015-11-26T13:24:52.0000000+00:00</time></trkpt><trkpt lat="29.79924501" lon="35.31567765"><ele>803.5</ele><time>2015-11-26T13:25:02.0000000+00:00</time></trkpt><trkpt lat="29.79803273" lon="35.31550901"><ele>802.4</ele><time>2015-11-26T13:25:43.0000000+00:00</time></trkpt><trkpt lat="29.79701073" lon="35.31592534"><ele>801.5</ele><time>2015-11-26T13:26:10.0000000+00:00</time></trkpt><trkpt lat="29.796569" lon="35.31646069"><ele>802.2</ele><time>2015-11-26T13:26:24.0000000+00:00</time></trkpt><trkpt lat="29.79590189" lon="35.31780356"><ele>808.5</ele><time>2015-11-26T13:26:55.0000000+00:00</time></trkpt><trkpt lat="29.79347968" lon="35.3206985"><ele>798.9</ele><time>2015-11-26T13:28:02.0000000+00:00</time></trkpt><trkpt lat="29.79131849" lon="35.32528432"><ele>800.1</ele><time>2015-11-26T13:29:39.0000000+00:00</time></trkpt><trkpt lat="29.7894692" lon="35.32459416"><ele>798.9</ele><time>2015-11-26T13:30:21.0000000+00:00</time></trkpt><trkpt lat="29.78923685" lon="35.32466264"><ele>798.8</ele><time>2015-11-26T13:30:27.0000000+00:00</time></trkpt><trkpt lat="29.78787563" lon="35.32885183"><ele>799.6</ele><time>2015-11-26T13:31:42.0000000+00:00</time></trkpt><trkpt lat="29.78676486" lon="35.33293247"><ele>798.6</ele><time>2015-11-26T13:32:54.0000000+00:00</time></trkpt><trkpt lat="29.78660988" lon="35.33306315"><ele>798.2</ele><time>2015-11-26T13:33:00.0000000+00:00</time></trkpt><trkpt lat="29.7853997" lon="35.33230643"><ele>797.1</ele><time>2015-11-26T13:33:29.0000000+00:00</time></trkpt><trkpt lat="29.7850599" lon="35.33232059"><ele>796.9</ele><time>2015-11-26T13:33:37.0000000+00:00</time></trkpt><trkpt lat="29.78487566" lon="35.33519282"><ele>797.2</ele><time>2015-11-26T13:34:28.0000000+00:00</time></trkpt><trkpt lat="29.77561601" lon="35.32778515"><ele>789.5</ele><time>2015-11-26T13:37:53.0000000+00:00</time></trkpt><trkpt lat="29.77381934" lon="35.32964651"><ele>789.1</ele><time>2015-11-26T13:38:44.0000000+00:00</time></trkpt><trkpt lat="29.77460356" lon="35.33040709"><ele>789.3</ele><time>2015-11-26T13:39:05.0000000+00:00</time></trkpt><trkpt lat="29.77574601" lon="35.33405397"><ele>790.9</ele><time>2015-11-26T13:40:10.0000000+00:00</time></trkpt><trkpt lat="29.77640206" lon="35.33417811"><ele>791.2</ele><time>2015-11-26T13:40:23.0000000+00:00</time></trkpt><trkpt lat="29.77653123" lon="35.33436595"><ele>791.6</ele><time>2015-11-26T13:40:27.0000000+00:00</time></trkpt><trkpt lat="29.77639686" lon="35.34302822"><ele>793.4</ele><time>2015-11-26T13:42:39.0000000+00:00</time></trkpt><trkpt lat="29.77626543" lon="35.34389935"><ele>794.6</ele><time>2015-11-26T13:42:54.0000000+00:00</time></trkpt><trkpt lat="29.77184591" lon="35.34403397"><ele>790.3</ele><time>2015-11-26T13:44:01.0000000+00:00</time></trkpt><trkpt lat="29.76146266" lon="35.3399125"><ele>783.6</ele><time>2015-11-26T13:47:19.0000000+00:00</time></trkpt><trkpt lat="29.74888545" lon="35.33964437"><ele>775.2</ele><time>2015-11-26T14:05:42.0000000+00:00</time></trkpt><trkpt lat="29.7485505" lon="35.33990655"><ele>774.2</ele><time>2015-11-26T14:05:52.0000000+00:00</time></trkpt><trkpt lat="29.74798003" lon="35.34148201"><ele>773.3</ele><time>2015-11-26T14:06:56.0000000+00:00</time></trkpt><trkpt lat="29.74407029" lon="35.34959427"><ele>774.5</ele><time>2015-11-26T14:10:29.0000000+00:00</time></trkpt><trkpt lat="29.74325532" lon="35.34791814"><ele>772.8</ele><time>2015-11-26T14:11:18.0000000+00:00</time></trkpt><trkpt lat="29.74242509" lon="35.3469072"><ele>772.6</ele><time>2015-11-26T14:12:08.0000000+00:00</time></trkpt><trkpt lat="29.73839449" lon="35.34977306"><ele>772.9</ele><time>2015-11-26T14:17:41.0000000+00:00</time></trkpt><trkpt lat="29.73690217" lon="35.35027396"><ele>772.4</ele><time>2015-11-26T14:18:35.0000000+00:00</time></trkpt><trkpt lat="29.73636238" lon="35.35063706"><ele>772.6</ele><time>2015-11-26T14:19:23.0000000+00:00</time></trkpt><trkpt lat="29.73557113" lon="35.35045803"><ele>771.7</ele><time>2015-11-26T14:20:36.0000000+00:00</time></trkpt><trkpt lat="29.73539745" lon="35.34984757"><ele>771.6</ele><time>2015-11-26T14:21:01.0000000+00:00</time></trkpt><trkpt lat="29.73505388" lon="35.35015133"><ele>771.8</ele><time>2015-11-26T14:21:28.0000000+00:00</time></trkpt><trkpt lat="29.73356701" lon="35.35002242"><ele>769.4</ele><time>2015-11-26T14:22:09.0000000+00:00</time></trkpt><trkpt lat="29.73326124" lon="35.35021068"><ele>769.4</ele><time>2015-11-26T14:22:19.0000000+00:00</time></trkpt><trkpt lat="29.73275657" lon="35.35146209"><ele>769.5</ele><time>2015-11-26T14:23:23.0000000+00:00</time></trkpt><trkpt lat="29.7325342" lon="35.35167047"><ele>769.4</ele><time>2015-11-26T14:23:46.0000000+00:00</time></trkpt><trkpt lat="29.73002465" lon="35.35355388"><ele>769.8</ele><time>2015-11-26T14:25:28.0000000+00:00</time></trkpt><trkpt lat="29.72882696" lon="35.35376603"><ele>768.4</ele><time>2015-11-26T14:27:17.0000000+00:00</time></trkpt><trkpt lat="29.72880291" lon="35.35481066"><ele>768.8</ele><time>2015-11-26T14:27:49.0000000+00:00</time></trkpt><trkpt lat="29.72866989" lon="35.35487898"><ele>768.8</ele><time>2015-11-26T14:27:55.0000000+00:00</time></trkpt><trkpt lat="29.7280052" lon="35.35462501"><ele>767.9</ele><time>2015-11-26T14:28:30.0000000+00:00</time></trkpt><trkpt lat="29.72754093" lon="35.35323897"><ele>767.8</ele><time>2015-11-26T14:29:49.0000000+00:00</time></trkpt><trkpt lat="29.72726014" lon="35.35329253"><ele>767.6</ele><time>2015-11-26T14:31:09.0000000+00:00</time></trkpt><trkpt lat="29.7258394" lon="35.35190885"><ele>765.0</ele><time>2015-11-26T14:34:30.0000000+00:00</time></trkpt><trkpt lat="29.72537672" lon="35.34995318"><ele>764.6</ele><time>2015-11-26T14:35:17.0000000+00:00</time></trkpt><trkpt lat="29.72471765" lon="35.3492491"><ele>763.9</ele><time>2015-11-26T14:35:39.0000000+00:00</time></trkpt><trkpt lat="29.72378542" lon="35.35036884"><ele>764.4</ele><time>2015-11-26T14:36:19.0000000+00:00</time></trkpt><trkpt lat="29.7226267" lon="35.35627222"><ele>766.3</ele><time>2015-11-26T14:38:34.0000000+00:00</time></trkpt><trkpt lat="29.72222311" lon="35.35703271"><ele>769.9</ele><time>2015-11-26T14:38:55.0000000+00:00</time></trkpt><trkpt lat="29.72080817" lon="35.35695836"><ele>768.4</ele><time>2015-11-26T14:39:44.0000000+00:00</time></trkpt><trkpt lat="29.72034758" lon="35.35649635"><ele>766.0</ele><time>2015-11-26T14:40:05.0000000+00:00</time></trkpt><trkpt lat="29.71949455" lon="35.35621472"><ele>765.8</ele><time>2015-11-26T14:40:34.0000000+00:00</time></trkpt><trkpt lat="29.71873264" lon="35.35647045"><ele>766.4</ele><time>2015-11-26T14:41:18.0000000+00:00</time></trkpt><trkpt lat="29.71582755" lon="35.35642259"><ele>765.9</ele><time>2015-11-26T14:42:45.0000000+00:00</time></trkpt><trkpt lat="29.71574273" lon="35.35867204"><ele>766.7</ele><time>2015-11-26T14:43:44.0000000+00:00</time></trkpt><trkpt lat="29.71624891" lon="35.36079769"><ele>771.1</ele><time>2015-11-26T14:44:44.0000000+00:00</time></trkpt><trkpt lat="29.71681268" lon="35.36129021"><ele>774.1</ele><time>2015-11-26T14:45:06.0000000+00:00</time></trkpt><trkpt lat="29.71764601" lon="35.36404442"><ele>770.2</ele><time>2015-11-26T14:46:08.0000000+00:00</time></trkpt><trkpt lat="29.71811363" lon="35.36657877"><ele>774.7</ele><time>2015-11-26T14:46:52.0000000+00:00</time></trkpt><trkpt lat="29.71774994" lon="35.37016765"><ele>769.6</ele><time>2015-11-26T14:48:37.0000000+00:00</time></trkpt><trkpt lat="29.71739966" lon="35.37070074"><ele>769.4</ele><time>2015-11-26T14:49:07.0000000+00:00</time></trkpt><trkpt lat="29.71570669" lon="35.37230663"><ele>769.9</ele><time>2015-11-26T14:51:16.0000000+00:00</time></trkpt><trkpt lat="29.7151674" lon="35.37306461"><ele>769.3</ele><time>2015-11-26T14:56:52.0000000+00:00</time></trkpt><trkpt lat="29.71402058" lon="35.37544582"><ele>769.4</ele><time>2015-11-26T14:57:52.0000000+00:00</time></trkpt><trkpt lat="29.71230506" lon="35.37820749"><ele>771.4</ele><time>2015-11-26T14:58:58.0000000+00:00</time></trkpt><trkpt lat="29.71172059" lon="35.38018486"><ele>770.0</ele><time>2015-11-26T14:59:37.0000000+00:00</time></trkpt><trkpt lat="29.71085977" lon="35.38430918"><ele>770.1</ele><time>2015-11-26T15:00:49.0000000+00:00</time></trkpt><trkpt lat="29.70984338" lon="35.3868898"><ele>770.2</ele><time>2015-11-26T15:01:48.0000000+00:00</time></trkpt><trkpt lat="29.70898314" lon="35.38822697"><ele>770.4</ele><time>2015-11-26T15:02:26.0000000+00:00</time></trkpt><trkpt lat="29.70825761" lon="35.39033233"><ele>770.2</ele><time>2015-11-26T15:03:25.0000000+00:00</time></trkpt><trkpt lat="29.70663562" lon="35.39339474"><ele>770.8</ele><time>2015-11-26T15:04:44.0000000+00:00</time></trkpt><trkpt lat="29.70316753" lon="35.39874491"><ele>770.9</ele><time>2015-11-26T15:08:13.0000000+00:00</time></trkpt><trkpt lat="29.70244216" lon="35.40018526"><ele>770.7</ele><time>2015-11-26T15:08:54.0000000+00:00</time></trkpt><trkpt lat="29.70143968" lon="35.40279429"><ele>770.7</ele><time>2015-11-26T15:10:28.0000000+00:00</time></trkpt><trkpt lat="29.70084541" lon="35.4027632"><ele>770.8</ele><time>2015-11-26T15:11:08.0000000+00:00</time></trkpt><trkpt lat="29.69737664" lon="35.40183532"><ele>773.2</ele><time>2015-11-26T15:15:10.0000000+00:00</time></trkpt><trkpt lat="29.69681329" lon="35.40184798"><ele>775.2</ele><time>2015-11-26T15:19:18.0000000+00:00</time></trkpt><trkpt lat="29.6962849" lon="35.40373298"><ele>778.3</ele><time>2015-11-26T15:26:36.0000000+00:00</time></trkpt><trkpt lat="29.68766746" lon="35.42065563"><ele>790.9</ele><time>2015-11-26T15:32:15.0000000+00:00</time></trkpt><trkpt lat="29.67925538" lon="35.42903225"><ele>801.3</ele><time>2015-11-26T15:37:12.0000000+00:00</time></trkpt></trkseg><trkseg><trkpt lat="29.64030904" lon="35.43417832"><ele>841.2</ele><time>2015-11-27T07:43:40.0000000+00:00</time></trkpt><trkpt lat="29.6404553" lon="35.43397984"><ele>836.7</ele><time>2015-11-27T07:46:07.0000000+00:00</time></trkpt><trkpt lat="29.63953187" lon="35.43389945"><ele>838.4</ele><time>2015-11-27T07:47:21.0000000+00:00</time></trkpt><trkpt lat="29.62273336" lon="35.42737121"><ele>855.6</ele><time>2015-11-27T07:56:48.0000000+00:00</time></trkpt><trkpt lat="29.620558" lon="35.42711053"><ele>859.1</ele><time>2015-11-27T07:57:28.0000000+00:00</time></trkpt><trkpt lat="29.61626496" lon="35.42690936"><ele>872.3</ele><time>2015-11-27T07:59:13.0000000+00:00</time></trkpt><trkpt lat="29.60645461" lon="35.42563272"><ele>891.7</ele><time>2015-11-27T08:02:41.0000000+00:00</time></trkpt><trkpt lat="29.60467639" lon="35.42373313"><ele>898.8</ele><time>2015-11-27T08:03:37.0000000+00:00</time></trkpt><trkpt lat="29.60387567" lon="35.42328587"><ele>900.9</ele><time>2015-11-27T08:03:56.0000000+00:00</time></trkpt><trkpt lat="29.60201933" lon="35.42280357"><ele>904.1</ele><time>2015-11-27T08:04:32.0000000+00:00</time></trkpt><trkpt lat="29.59578705" lon="35.4216602"><ele>919.9</ele><time>2015-11-27T08:06:45.0000000+00:00</time></trkpt><trkpt lat="29.5790468" lon="35.4208267"><ele>948.6</ele><time>2015-11-27T08:13:34.0000000+00:00</time></trkpt><trkpt lat="29.57317578" lon="35.41822127"><ele>961.1</ele><time>2015-11-27T08:16:22.0000000+00:00</time></trkpt><trkpt lat="29.57157173" lon="35.41882594"><ele>955.3</ele><time>2015-11-27T08:17:04.0000000+00:00</time></trkpt><trkpt lat="29.57172277" lon="35.41876903"><ele>955.7</ele><time>2015-11-27T08:17:19.0000000+00:00</time></trkpt><trkpt lat="29.56807338" lon="35.41816922"><ele>949.6</ele><time>2015-11-27T08:19:48.0000000+00:00</time></trkpt><trkpt lat="29.56589559" lon="35.41850676"><ele>948.2</ele><time>2015-11-27T08:21:09.0000000+00:00</time></trkpt><trkpt lat="29.56491164" lon="35.41852553"><ele>950.7</ele><time>2015-11-27T08:21:56.0000000+00:00</time></trkpt><trkpt lat="29.56407261" lon="35.41826695"><ele>953.1</ele><time>2015-11-27T08:22:34.0000000+00:00</time></trkpt><trkpt lat="29.56012105" lon="35.41658127"><ele>965.8</ele><time>2015-11-27T08:27:43.0000000+00:00</time></trkpt><trkpt lat="29.55755057" lon="35.41505819"><ele>973.8</ele><time>2015-11-27T08:30:46.0000000+00:00</time></trkpt><trkpt lat="29.55719023" lon="35.41469618"><ele>974.9</ele><time>2015-11-27T08:35:06.0000000+00:00</time></trkpt><trkpt lat="29.55642756" lon="35.41454748"><ele>975.7</ele><time>2015-11-27T08:36:28.0000000+00:00</time></trkpt><trkpt lat="29.55470374" lon="35.41356387"><ele>976.9</ele><time>2015-11-27T08:38:12.0000000+00:00</time></trkpt><trkpt lat="29.55187694" lon="35.41317293"><ele>974.2</ele><time>2015-11-27T08:40:25.0000000+00:00</time></trkpt><trkpt lat="29.54813744" lon="35.41201372"><ele>972.8</ele><time>2015-11-27T08:41:53.0000000+00:00</time></trkpt><trkpt lat="29.54224362" lon="35.40974767"><ele>982.4</ele><time>2015-11-27T08:45:17.0000000+00:00</time></trkpt><trkpt lat="29.53806717" lon="35.40761196"><ele>993.9</ele><time>2015-11-27T08:48:13.0000000+00:00</time></trkpt><trkpt lat="29.53589785" lon="35.4070606"><ele>996.3</ele><time>2015-11-27T08:50:22.0000000+00:00</time></trkpt><trkpt lat="29.5303321" lon="35.40495532"><ele>1000.4</ele><time>2015-11-27T08:55:10.0000000+00:00</time></trkpt><trkpt lat="29.52764075" lon="35.40408402"><ele>1010.5</ele><time>2015-11-27T08:57:07.0000000+00:00</time></trkpt><trkpt lat="29.52548526" lon="35.4039981"><ele>1014.7</ele><time>2015-11-27T09:00:22.0000000+00:00</time></trkpt><trkpt lat="29.5241595" lon="35.40325019"><ele>1013.9</ele><time>2015-11-27T09:01:22.0000000+00:00</time></trkpt><trkpt lat="29.52184701" lon="35.40151731"><ele>1019.4</ele><time>2015-11-27T09:04:18.0000000+00:00</time></trkpt><trkpt lat="29.51932205" lon="35.40012172"><ele>1024.6</ele><time>2015-11-27T09:11:56.0000000+00:00</time></trkpt><trkpt lat="29.51889516" lon="35.40034175"><ele>1023.2</ele><time>2015-11-27T09:13:30.0000000+00:00</time></trkpt><trkpt lat="29.51802109" lon="35.40028123"><ele>1022.9</ele><time>2015-11-27T09:15:35.0000000+00:00</time></trkpt><trkpt lat="29.51664638" lon="35.39952778"><ele>1025.4</ele><time>2015-11-27T09:19:19.0000000+00:00</time></trkpt><trkpt lat="29.51583602" lon="35.3994293"><ele>1025.1</ele><time>2015-11-27T09:20:55.0000000+00:00</time></trkpt><trkpt lat="29.51419668" lon="35.39863628"><ele>1026.0</ele><time>2015-11-27T09:24:19.0000000+00:00</time></trkpt><trkpt lat="29.51297611" lon="35.39836781"><ele>1023.9</ele><time>2015-11-27T09:27:54.0000000+00:00</time></trkpt><trkpt lat="29.51037495" lon="35.39634191"><ele>1024.2</ele><time>2015-11-27T09:33:06.0000000+00:00</time></trkpt><trkpt lat="29.50741564" lon="35.39491648"><ele>1020.7</ele><time>2015-11-27T09:35:09.0000000+00:00</time></trkpt><trkpt lat="29.50567053" lon="35.39425523"><ele>1017.8</ele><time>2015-11-27T09:36:06.0000000+00:00</time></trkpt><trkpt lat="29.50436044" lon="35.39351"><ele>1017.5</ele><time>2015-11-27T09:36:50.0000000+00:00</time></trkpt><trkpt lat="29.50269076" lon="35.39226436"><ele>1014.2</ele><time>2015-11-27T09:37:58.0000000+00:00</time></trkpt><trkpt lat="29.50141872" lon="35.39171258"><ele>1013.0</ele><time>2015-11-27T09:38:49.0000000+00:00</time></trkpt><trkpt lat="29.49988643" lon="35.39170311"><ele>1013.7</ele><time>2015-11-27T09:39:45.0000000+00:00</time></trkpt><trkpt lat="29.49950287" lon="35.39154922"><ele>1013.0</ele><time>2015-11-27T09:40:00.0000000+00:00</time></trkpt><trkpt lat="29.49932735" lon="35.39129164"><ele>1013.2</ele><time>2015-11-27T09:51:31.0000000+00:00</time></trkpt><trkpt lat="29.49873366" lon="35.3914711"><ele>1013.7</ele><time>2015-11-27T09:56:43.0000000+00:00</time></trkpt><trkpt lat="29.49803939" lon="35.39136942"><ele>1015.0</ele><time>2015-11-27T09:58:16.0000000+00:00</time></trkpt><trkpt lat="29.49794015" lon="35.39092099"><ele>1013.6</ele><time>2015-11-27T09:59:13.0000000+00:00</time></trkpt><trkpt lat="29.49689283" lon="35.38955013"><ele>1008.6</ele><time>2015-11-27T10:00:11.0000000+00:00</time></trkpt><trkpt lat="29.49686768" lon="35.38915887"><ele>1007.3</ele><time>2015-11-27T10:00:26.0000000+00:00</time></trkpt><trkpt lat="29.49659267" lon="35.38867774"><ele>1005.9</ele><time>2015-11-27T10:12:27.0000000+00:00</time></trkpt><trkpt lat="29.49534964" lon="35.38812898"><ele>1007.7</ele><time>2015-11-27T10:13:46.0000000+00:00</time></trkpt><trkpt lat="29.49318199" lon="35.3877647"><ele>1009.6</ele><time>2015-11-27T10:15:47.0000000+00:00</time></trkpt><trkpt lat="29.49147921" lon="35.38657087"><ele>1001.1</ele><time>2015-11-27T10:16:21.0000000+00:00</time></trkpt><trkpt lat="29.48972723" lon="35.38573704"><ele>996.7</ele><time>2015-11-27T10:17:38.0000000+00:00</time></trkpt><trkpt lat="29.48882869" lon="35.38502256"><ele>994.5</ele><time>2015-11-27T10:18:08.0000000+00:00</time></trkpt><trkpt lat="29.48741692" lon="35.38305047"><ele>990.4</ele><time>2015-11-27T10:20:15.0000000+00:00</time></trkpt><trkpt lat="29.48637329" lon="35.38197708"><ele>987.6</ele><time>2015-11-27T10:22:13.0000000+00:00</time></trkpt><trkpt lat="29.4860531" lon="35.38138398"><ele>986.2</ele><time>2015-11-27T10:27:36.0000000+00:00</time></trkpt><trkpt lat="29.48609476" lon="35.38051159"><ele>982.3</ele><time>2015-11-27T10:28:38.0000000+00:00</time></trkpt><trkpt lat="29.48580047" lon="35.37982218"><ele>979.3</ele><time>2015-11-27T10:29:00.0000000+00:00</time></trkpt><trkpt lat="29.48644814" lon="35.37886597"><ele>976.3</ele><time>2015-11-27T10:30:13.0000000+00:00</time></trkpt><trkpt lat="29.48773208" lon="35.37755789"><ele>974.1</ele><time>2015-11-27T10:35:00.0000000+00:00</time></trkpt><trkpt lat="29.48785052" lon="35.3764141"><ele>971.0</ele><time>2015-11-27T10:36:52.0000000+00:00</time></trkpt><trkpt lat="29.48853356" lon="35.37566015"><ele>972.3</ele><time>2015-11-27T10:38:09.0000000+00:00</time></trkpt><trkpt lat="29.48866909" lon="35.37528858"><ele>972.3</ele><time>2015-11-27T10:38:51.0000000+00:00</time></trkpt><trkpt lat="29.48723554" lon="35.37397354"><ele>967.5</ele><time>2015-11-27T10:40:59.0000000+00:00</time></trkpt><trkpt lat="29.48702456" lon="35.37305413"><ele>966.4</ele><time>2015-11-27T10:41:49.0000000+00:00</time></trkpt><trkpt lat="29.48699045" lon="35.3717033"><ele>965.4</ele><time>2015-11-27T10:42:21.0000000+00:00</time></trkpt><trkpt lat="29.48666548" lon="35.37121749"><ele>964.0</ele><time>2015-11-27T10:42:36.0000000+00:00</time></trkpt><trkpt lat="29.48601765" lon="35.37077794"><ele>961.4</ele><time>2015-11-27T10:43:06.0000000+00:00</time></trkpt><trkpt lat="29.48600549" lon="35.36989868"><ele>960.4</ele><time>2015-11-27T10:43:44.0000000+00:00</time></trkpt><trkpt lat="29.48636021" lon="35.3690568"><ele>960.9</ele><time>2015-11-27T10:45:24.0000000+00:00</time></trkpt><trkpt lat="29.48638737" lon="35.36862044"><ele>960.7</ele><time>2015-11-27T10:45:39.0000000+00:00</time></trkpt><trkpt lat="29.48565035" lon="35.36724069"><ele>956.4</ele><time>2015-11-27T10:46:26.0000000+00:00</time></trkpt><trkpt lat="29.48537425" lon="35.36509308"><ele>951.8</ele><time>2015-11-27T10:47:26.0000000+00:00</time></trkpt><trkpt lat="29.48494451" lon="35.36375432"><ele>948.5</ele><time>2015-11-27T10:48:14.0000000+00:00</time></trkpt><trkpt lat="29.48549797" lon="35.36066802"><ele>947.7</ele><time>2015-11-27T10:51:31.0000000+00:00</time></trkpt><trkpt lat="29.48582704" lon="35.3597834"><ele>947.6</ele><time>2015-11-27T10:52:02.0000000+00:00</time></trkpt><trkpt lat="29.48572537" lon="35.35882451"><ele>946.6</ele><time>2015-11-27T10:52:52.0000000+00:00</time></trkpt><trkpt lat="29.48592201" lon="35.3548887"><ele>936.9</ele><time>2015-11-27T10:54:58.0000000+00:00</time></trkpt><trkpt lat="29.48580885" lon="35.35476515"><ele>936.4</ele><time>2015-11-27T10:55:15.0000000+00:00</time></trkpt><trkpt lat="29.48577055" lon="35.35292088"><ele>931.5</ele><time>2015-11-27T10:56:08.0000000+00:00</time></trkpt><trkpt lat="29.48594933" lon="35.35188471"><ele>929.5</ele><time>2015-11-27T10:57:59.0000000+00:00</time></trkpt><trkpt lat="29.48592637" lon="35.35102255"><ele>928.7</ele><time>2015-11-27T10:59:09.0000000+00:00</time></trkpt><trkpt lat="29.48645384" lon="35.35029718"><ele>925.8</ele><time>2015-11-27T11:00:15.0000000+00:00</time></trkpt><trkpt lat="29.486898" lon="35.34855885"><ele>922.3</ele><time>2015-11-27T11:02:06.0000000+00:00</time></trkpt><trkpt lat="29.48735607" lon="35.34835559"><ele>921.7</ele><time>2015-11-27T11:03:03.0000000+00:00</time></trkpt><trkpt lat="29.48800776" lon="35.34734415"><ele>918.8</ele><time>2015-11-27T11:04:18.0000000+00:00</time></trkpt><trkpt lat="29.48843817" lon="35.34716184"><ele>918.7</ele><time>2015-11-27T11:04:38.0000000+00:00</time></trkpt><trkpt lat="29.48931224" lon="35.34447695"><ele>913.1</ele><time>2015-11-27T11:05:35.0000000+00:00</time></trkpt><trkpt lat="29.48965925" lon="35.34329368"><ele>910.6</ele><time>2015-11-27T11:06:01.0000000+00:00</time></trkpt><trkpt lat="29.48956034" lon="35.34303853"><ele>910.2</ele><time>2015-11-27T11:06:27.0000000+00:00</time></trkpt><trkpt lat="29.48981993" lon="35.34243805"><ele>908.8</ele><time>2015-11-27T11:07:18.0000000+00:00</time></trkpt><trkpt lat="29.48982026" lon="35.33933977"><ele>908.9</ele><time>2015-11-27T11:08:43.0000000+00:00</time></trkpt><trkpt lat="29.49217466" lon="35.33217919"><ele>903.7</ele><time>2015-11-27T11:11:38.0000000+00:00</time></trkpt><trkpt lat="29.49255897" lon="35.33038186"><ele>901.8</ele><time>2015-11-27T11:13:00.0000000+00:00</time></trkpt><trkpt lat="29.49327361" lon="35.32864077"><ele>904.6</ele><time>2015-11-27T11:15:07.0000000+00:00</time></trkpt><trkpt lat="29.49583394" lon="35.32078525"><ele>904.7</ele><time>2015-11-27T11:18:54.0000000+00:00</time></trkpt><trkpt lat="29.4969168" lon="35.31679161"><ele>902.0</ele><time>2015-11-27T11:20:48.0000000+00:00</time></trkpt><trkpt lat="29.49801584" lon="35.31473829"><ele>903.9</ele><time>2015-11-27T11:21:52.0000000+00:00</time></trkpt><trkpt lat="29.49824592" lon="35.31165635"><ele>901.9</ele><time>2015-11-27T11:23:26.0000000+00:00</time></trkpt><trkpt lat="29.50143582" lon="35.30062853"><ele>909.3</ele><time>2015-11-27T11:29:31.0000000+00:00</time></trkpt><trkpt lat="29.50169876" lon="35.29728424"><ele>907.5</ele><time>2015-11-27T11:31:15.0000000+00:00</time></trkpt><trkpt lat="29.50183044" lon="35.29690211"><ele>907.4</ele><time>2015-11-27T11:31:25.0000000+00:00</time></trkpt><trkpt lat="29.50172257" lon="35.29661159"><ele>909.6</ele><time>2015-11-27T11:54:22.0000000+00:00</time></trkpt><trkpt lat="29.50182013" lon="35.29679348"><ele>907.6</ele><time>2015-11-27T11:55:34.0000000+00:00</time></trkpt><trkpt lat="29.50198048" lon="35.29666272"><ele>907.2</ele><time>2015-11-27T11:56:55.0000000+00:00</time></trkpt><trkpt lat="29.50215784" lon="35.29611681"><ele>906.8</ele><time>2015-11-27T11:57:43.0000000+00:00</time></trkpt><trkpt lat="29.50223168" lon="35.29183147"><ele>895.5</ele><time>2015-11-27T11:59:25.0000000+00:00</time></trkpt><trkpt lat="29.50256109" lon="35.28676864"><ele>882.9</ele><time>2015-11-27T12:01:28.0000000+00:00</time></trkpt><trkpt lat="29.50250091" lon="35.28515738"><ele>877.8</ele><time>2015-11-27T12:02:04.0000000+00:00</time></trkpt><trkpt lat="29.50286745" lon="35.2812334"><ele>866.5</ele><time>2015-11-27T12:03:33.0000000+00:00</time></trkpt><trkpt lat="29.50297751" lon="35.27820426"><ele>859.1</ele><time>2015-11-27T12:04:40.0000000+00:00</time></trkpt><trkpt lat="29.50320658" lon="35.27627106"><ele>854.3</ele><time>2015-11-27T12:05:16.0000000+00:00</time></trkpt><trkpt lat="29.50335712" lon="35.27612655"><ele>853.9</ele><time>2015-11-27T12:05:44.0000000+00:00</time></trkpt><trkpt lat="29.50343273" lon="35.27556337"><ele>852.7</ele><time>2015-11-27T12:06:23.0000000+00:00</time></trkpt><trkpt lat="29.50361134" lon="35.27147778"><ele>845.6</ele><time>2015-11-27T12:09:38.0000000+00:00</time></trkpt><trkpt lat="29.50402508" lon="35.27037447"><ele>842.6</ele><time>2015-11-27T12:11:21.0000000+00:00</time></trkpt><trkpt lat="29.50421954" lon="35.26847295"><ele>839.2</ele><time>2015-11-27T12:15:33.0000000+00:00</time></trkpt><trkpt lat="29.50405768" lon="35.26659566"><ele>834.8</ele><time>2015-11-27T12:17:09.0000000+00:00</time></trkpt><trkpt lat="29.50411946" lon="35.2639386"><ele>829.6</ele><time>2015-11-27T12:18:54.0000000+00:00</time></trkpt><trkpt lat="29.50374101" lon="35.26323242"><ele>828.0</ele><time>2015-11-27T12:19:19.0000000+00:00</time></trkpt><trkpt lat="29.50319049" lon="35.261678"><ele>824.5</ele><time>2015-11-27T12:19:59.0000000+00:00</time></trkpt><trkpt lat="29.50299368" lon="35.26044494"><ele>822.2</ele><time>2015-11-27T12:23:15.0000000+00:00</time></trkpt><trkpt lat="29.50276586" lon="35.26012039"><ele>821.4</ele><time>2015-11-27T12:24:19.0000000+00:00</time></trkpt><trkpt lat="29.50252782" lon="35.25844937"><ele>819.1</ele><time>2015-11-27T12:25:14.0000000+00:00</time></trkpt><trkpt lat="29.50200981" lon="35.25705286"><ele>816.1</ele><time>2015-11-27T12:27:39.0000000+00:00</time></trkpt><trkpt lat="29.50169248" lon="35.25553389"><ele>813.3</ele><time>2015-11-27T12:29:54.0000000+00:00</time></trkpt><trkpt lat="29.50172299" lon="35.25412129"><ele>809.5</ele><time>2015-11-27T12:31:59.0000000+00:00</time></trkpt><trkpt lat="29.5015048" lon="35.25336977"><ele>807.7</ele><time>2015-11-27T12:33:20.0000000+00:00</time></trkpt><trkpt lat="29.5010412" lon="35.25263744"><ele>806.3</ele><time>2015-11-27T12:34:40.0000000+00:00</time></trkpt><trkpt lat="29.50067416" lon="35.25157956"><ele>805.6</ele><time>2015-11-27T12:35:22.0000000+00:00</time></trkpt><trkpt lat="29.50036319" lon="35.25000787"><ele>801.1</ele><time>2015-11-27T12:36:47.0000000+00:00</time></trkpt><trkpt lat="29.49928871" lon="35.24818883"><ele>797.0</ele><time>2015-11-27T12:38:32.0000000+00:00</time></trkpt><trkpt lat="29.49943682" lon="35.24798239"><ele>796.1</ele><time>2015-11-27T12:38:51.0000000+00:00</time></trkpt><trkpt lat="29.49931721" lon="35.24755265"><ele>795.1</ele><time>2015-11-27T12:39:03.0000000+00:00</time></trkpt><trkpt lat="29.49829806" lon="35.24618782"><ele>791.7</ele><time>2015-11-27T12:39:52.0000000+00:00</time></trkpt><trkpt lat="29.49523841" lon="35.24296791"><ele>782.0</ele><time>2015-11-27T12:43:04.0000000+00:00</time></trkpt><trkpt lat="29.49224657" lon="35.24100043"><ele>775.2</ele><time>2015-11-27T12:45:10.0000000+00:00</time></trkpt><trkpt lat="29.49210031" lon="35.24012527"><ele>773.2</ele><time>2015-11-27T12:46:17.0000000+00:00</time></trkpt><trkpt lat="29.49121585" lon="35.23941893"><ele>771.2</ele><time>2015-11-27T12:46:49.0000000+00:00</time></trkpt><trkpt lat="29.49038814" lon="35.2384048"><ele>768.6</ele><time>2015-11-27T12:47:21.0000000+00:00</time></trkpt><trkpt lat="29.48948616" lon="35.23771414"><ele>766.0</ele><time>2015-11-27T12:47:44.0000000+00:00</time></trkpt><trkpt lat="29.48884394" lon="35.23751674"><ele>764.3</ele><time>2015-11-27T12:48:00.0000000+00:00</time></trkpt><trkpt lat="29.48727435" lon="35.23620422"><ele>760.1</ele><time>2015-11-27T12:48:56.0000000+00:00</time></trkpt><trkpt lat="29.48689867" lon="35.23562335"><ele>759.3</ele><time>2015-11-27T13:01:43.0000000+00:00</time></trkpt><trkpt lat="29.48603265" lon="35.23560156"><ele>757.3</ele><time>2015-11-27T13:04:54.0000000+00:00</time></trkpt><trkpt lat="29.48407581" lon="35.2350393"><ele>753.5</ele><time>2015-11-27T13:05:51.0000000+00:00</time></trkpt><trkpt lat="29.47959241" lon="35.23271291"><ele>743.3</ele><time>2015-11-27T13:08:03.0000000+00:00</time></trkpt><trkpt lat="29.47890133" lon="35.23211469"><ele>741.3</ele><time>2015-11-27T13:08:27.0000000+00:00</time></trkpt><trkpt lat="29.47625164" lon="35.23135277"><ele>736.0</ele><time>2015-11-27T13:09:46.0000000+00:00</time></trkpt><trkpt lat="29.4750257" lon="35.23058466"><ele>733.6</ele><time>2015-11-27T13:10:24.0000000+00:00</time></trkpt><trkpt lat="29.47270115" lon="35.22784822"><ele>726.6</ele><time>2015-11-27T13:11:58.0000000+00:00</time></trkpt><trkpt lat="29.47217208" lon="35.22671213"><ele>724.8</ele><time>2015-11-27T13:12:30.0000000+00:00</time></trkpt><trkpt lat="29.47140464" lon="35.22292594"><ele>719.1</ele><time>2015-11-27T13:14:14.0000000+00:00</time></trkpt><trkpt lat="29.47049051" lon="35.2198119"><ele>714.8</ele><time>2015-11-27T13:15:54.0000000+00:00</time></trkpt><trkpt lat="29.46884187" lon="35.21773327"><ele>710.9</ele><time>2015-11-27T13:18:07.0000000+00:00</time></trkpt><trkpt lat="29.46884799" lon="35.2174679"><ele>710.5</ele><time>2015-11-27T13:18:28.0000000+00:00</time></trkpt><trkpt lat="29.46848296" lon="35.21671453"><ele>711.0</ele><time>2015-11-27T13:19:06.0000000+00:00</time></trkpt><trkpt lat="29.46718192" lon="35.21471671"><ele>706.1</ele><time>2015-11-27T13:20:39.0000000+00:00</time></trkpt><trkpt lat="29.46717119" lon="35.21445855"><ele>705.8</ele><time>2015-11-27T13:21:32.0000000+00:00</time></trkpt><trkpt lat="29.4666298" lon="35.21378766"><ele>704.8</ele><time>2015-11-27T13:22:33.0000000+00:00</time></trkpt><trkpt lat="29.46650206" lon="35.21290253"><ele>703.3</ele><time>2015-11-27T13:24:16.0000000+00:00</time></trkpt><trkpt lat="29.46668554" lon="35.2120661"><ele>702.8</ele><time>2015-11-27T13:26:09.0000000+00:00</time></trkpt><trkpt lat="29.46713397" lon="35.21125096"><ele>701.2</ele><time>2015-11-27T13:27:27.0000000+00:00</time></trkpt><trkpt lat="29.46731527" lon="35.21018805"><ele>699.2</ele><time>2015-11-27T13:28:48.0000000+00:00</time></trkpt><trkpt lat="29.46837558" lon="35.20857956"><ele>696.0</ele><time>2015-11-27T13:30:28.0000000+00:00</time></trkpt><trkpt lat="29.46872058" lon="35.20838032"><ele>695.2</ele><time>2015-11-27T13:31:27.0000000+00:00</time></trkpt><trkpt lat="29.46913289" lon="35.20780466"><ele>694.1</ele><time>2015-11-27T13:32:07.0000000+00:00</time></trkpt><trkpt lat="29.47011634" lon="35.20507777"><ele>690.3</ele><time>2015-11-27T13:33:33.0000000+00:00</time></trkpt><trkpt lat="29.47021441" lon="35.20425458"><ele>689.5</ele><time>2015-11-27T13:34:00.0000000+00:00</time></trkpt><trkpt lat="29.46994442" lon="35.20292077"><ele>687.4</ele><time>2015-11-27T13:37:34.0000000+00:00</time></trkpt><trkpt lat="29.47015515" lon="35.20048348"><ele>684.2</ele><time>2015-11-27T13:39:10.0000000+00:00</time></trkpt><trkpt lat="29.47095981" lon="35.19705277"><ele>679.2</ele><time>2015-11-27T13:41:00.0000000+00:00</time></trkpt><trkpt lat="29.47208634" lon="35.19362306"><ele>673.8</ele><time>2015-11-27T13:42:50.0000000+00:00</time></trkpt><trkpt lat="29.4721663" lon="35.19063852"><ele>670.0</ele><time>2015-11-27T13:44:25.0000000+00:00</time></trkpt><trkpt lat="29.47252228" lon="35.18808271"><ele>666.8</ele><time>2015-11-27T13:45:54.0000000+00:00</time></trkpt><trkpt lat="29.47432506" lon="35.18445158"><ele>660.7</ele><time>2015-11-27T13:48:02.0000000+00:00</time></trkpt><trkpt lat="29.47442841" lon="35.18311895"><ele>658.8</ele><time>2015-11-27T13:48:45.0000000+00:00</time></trkpt><trkpt lat="29.47484935" lon="35.1816356"><ele>657.4</ele><time>2015-11-27T13:50:47.0000000+00:00</time></trkpt><trkpt lat="29.47360137" lon="35.18166695"><ele>659.7</ele><time>2015-11-27T14:08:08.0000000+00:00</time></trkpt><trkpt lat="29.47208399" lon="35.18323956"><ele>662.9</ele><time>2015-11-27T14:09:12.0000000+00:00</time></trkpt><trkpt lat="29.47099677" lon="35.18480153"><ele>666.6</ele><time>2015-11-27T14:09:59.0000000+00:00</time></trkpt><trkpt lat="29.47208131" lon="35.18327468"><ele>662.9</ele><time>2015-11-27T14:11:02.0000000+00:00</time></trkpt><trkpt lat="29.47346457" lon="35.18183207"><ele>660.0</ele><time>2015-11-27T14:11:41.0000000+00:00</time></trkpt><trkpt lat="29.47389901" lon="35.18157517"><ele>659.1</ele><time>2015-11-27T14:11:53.0000000+00:00</time></trkpt><trkpt lat="29.47531882" lon="35.18160995"><ele>656.8</ele><time>2015-11-27T14:12:23.0000000+00:00</time></trkpt><trkpt lat="29.4755955" lon="35.18125196"><ele>659.0</ele><time>2015-11-27T14:12:34.0000000+00:00</time></trkpt><trkpt lat="29.47578552" lon="35.18055685"><ele>658.9</ele><time>2015-11-27T14:12:48.0000000+00:00</time></trkpt><trkpt lat="29.47664182" lon="35.17876807"><ele>654.9</ele><time>2015-11-27T14:13:24.0000000+00:00</time></trkpt><trkpt lat="29.47753483" lon="35.17766023"><ele>652.0</ele><time>2015-11-27T14:13:48.0000000+00:00</time></trkpt><trkpt lat="29.47763843" lon="35.17655575"><ele>652.1</ele><time>2015-11-27T14:14:07.0000000+00:00</time></trkpt><trkpt lat="29.47791369" lon="35.1757603"><ele>649.5</ele><time>2015-11-27T14:14:21.0000000+00:00</time></trkpt><trkpt lat="29.48404463" lon="35.16045009"><ele>671.4</ele><time>2015-11-27T14:20:47.0000000+00:00</time></trkpt><trkpt lat="29.48424253" lon="35.16030592"><ele>672.6</ele><time>2015-11-27T14:21:00.0000000+00:00</time></trkpt><trkpt lat="29.49332331" lon="35.1650774"><ele>620.6</ele><time>2015-11-27T14:24:02.0000000+00:00</time></trkpt><trkpt lat="29.49457171" lon="35.16485847"><ele>615.7</ele><time>2015-11-27T14:24:15.0000000+00:00</time></trkpt><trkpt lat="29.49585373" lon="35.16367754"><ele>611.5</ele><time>2015-11-27T14:24:36.0000000+00:00</time></trkpt><trkpt lat="29.4973597" lon="35.16135508"><ele>606.4</ele><time>2015-11-27T14:25:22.0000000+00:00</time></trkpt><trkpt lat="29.5013826" lon="35.15888058"><ele>597.7</ele><time>2015-11-27T14:26:45.0000000+00:00</time></trkpt><trkpt lat="29.50257886" lon="35.15457102"><ele>589.9</ele><time>2015-11-27T14:27:52.0000000+00:00</time></trkpt><trkpt lat="29.50401904" lon="35.15012702"><ele>581.6</ele><time>2015-11-27T14:29:01.0000000+00:00</time></trkpt><trkpt lat="29.504659" lon="35.14832147"><ele>579.1</ele><time>2015-11-27T14:29:30.0000000+00:00</time></trkpt><trkpt lat="29.50600463" lon="35.14567053"><ele>571.0</ele><time>2015-11-27T14:30:13.0000000+00:00</time></trkpt><trkpt lat="29.50765578" lon="35.14369726"><ele>565.5</ele><time>2015-11-27T14:31:42.0000000+00:00</time></trkpt><trkpt lat="29.50932504" lon="35.1420322"><ele>558.5</ele><time>2015-11-27T14:32:24.0000000+00:00</time></trkpt><trkpt lat="29.51252969" lon="35.13927061"><ele>549.3</ele><time>2015-11-27T14:33:36.0000000+00:00</time></trkpt><trkpt lat="29.51480429" lon="35.13587225"><ele>540.8</ele><time>2015-11-27T14:34:43.0000000+00:00</time></trkpt><trkpt lat="29.51630448" lon="35.13473198"><ele>536.1</ele><time>2015-11-27T14:35:17.0000000+00:00</time></trkpt><trkpt lat="29.51768448" lon="35.13420023"><ele>532.3</ele><time>2015-11-27T14:35:42.0000000+00:00</time></trkpt><trkpt lat="29.5196238" lon="35.13457054"><ele>525.1</ele><time>2015-11-27T14:36:17.0000000+00:00</time></trkpt><trkpt lat="29.52119683" lon="35.13542231"><ele>523.6</ele><time>2015-11-27T14:36:47.0000000+00:00</time></trkpt><trkpt lat="29.52180418" lon="35.13547353"><ele>522.2</ele><time>2015-11-27T14:36:58.0000000+00:00</time></trkpt><trkpt lat="29.52342826" lon="35.13353286"><ele>522.9</ele><time>2015-11-27T14:37:50.0000000+00:00</time></trkpt><trkpt lat="29.52518955" lon="35.13103615"><ele>525.6</ele><time>2015-11-27T14:38:49.0000000+00:00</time></trkpt><trkpt lat="29.52537621" lon="35.13048395"><ele>529.4</ele><time>2015-11-27T14:39:16.0000000+00:00</time></trkpt><trkpt lat="29.52502375" lon="35.12898853"><ele>538.0</ele><time>2015-11-27T14:40:02.0000000+00:00</time></trkpt><trkpt lat="29.52537932" lon="35.1284717"><ele>533.9</ele><time>2015-11-27T14:40:18.0000000+00:00</time></trkpt><trkpt lat="29.52610125" lon="35.12798362"><ele>527.0</ele><time>2015-11-27T14:40:29.0000000+00:00</time></trkpt><trkpt lat="29.53001836" lon="35.12640229"><ele>513.0</ele><time>2015-11-27T14:41:18.0000000+00:00</time></trkpt><trkpt lat="29.53165971" lon="35.12656817"><ele>517.2</ele><time>2015-11-27T14:41:43.0000000+00:00</time></trkpt><trkpt lat="29.53215944" lon="35.12640917"><ele>519.9</ele><time>2015-11-27T14:42:08.0000000+00:00</time></trkpt><trkpt lat="29.53234057" lon="35.1259169"><ele>522.6</ele><time>2015-11-27T14:42:23.0000000+00:00</time></trkpt><trkpt lat="29.53220721" lon="35.12407254"><ele>532.0</ele><time>2015-11-27T14:43:36.0000000+00:00</time></trkpt><trkpt lat="29.53232741" lon="35.12378463"><ele>532.3</ele><time>2015-11-27T14:44:18.0000000+00:00</time></trkpt><trkpt lat="29.53432943" lon="35.12735632"><ele>519.1</ele><time>2015-11-27T14:45:45.0000000+00:00</time></trkpt><trkpt lat="29.53535143" lon="35.12851847"><ele>506.8</ele><time>2015-11-27T14:45:58.0000000+00:00</time></trkpt><trkpt lat="29.53696109" lon="35.12936848"><ele>495.4</ele><time>2015-11-27T14:46:14.0000000+00:00</time></trkpt><trkpt lat="29.54261092" lon="35.1302376"><ele>470.9</ele><time>2015-11-27T14:47:09.0000000+00:00</time></trkpt><trkpt lat="29.54360534" lon="35.13058671"><ele>460.0</ele><time>2015-11-27T14:47:19.0000000+00:00</time></trkpt><trkpt lat="29.54745188" lon="35.13399638"><ele>445.5</ele><time>2015-11-27T14:48:13.0000000+00:00</time></trkpt><trkpt lat="29.54794055" lon="35.13432235"><ele>449.3</ele><time>2015-11-27T14:48:26.0000000+00:00</time></trkpt><trkpt lat="29.5500429" lon="35.13496575"><ele>463.3</ele><time>2015-11-27T14:49:45.0000000+00:00</time></trkpt><trkpt lat="29.55067137" lon="35.13532072"><ele>466.8</ele><time>2015-11-27T14:50:12.0000000+00:00</time></trkpt><trkpt lat="29.55096155" lon="35.13578609"><ele>468.1</ele><time>2015-11-27T14:50:28.0000000+00:00</time></trkpt><trkpt lat="29.55096365" lon="35.13616512"><ele>467.2</ele><time>2015-11-27T14:50:38.0000000+00:00</time></trkpt><trkpt lat="29.55079693" lon="35.13646494"><ele>466.3</ele><time>2015-11-27T14:50:44.0000000+00:00</time></trkpt><trkpt lat="29.55045093" lon="35.13666661"><ele>464.5</ele><time>2015-11-27T14:50:50.0000000+00:00</time></trkpt><trkpt lat="29.55001834" lon="35.13656242"><ele>462.4</ele><time>2015-11-27T14:50:57.0000000+00:00</time></trkpt><trkpt lat="29.54926036" lon="35.1359357"><ele>460.1</ele><time>2015-11-27T14:51:22.0000000+00:00</time></trkpt><trkpt lat="29.54848923" lon="35.1347293"><ele>459.5</ele><time>2015-11-27T14:58:42.0000000+00:00</time></trkpt><trkpt lat="29.54813811" lon="35.13287505"><ele>463.1</ele><time>2015-11-27T14:59:18.0000000+00:00</time></trkpt><trkpt lat="29.54833215" lon="35.13170284"><ele>464.3</ele><time>2015-11-27T14:59:35.0000000+00:00</time></trkpt><trkpt lat="29.54883289" lon="35.13088292"><ele>461.7</ele><time>2015-11-27T14:59:47.0000000+00:00</time></trkpt><trkpt lat="29.54932432" lon="35.13047749"><ele>457.9</ele><time>2015-11-27T14:59:54.0000000+00:00</time></trkpt><trkpt lat="29.55369288" lon="35.12837104"><ele>434.2</ele><time>2015-11-27T15:00:43.0000000+00:00</time></trkpt><trkpt lat="29.56034929" lon="35.12435979"><ele>409.0</ele><time>2015-11-27T15:02:21.0000000+00:00</time></trkpt><trkpt lat="29.56100768" lon="35.12387331"><ele>406.1</ele><time>2015-11-27T15:02:36.0000000+00:00</time></trkpt><trkpt lat="29.56165711" lon="35.12302472"><ele>396.4</ele><time>2015-11-27T15:02:51.0000000+00:00</time></trkpt><trkpt lat="29.56209683" lon="35.12181253"><ele>394.3</ele><time>2015-11-27T15:03:07.0000000+00:00</time></trkpt><trkpt lat="29.56214637" lon="35.12053262"><ele>391.2</ele><time>2015-11-27T15:03:24.0000000+00:00</time></trkpt><trkpt lat="29.56143365" lon="35.11699537"><ele>380.7</ele><time>2015-11-27T15:04:11.0000000+00:00</time></trkpt><trkpt lat="29.56038491" lon="35.11485874"><ele>374.2</ele><time>2015-11-27T15:04:41.0000000+00:00</time></trkpt><trkpt lat="29.56005902" lon="35.11383983"><ele>372.4</ele><time>2015-11-27T15:04:55.0000000+00:00</time></trkpt><trkpt lat="29.56014527" lon="35.1126869"><ele>370.4</ele><time>2015-11-27T15:05:10.0000000+00:00</time></trkpt><trkpt lat="29.56032565" lon="35.11219229"><ele>369.5</ele><time>2015-11-27T15:05:17.0000000+00:00</time></trkpt><trkpt lat="29.56089562" lon="35.11140891"><ele>372.8</ele><time>2015-11-27T15:05:32.0000000+00:00</time></trkpt><trkpt lat="29.56228056" lon="35.11023453"><ele>370.6</ele><time>2015-11-27T15:06:06.0000000+00:00</time></trkpt><trkpt lat="29.5629237" lon="35.1093535"><ele>365.0</ele><time>2015-11-27T15:06:21.0000000+00:00</time></trkpt><trkpt lat="29.56315773" lon="35.10867859"><ele>360.7</ele><time>2015-11-27T15:06:29.0000000+00:00</time></trkpt><trkpt lat="29.56314339" lon="35.10738057"><ele>352.2</ele><time>2015-11-27T15:06:42.0000000+00:00</time></trkpt><trkpt lat="29.56263126" lon="35.10630341"><ele>345.3</ele><time>2015-11-27T15:06:53.0000000+00:00</time></trkpt><trkpt lat="29.56056981" lon="35.10392161"><ele>333.7</ele><time>2015-11-27T15:07:18.0000000+00:00</time></trkpt><trkpt lat="29.56010529" lon="35.10310111"><ele>331.1</ele><time>2015-11-27T15:07:26.0000000+00:00</time></trkpt><trkpt lat="29.55874943" lon="35.09774784"><ele>318.2</ele><time>2015-11-27T15:08:34.0000000+00:00</time></trkpt><trkpt lat="29.55876611" lon="35.09605545"><ele>311.3</ele><time>2015-11-27T15:08:50.0000000+00:00</time></trkpt><trkpt lat="29.56021677" lon="35.09227663"><ele>299.5</ele><time>2015-11-27T15:09:34.0000000+00:00</time></trkpt><trkpt lat="29.56170573" lon="35.08908883"><ele>290.2</ele><time>2015-11-27T15:10:11.0000000+00:00</time></trkpt><trkpt lat="29.56375192" lon="35.08219614"><ele>270.1</ele><time>2015-11-27T15:11:34.0000000+00:00</time></trkpt><trkpt lat="29.56435433" lon="35.08142408"><ele>269.3</ele><time>2015-11-27T15:11:46.0000000+00:00</time></trkpt><trkpt lat="29.56507676" lon="35.08097179"><ele>279.9</ele><time>2015-11-27T15:11:57.0000000+00:00</time></trkpt><trkpt lat="29.56777146" lon="35.08011198"><ele>255.0</ele><time>2015-11-27T15:12:48.0000000+00:00</time></trkpt><trkpt lat="29.56847236" lon="35.07972767"><ele>251.8</ele><time>2015-11-27T15:13:04.0000000+00:00</time></trkpt><trkpt lat="29.56918792" lon="35.07894983"><ele>250.6</ele><time>2015-11-27T15:13:20.0000000+00:00</time></trkpt><trkpt lat="29.57085676" lon="35.07652771"><ele>244.8</ele><time>2015-11-27T15:14:39.0000000+00:00</time></trkpt><trkpt lat="29.57144667" lon="35.07528735"><ele>236.2</ele><time>2015-11-27T15:15:04.0000000+00:00</time></trkpt><trkpt lat="29.57210792" lon="35.07300404"><ele>225.9</ele><time>2015-11-27T15:15:26.0000000+00:00</time></trkpt><trkpt lat="29.57226601" lon="35.07169956"><ele>222.0</ele><time>2015-11-27T15:15:39.0000000+00:00</time></trkpt><trkpt lat="29.57231261" lon="35.06544054"><ele>206.7</ele><time>2015-11-27T15:16:47.0000000+00:00</time></trkpt><trkpt lat="29.57206677" lon="35.0640344"><ele>204.2</ele><time>2015-11-27T15:17:06.0000000+00:00</time></trkpt><trkpt lat="29.57082608" lon="35.06033479"><ele>197.2</ele><time>2015-11-27T15:20:31.0000000+00:00</time></trkpt><trkpt lat="29.56665985" lon="35.04924595"><ele>164.3</ele><time>2015-11-27T15:22:44.0000000+00:00</time></trkpt><trkpt lat="29.56432365" lon="35.04381398"><ele>133.8</ele><time>2015-11-27T15:23:35.0000000+00:00</time></trkpt><trkpt lat="29.5629698" lon="35.04151315"><ele>134.4</ele><time>2015-11-27T15:24:02.0000000+00:00</time></trkpt><trkpt lat="29.56098547" lon="35.03903386"><ele>127.4</ele><time>2015-11-27T15:24:57.0000000+00:00</time></trkpt><trkpt lat="29.54410985" lon="35.01991508"><ele>76.1</ele><time>2015-11-27T15:31:41.0000000+00:00</time></trkpt><trkpt lat="29.53989283" lon="35.01503614"><ele>46.2</ele><time>2015-11-27T15:32:32.0000000+00:00</time></trkpt><trkpt lat="29.53924147" lon="35.01406535"><ele>40.5</ele><time>2015-11-27T15:32:53.0000000+00:00</time></trkpt><trkpt lat="29.53831066" lon="35.01325775"><ele>36.3</ele><time>2015-11-27T15:33:11.0000000+00:00</time></trkpt><trkpt lat="29.53309905" lon="35.00729017"><ele>15.6</ele><time>2015-11-27T15:35:20.0000000+00:00</time></trkpt><trkpt lat="29.53264559" lon="35.00662163"><ele>13.5</ele><time>2015-11-27T15:35:35.0000000+00:00</time></trkpt><trkpt lat="29.5324057" lon="35.00588913"><ele>13.8</ele><time>2015-11-27T15:36:16.0000000+00:00</time></trkpt><trkpt lat="29.53206623" lon="35.00572912"><ele>14.8</ele><time>2015-11-27T15:36:25.0000000+00:00</time></trkpt><trkpt lat="29.53168351" lon="35.0059085"><ele>20.2</ele><time>2015-11-27T15:36:37.0000000+00:00</time></trkpt><trkpt lat="29.53147715" lon="35.00633053"><ele>24.9</ele><time>2015-11-27T15:37:01.0000000+00:00</time></trkpt><trkpt lat="29.53102394" lon="35.00657964"><ele>30.0</ele><time>2015-11-27T15:38:15.0000000+00:00</time></trkpt><trkpt lat="29.53077994" lon="35.00648266"><ele>26.6</ele><time>2015-11-27T15:38:45.0000000+00:00</time></trkpt><trkpt lat="29.52949567" lon="35.00503762"><ele>24.3</ele><time>2015-11-27T15:44:56.0000000+00:00</time></trkpt><trkpt lat="29.52966473" lon="35.00474693"><ele>25.8</ele><time>2015-11-27T15:45:51.0000000+00:00</time></trkpt><trkpt lat="29.52979105" lon="35.00473981"><ele>23.6</ele><time>2015-11-27T15:46:27.0000000+00:00</time></trkpt><trkpt lat="29.53015088" lon="35.00526485"><ele>24.7</ele><time>2015-11-27T15:49:12.0000000+00:00</time></trkpt><trkpt lat="29.52981812" lon="35.00573851"><ele>25.2</ele><time>2015-11-27T15:51:24.0000000+00:00</time></trkpt><trkpt lat="29.52993262" lon="35.00568068"><ele>25.8</ele><time>2015-11-27T15:52:21.0000000+00:00</time></trkpt><trkpt lat="29.52966808" lon="35.00587589"><ele>24.2</ele><time>2015-11-27T15:53:58.0000000+00:00</time></trkpt><trkpt lat="29.52924186" lon="35.00539033"><ele>23.7</ele><time>2015-11-27T15:55:17.0000000+00:00</time></trkpt><trkpt lat="29.52932803" lon="35.00533274"><ele>22.2</ele><time>2015-11-27T15:59:51.0000000+00:00</time></trkpt><trkpt lat="29.52920079" lon="35.00537516"><ele>24.0</ele><time>2015-11-27T16:06:05.0000000+00:00</time></trkpt><trkpt lat="29.5294986" lon="35.00506846"><ele>24.4</ele><time>2015-11-27T16:07:27.0000000+00:00</time></trkpt><trkpt lat="29.53009799" lon="35.0056391"><ele>25.5</ele><time>2015-11-27T16:08:46.0000000+00:00</time></trkpt><trkpt lat="29.53031215" lon="35.00540474"><ele>26.7</ele><time>2015-11-27T16:09:56.0000000+00:00</time></trkpt><trkpt lat="29.5305714" lon="35.00571496"><ele>30.0</ele><time>2015-11-27T16:10:33.0000000+00:00</time></trkpt><trkpt lat="29.53066913" lon="35.00565033"><ele>30.1</ele><time>2015-11-27T16:12:41.0000000+00:00</time></trkpt><trkpt lat="29.53073468" lon="35.00614151"><ele>28.8</ele><time>2015-11-27T16:13:31.0000000+00:00</time></trkpt><trkpt lat="29.53040192" lon="35.00638107"><ele>24.7</ele><time>2015-11-27T16:14:49.0000000+00:00</time></trkpt></trkseg></trk></gpx>